<?xml version='1.0' encoding='UTF-8'?><gpx version="1.1" creator="JPX - https://github.com/jenetics/jpx" xmlns="http://www.topografix.com/GPX/1/1"><trk><trkseg><trkpt lat="8.5704919" lon="-71.2022006"><ele>1343.0</ele><time>2026-04-29T18:39:39.997Z</time></trkpt><trkpt lat="8.5703669" lon="-71.2021227"><ele>1343.0</ele><time>2026-04-29T18:39:44.023Z</time></trkpt><trkpt lat="8.5703922" lon="-71.2020573"><ele>1343.0</ele><time>2026-04-29T18:40:37.078Z</time></trkpt><trkpt lat="8.5704287" lon="-71.2020015"><ele>1343.0</ele><time>2026-04-29T18:40:48.107Z</time></trkpt><trkpt lat="8.5704593" lon="-71.2019438"><ele>1343.0</ele><time>2026-04-29T18:41:00.093Z</time></trkpt><trkpt lat="8.570515" lon="-71.2019033"><ele>1343.0</ele><time>2026-04-29T18:41:04.069Z</time></trkpt><trkpt lat="8.5705383" lon="-71.2018417"><ele>1343.0</ele><time>2026-04-29T18:41:07.084Z</time></trkpt><trkpt lat="8.5705667" lon="-71.2017667"><ele>1343.0</ele><time>2026-04-29T18:41:10.075Z</time></trkpt><trkpt lat="8.5706033" lon="-71.201695"><ele>1343.0</ele><time>2026-04-29T18:41:13.07Z</time></trkpt><trkpt lat="8.5706467" lon="-71.201625"><ele>1343.0</ele><time>2026-04-29T18:41:16.08Z</time></trkpt><trkpt lat="8.5706833" lon="-71.2015483"><ele>1343.0</ele><time>2026-04-29T18:41:19.08Z</time></trkpt><trkpt lat="8.5707133" lon="-71.20147"><ele>1343.0</ele><time>2026-04-29T18:41:22.078Z</time></trkpt><trkpt lat="8.5707433" lon="-71.2014033"><ele>1342.4285714285713</ele><time>2026-04-29T18:41:25.075Z</time></trkpt><trkpt lat="8.5707717" lon="-71.2013283"><ele>1341.857142857143</ele><time>2026-04-29T18:41:28.076Z</time></trkpt><trkpt lat="8.5708017" lon="-71.20127"><ele>1341.2857142857142</ele><time>2026-04-29T18:41:31.074Z</time></trkpt><trkpt lat="8.570855" lon="-71.2012233"><ele>1340.7142857142858</ele><time>2026-04-29T18:41:35.071Z</time></trkpt><trkpt lat="8.5709133" lon="-71.2011833"><ele>1340.142857142857</ele><time>2026-04-29T18:41:38.078Z</time></trkpt><trkpt lat="8.5709867" lon="-71.201175"><ele>1339.5714285714287</ele><time>2026-04-29T18:41:42.096Z</time></trkpt><trkpt lat="8.5710567" lon="-71.2011983"><ele>1339.0</ele><time>2026-04-29T18:41:46.07Z</time></trkpt><trkpt lat="8.57112" lon="-71.2012183"><ele>1339.0</ele><time>2026-04-29T18:41:50.081Z</time></trkpt><trkpt lat="8.5711867" lon="-71.2012367"><ele>1339.0</ele><time>2026-04-29T18:41:54.086Z</time></trkpt><trkpt lat="8.5712483" lon="-71.2012583"><ele>1339.0</ele><time>2026-04-29T18:41:58.073Z</time></trkpt><trkpt lat="8.5713117" lon="-71.2012833"><ele>1339.0</ele><time>2026-04-29T18:42:02.07Z</time></trkpt><trkpt lat="8.571385" lon="-71.2013133"><ele>1339.0</ele><time>2026-04-29T18:42:06.086Z</time></trkpt><trkpt lat="8.571445" lon="-71.20134"><ele>1339.0</ele><time>2026-04-29T18:42:10.094Z</time></trkpt><trkpt lat="8.5715183" lon="-71.2013717"><ele>1339.0</ele><time>2026-04-29T18:42:15.08Z</time></trkpt><trkpt lat="8.5715867" lon="-71.201405"><ele>1340.0</ele><time>2026-04-29T18:42:19.083Z</time></trkpt><trkpt lat="8.5716517" lon="-71.2014317"><ele>1341.0</ele><time>2026-04-29T18:42:23.069Z</time></trkpt><trkpt lat="8.571725" lon="-71.20145"><ele>1342.0</ele><time>2026-04-29T18:42:27.073Z</time></trkpt><trkpt lat="8.5717933" lon="-71.2014733"><ele>1343.0</ele><time>2026-04-29T18:42:31.087Z</time></trkpt><trkpt lat="8.571865" lon="-71.2015"><ele>1344.0</ele><time>2026-04-29T18:42:35.082Z</time></trkpt><trkpt lat="8.5719317" lon="-71.2015367"><ele>1345.0</ele><time>2026-04-29T18:42:39.078Z</time></trkpt><trkpt lat="8.5720033" lon="-71.20156"><ele>1346.0</ele><time>2026-04-29T18:42:43.061Z</time></trkpt><trkpt lat="8.572065" lon="-71.201585"><ele>1347.857142857143</ele><time>2026-04-29T18:42:47.079Z</time></trkpt><trkpt lat="8.5721183" lon="-71.2016267"><ele>1349.7142857142856</ele><time>2026-04-29T18:42:52.071Z</time></trkpt><trkpt lat="8.5721817" lon="-71.20164"><ele>1351.5714285714284</ele><time>2026-04-29T18:42:57.072Z</time></trkpt><trkpt lat="8.57224" lon="-71.201685"><ele>1353.4285714285716</ele><time>2026-04-29T18:43:01.076Z</time></trkpt><trkpt lat="8.5723067" lon="-71.2017067"><ele>1355.2857142857142</ele><time>2026-04-29T18:43:05.07Z</time></trkpt><trkpt lat="8.5723767" lon="-71.2017367"><ele>1357.142857142857</ele><time>2026-04-29T18:43:09.093Z</time></trkpt><trkpt lat="8.572445" lon="-71.2017717"><ele>1359.0</ele><time>2026-04-29T18:43:13.081Z</time></trkpt><trkpt lat="8.572505" lon="-71.2018"><ele>1359.0</ele><time>2026-04-29T18:43:17.081Z</time></trkpt><trkpt lat="8.5725683" lon="-71.2018233"><ele>1359.0</ele><time>2026-04-29T18:43:21.063Z</time></trkpt><trkpt lat="8.5726317" lon="-71.2018517"><ele>1359.0</ele><time>2026-04-29T18:43:25.101Z</time></trkpt><trkpt lat="8.5726983" lon="-71.2018783"><ele>1359.0</ele><time>2026-04-29T18:43:29.08Z</time></trkpt><trkpt lat="8.57277" lon="-71.2019167"><ele>1359.0</ele><time>2026-04-29T18:43:34.068Z</time></trkpt><trkpt lat="8.572835" lon="-71.2019417"><ele>1359.0</ele><time>2026-04-29T18:43:38.098Z</time></trkpt><trkpt lat="8.5729033" lon="-71.2019667"><ele>1359.0</ele><time>2026-04-29T18:43:42.089Z</time></trkpt><trkpt lat="8.57297" lon="-71.20199"><ele>1360.2857142857142</ele><time>2026-04-29T18:43:47.095Z</time></trkpt><trkpt lat="8.5730317" lon="-71.2020167"><ele>1361.5714285714284</ele><time>2026-04-29T18:43:51.078Z</time></trkpt><trkpt lat="8.5731033" lon="-71.202045"><ele>1362.8571428571427</ele><time>2026-04-29T18:43:55.075Z</time></trkpt><trkpt lat="8.57316" lon="-71.2020767"><ele>1364.142857142857</ele><time>2026-04-29T18:43:59.085Z</time></trkpt><trkpt lat="8.5732283" lon="-71.20211"><ele>1365.4285714285713</ele><time>2026-04-29T18:44:03.083Z</time></trkpt><trkpt lat="8.5732917" lon="-71.2021417"><ele>1366.7142857142856</ele><time>2026-04-29T18:44:07.08Z</time></trkpt><trkpt lat="8.5733517" lon="-71.2021633"><ele>1368.0</ele><time>2026-04-29T18:44:11.093Z</time></trkpt><trkpt lat="8.573405" lon="-71.2022017"><ele>1367.9999999999998</ele><time>2026-04-29T18:44:15.066Z</time></trkpt><trkpt lat="8.5734633" lon="-71.20224"><ele>1368.0</ele><time>2026-04-29T18:44:22.068Z</time></trkpt><trkpt lat="8.5735333" lon="-71.2022633"><ele>1368.0</ele><time>2026-04-29T18:44:27.08Z</time></trkpt><trkpt lat="8.5736033" lon="-71.2022783"><ele>1368.0</ele><time>2026-04-29T18:44:31.072Z</time></trkpt><trkpt lat="8.5736667" lon="-71.2023033"><ele>1368.0</ele><time>2026-04-29T18:44:35.088Z</time></trkpt><trkpt lat="8.5737233" lon="-71.2023433"><ele>1367.9999999999998</ele><time>2026-04-29T18:44:39.095Z</time></trkpt><trkpt lat="8.5737917" lon="-71.2023633"><ele>1368.0</ele><time>2026-04-29T18:44:44.067Z</time></trkpt><trkpt lat="8.5738583" lon="-71.20237"><ele>1369.2857142857142</ele><time>2026-04-29T18:44:48.092Z</time></trkpt><trkpt lat="8.5739183" lon="-71.2023933"><ele>1370.5714285714284</ele><time>2026-04-29T18:44:52.081Z</time></trkpt><trkpt lat="8.5739783" lon="-71.2024267"><ele>1371.8571428571427</ele><time>2026-04-29T18:44:57.088Z</time></trkpt><trkpt lat="8.5740417" lon="-71.2024467"><ele>1373.142857142857</ele><time>2026-04-29T18:45:02.077Z</time></trkpt><trkpt lat="8.5741133" lon="-71.2024633"><ele>1374.4285714285716</ele><time>2026-04-29T18:45:07.089Z</time></trkpt><trkpt lat="8.5741883" lon="-71.2024867"><ele>1375.7142857142856</ele><time>2026-04-29T18:45:11.059Z</time></trkpt><trkpt lat="8.5742567" lon="-71.202515"><ele>1377.0</ele><time>2026-04-29T18:45:15.087Z</time></trkpt><trkpt lat="8.574325" lon="-71.20254"><ele>1377.0</ele><time>2026-04-29T18:45:20.094Z</time></trkpt><trkpt lat="8.5743933" lon="-71.202565"><ele>1377.0</ele><time>2026-04-29T18:45:24.089Z</time></trkpt><trkpt lat="8.5744617" lon="-71.202605"><ele>1377.0</ele><time>2026-04-29T18:45:29.075Z</time></trkpt><trkpt lat="8.57453" lon="-71.2026217"><ele>1377.0</ele><time>2026-04-29T18:45:33.085Z</time></trkpt><trkpt lat="8.5746033" lon="-71.2026417"><ele>1377.0</ele><time>2026-04-29T18:45:37.088Z</time></trkpt><trkpt lat="8.57467" lon="-71.202665"><ele>1377.0</ele><time>2026-04-29T18:45:41.078Z</time></trkpt><trkpt lat="8.5747367" lon="-71.202685"><ele>1377.0</ele><time>2026-04-29T18:45:45.098Z</time></trkpt><trkpt lat="8.574815" lon="-71.2027017"><ele>1378.2857142857142</ele><time>2026-04-29T18:45:50.083Z</time></trkpt><trkpt lat="8.5748783" lon="-71.202725"><ele>1379.5714285714287</ele><time>2026-04-29T18:45:54.08Z</time></trkpt><trkpt lat="8.5749333" lon="-71.2027583"><ele>1380.857142857143</ele><time>2026-04-29T18:45:58.088Z</time></trkpt><trkpt lat="8.5750017" lon="-71.2027733"><ele>1382.142857142857</ele><time>2026-04-29T18:46:03.077Z</time></trkpt><trkpt lat="8.57507" lon="-71.2027967"><ele>1383.4285714285716</ele><time>2026-04-29T18:46:08.089Z</time></trkpt><trkpt lat="8.5751417" lon="-71.2028267"><ele>1384.7142857142858</ele><time>2026-04-29T18:46:13.091Z</time></trkpt><trkpt lat="8.5752067" lon="-71.2028483"><ele>1386.0</ele><time>2026-04-29T18:46:18.063Z</time></trkpt><trkpt lat="8.57527" lon="-71.2028667"><ele>1386.0</ele><time>2026-04-29T18:46:23.08Z</time></trkpt><trkpt lat="8.575345" lon="-71.2028867"><ele>1386.0</ele><time>2026-04-29T18:46:28.089Z</time></trkpt><trkpt lat="8.575415" lon="-71.2029183"><ele>1386.0</ele><time>2026-04-29T18:46:33.089Z</time></trkpt><trkpt lat="8.5754733" lon="-71.202945"><ele>1386.0</ele><time>2026-04-29T18:46:37.087Z</time></trkpt><trkpt lat="8.5755517" lon="-71.2029667"><ele>1386.0</ele><time>2026-04-29T18:46:42.064Z</time></trkpt><trkpt lat="8.5756167" lon="-71.2029933"><ele>1386.0</ele><time>2026-04-29T18:46:46.071Z</time></trkpt><trkpt lat="8.5756767" lon="-71.203015"><ele>1386.0</ele><time>2026-04-29T18:46:50.095Z</time></trkpt><trkpt lat="8.57574" lon="-71.2030467"><ele>1387.857142857143</ele><time>2026-04-29T18:46:55.082Z</time></trkpt><trkpt lat="8.5758033" lon="-71.2030667"><ele>1389.7142857142858</ele><time>2026-04-29T18:47:00.092Z</time></trkpt><trkpt lat="8.5758683" lon="-71.2030867"><ele>1391.5714285714284</ele><time>2026-04-29T18:47:04.086Z</time></trkpt><trkpt lat="8.5759333" lon="-71.203115"><ele>1393.4285714285716</ele><time>2026-04-29T18:47:08.096Z</time></trkpt><trkpt lat="8.5759983" lon="-71.20316"><ele>1395.2857142857142</ele><time>2026-04-29T18:47:13.072Z</time></trkpt><trkpt lat="8.57605" lon="-71.2032217"><ele>1397.142857142857</ele><time>2026-04-29T18:47:18.087Z</time></trkpt><trkpt lat="8.57611" lon="-71.203265"><ele>1399.0</ele><time>2026-04-29T18:47:24.082Z</time></trkpt><trkpt lat="8.576155" lon="-71.203325"><ele>1399.0</ele><time>2026-04-29T18:47:29.095Z</time></trkpt><trkpt lat="8.5761767" lon="-71.203385"><ele>1399.0</ele><time>2026-04-29T18:47:33.07Z</time></trkpt><trkpt lat="8.5762133" lon="-71.203455"><ele>1399.0</ele><time>2026-04-29T18:47:38.104Z</time></trkpt><trkpt lat="8.576265" lon="-71.2034967"><ele>1399.0</ele><time>2026-04-29T18:47:42.093Z</time></trkpt><trkpt lat="8.5763133" lon="-71.2035417"><ele>1399.0</ele><time>2026-04-29T18:47:47.071Z</time></trkpt><trkpt lat="8.5763567" lon="-71.2036017"><ele>1399.0</ele><time>2026-04-29T18:47:52.078Z</time></trkpt><trkpt lat="8.5763883" lon="-71.2036667"><ele>1399.0</ele><time>2026-04-29T18:47:56.105Z</time></trkpt><trkpt lat="8.5764367" lon="-71.203725"><ele>1400.5714285714284</ele><time>2026-04-29T18:48:01.07Z</time></trkpt><trkpt lat="8.576485" lon="-71.2037833"><ele>1402.142857142857</ele><time>2026-04-29T18:48:06.091Z</time></trkpt><trkpt lat="8.5765233" lon="-71.2038367"><ele>1403.7142857142858</ele><time>2026-04-29T18:48:10.057Z</time></trkpt><trkpt lat="8.5765667" lon="-71.203885"><ele>1405.2857142857142</ele><time>2026-04-29T18:48:14.107Z</time></trkpt><trkpt lat="8.5766233" lon="-71.2039317"><ele>1406.857142857143</ele><time>2026-04-29T18:48:19.078Z</time></trkpt><trkpt lat="8.5766883" lon="-71.203955"><ele>1408.4285714285713</ele><time>2026-04-29T18:48:23.076Z</time></trkpt><trkpt lat="8.576755" lon="-71.2039767"><ele>1410.0</ele><time>2026-04-29T18:48:27.04Z</time></trkpt><trkpt lat="8.57681" lon="-71.2040083"><ele>1409.9999999999998</ele><time>2026-04-29T18:48:31.065Z</time></trkpt><trkpt lat="8.5768633" lon="-71.2040433"><ele>1410.0</ele><time>2026-04-29T18:48:35.088Z</time></trkpt><trkpt lat="8.5769283" lon="-71.2040883"><ele>1410.0</ele><time>2026-04-29T18:48:40.094Z</time></trkpt><trkpt lat="8.57698" lon="-71.20413"><ele>1410.0</ele><time>2026-04-29T18:48:44.107Z</time></trkpt><trkpt lat="8.5770317" lon="-71.2041717"><ele>1410.0</ele><time>2026-04-29T18:48:48.095Z</time></trkpt><trkpt lat="8.5770883" lon="-71.2042083"><ele>1409.9999999999998</ele><time>2026-04-29T18:48:52.086Z</time></trkpt><trkpt lat="8.57714" lon="-71.2042517"><ele>1410.0</ele><time>2026-04-29T18:48:56.082Z</time></trkpt><trkpt lat="8.5771867" lon="-71.2043067"><ele>1413.4285714285713</ele><time>2026-04-29T18:49:00.085Z</time></trkpt><trkpt lat="8.5772317" lon="-71.2043717"><ele>1416.857142857143</ele><time>2026-04-29T18:49:05.082Z</time></trkpt><trkpt lat="8.5772817" lon="-71.2044267"><ele>1420.2857142857142</ele><time>2026-04-29T18:49:10.074Z</time></trkpt><trkpt lat="8.5773167" lon="-71.204495"><ele>1423.7142857142858</ele><time>2026-04-29T18:49:16.052Z</time></trkpt><trkpt lat="8.5773567" lon="-71.2045467"><ele>1427.142857142857</ele><time>2026-04-29T18:49:21.075Z</time></trkpt><trkpt lat="8.5774017" lon="-71.2045917"><ele>1430.5714285714284</ele><time>2026-04-29T18:49:26.081Z</time></trkpt><trkpt lat="8.57744" lon="-71.2046533"><ele>1434.0</ele><time>2026-04-29T18:49:32.046Z</time></trkpt><trkpt lat="8.5774783" lon="-71.2047167"><ele>1434.0</ele><time>2026-04-29T18:49:38.102Z</time></trkpt><trkpt lat="8.5775033" lon="-71.2047867"><ele>1434.0</ele><time>2026-04-29T18:49:43.071Z</time></trkpt><trkpt lat="8.5775317" lon="-71.2048467"><ele>1434.0</ele><time>2026-04-29T18:49:48.08Z</time></trkpt><trkpt lat="8.5775733" lon="-71.2049"><ele>1434.0</ele><time>2026-04-29T18:49:54.104Z</time></trkpt><trkpt lat="8.5776067" lon="-71.2049633"><ele>1434.0</ele><time>2026-04-29T18:50:00.081Z</time></trkpt><trkpt lat="8.57765" lon="-71.2050233"><ele>1434.0</ele><time>2026-04-29T18:50:06.081Z</time></trkpt><trkpt lat="8.5776967" lon="-71.2050767"><ele>1434.0</ele><time>2026-04-29T18:50:12.103Z</time></trkpt><trkpt lat="8.5777283" lon="-71.2051467"><ele>1433.142857142857</ele><time>2026-04-29T18:50:18.068Z</time></trkpt><trkpt lat="8.5777567" lon="-71.2052083"><ele>1432.2857142857142</ele><time>2026-04-29T18:50:24.096Z</time></trkpt><trkpt lat="8.57779" lon="-71.2052717"><ele>1431.4285714285716</ele><time>2026-04-29T18:50:30.088Z</time></trkpt><trkpt lat="8.577825" lon="-71.2053317"><ele>1430.5714285714284</ele><time>2026-04-29T18:50:36.083Z</time></trkpt><trkpt lat="8.5778617" lon="-71.2053933"><ele>1429.7142857142858</ele><time>2026-04-29T18:50:42.087Z</time></trkpt><trkpt lat="8.5778983" lon="-71.2054483"><ele>1428.857142857143</ele><time>2026-04-29T18:50:47.087Z</time></trkpt><trkpt lat="8.5779333" lon="-71.2055033"><ele>1428.0</ele><time>2026-04-29T18:50:52.053Z</time></trkpt><trkpt lat="8.5779633" lon="-71.20556"><ele>1430.7142857142858</ele><time>2026-04-29T18:50:57.094Z</time></trkpt><trkpt lat="8.5780033" lon="-71.2056217"><ele>1433.4285714285716</ele><time>2026-04-29T18:51:03.09Z</time></trkpt><trkpt lat="8.57805" lon="-71.2056717"><ele>1436.142857142857</ele><time>2026-04-29T18:51:09.096Z</time></trkpt><trkpt lat="8.5781033" lon="-71.20572"><ele>1438.857142857143</ele><time>2026-04-29T18:51:15.091Z</time></trkpt><trkpt lat="8.5781517" lon="-71.2057683"><ele>1441.5714285714287</ele><time>2026-04-29T18:51:20.082Z</time></trkpt><trkpt lat="8.57821" lon="-71.2058067"><ele>1444.2857142857142</ele><time>2026-04-29T18:51:26.098Z</time></trkpt><trkpt lat="8.578265" lon="-71.2058433"><ele>1447.0</ele><time>2026-04-29T18:51:32.067Z</time></trkpt><trkpt lat="8.578325" lon="-71.2058833"><ele>1447.0</ele><time>2026-04-29T18:51:38.11Z</time></trkpt><trkpt lat="8.578385" lon="-71.2059067"><ele>1447.0</ele><time>2026-04-29T18:51:43.084Z</time></trkpt><trkpt lat="8.57845" lon="-71.205935"><ele>1447.0</ele><time>2026-04-29T18:51:48.097Z</time></trkpt><trkpt lat="8.578515" lon="-71.2059617"><ele>1447.0</ele><time>2026-04-29T18:51:54.068Z</time></trkpt><trkpt lat="8.5785817" lon="-71.205985"><ele>1447.0</ele><time>2026-04-29T18:52:00.077Z</time></trkpt><trkpt lat="8.57865" lon="-71.2060117"><ele>1447.0</ele><time>2026-04-29T18:52:06.094Z</time></trkpt><trkpt lat="8.5787133" lon="-71.2060283"><ele>1447.0</ele><time>2026-04-29T18:52:11.076Z</time></trkpt><trkpt lat="8.5787783" lon="-71.2060567"><ele>1450.4285714285713</ele><time>2026-04-29T18:52:17.096Z</time></trkpt><trkpt lat="8.5788433" lon="-71.2060833"><ele>1453.857142857143</ele><time>2026-04-29T18:52:23.062Z</time></trkpt><trkpt lat="8.5789067" lon="-71.206105"><ele>1457.2857142857142</ele><time>2026-04-29T18:52:28.066Z</time></trkpt><trkpt lat="8.5789783" lon="-71.20613"><ele>1460.7142857142858</ele><time>2026-04-29T18:52:34.083Z</time></trkpt><trkpt lat="8.57904" lon="-71.2061667"><ele>1464.1428571428573</ele><time>2026-04-29T18:52:40.077Z</time></trkpt><trkpt lat="8.579105" lon="-71.2061983"><ele>1467.5714285714287</ele><time>2026-04-29T18:52:46.085Z</time></trkpt><trkpt lat="8.579165" lon="-71.206225"><ele>1471.0</ele><time>2026-04-29T18:52:52.063Z</time></trkpt><trkpt lat="8.5792233" lon="-71.2062633"><ele>1471.0</ele><time>2026-04-29T18:52:58.08Z</time></trkpt><trkpt lat="8.57928" lon="-71.2063133"><ele>1471.0</ele><time>2026-04-29T18:53:04.088Z</time></trkpt><trkpt lat="8.5793433" lon="-71.2063467"><ele>1471.0</ele><time>2026-04-29T18:53:10.107Z</time></trkpt><trkpt lat="8.5793933" lon="-71.2063933"><ele>1471.0</ele><time>2026-04-29T18:53:16.055Z</time></trkpt><trkpt lat="8.5794267" lon="-71.20645"><ele>1471.0</ele><time>2026-04-29T18:53:21.076Z</time></trkpt><trkpt lat="8.57946" lon="-71.2065067"><ele>1471.0</ele><time>2026-04-29T18:53:26.087Z</time></trkpt><trkpt lat="8.5795" lon="-71.2065667"><ele>1471.0</ele><time>2026-04-29T18:53:32.123Z</time></trkpt><trkpt lat="8.5795367" lon="-71.2066233"><ele>1471.142857142857</ele><time>2026-04-29T18:53:37.082Z</time></trkpt><trkpt lat="8.57958" lon="-71.2066733"><ele>1471.2857142857142</ele><time>2026-04-29T18:53:43.081Z</time></trkpt><trkpt lat="8.5796367" lon="-71.20671"><ele>1471.4285714285716</ele><time>2026-04-29T18:53:49.058Z</time></trkpt><trkpt lat="8.5796883" lon="-71.2067567"><ele>1471.5714285714284</ele><time>2026-04-29T18:53:55.066Z</time></trkpt><trkpt lat="8.5797367" lon="-71.206805"><ele>1471.7142857142856</ele><time>2026-04-29T18:54:01.104Z</time></trkpt><trkpt lat="8.57977" lon="-71.2068633"><ele>1471.857142857143</ele><time>2026-04-29T18:54:06.086Z</time></trkpt><trkpt lat="8.57982" lon="-71.2069133"><ele>1472.0</ele><time>2026-04-29T18:54:12.077Z</time></trkpt><trkpt lat="8.5798633" lon="-71.206965"><ele>1472.0</ele><time>2026-04-29T18:54:17.088Z</time></trkpt><trkpt lat="8.5799083" lon="-71.2070183"><ele>1472.0</ele><time>2026-04-29T18:54:22.074Z</time></trkpt><trkpt lat="8.5799617" lon="-71.20706"><ele>1472.0</ele><time>2026-04-29T18:54:28.1Z</time></trkpt><trkpt lat="8.5800117" lon="-71.2071067"><ele>1472.0</ele><time>2026-04-29T18:54:34.087Z</time></trkpt><trkpt lat="8.5800633" lon="-71.2071467"><ele>1472.0</ele><time>2026-04-29T18:54:40.104Z</time></trkpt><trkpt lat="8.5801117" lon="-71.2071917"><ele>1472.0</ele><time>2026-04-29T18:54:46.073Z</time></trkpt><trkpt lat="8.580145" lon="-71.20725"><ele>1472.0</ele><time>2026-04-29T18:54:51.07Z</time></trkpt><trkpt lat="8.5801717" lon="-71.207315"><ele>1471.2857142857144</ele><time>2026-04-29T18:54:56.134Z</time></trkpt><trkpt lat="8.5802017" lon="-71.2073817"><ele>1470.5714285714284</ele><time>2026-04-29T18:55:01.09Z</time></trkpt><trkpt lat="8.5802217" lon="-71.2074517"><ele>1469.857142857143</ele><time>2026-04-29T18:55:06.082Z</time></trkpt><trkpt lat="8.580225" lon="-71.2075317"><ele>1469.1428571428573</ele><time>2026-04-29T18:55:11.056Z</time></trkpt><trkpt lat="8.5802283" lon="-71.2075967"><ele>1468.4285714285716</ele><time>2026-04-29T18:55:15.083Z</time></trkpt><trkpt lat="8.58022" lon="-71.2076683"><ele>1467.7142857142858</ele><time>2026-04-29T18:55:19.084Z</time></trkpt><trkpt lat="8.5802067" lon="-71.207735"><ele>1467.0</ele><time>2026-04-29T18:55:23.093Z</time></trkpt><trkpt lat="8.5801867" lon="-71.2078017"><ele>1467.0000000000002</ele><time>2026-04-29T18:55:28.094Z</time></trkpt><trkpt lat="8.5801533" lon="-71.2078683"><ele>1467.0</ele><time>2026-04-29T18:55:33.084Z</time></trkpt><trkpt lat="8.5801083" lon="-71.2079233"><ele>1467.0</ele><time>2026-04-29T18:55:38.108Z</time></trkpt><trkpt lat="8.5800667" lon="-71.20798"><ele>1467.0</ele><time>2026-04-29T18:55:43.082Z</time></trkpt><trkpt lat="8.5800133" lon="-71.20803"><ele>1467.0</ele><time>2026-04-29T18:55:48.081Z</time></trkpt><trkpt lat="8.5799633" lon="-71.20807"><ele>1467.0000000000002</ele><time>2026-04-29T18:55:53.086Z</time></trkpt><trkpt lat="8.5799" lon="-71.208105"><ele>1467.0</ele><time>2026-04-29T18:55:58.08Z</time></trkpt><trkpt lat="8.5798483" lon="-71.208155"><ele>1467.4285714285716</ele><time>2026-04-29T18:56:03.082Z</time></trkpt><trkpt lat="8.5797933" lon="-71.2081967"><ele>1467.857142857143</ele><time>2026-04-29T18:56:08.11Z</time></trkpt><trkpt lat="8.5797433" lon="-71.2082433"><ele>1468.2857142857142</ele><time>2026-04-29T18:56:13.109Z</time></trkpt><trkpt lat="8.5796867" lon="-71.20829"><ele>1468.7142857142858</ele><time>2026-04-29T18:56:19.101Z</time></trkpt><trkpt lat="8.579645" lon="-71.20834"><ele>1469.142857142857</ele><time>2026-04-29T18:56:24.087Z</time></trkpt><trkpt lat="8.5795917" lon="-71.2083833"><ele>1469.5714285714287</ele><time>2026-04-29T18:56:29.082Z</time></trkpt><trkpt lat="8.5795517" lon="-71.2084333"><ele>1470.0</ele><time>2026-04-29T18:56:34.091Z</time></trkpt><trkpt lat="8.579515" lon="-71.20849"><ele>1470.0</ele><time>2026-04-29T18:56:39.083Z</time></trkpt><trkpt lat="8.5794983" lon="-71.2085517"><ele>1470.0</ele><time>2026-04-29T18:56:43.092Z</time></trkpt><trkpt lat="8.5794767" lon="-71.20863"><ele>1470.0</ele><time>2026-04-29T18:56:48.09Z</time></trkpt><trkpt lat="8.579465" lon="-71.208705"><ele>1470.0</ele><time>2026-04-29T18:56:53.08Z</time></trkpt><trkpt lat="8.57945" lon="-71.20878"><ele>1470.0</ele><time>2026-04-29T18:56:58.078Z</time></trkpt><trkpt lat="8.579435" lon="-71.2088467"><ele>1470.0</ele><time>2026-04-29T18:57:02.093Z</time></trkpt><trkpt lat="8.5794417" lon="-71.20892"><ele>1470.0</ele><time>2026-04-29T18:57:06.092Z</time></trkpt><trkpt lat="8.57944" lon="-71.20899"><ele>1472.142857142857</ele><time>2026-04-29T18:57:10.094Z</time></trkpt><trkpt lat="8.5794317" lon="-71.2090667"><ele>1474.2857142857142</ele><time>2026-04-29T18:57:14.105Z</time></trkpt><trkpt lat="8.579425" lon="-71.2091417"><ele>1476.4285714285716</ele><time>2026-04-29T18:57:18.093Z</time></trkpt><trkpt lat="8.5793883" lon="-71.2091967"><ele>1478.5714285714284</ele><time>2026-04-29T18:57:22.077Z</time></trkpt><trkpt lat="8.5793483" lon="-71.20925"><ele>1480.7142857142858</ele><time>2026-04-29T18:57:26.147Z</time></trkpt><trkpt lat="8.579305" lon="-71.209305"><ele>1482.857142857143</ele><time>2026-04-29T18:57:30.085Z</time></trkpt><trkpt lat="8.579245" lon="-71.2093483"><ele>1485.0</ele><time>2026-04-29T18:57:34.097Z</time></trkpt><trkpt lat="8.5791733" lon="-71.20936"><ele>1485.0</ele><time>2026-04-29T18:57:38.124Z</time></trkpt><trkpt lat="8.5790933" lon="-71.20936"><ele>1485.0</ele><time>2026-04-29T18:57:42.09Z</time></trkpt><trkpt lat="8.5790233" lon="-71.209365"><ele>1485.0</ele><time>2026-04-29T18:57:46.075Z</time></trkpt><trkpt lat="8.5789467" lon="-71.2093717"><ele>1485.0</ele><time>2026-04-29T18:57:50.116Z</time></trkpt><trkpt lat="8.5788667" lon="-71.2093783"><ele>1485.0</ele><time>2026-04-29T18:57:54.091Z</time></trkpt><trkpt lat="8.5787933" lon="-71.20939"><ele>1485.0</ele><time>2026-04-29T18:57:58.089Z</time></trkpt><trkpt lat="8.578715" lon="-71.2093817"><ele>1484.0</ele><time>2026-04-29T18:58:02.059Z</time></trkpt><trkpt lat="8.5786383" lon="-71.209385"><ele>1483.0</ele><time>2026-04-29T18:58:06.09Z</time></trkpt><trkpt lat="8.578565" lon="-71.2094083"><ele>1482.0</ele><time>2026-04-29T18:58:10.071Z</time></trkpt><trkpt lat="8.5785033" lon="-71.209425"><ele>1481.0</ele><time>2026-04-29T18:58:13.09Z</time></trkpt><trkpt lat="8.5784283" lon="-71.2094283"><ele>1480.0</ele><time>2026-04-29T18:58:17.072Z</time></trkpt><trkpt lat="8.5783517" lon="-71.20943"><ele>1479.0</ele><time>2026-04-29T18:58:21.072Z</time></trkpt><trkpt lat="8.5782817" lon="-71.209435"><ele>1478.0</ele><time>2026-04-29T18:58:25.084Z</time></trkpt><trkpt lat="8.5782067" lon="-71.2094467"><ele>1478.0</ele><time>2026-04-29T18:58:29.083Z</time></trkpt><trkpt lat="8.5781317" lon="-71.2094667"><ele>1478.0</ele><time>2026-04-29T18:58:33.064Z</time></trkpt><trkpt lat="8.5780533" lon="-71.2094767"><ele>1478.0</ele><time>2026-04-29T18:58:37.105Z</time></trkpt><trkpt lat="8.5779883" lon="-71.2094883"><ele>1478.0</ele><time>2026-04-29T18:58:41.076Z</time></trkpt><trkpt lat="8.5779133" lon="-71.2094833"><ele>1478.0</ele><time>2026-04-29T18:58:45.072Z</time></trkpt><trkpt lat="8.57784" lon="-71.2094867"><ele>1478.0</ele><time>2026-04-29T18:58:49.101Z</time></trkpt><trkpt lat="8.577765" lon="-71.20947"><ele>1478.0</ele><time>2026-04-29T18:58:53.1Z</time></trkpt><trkpt lat="8.577685" lon="-71.2094517"><ele>1479.6666666666667</ele><time>2026-04-29T18:58:57.091Z</time></trkpt><trkpt lat="8.5776083" lon="-71.2094233"><ele>1481.3333333333335</ele><time>2026-04-29T18:59:01.08Z</time></trkpt><trkpt lat="8.5775383" lon="-71.2094"><ele>1483.0</ele><time>2026-04-29T18:59:05.089Z</time></trkpt><trkpt lat="8.5774683" lon="-71.2093717"><ele>1484.6666666666667</ele><time>2026-04-29T18:59:09.063Z</time></trkpt><trkpt lat="8.5774033" lon="-71.20933"><ele>1486.3333333333333</ele><time>2026-04-29T18:59:13.066Z</time></trkpt><trkpt lat="8.5773417" lon="-71.2093"><ele>1488.0</ele><time>2026-04-29T18:59:17.07Z</time></trkpt><trkpt lat="8.5772717" lon="-71.2092583"><ele>1488.0000000000002</ele><time>2026-04-29T18:59:21.073Z</time></trkpt><trkpt lat="8.5772067" lon="-71.2092133"><ele>1488.0</ele><time>2026-04-29T18:59:25.096Z</time></trkpt><trkpt lat="8.5771467" lon="-71.20917"><ele>1488.0</ele><time>2026-04-29T18:59:29.094Z</time></trkpt><trkpt lat="8.5770867" lon="-71.2091317"><ele>1488.0</ele><time>2026-04-29T18:59:33.073Z</time></trkpt><trkpt lat="8.5770283" lon="-71.209095"><ele>1488.0</ele><time>2026-04-29T18:59:37.08Z</time></trkpt><trkpt lat="8.5769683" lon="-71.209055"><ele>1488.0000000000002</ele><time>2026-04-29T18:59:41.074Z</time></trkpt><trkpt lat="8.5769067" lon="-71.2090183"><ele>1488.0</ele><time>2026-04-29T18:59:45.1Z</time></trkpt><trkpt lat="8.576845" lon="-71.2089733"><ele>1486.7142857142858</ele><time>2026-04-29T18:59:49.095Z</time></trkpt><trkpt lat="8.5767833" lon="-71.2089317"><ele>1485.4285714285716</ele><time>2026-04-29T18:59:53.105Z</time></trkpt><trkpt lat="8.5767217" lon="-71.208895"><ele>1484.1428571428573</ele><time>2026-04-29T18:59:57.079Z</time></trkpt><trkpt lat="8.57666" lon="-71.2088683"><ele>1482.857142857143</ele><time>2026-04-29T19:00:01.079Z</time></trkpt><trkpt lat="8.5765917" lon="-71.2088433"><ele>1481.5714285714284</ele><time>2026-04-29T19:00:05.095Z</time></trkpt><trkpt lat="8.5765233" lon="-71.2088283"><ele>1480.2857142857144</ele><time>2026-04-29T19:00:09.046Z</time></trkpt><trkpt lat="8.5764533" lon="-71.20881"><ele>1479.0</ele><time>2026-04-29T19:00:13.097Z</time></trkpt><trkpt lat="8.57638" lon="-71.2088067"><ele>1479.0</ele><time>2026-04-29T19:00:17.079Z</time></trkpt><trkpt lat="8.5763133" lon="-71.2088033"><ele>1479.0</ele><time>2026-04-29T19:00:21.099Z</time></trkpt><trkpt lat="8.57625" lon="-71.2088017"><ele>1479.0</ele><time>2026-04-29T19:00:25.087Z</time></trkpt><trkpt lat="8.5761783" lon="-71.2088"><ele>1479.0</ele><time>2026-04-29T19:00:29.084Z</time></trkpt><trkpt lat="8.576105" lon="-71.2088017"><ele>1479.0</ele><time>2026-04-29T19:00:33.08Z</time></trkpt><trkpt lat="8.57604" lon="-71.2088017"><ele>1479.0</ele><time>2026-04-29T19:00:37.075Z</time></trkpt><trkpt lat="8.5759717" lon="-71.2087917"><ele>1479.0</ele><time>2026-04-29T19:00:41.086Z</time></trkpt><trkpt lat="8.5759033" lon="-71.2087833"><ele>1480.2857142857144</ele><time>2026-04-29T19:00:45.076Z</time></trkpt><trkpt lat="8.5758383" lon="-71.2087767"><ele>1481.5714285714284</ele><time>2026-04-29T19:00:49.089Z</time></trkpt><trkpt lat="8.5757683" lon="-71.2087717"><ele>1482.857142857143</ele><time>2026-04-29T19:00:53.092Z</time></trkpt><trkpt lat="8.5756983" lon="-71.2087667"><ele>1484.1428571428573</ele><time>2026-04-29T19:00:57.08Z</time></trkpt><trkpt lat="8.5756283" lon="-71.2087617"><ele>1485.4285714285716</ele><time>2026-04-29T19:01:01.085Z</time></trkpt><trkpt lat="8.5755617" lon="-71.20877"><ele>1486.7142857142858</ele><time>2026-04-29T19:01:05.102Z</time></trkpt><trkpt lat="8.5754983" lon="-71.2087783"><ele>1488.0</ele><time>2026-04-29T19:01:09.091Z</time></trkpt><trkpt lat="8.57543" lon="-71.208775"><ele>1488.0000000000002</ele><time>2026-04-29T19:01:13.087Z</time></trkpt><trkpt lat="8.575365" lon="-71.2087717"><ele>1488.0</ele><time>2026-04-29T19:01:17.087Z</time></trkpt><trkpt lat="8.5752967" lon="-71.20877"><ele>1488.0</ele><time>2026-04-29T19:01:21.091Z</time></trkpt><trkpt lat="8.5752317" lon="-71.2087783"><ele>1488.0</ele><time>2026-04-29T19:01:25.087Z</time></trkpt><trkpt lat="8.5751667" lon="-71.208775"><ele>1488.0</ele><time>2026-04-29T19:01:29.079Z</time></trkpt><trkpt lat="8.575095" lon="-71.2087583"><ele>1488.0000000000002</ele><time>2026-04-29T19:01:33.098Z</time></trkpt><trkpt lat="8.5750267" lon="-71.2087483"><ele>1488.0</ele><time>2026-04-29T19:01:37.084Z</time></trkpt><trkpt lat="8.5749617" lon="-71.208725"><ele>1489.857142857143</ele><time>2026-04-29T19:01:41.083Z</time></trkpt><trkpt lat="8.574895" lon="-71.2086983"><ele>1491.7142857142858</ele><time>2026-04-29T19:01:45.086Z</time></trkpt><trkpt lat="8.574815" lon="-71.208685"><ele>1493.5714285714284</ele><time>2026-04-29T19:01:50.075Z</time></trkpt><trkpt lat="8.5747567" lon="-71.2086483"><ele>1495.4285714285716</ele><time>2026-04-29T19:01:54.101Z</time></trkpt><trkpt lat="8.5746983" lon="-71.20862"><ele>1497.2857142857142</ele><time>2026-04-29T19:01:58.075Z</time></trkpt><trkpt lat="8.57464" lon="-71.2085783"><ele>1499.142857142857</ele><time>2026-04-29T19:02:02.149Z</time></trkpt><trkpt lat="8.5745717" lon="-71.208545"><ele>1501.0</ele><time>2026-04-29T19:02:07.09Z</time></trkpt><trkpt lat="8.5745117" lon="-71.2085117"><ele>1504.142857142857</ele><time>2026-04-29T19:02:11.076Z</time></trkpt><trkpt lat="8.5744567" lon="-71.20847"><ele>1507.2857142857142</ele><time>2026-04-29T19:02:15.09Z</time></trkpt><trkpt lat="8.5744017" lon="-71.2084233"><ele>1510.4285714285716</ele><time>2026-04-29T19:02:20.13Z</time></trkpt><trkpt lat="8.5743617" lon="-71.2083683"><ele>1513.5714285714284</ele><time>2026-04-29T19:02:24.078Z</time></trkpt><trkpt lat="8.574315" lon="-71.2083067"><ele>1516.7142857142858</ele><time>2026-04-29T19:02:28.078Z</time></trkpt><trkpt lat="8.57427" lon="-71.2082517"><ele>1519.857142857143</ele><time>2026-04-29T19:02:32.069Z</time></trkpt><trkpt lat="8.5742317" lon="-71.2081933"><ele>1523.0</ele><time>2026-04-29T19:02:37.077Z</time></trkpt><trkpt lat="8.5741917" lon="-71.2081417"><ele>1523.0000000000002</ele><time>2026-04-29T19:02:41.058Z</time></trkpt><trkpt lat="8.5741583" lon="-71.20808"><ele>1523.0</ele><time>2026-04-29T19:02:45.087Z</time></trkpt><trkpt lat="8.5741267" lon="-71.2080233"><ele>1523.0</ele><time>2026-04-29T19:02:50.106Z</time></trkpt><trkpt lat="8.5740833" lon="-71.2079617"><ele>1523.0</ele><time>2026-04-29T19:02:54.069Z</time></trkpt><trkpt lat="8.5740367" lon="-71.2079"><ele>1523.0</ele><time>2026-04-29T19:02:58.085Z</time></trkpt><trkpt lat="8.5739933" lon="-71.2078367"><ele>1523.0000000000002</ele><time>2026-04-29T19:03:02.134Z</time></trkpt><trkpt lat="8.5739467" lon="-71.2077833"><ele>1523.0</ele><time>2026-04-29T19:03:06.066Z</time></trkpt><trkpt lat="8.5739017" lon="-71.2077367"><ele>1523.0000000000002</ele><time>2026-04-29T19:03:10.091Z</time></trkpt><trkpt lat="8.57386" lon="-71.2076733"><ele>1523.0</ele><time>2026-04-29T19:03:14.114Z</time></trkpt><trkpt lat="8.5738167" lon="-71.2076117"><ele>1523.0</ele><time>2026-04-29T19:03:18.075Z</time></trkpt><trkpt lat="8.5737767" lon="-71.2075517"><ele>1523.0</ele><time>2026-04-29T19:03:22.097Z</time></trkpt><trkpt lat="8.5737383" lon="-71.2074933"><ele>1523.0</ele><time>2026-04-29T19:03:26.121Z</time></trkpt><trkpt lat="8.5736967" lon="-71.20744"><ele>1523.0000000000002</ele><time>2026-04-29T19:03:30.095Z</time></trkpt><trkpt lat="8.5736667" lon="-71.2073783"><ele>1523.0</ele><time>2026-04-29T19:03:34.087Z</time></trkpt><trkpt lat="8.5736367" lon="-71.2073117"><ele>1525.5714285714287</ele><time>2026-04-29T19:03:38.152Z</time></trkpt><trkpt lat="8.5736017" lon="-71.2072483"><ele>1528.142857142857</ele><time>2026-04-29T19:03:42.056Z</time></trkpt><trkpt lat="8.57357" lon="-71.20719"><ele>1530.7142857142858</ele><time>2026-04-29T19:03:46.075Z</time></trkpt><trkpt lat="8.5735283" lon="-71.20713"><ele>1533.2857142857142</ele><time>2026-04-29T19:03:50.124Z</time></trkpt><trkpt lat="8.5734783" lon="-71.2070783"><ele>1535.857142857143</ele><time>2026-04-29T19:03:54.081Z</time></trkpt><trkpt lat="8.5734467" lon="-71.2070083"><ele>1538.4285714285716</ele><time>2026-04-29T19:03:58.077Z</time></trkpt><trkpt lat="8.573415" lon="-71.20694"><ele>1541.0</ele><time>2026-04-29T19:04:02.129Z</time></trkpt><trkpt lat="8.57339" lon="-71.2068717"><ele>1540.9999999999998</ele><time>2026-04-29T19:04:06.107Z</time></trkpt><trkpt lat="8.5733533" lon="-71.206805"><ele>1541.0</ele><time>2026-04-29T19:04:10.07Z</time></trkpt><trkpt lat="8.5733083" lon="-71.20674"><ele>1541.0</ele><time>2026-04-29T19:04:14.088Z</time></trkpt><trkpt lat="8.5732633" lon="-71.2066767"><ele>1541.0</ele><time>2026-04-29T19:04:18.072Z</time></trkpt><trkpt lat="8.5732267" lon="-71.20661"><ele>1540.9999999999998</ele><time>2026-04-29T19:04:22.087Z</time></trkpt><trkpt lat="8.5731883" lon="-71.20655"><ele>1541.0</ele><time>2026-04-29T19:04:26.144Z</time></trkpt><trkpt lat="8.573145" lon="-71.2064867"><ele>1538.3333333333333</ele><time>2026-04-29T19:04:30.08Z</time></trkpt><trkpt lat="8.57311" lon="-71.2064267"><ele>1535.6666666666665</ele><time>2026-04-29T19:04:34.096Z</time></trkpt><trkpt lat="8.5730733" lon="-71.2063733"><ele>1533.0</ele><time>2026-04-29T19:04:38.122Z</time></trkpt><trkpt lat="8.5730133" lon="-71.2063183"><ele>1530.3333333333333</ele><time>2026-04-29T19:04:42.043Z</time></trkpt><trkpt lat="8.5729483" lon="-71.2062767"><ele>1527.6666666666665</ele><time>2026-04-29T19:04:46.078Z</time></trkpt><trkpt lat="8.5728883" lon="-71.2062217"><ele>1525.0</ele><time>2026-04-29T19:04:50.113Z</time></trkpt><trkpt lat="8.57282" lon="-71.2061817"><ele>1525.0</ele><time>2026-04-29T19:04:54.093Z</time></trkpt><trkpt lat="8.5727433" lon="-71.206155"><ele>1525.0</ele><time>2026-04-29T19:04:58.072Z</time></trkpt><trkpt lat="8.57268" lon="-71.2061433"><ele>1525.0</ele><time>2026-04-29T19:05:01.088Z</time></trkpt><trkpt lat="8.5726133" lon="-71.2061433"><ele>1525.0</ele><time>2026-04-29T19:05:04.093Z</time></trkpt><trkpt lat="8.57255" lon="-71.2061433"><ele>1525.0</ele><time>2026-04-29T19:05:07.086Z</time></trkpt><trkpt lat="8.5724667" lon="-71.2061533"><ele>1525.0</ele><time>2026-04-29T19:05:11.067Z</time></trkpt><trkpt lat="8.5724033" lon="-71.2061517"><ele>1525.0</ele><time>2026-04-29T19:05:14.13Z</time></trkpt><trkpt lat="8.572325" lon="-71.206165"><ele>1525.0</ele><time>2026-04-29T19:05:18.087Z</time></trkpt><trkpt lat="8.572245" lon="-71.206175"><ele>1525.0</ele><time>2026-04-29T19:05:22.095Z</time></trkpt><trkpt lat="8.57218" lon="-71.2061817"><ele>1525.0</ele><time>2026-04-29T19:05:25.079Z</time></trkpt><trkpt lat="8.5721167" lon="-71.2061867"><ele>1525.0</ele><time>2026-04-29T19:05:28.083Z</time></trkpt><trkpt lat="8.5720533" lon="-71.2061983"><ele>1525.0</ele><time>2026-04-29T19:05:31.09Z</time></trkpt><trkpt lat="8.57198" lon="-71.2062017"><ele>1525.0</ele><time>2026-04-29T19:05:34.076Z</time></trkpt><trkpt lat="8.571895" lon="-71.2062083"><ele>1525.0</ele><time>2026-04-29T19:05:38.126Z</time></trkpt><trkpt lat="8.5718267" lon="-71.206215"><ele>1524.857142857143</ele><time>2026-04-29T19:05:41.079Z</time></trkpt><trkpt lat="8.5717467" lon="-71.206235"><ele>1524.7142857142858</ele><time>2026-04-29T19:05:45.074Z</time></trkpt><trkpt lat="8.571665" lon="-71.2062417"><ele>1524.5714285714284</ele><time>2026-04-29T19:05:49.082Z</time></trkpt><trkpt lat="8.5716033" lon="-71.206255"><ele>1524.4285714285716</ele><time>2026-04-29T19:05:52.097Z</time></trkpt><trkpt lat="8.57154" lon="-71.2062667"><ele>1524.2857142857144</ele><time>2026-04-29T19:05:55.085Z</time></trkpt><trkpt lat="8.5714767" lon="-71.2062767"><ele>1524.142857142857</ele><time>2026-04-29T19:05:58.084Z</time></trkpt><trkpt lat="8.571395" lon="-71.2062933"><ele>1524.0</ele><time>2026-04-29T19:06:02.12Z</time></trkpt><trkpt lat="8.5713183" lon="-71.20632"><ele>1524.0</ele><time>2026-04-29T19:06:06.098Z</time></trkpt><trkpt lat="8.57124" lon="-71.206345"><ele>1524.0</ele><time>2026-04-29T19:06:10.087Z</time></trkpt><trkpt lat="8.5711633" lon="-71.2063683"><ele>1524.0</ele><time>2026-04-29T19:06:14.144Z</time></trkpt><trkpt lat="8.5711017" lon="-71.206385"><ele>1524.0</ele><time>2026-04-29T19:06:17.049Z</time></trkpt><trkpt lat="8.5710417" lon="-71.2064083"><ele>1524.0</ele><time>2026-04-29T19:06:20.12Z</time></trkpt><trkpt lat="8.5709833" lon="-71.206435"><ele>1524.0</ele><time>2026-04-29T19:06:23.07Z</time></trkpt><trkpt lat="8.5709133" lon="-71.2064733"><ele>1524.0</ele><time>2026-04-29T19:06:27.069Z</time></trkpt><trkpt lat="8.5708483" lon="-71.2065283"><ele>1527.5</ele><time>2026-04-29T19:06:31.079Z</time></trkpt><trkpt lat="8.5708033" lon="-71.2065733"><ele>1531.0</ele><time>2026-04-29T19:06:34.088Z</time></trkpt><trkpt lat="8.570745" lon="-71.2066317"><ele>1534.5</ele><time>2026-04-29T19:06:38.127Z</time></trkpt><trkpt lat="8.5707033" lon="-71.206695"><ele>1538.0</ele><time>2026-04-29T19:06:42.083Z</time></trkpt><trkpt lat="8.5706683" lon="-71.2067583"><ele>1541.5</ele><time>2026-04-29T19:06:46.073Z</time></trkpt><trkpt lat="8.5706283" lon="-71.206825"><ele>1545.0</ele><time>2026-04-29T19:06:50.127Z</time></trkpt><trkpt lat="8.5706033" lon="-71.2069033"><ele>1545.0</ele><time>2026-04-29T19:06:54.081Z</time></trkpt><trkpt lat="8.5705817" lon="-71.2069683"><ele>1545.0</ele><time>2026-04-29T19:06:57.091Z</time></trkpt><trkpt lat="8.5705667" lon="-71.20704"><ele>1545.0</ele><time>2026-04-29T19:07:01.093Z</time></trkpt><trkpt lat="8.570555" lon="-71.2071183"><ele>1545.0</ele><time>2026-04-29T19:07:05.061Z</time></trkpt><trkpt lat="8.5705433" lon="-71.2071817"><ele>1545.0</ele><time>2026-04-29T19:07:08.117Z</time></trkpt><trkpt lat="8.5705267" lon="-71.2072633"><ele>1545.0</ele><time>2026-04-29T19:07:12.078Z</time></trkpt><trkpt lat="8.5705167" lon="-71.2073417"><ele>1545.0</ele><time>2026-04-29T19:07:16.084Z</time></trkpt><trkpt lat="8.570495" lon="-71.2074067"><ele>1548.5</ele><time>2026-04-29T19:07:19.091Z</time></trkpt><trkpt lat="8.5704867" lon="-71.2074917"><ele>1552.0</ele><time>2026-04-29T19:07:23.078Z</time></trkpt><trkpt lat="8.5704783" lon="-71.2075733"><ele>1555.5</ele><time>2026-04-29T19:07:27.075Z</time></trkpt><trkpt lat="8.5704667" lon="-71.2076517"><ele>1559.0</ele><time>2026-04-29T19:07:31.085Z</time></trkpt><trkpt lat="8.57045" lon="-71.20773"><ele>1562.5</ele><time>2026-04-29T19:07:35.092Z</time></trkpt><trkpt lat="8.57043" lon="-71.207805"><ele>1566.0</ele><time>2026-04-29T19:07:39.096Z</time></trkpt><trkpt lat="8.5704167" lon="-71.20787"><ele>1566.0</ele><time>2026-04-29T19:07:42.078Z</time></trkpt><trkpt lat="8.570405" lon="-71.2079333"><ele>1566.0</ele><time>2026-04-29T19:07:45.089Z</time></trkpt><trkpt lat="8.5703917" lon="-71.2080133"><ele>1566.0</ele><time>2026-04-29T19:07:49.082Z</time></trkpt><trkpt lat="8.5703717" lon="-71.2080933"><ele>1566.0</ele><time>2026-04-29T19:07:53.114Z</time></trkpt><trkpt lat="8.5703633" lon="-71.2081567"><ele>1566.0</ele><time>2026-04-29T19:07:56.147Z</time></trkpt><trkpt lat="8.57036" lon="-71.2082333"><ele>1566.0</ele><time>2026-04-29T19:08:00.094Z</time></trkpt><trkpt lat="8.570355" lon="-71.208315"><ele>1566.0</ele><time>2026-04-29T19:08:04.092Z</time></trkpt><trkpt lat="8.5703417" lon="-71.2083933"><ele>1561.0</ele><time>2026-04-29T19:08:08.123Z</time></trkpt><trkpt lat="8.5703367" lon="-71.2084733"><ele>1556.0</ele><time>2026-04-29T19:08:13.099Z</time></trkpt><trkpt lat="8.5703283" lon="-71.208545"><ele>1551.0</ele><time>2026-04-29T19:08:17.091Z</time></trkpt><trkpt lat="8.57031" lon="-71.2086283"><ele>1546.0</ele><time>2026-04-29T19:08:21.056Z</time></trkpt><trkpt lat="8.5703" lon="-71.2086933"><ele>1541.0</ele><time>2026-04-29T19:08:24.104Z</time></trkpt><trkpt lat="8.5702867" lon="-71.20877"><ele>1536.0</ele><time>2026-04-29T19:08:28.075Z</time></trkpt><trkpt lat="8.5702783" lon="-71.2088467"><ele>1536.0</ele><time>2026-04-29T19:08:32.143Z</time></trkpt><trkpt lat="8.5702617" lon="-71.208925"><ele>1536.0</ele><time>2026-04-29T19:08:36.105Z</time></trkpt><trkpt lat="8.5702533" lon="-71.2090067"><ele>1536.0</ele><time>2026-04-29T19:08:40.087Z</time></trkpt><trkpt lat="8.570245" lon="-71.2090883"><ele>1536.0</ele><time>2026-04-29T19:08:44.121Z</time></trkpt><trkpt lat="8.5702383" lon="-71.209165"><ele>1536.0</ele><time>2026-04-29T19:08:48.109Z</time></trkpt><trkpt lat="8.57022" lon="-71.2092483"><ele>1536.0</ele><time>2026-04-29T19:08:52.097Z</time></trkpt><trkpt lat="8.5702033" lon="-71.209325"><ele>1536.8571428571427</ele><time>2026-04-29T19:08:56.099Z</time></trkpt><trkpt lat="8.57019" lon="-71.2093983"><ele>1537.7142857142858</ele><time>2026-04-29T19:09:00.088Z</time></trkpt><trkpt lat="8.57018" lon="-71.2094717"><ele>1538.5714285714284</ele><time>2026-04-29T19:09:04.094Z</time></trkpt><trkpt lat="8.570175" lon="-71.2095433"><ele>1539.4285714285713</ele><time>2026-04-29T19:09:08.138Z</time></trkpt><trkpt lat="8.5701683" lon="-71.2096133"><ele>1540.2857142857142</ele><time>2026-04-29T19:09:12.073Z</time></trkpt><trkpt lat="8.5701517" lon="-71.2096883"><ele>1541.142857142857</ele><time>2026-04-29T19:09:16.071Z</time></trkpt><trkpt lat="8.5701367" lon="-71.2097617"><ele>1542.0</ele><time>2026-04-29T19:09:20.143Z</time></trkpt><trkpt lat="8.57013" lon="-71.209835"><ele>1544.142857142857</ele><time>2026-04-29T19:09:24.104Z</time></trkpt><trkpt lat="8.5701117" lon="-71.20991"><ele>1546.2857142857142</ele><time>2026-04-29T19:09:28.091Z</time></trkpt><trkpt lat="8.570105" lon="-71.20998"><ele>1548.4285714285713</ele><time>2026-04-29T19:09:32.089Z</time></trkpt><trkpt lat="8.5700917" lon="-71.210045"><ele>1550.5714285714284</ele><time>2026-04-29T19:09:36.08Z</time></trkpt><trkpt lat="8.57008" lon="-71.21011"><ele>1552.7142857142858</ele><time>2026-04-29T19:09:40.101Z</time></trkpt><trkpt lat="8.5700733" lon="-71.21018"><ele>1554.8571428571427</ele><time>2026-04-29T19:09:44.137Z</time></trkpt><trkpt lat="8.57006" lon="-71.2102483"><ele>1557.0</ele><time>2026-04-29T19:09:48.074Z</time></trkpt><trkpt lat="8.5700533" lon="-71.2103133"><ele>1556.9999999999998</ele><time>2026-04-29T19:09:52.079Z</time></trkpt><trkpt lat="8.570035" lon="-71.21039"><ele>1557.0</ele><time>2026-04-29T19:09:57.079Z</time></trkpt><trkpt lat="8.5700267" lon="-71.210455"><ele>1557.0</ele><time>2026-04-29T19:10:01.085Z</time></trkpt><trkpt lat="8.5700133" lon="-71.2105217"><ele>1557.0</ele><time>2026-04-29T19:10:05.08Z</time></trkpt><trkpt lat="8.5699983" lon="-71.2105933"><ele>1557.0</ele><time>2026-04-29T19:10:09.064Z</time></trkpt><trkpt lat="8.570005" lon="-71.2106717"><ele>1556.9999999999998</ele><time>2026-04-29T19:10:14.106Z</time></trkpt><trkpt lat="8.5700017" lon="-71.2107467"><ele>1557.0</ele><time>2026-04-29T19:10:19.093Z</time></trkpt><trkpt lat="8.570005" lon="-71.2108117"><ele>1558.2857142857142</ele><time>2026-04-29T19:10:23.094Z</time></trkpt><trkpt lat="8.5700217" lon="-71.2108867"><ele>1559.5714285714284</ele><time>2026-04-29T19:10:27.088Z</time></trkpt><trkpt lat="8.57004" lon="-71.2109483"><ele>1560.8571428571427</ele><time>2026-04-29T19:10:30.098Z</time></trkpt><trkpt lat="8.570075" lon="-71.2110033"><ele>1562.142857142857</ele><time>2026-04-29T19:10:34.08Z</time></trkpt><trkpt lat="8.5701133" lon="-71.2110567"><ele>1563.4285714285716</ele><time>2026-04-29T19:10:38.121Z</time></trkpt><trkpt lat="8.570165" lon="-71.2111083"><ele>1564.7142857142856</ele><time>2026-04-29T19:10:42.083Z</time></trkpt><trkpt lat="8.57022" lon="-71.211155"><ele>1566.0</ele><time>2026-04-29T19:10:46.088Z</time></trkpt><trkpt lat="8.5702767" lon="-71.21119"><ele>1566.0</ele><time>2026-04-29T19:10:50.131Z</time></trkpt><trkpt lat="8.5703367" lon="-71.21121"><ele>1566.0</ele><time>2026-04-29T19:10:54.077Z</time></trkpt><trkpt lat="8.570405" lon="-71.2112333"><ele>1566.0</ele><time>2026-04-29T19:10:59.079Z</time></trkpt><trkpt lat="8.5704733" lon="-71.2112417"><ele>1566.0</ele><time>2026-04-29T19:11:03.085Z</time></trkpt><trkpt lat="8.5705517" lon="-71.2112567"><ele>1566.0</ele><time>2026-04-29T19:11:07.073Z</time></trkpt><trkpt lat="8.5706167" lon="-71.211265"><ele>1566.0</ele><time>2026-04-29T19:11:11.107Z</time></trkpt><trkpt lat="8.5706917" lon="-71.21127"><ele>1566.0</ele><time>2026-04-29T19:11:16.082Z</time></trkpt><trkpt lat="8.5707567" lon="-71.2112717"><ele>1569.4285714285713</ele><time>2026-04-29T19:11:19.092Z</time></trkpt><trkpt lat="8.5708383" lon="-71.211285"><ele>1572.857142857143</ele><time>2026-04-29T19:11:23.098Z</time></trkpt><trkpt lat="8.5709133" lon="-71.2112883"><ele>1576.2857142857142</ele><time>2026-04-29T19:11:27.073Z</time></trkpt><trkpt lat="8.5709817" lon="-71.211315"><ele>1579.7142857142858</ele><time>2026-04-29T19:11:31.079Z</time></trkpt><trkpt lat="8.5710533" lon="-71.21133"><ele>1583.1428571428573</ele><time>2026-04-29T19:11:35.077Z</time></trkpt><trkpt lat="8.5711283" lon="-71.2113483"><ele>1586.5714285714287</ele><time>2026-04-29T19:11:40.085Z</time></trkpt><trkpt lat="8.5711917" lon="-71.2113717"><ele>1590.0</ele><time>2026-04-29T19:11:44.117Z</time></trkpt><trkpt lat="8.5712567" lon="-71.2114017"><ele>1590.2857142857142</ele><time>2026-04-29T19:11:48.084Z</time></trkpt><trkpt lat="8.57132" lon="-71.211435"><ele>1590.5714285714287</ele><time>2026-04-29T19:11:52.08Z</time></trkpt><trkpt lat="8.5713817" lon="-71.2114767"><ele>1590.8571428571427</ele><time>2026-04-29T19:11:56.126Z</time></trkpt><trkpt lat="8.5714333" lon="-71.2115267"><ele>1591.142857142857</ele><time>2026-04-29T19:12:00.087Z</time></trkpt><trkpt lat="8.5714783" lon="-71.2115833"><ele>1591.4285714285713</ele><time>2026-04-29T19:12:04.085Z</time></trkpt><trkpt lat="8.5715267" lon="-71.211635"><ele>1591.7142857142856</ele><time>2026-04-29T19:12:08.116Z</time></trkpt><trkpt lat="8.571575" lon="-71.211695"><ele>1592.0</ele><time>2026-04-29T19:12:12.082Z</time></trkpt><trkpt lat="8.5716067" lon="-71.2117617"><ele>1591.9999999999998</ele><time>2026-04-29T19:12:16.088Z</time></trkpt><trkpt lat="8.571635" lon="-71.2118233"><ele>1592.0</ele><time>2026-04-29T19:12:20.135Z</time></trkpt><trkpt lat="8.5716817" lon="-71.2118883"><ele>1592.0</ele><time>2026-04-29T19:12:25.071Z</time></trkpt><trkpt lat="8.5717133" lon="-71.211955"><ele>1592.0</ele><time>2026-04-29T19:12:29.086Z</time></trkpt><trkpt lat="8.5717433" lon="-71.21202"><ele>1592.0</ele><time>2026-04-29T19:12:33.09Z</time></trkpt><trkpt lat="8.571775" lon="-71.2120833"><ele>1591.9999999999998</ele><time>2026-04-29T19:12:37.085Z</time></trkpt><trkpt lat="8.5717967" lon="-71.2121433"><ele>1592.0</ele><time>2026-04-29T19:12:41.073Z</time></trkpt><trkpt lat="8.5718367" lon="-71.2122"><ele>1591.9999999999998</ele><time>2026-04-29T19:12:45.098Z</time></trkpt><trkpt lat="8.5718717" lon="-71.2122567"><ele>1592.0</ele><time>2026-04-29T19:12:49.082Z</time></trkpt><trkpt lat="8.5719" lon="-71.2123183"><ele>1592.0</ele><time>2026-04-29T19:12:53.058Z</time></trkpt><trkpt lat="8.5719183" lon="-71.2123833"><ele>1592.0</ele><time>2026-04-29T19:12:57.093Z</time></trkpt><trkpt lat="8.5719417" lon="-71.212445"><ele>1592.0</ele><time>2026-04-29T19:13:01.085Z</time></trkpt><trkpt lat="8.5719567" lon="-71.2125083"><ele>1591.9999999999998</ele><time>2026-04-29T19:13:05.069Z</time></trkpt><trkpt lat="8.5719667" lon="-71.2125717"><ele>1592.0</ele><time>2026-04-29T19:13:09.087Z</time></trkpt><trkpt lat="8.5719633" lon="-71.2126417"><ele>1590.2857142857142</ele><time>2026-04-29T19:13:13.089Z</time></trkpt><trkpt lat="8.571945" lon="-71.2127117"><ele>1588.5714285714284</ele><time>2026-04-29T19:13:17.081Z</time></trkpt><trkpt lat="8.571925" lon="-71.2127817"><ele>1586.8571428571427</ele><time>2026-04-29T19:13:21.093Z</time></trkpt><trkpt lat="8.571885" lon="-71.2128517"><ele>1585.142857142857</ele><time>2026-04-29T19:13:25.093Z</time></trkpt><trkpt lat="8.571855" lon="-71.2129117"><ele>1583.4285714285716</ele><time>2026-04-29T19:13:29.078Z</time></trkpt><trkpt lat="8.5718167" lon="-71.21298"><ele>1581.7142857142856</ele><time>2026-04-29T19:13:33.08Z</time></trkpt><trkpt lat="8.571775" lon="-71.2130483"><ele>1580.0</ele><time>2026-04-29T19:13:37.09Z</time></trkpt><trkpt lat="8.5717317" lon="-71.2131133"><ele>1582.4285714285713</ele><time>2026-04-29T19:13:42.087Z</time></trkpt><trkpt lat="8.5716983" lon="-71.21317"><ele>1584.857142857143</ele><time>2026-04-29T19:13:46.086Z</time></trkpt><trkpt lat="8.5716717" lon="-71.2132333"><ele>1587.2857142857142</ele><time>2026-04-29T19:13:50.144Z</time></trkpt><trkpt lat="8.57164" lon="-71.2133"><ele>1589.7142857142858</ele><time>2026-04-29T19:13:54.085Z</time></trkpt><trkpt lat="8.5716117" lon="-71.2133633"><ele>1592.1428571428573</ele><time>2026-04-29T19:13:58.09Z</time></trkpt><trkpt lat="8.571575" lon="-71.2134217"><ele>1594.5714285714287</ele><time>2026-04-29T19:14:02.088Z</time></trkpt><trkpt lat="8.5715417" lon="-71.21348"><ele>1597.0</ele><time>2026-04-29T19:14:06.097Z</time></trkpt><trkpt lat="8.5715033" lon="-71.21355"><ele>1597.0</ele><time>2026-04-29T19:14:11.059Z</time></trkpt><trkpt lat="8.57147" lon="-71.2136133"><ele>1597.0</ele><time>2026-04-29T19:14:15.08Z</time></trkpt><trkpt lat="8.5714283" lon="-71.2136767"><ele>1597.0</ele><time>2026-04-29T19:14:19.061Z</time></trkpt><trkpt lat="8.5714" lon="-71.2137367"><ele>1597.0</ele><time>2026-04-29T19:14:23.093Z</time></trkpt><trkpt lat="8.57137" lon="-71.2137967"><ele>1597.0</ele><time>2026-04-29T19:14:27.084Z</time></trkpt><trkpt lat="8.5713283" lon="-71.2138517"><ele>1597.0</ele><time>2026-04-29T19:14:31.081Z</time></trkpt><trkpt lat="8.5712917" lon="-71.2139183"><ele>1597.0</ele><time>2026-04-29T19:14:35.078Z</time></trkpt><trkpt lat="8.571255" lon="-71.2139833"><ele>1593.4285714285716</ele><time>2026-04-29T19:14:39.069Z</time></trkpt><trkpt lat="8.5712133" lon="-71.214045"><ele>1589.857142857143</ele><time>2026-04-29T19:14:43.056Z</time></trkpt><trkpt lat="8.5711683" lon="-71.2141017"><ele>1586.2857142857142</ele><time>2026-04-29T19:14:47.108Z</time></trkpt><trkpt lat="8.5711383" lon="-71.2141683"><ele>1582.7142857142858</ele><time>2026-04-29T19:14:51.106Z</time></trkpt><trkpt lat="8.571105" lon="-71.214235"><ele>1579.142857142857</ele><time>2026-04-29T19:14:55.09Z</time></trkpt><trkpt lat="8.571075" lon="-71.2143083"><ele>1575.5714285714287</ele><time>2026-04-29T19:14:59.085Z</time></trkpt><trkpt lat="8.57106" lon="-71.2143817"><ele>1572.0</ele><time>2026-04-29T19:15:03.073Z</time></trkpt><trkpt lat="8.57105" lon="-71.2144533"><ele>1572.0</ele><time>2026-04-29T19:15:07.082Z</time></trkpt><trkpt lat="8.571065" lon="-71.2145317"><ele>1572.0</ele><time>2026-04-29T19:15:11.078Z</time></trkpt><trkpt lat="8.5710717" lon="-71.21461"><ele>1572.0</ele><time>2026-04-29T19:15:15.082Z</time></trkpt><trkpt lat="8.571085" lon="-71.2146883"><ele>1572.0</ele><time>2026-04-29T19:15:19.092Z</time></trkpt><trkpt lat="8.5711117" lon="-71.214765"><ele>1572.0</ele><time>2026-04-29T19:15:23.082Z</time></trkpt><trkpt lat="8.5711467" lon="-71.2148383"><ele>1572.0</ele><time>2026-04-29T19:15:27.072Z</time></trkpt><trkpt lat="8.571195" lon="-71.2148967"><ele>1577.7142857142858</ele><time>2026-04-29T19:15:31.08Z</time></trkpt><trkpt lat="8.5712433" lon="-71.2149483"><ele>1583.4285714285716</ele><time>2026-04-29T19:15:35.077Z</time></trkpt><trkpt lat="8.57131" lon="-71.2149883"><ele>1589.1428571428573</ele><time>2026-04-29T19:15:39.057Z</time></trkpt><trkpt lat="8.5713683" lon="-71.215025"><ele>1594.857142857143</ele><time>2026-04-29T19:15:43.084Z</time></trkpt><trkpt lat="8.5714433" lon="-71.215045"><ele>1600.5714285714284</ele><time>2026-04-29T19:15:47.055Z</time></trkpt><trkpt lat="8.5715133" lon="-71.2150533"><ele>1606.2857142857144</ele><time>2026-04-29T19:15:51.097Z</time></trkpt><trkpt lat="8.5715917" lon="-71.2150433"><ele>1612.0</ele><time>2026-04-29T19:15:55.099Z</time></trkpt><trkpt lat="8.57167" lon="-71.2150383"><ele>1612.0000000000002</ele><time>2026-04-29T19:15:59.085Z</time></trkpt><trkpt lat="8.57174" lon="-71.2150267"><ele>1612.0</ele><time>2026-04-29T19:16:03.095Z</time></trkpt><trkpt lat="8.5718183" lon="-71.2150267"><ele>1612.0</ele><time>2026-04-29T19:16:07.077Z</time></trkpt><trkpt lat="8.5718933" lon="-71.2150367"><ele>1612.0</ele><time>2026-04-29T19:16:11.091Z</time></trkpt><trkpt lat="8.5719667" lon="-71.2150317"><ele>1612.0000000000002</ele><time>2026-04-29T19:16:15.076Z</time></trkpt><trkpt lat="8.57204" lon="-71.2150467"><ele>1612.0</ele><time>2026-04-29T19:16:19.075Z</time></trkpt><trkpt lat="8.57211" lon="-71.2150783"><ele>1613.857142857143</ele><time>2026-04-29T19:16:23.052Z</time></trkpt><trkpt lat="8.5721717" lon="-71.2150983"><ele>1615.7142857142856</ele><time>2026-04-29T19:16:26.053Z</time></trkpt><trkpt lat="8.5722433" lon="-71.2151233"><ele>1617.5714285714284</ele><time>2026-04-29T19:16:30.087Z</time></trkpt><trkpt lat="8.572315" lon="-71.2151333"><ele>1619.4285714285716</ele><time>2026-04-29T19:16:35.076Z</time></trkpt><trkpt lat="8.5723783" lon="-71.2151517"><ele>1621.2857142857142</ele><time>2026-04-29T19:16:38.125Z</time></trkpt><trkpt lat="8.5724417" lon="-71.2151633"><ele>1623.142857142857</ele><time>2026-04-29T19:16:41.1Z</time></trkpt><trkpt lat="8.5725117" lon="-71.2151933"><ele>1625.0</ele><time>2026-04-29T19:16:44.136Z</time></trkpt><trkpt lat="8.572595" lon="-71.215215"><ele>1624.9999999999998</ele><time>2026-04-29T19:16:48.07Z</time></trkpt><trkpt lat="8.5726767" lon="-71.2152517"><ele>1625.0</ele><time>2026-04-29T19:16:51.069Z</time></trkpt><trkpt lat="8.572745" lon="-71.2152783"><ele>1625.0</ele><time>2026-04-29T19:16:54.092Z</time></trkpt><trkpt lat="8.5728083" lon="-71.21531"><ele>1625.0</ele><time>2026-04-29T19:16:57.067Z</time></trkpt><trkpt lat="8.572895" lon="-71.2153383"><ele>1624.9999999999998</ele><time>2026-04-29T19:17:00.07Z</time></trkpt><trkpt lat="8.5729783" lon="-71.2153683"><ele>1625.0</ele><time>2026-04-29T19:17:03.085Z</time></trkpt><trkpt lat="8.5730533" lon="-71.215405"><ele>1628.1666666666665</ele><time>2026-04-29T19:17:06.084Z</time></trkpt><trkpt lat="8.5731183" lon="-71.2154333"><ele>1631.3333333333333</ele><time>2026-04-29T19:17:08.145Z</time></trkpt><trkpt lat="8.573205" lon="-71.215475"><ele>1634.5</ele><time>2026-04-29T19:17:11.081Z</time></trkpt><trkpt lat="8.5732633" lon="-71.215505"><ele>1637.6666666666665</ele><time>2026-04-29T19:17:13.079Z</time></trkpt><trkpt lat="8.573325" lon="-71.2155417"><ele>1640.8333333333333</ele><time>2026-04-29T19:17:15.091Z</time></trkpt><trkpt lat="8.5734117" lon="-71.2155767"><ele>1644.0</ele><time>2026-04-29T19:17:18.081Z</time></trkpt><trkpt lat="8.5734767" lon="-71.2156067"><ele>1644.0</ele><time>2026-04-29T19:17:20.144Z</time></trkpt><trkpt lat="8.5735467" lon="-71.21563"><ele>1644.0</ele><time>2026-04-29T19:17:22.084Z</time></trkpt><trkpt lat="8.5736233" lon="-71.2156433"><ele>1644.0</ele><time>2026-04-29T19:17:24.087Z</time></trkpt><trkpt lat="8.5736933" lon="-71.2156667"><ele>1644.0</ele><time>2026-04-29T19:17:26.139Z</time></trkpt><trkpt lat="8.5737583" lon="-71.2156867"><ele>1644.0</ele><time>2026-04-29T19:17:28.09Z</time></trkpt><trkpt lat="8.5738233" lon="-71.21571"><ele>1644.0</ele><time>2026-04-29T19:17:30.093Z</time></trkpt><trkpt lat="8.5738933" lon="-71.2157367"><ele>1644.0</ele><time>2026-04-29T19:17:32.13Z</time></trkpt><trkpt lat="8.5739617" lon="-71.2157633"><ele>1639.8333333333333</ele><time>2026-04-29T19:17:34.079Z</time></trkpt><trkpt lat="8.5740267" lon="-71.2157833"><ele>1635.6666666666665</ele><time>2026-04-29T19:17:36.085Z</time></trkpt><trkpt lat="8.5740883" lon="-71.2158033"><ele>1631.5</ele><time>2026-04-29T19:17:38.132Z</time></trkpt><trkpt lat="8.5741717" lon="-71.2158367"><ele>1627.3333333333333</ele><time>2026-04-29T19:17:41.07Z</time></trkpt><trkpt lat="8.57426" lon="-71.2158683"><ele>1623.1666666666665</ele><time>2026-04-29T19:17:44.143Z</time></trkpt><trkpt lat="8.5743217" lon="-71.215905"><ele>1619.0</ele><time>2026-04-29T19:17:46.076Z</time></trkpt><trkpt lat="8.5743833" lon="-71.2159433"><ele>1619.0</ele><time>2026-04-29T19:17:48.077Z</time></trkpt><trkpt lat="8.5744383" lon="-71.21599"><ele>1619.0</ele><time>2026-04-29T19:17:50.13Z</time></trkpt><trkpt lat="8.5744867" lon="-71.2160517"><ele>1619.0</ele><time>2026-04-29T19:17:52.05Z</time></trkpt><trkpt lat="8.574525" lon="-71.2161133"><ele>1619.0</ele><time>2026-04-29T19:17:54.095Z</time></trkpt><trkpt lat="8.5745583" lon="-71.2161733"><ele>1619.0</ele><time>2026-04-29T19:17:56.086Z</time></trkpt><trkpt lat="8.57458" lon="-71.21625"><ele>1619.0</ele><time>2026-04-29T19:17:58.078Z</time></trkpt><trkpt lat="8.5746017" lon="-71.2163117"><ele>1619.0</ele><time>2026-04-29T19:18:00.079Z</time></trkpt><trkpt lat="8.5746083" lon="-71.2163767"><ele>1615.0</ele><time>2026-04-29T19:18:02.149Z</time></trkpt><trkpt lat="8.5746033" lon="-71.2164567"><ele>1611.0</ele><time>2026-04-29T19:18:04.09Z</time></trkpt><trkpt lat="8.5745867" lon="-71.216535"><ele>1607.0</ele><time>2026-04-29T19:18:06.077Z</time></trkpt><trkpt lat="8.5745417" lon="-71.21663"><ele>1603.0</ele><time>2026-04-29T19:18:08.099Z</time></trkpt><trkpt lat="8.5744833" lon="-71.2167283"><ele>1599.0</ele><time>2026-04-29T19:18:10.105Z</time></trkpt><trkpt lat="8.57442" lon="-71.2168267"><ele>1598.9999999999998</ele><time>2026-04-29T19:18:12.08Z</time></trkpt><trkpt lat="8.57438" lon="-71.2168767"><ele>1599.0</ele><time>2026-04-29T19:18:13.067Z</time></trkpt><trkpt lat="8.5743433" lon="-71.2169333"><ele>1599.0</ele><time>2026-04-29T19:18:14.098Z</time></trkpt><trkpt lat="8.5743083" lon="-71.21699"><ele>1599.0</ele><time>2026-04-29T19:18:15.066Z</time></trkpt><trkpt lat="8.574275" lon="-71.2170567"><ele>1599.0</ele><time>2026-04-29T19:18:16.089Z</time></trkpt><trkpt lat="8.5742417" lon="-71.2171167"><ele>1598.9999999999998</ele><time>2026-04-29T19:18:17.08Z</time></trkpt><trkpt lat="8.5742033" lon="-71.217175"><ele>1599.0</ele><time>2026-04-29T19:18:18.077Z</time></trkpt><trkpt lat="8.574165" lon="-71.2172317"><ele>1599.0</ele><time>2026-04-29T19:18:19.092Z</time></trkpt><trkpt lat="8.5741217" lon="-71.2172867"><ele>1599.0</ele><time>2026-04-29T19:18:20.126Z</time></trkpt><trkpt lat="8.57408" lon="-71.2173367"><ele>1599.0</ele><time>2026-04-29T19:18:21.086Z</time></trkpt><trkpt lat="8.5740367" lon="-71.2173867"><ele>1599.0</ele><time>2026-04-29T19:18:22.072Z</time></trkpt><trkpt lat="8.57396" lon="-71.2174783"><ele>1599.0</ele><time>2026-04-29T19:18:24.09Z</time></trkpt><trkpt lat="8.5739017" lon="-71.2175783"><ele>1599.0</ele><time>2026-04-29T19:18:26.111Z</time></trkpt><trkpt lat="8.57386" lon="-71.21769"><ele>1603.4</ele><time>2026-04-29T19:18:28.073Z</time></trkpt><trkpt lat="8.57383" lon="-71.2178"><ele>1607.8000000000002</ele><time>2026-04-29T19:18:30.052Z</time></trkpt><trkpt lat="8.573825" lon="-71.2179033"><ele>1612.1999999999998</ele><time>2026-04-29T19:18:32.116Z</time></trkpt><trkpt lat="8.5738267" lon="-71.2179917"><ele>1616.6</ele><time>2026-04-29T19:18:34.086Z</time></trkpt><trkpt lat="8.5738283" lon="-71.2180783"><ele>1621.0</ele><time>2026-04-29T19:18:36.073Z</time></trkpt><trkpt lat="8.5738267" lon="-71.2181633"><ele>1623.6666666666667</ele><time>2026-04-29T19:18:38.129Z</time></trkpt><trkpt lat="8.573825" lon="-71.21825"><ele>1626.3333333333335</ele><time>2026-04-29T19:18:40.096Z</time></trkpt><trkpt lat="8.5738233" lon="-71.2183283"><ele>1629.0</ele><time>2026-04-29T19:18:42.085Z</time></trkpt><trkpt lat="8.5738217" lon="-71.2184133"><ele>1631.6666666666665</ele><time>2026-04-29T19:18:44.131Z</time></trkpt><trkpt lat="8.573815" lon="-71.2184917"><ele>1634.3333333333333</ele><time>2026-04-29T19:18:46.087Z</time></trkpt><trkpt lat="8.573795" lon="-71.2185717"><ele>1637.0</ele><time>2026-04-29T19:18:49.097Z</time></trkpt><trkpt lat="8.57377" lon="-71.2186683"><ele>1636.9999999999998</ele><time>2026-04-29T19:18:52.084Z</time></trkpt><trkpt lat="8.5737367" lon="-71.2187367"><ele>1637.0</ele><time>2026-04-29T19:18:54.081Z</time></trkpt><trkpt lat="8.5737" lon="-71.218805"><ele>1637.0</ele><time>2026-04-29T19:18:56.151Z</time></trkpt><trkpt lat="8.5736567" lon="-71.2188733"><ele>1637.0</ele><time>2026-04-29T19:18:58.092Z</time></trkpt><trkpt lat="8.5736017" lon="-71.2189333"><ele>1636.9999999999998</ele><time>2026-04-29T19:19:00.078Z</time></trkpt><trkpt lat="8.5735467" lon="-71.2189883"><ele>1637.0</ele><time>2026-04-29T19:19:02.108Z</time></trkpt><trkpt lat="8.57349" lon="-71.2190417"><ele>1632.7142857142858</ele><time>2026-04-29T19:19:04.097Z</time></trkpt><trkpt lat="8.5734283" lon="-71.219095"><ele>1628.4285714285713</ele><time>2026-04-29T19:19:06.106Z</time></trkpt><trkpt lat="8.573375" lon="-71.219145"><ele>1624.1428571428573</ele><time>2026-04-29T19:19:08.129Z</time></trkpt><trkpt lat="8.57333" lon="-71.2192017"><ele>1619.857142857143</ele><time>2026-04-29T19:19:10.086Z</time></trkpt><trkpt lat="8.5732833" lon="-71.2192567"><ele>1615.5714285714287</ele><time>2026-04-29T19:19:12.097Z</time></trkpt><trkpt lat="8.5732467" lon="-71.2193133"><ele>1611.2857142857144</ele><time>2026-04-29T19:19:14.14Z</time></trkpt><trkpt lat="8.5732133" lon="-71.21937"><ele>1607.0</ele><time>2026-04-29T19:19:16.061Z</time></trkpt><trkpt lat="8.573185" lon="-71.2194567"><ele>1606.9999999999998</ele><time>2026-04-29T19:19:19.077Z</time></trkpt><trkpt lat="8.5731683" lon="-71.21954"><ele>1607.0</ele><time>2026-04-29T19:19:22.086Z</time></trkpt><trkpt lat="8.57315" lon="-71.2196333"><ele>1607.0</ele><time>2026-04-29T19:19:25.094Z</time></trkpt><trkpt lat="8.5731383" lon="-71.2197217"><ele>1607.0</ele><time>2026-04-29T19:19:28.071Z</time></trkpt><trkpt lat="8.5731267" lon="-71.2198"><ele>1606.9999999999998</ele><time>2026-04-29T19:19:31.077Z</time></trkpt><trkpt lat="8.5731333" lon="-71.219885"><ele>1607.0</ele><time>2026-04-29T19:19:34.069Z</time></trkpt><trkpt lat="8.5731283" lon="-71.2199517"><ele>1608.9999999999998</ele><time>2026-04-29T19:19:36.062Z</time></trkpt><trkpt lat="8.5731167" lon="-71.2200183"><ele>1611.0</ele><time>2026-04-29T19:19:38.119Z</time></trkpt><trkpt lat="8.5731017" lon="-71.2200817"><ele>1613.0</ele><time>2026-04-29T19:19:40.09Z</time></trkpt><trkpt lat="8.5730617" lon="-71.220165"><ele>1615.0</ele><time>2026-04-29T19:19:43.076Z</time></trkpt><trkpt lat="8.5730167" lon="-71.2202367"><ele>1616.9999999999998</ele><time>2026-04-29T19:19:46.076Z</time></trkpt><trkpt lat="8.5729617" lon="-71.2203017"><ele>1619.0</ele><time>2026-04-29T19:19:49.078Z</time></trkpt><trkpt lat="8.5728933" lon="-71.2203617"><ele>1613.8333333333333</ele><time>2026-04-29T19:19:52.075Z</time></trkpt><trkpt lat="8.572835" lon="-71.220395"><ele>1608.6666666666665</ele><time>2026-04-29T19:19:54.076Z</time></trkpt><trkpt lat="8.57277" lon="-71.22042"><ele>1603.5</ele><time>2026-04-29T19:19:56.117Z</time></trkpt><trkpt lat="8.5726817" lon="-71.22045"><ele>1598.3333333333335</ele><time>2026-04-29T19:19:59.091Z</time></trkpt><trkpt lat="8.5725967" lon="-71.2204833"><ele>1593.1666666666667</ele><time>2026-04-29T19:20:02.136Z</time></trkpt><trkpt lat="8.5725233" lon="-71.22052"><ele>1588.0</ele><time>2026-04-29T19:20:05.106Z</time></trkpt><trkpt lat="8.57245" lon="-71.22056"><ele>1588.0000000000002</ele><time>2026-04-29T19:20:08.119Z</time></trkpt><trkpt lat="8.5723717" lon="-71.220595"><ele>1588.0</ele><time>2026-04-29T19:20:11.091Z</time></trkpt><trkpt lat="8.5722983" lon="-71.2206367"><ele>1588.0</ele><time>2026-04-29T19:20:14.12Z</time></trkpt><trkpt lat="8.5722233" lon="-71.22068"><ele>1588.0</ele><time>2026-04-29T19:20:17.123Z</time></trkpt><trkpt lat="8.5721517" lon="-71.2207283"><ele>1588.0000000000002</ele><time>2026-04-29T19:20:20.145Z</time></trkpt><trkpt lat="8.57208" lon="-71.220775"><ele>1588.0</ele><time>2026-04-29T19:20:23.062Z</time></trkpt><trkpt lat="8.5720067" lon="-71.2208233"><ele>1589.6666666666667</ele><time>2026-04-29T19:20:26.153Z</time></trkpt><trkpt lat="8.57193" lon="-71.2208733"><ele>1591.3333333333335</ele><time>2026-04-29T19:20:29.074Z</time></trkpt><trkpt lat="8.5718617" lon="-71.2209283"><ele>1593.0</ele><time>2026-04-29T19:20:32.135Z</time></trkpt><trkpt lat="8.571795" lon="-71.2209833"><ele>1594.6666666666665</ele><time>2026-04-29T19:20:35.069Z</time></trkpt><trkpt lat="8.571735" lon="-71.2210417"><ele>1596.3333333333333</ele><time>2026-04-29T19:20:38.134Z</time></trkpt><trkpt lat="8.5716733" lon="-71.2210967"><ele>1598.0</ele><time>2026-04-29T19:20:41.089Z</time></trkpt><trkpt lat="8.5716117" lon="-71.2211583"><ele>1597.9999999999998</ele><time>2026-04-29T19:20:44.122Z</time></trkpt><trkpt lat="8.5715467" lon="-71.2212233"><ele>1598.0</ele><time>2026-04-29T19:20:47.083Z</time></trkpt><trkpt lat="8.5714783" lon="-71.22129"><ele>1598.0</ele><time>2026-04-29T19:20:50.152Z</time></trkpt><trkpt lat="8.5714183" lon="-71.2213483"><ele>1598.0</ele><time>2026-04-29T19:20:53.094Z</time></trkpt><trkpt lat="8.5713617" lon="-71.2214033"><ele>1597.9999999999998</ele><time>2026-04-29T19:20:56.076Z</time></trkpt><trkpt lat="8.5713033" lon="-71.2214583"><ele>1598.0</ele><time>2026-04-29T19:20:59.05Z</time></trkpt><trkpt lat="8.5712383" lon="-71.2215217"><ele>1599.1666666666665</ele><time>2026-04-29T19:21:02.113Z</time></trkpt><trkpt lat="8.571175" lon="-71.2215767"><ele>1600.3333333333333</ele><time>2026-04-29T19:21:05.061Z</time></trkpt><trkpt lat="8.571115" lon="-71.221635"><ele>1601.5</ele><time>2026-04-29T19:21:08.127Z</time></trkpt><trkpt lat="8.571055" lon="-71.221695"><ele>1602.6666666666665</ele><time>2026-04-29T19:21:11.073Z</time></trkpt><trkpt lat="8.5709933" lon="-71.221755"><ele>1603.8333333333333</ele><time>2026-04-29T19:21:14.131Z</time></trkpt><trkpt lat="8.5709283" lon="-71.2218183"><ele>1605.0</ele><time>2026-04-29T19:21:17.07Z</time></trkpt><trkpt lat="8.570865" lon="-71.2218867"><ele>1605.0</ele><time>2026-04-29T19:21:20.13Z</time></trkpt><trkpt lat="8.5708217" lon="-71.221935"><ele>1605.0</ele><time>2026-04-29T19:21:22.057Z</time></trkpt><trkpt lat="8.5707767" lon="-71.2219833"><ele>1605.0</ele><time>2026-04-29T19:21:24.099Z</time></trkpt><trkpt lat="8.5707283" lon="-71.2220317"><ele>1605.0</ele><time>2026-04-29T19:21:26.126Z</time></trkpt><trkpt lat="8.5706767" lon="-71.222075"><ele>1605.0</ele><time>2026-04-29T19:21:28.065Z</time></trkpt><trkpt lat="8.57063" lon="-71.2221267"><ele>1605.0</ele><time>2026-04-29T19:21:30.101Z</time></trkpt><trkpt lat="8.5705783" lon="-71.2221883"><ele>1605.0</ele><time>2026-04-29T19:21:32.162Z</time></trkpt><trkpt lat="8.57052" lon="-71.22225"><ele>1604.2</ele><time>2026-04-29T19:21:34.087Z</time></trkpt><trkpt lat="8.5704617" lon="-71.222315"><ele>1603.4</ele><time>2026-04-29T19:21:36.107Z</time></trkpt><trkpt lat="8.5704" lon="-71.2223767"><ele>1602.6</ele><time>2026-04-29T19:21:38.122Z</time></trkpt><trkpt lat="8.5703417" lon="-71.2224483"><ele>1601.8</ele><time>2026-04-29T19:21:40.08Z</time></trkpt><trkpt lat="8.570285" lon="-71.2225217"><ele>1601.0</ele><time>2026-04-29T19:21:42.091Z</time></trkpt><trkpt lat="8.5702383" lon="-71.2226083"><ele>1601.0</ele><time>2026-04-29T19:21:44.125Z</time></trkpt><trkpt lat="8.5701917" lon="-71.2227"><ele>1601.0</ele><time>2026-04-29T19:21:46.068Z</time></trkpt><trkpt lat="8.5701483" lon="-71.2228"><ele>1601.0</ele><time>2026-04-29T19:21:48.067Z</time></trkpt><trkpt lat="8.5701033" lon="-71.2229033"><ele>1601.0</ele><time>2026-04-29T19:21:50.114Z</time></trkpt><trkpt lat="8.57007" lon="-71.2230133"><ele>1601.0</ele><time>2026-04-29T19:21:52.076Z</time></trkpt><trkpt lat="8.57005" lon="-71.2231317"><ele>1602.4</ele><time>2026-04-29T19:21:54.101Z</time></trkpt><trkpt lat="8.57005" lon="-71.2231967"><ele>1603.8</ele><time>2026-04-29T19:21:55.085Z</time></trkpt><trkpt lat="8.5700667" lon="-71.2233183"><ele>1605.2</ele><time>2026-04-29T19:21:57.081Z</time></trkpt><trkpt lat="8.570115" lon="-71.2234333"><ele>1606.6000000000001</ele><time>2026-04-29T19:21:59.08Z</time></trkpt><trkpt lat="8.5701867" lon="-71.2235383"><ele>1608.0</ele><time>2026-04-29T19:22:01.081Z</time></trkpt><trkpt lat="8.570235" lon="-71.2235867"><ele>1608.0</ele><time>2026-04-29T19:22:02.082Z</time></trkpt><trkpt lat="8.57029" lon="-71.2236267"><ele>1608.0</ele><time>2026-04-29T19:22:03.08Z</time></trkpt><trkpt lat="8.5703467" lon="-71.22367"><ele>1608.0</ele><time>2026-04-29T19:22:04.103Z</time></trkpt><trkpt lat="8.57041" lon="-71.2237067"><ele>1608.0</ele><time>2026-04-29T19:22:05.09Z</time></trkpt><trkpt lat="8.5704767" lon="-71.223735"><ele>1608.0</ele><time>2026-04-29T19:22:06.087Z</time></trkpt><trkpt lat="8.5705433" lon="-71.22376"><ele>1608.0</ele><time>2026-04-29T19:22:07.078Z</time></trkpt><trkpt lat="8.57061" lon="-71.22378"><ele>1608.0</ele><time>2026-04-29T19:22:08.115Z</time></trkpt><trkpt lat="8.5706783" lon="-71.2237917"><ele>1608.1666666666667</ele><time>2026-04-29T19:22:09.084Z</time></trkpt><trkpt lat="8.5707483" lon="-71.223805"><ele>1608.3333333333335</ele><time>2026-04-29T19:22:10.089Z</time></trkpt><trkpt lat="8.5708217" lon="-71.223815"><ele>1608.5</ele><time>2026-04-29T19:22:11.076Z</time></trkpt><trkpt lat="8.570895" lon="-71.2238217"><ele>1608.6666666666667</ele><time>2026-04-29T19:22:12.083Z</time></trkpt><trkpt lat="8.5709717" lon="-71.2238317"><ele>1608.8333333333335</ele><time>2026-04-29T19:22:13.082Z</time></trkpt><trkpt lat="8.5710483" lon="-71.2238417"><ele>1609.0</ele><time>2026-04-29T19:22:14.123Z</time></trkpt><trkpt lat="8.571125" lon="-71.2238433"><ele>1609.5000000000002</ele><time>2026-04-29T19:22:15.081Z</time></trkpt><trkpt lat="8.5712033" lon="-71.22385"><ele>1610.0</ele><time>2026-04-29T19:22:16.083Z</time></trkpt><trkpt lat="8.571285" lon="-71.223855"><ele>1610.5</ele><time>2026-04-29T19:22:17.079Z</time></trkpt><trkpt lat="8.57137" lon="-71.2238617"><ele>1611.0</ele><time>2026-04-29T19:22:18.07Z</time></trkpt><trkpt lat="8.57145" lon="-71.22387"><ele>1611.5000000000002</ele><time>2026-04-29T19:22:19.068Z</time></trkpt><trkpt lat="8.5715317" lon="-71.2238767"><ele>1612.0</ele><time>2026-04-29T19:22:20.119Z</time></trkpt><trkpt lat="8.5716133" lon="-71.2238833"><ele>1612.0000000000002</ele><time>2026-04-29T19:22:21.088Z</time></trkpt><trkpt lat="8.5716983" lon="-71.2238883"><ele>1612.0</ele><time>2026-04-29T19:22:22.094Z</time></trkpt><trkpt lat="8.571785" lon="-71.2238917"><ele>1612.0</ele><time>2026-04-29T19:22:23.089Z</time></trkpt><trkpt lat="8.57187" lon="-71.223895"><ele>1612.0</ele><time>2026-04-29T19:22:24.082Z</time></trkpt><trkpt lat="8.571955" lon="-71.2238967"><ele>1612.0000000000002</ele><time>2026-04-29T19:22:25.08Z</time></trkpt><trkpt lat="8.572035" lon="-71.2238917"><ele>1612.0</ele><time>2026-04-29T19:22:26.133Z</time></trkpt><trkpt lat="8.572115" lon="-71.2238767"><ele>1612.5000000000002</ele><time>2026-04-29T19:22:27.05Z</time></trkpt><trkpt lat="8.5721967" lon="-71.22386"><ele>1613.0</ele><time>2026-04-29T19:22:28.079Z</time></trkpt><trkpt lat="8.57228" lon="-71.22384"><ele>1613.5</ele><time>2026-04-29T19:22:29.08Z</time></trkpt><trkpt lat="8.572365" lon="-71.2238167"><ele>1614.0</ele><time>2026-04-29T19:22:30.087Z</time></trkpt><trkpt lat="8.57245" lon="-71.2237917"><ele>1614.5000000000002</ele><time>2026-04-29T19:22:31.093Z</time></trkpt><trkpt lat="8.572535" lon="-71.2237667"><ele>1615.0</ele><time>2026-04-29T19:22:32.135Z</time></trkpt><trkpt lat="8.57262" lon="-71.2237383"><ele>1615.0</ele><time>2026-04-29T19:22:33.093Z</time></trkpt><trkpt lat="8.5727067" lon="-71.2237133"><ele>1615.0</ele><time>2026-04-29T19:22:34.102Z</time></trkpt><trkpt lat="8.5727983" lon="-71.2236917"><ele>1615.0</ele><time>2026-04-29T19:22:35.086Z</time></trkpt><trkpt lat="8.57289" lon="-71.2236717"><ele>1615.0</ele><time>2026-04-29T19:22:36.114Z</time></trkpt><trkpt lat="8.572985" lon="-71.223655"><ele>1615.0</ele><time>2026-04-29T19:22:37.079Z</time></trkpt><trkpt lat="8.5730767" lon="-71.2236367"><ele>1615.8</ele><time>2026-04-29T19:22:38.139Z</time></trkpt><trkpt lat="8.57317" lon="-71.2236217"><ele>1616.6</ele><time>2026-04-29T19:22:39.082Z</time></trkpt><trkpt lat="8.5732667" lon="-71.2236083"><ele>1617.4</ele><time>2026-04-29T19:22:40.089Z</time></trkpt><trkpt lat="8.5733683" lon="-71.2236083"><ele>1618.2</ele><time>2026-04-29T19:22:41.079Z</time></trkpt><trkpt lat="8.5734717" lon="-71.2236117"><ele>1619.0</ele><time>2026-04-29T19:22:42.082Z</time></trkpt><trkpt lat="8.5735717" lon="-71.2236167"><ele>1619.0</ele><time>2026-04-29T19:22:43.056Z</time></trkpt><trkpt lat="8.5736733" lon="-71.2236317"><ele>1619.0</ele><time>2026-04-29T19:22:44.147Z</time></trkpt><trkpt lat="8.5737767" lon="-71.223655"><ele>1619.0</ele><time>2026-04-29T19:22:45.062Z</time></trkpt><trkpt lat="8.5738783" lon="-71.2236833"><ele>1619.0</ele><time>2026-04-29T19:22:46.062Z</time></trkpt><trkpt lat="8.5739933" lon="-71.2237133"><ele>1619.0</ele><time>2026-04-29T19:22:47.075Z</time></trkpt><trkpt lat="8.574105" lon="-71.223745"><ele>1618.5</ele><time>2026-04-29T19:22:48.076Z</time></trkpt><trkpt lat="8.5742167" lon="-71.2237783"><ele>1618.0</ele><time>2026-04-29T19:22:49.078Z</time></trkpt><trkpt lat="8.5743283" lon="-71.22381"><ele>1617.5</ele><time>2026-04-29T19:22:50.091Z</time></trkpt><trkpt lat="8.5744383" lon="-71.2238417"><ele>1617.0</ele><time>2026-04-29T19:22:51.073Z</time></trkpt><trkpt lat="8.57455" lon="-71.2238767"><ele>1616.5</ele><time>2026-04-29T19:22:52.078Z</time></trkpt><trkpt lat="8.574665" lon="-71.223915"><ele>1616.0</ele><time>2026-04-29T19:22:53.064Z</time></trkpt><trkpt lat="8.5747817" lon="-71.2239517"><ele>1615.5</ele><time>2026-04-29T19:22:54.085Z</time></trkpt><trkpt lat="8.574895" lon="-71.2239867"><ele>1615.0</ele><time>2026-04-29T19:22:55.094Z</time></trkpt><trkpt lat="8.57501" lon="-71.2240233"><ele>1608.25</ele><time>2026-04-29T19:22:56.148Z</time></trkpt><trkpt lat="8.5751217" lon="-71.22406"><ele>1601.5</ele><time>2026-04-29T19:22:57.08Z</time></trkpt><trkpt lat="8.5752333" lon="-71.2240917"><ele>1594.75</ele><time>2026-04-29T19:22:58.093Z</time></trkpt><trkpt lat="8.5753417" lon="-71.2241183"><ele>1588.0</ele><time>2026-04-29T19:22:59.079Z</time></trkpt><trkpt lat="8.5754467" lon="-71.2241433"><ele>1588.0</ele><time>2026-04-29T19:23:00.072Z</time></trkpt><trkpt lat="8.57555" lon="-71.2241683"><ele>1588.0</ele><time>2026-04-29T19:23:01.088Z</time></trkpt><trkpt lat="8.57565" lon="-71.2241883"><ele>1588.0</ele><time>2026-04-29T19:23:02.139Z</time></trkpt><trkpt lat="8.57575" lon="-71.224205"><ele>1588.0</ele><time>2026-04-29T19:23:03.1Z</time></trkpt><trkpt lat="8.5758467" lon="-71.2242183"><ele>1588.0</ele><time>2026-04-29T19:23:04.079Z</time></trkpt><trkpt lat="8.57594" lon="-71.22423"><ele>1588.0000000000002</ele><time>2026-04-29T19:23:05.061Z</time></trkpt><trkpt lat="8.5760317" lon="-71.22424"><ele>1588.0</ele><time>2026-04-29T19:23:06.08Z</time></trkpt><trkpt lat="8.5761133" lon="-71.224245"><ele>1588.0</ele><time>2026-04-29T19:23:07.075Z</time></trkpt><trkpt lat="8.5761917" lon="-71.2242483"><ele>1588.0</ele><time>2026-04-29T19:23:08.117Z</time></trkpt><trkpt lat="8.5762667" lon="-71.2242467"><ele>1588.0000000000002</ele><time>2026-04-29T19:23:09.065Z</time></trkpt><trkpt lat="8.5763367" lon="-71.2242433"><ele>1588.0</ele><time>2026-04-29T19:23:10.056Z</time></trkpt><trkpt lat="8.5764017" lon="-71.224235"><ele>1589.8000000000002</ele><time>2026-04-29T19:23:11.048Z</time></trkpt><trkpt lat="8.5765217" lon="-71.2242183"><ele>1591.6</ele><time>2026-04-29T19:23:13.079Z</time></trkpt><trkpt lat="8.5766217" lon="-71.2242"><ele>1593.4</ele><time>2026-04-29T19:23:15.078Z</time></trkpt><trkpt lat="8.576715" lon="-71.22419"><ele>1595.1999999999998</ele><time>2026-04-29T19:23:17.077Z</time></trkpt><trkpt lat="8.57679" lon="-71.2241783"><ele>1597.0</ele><time>2026-04-29T19:23:19.078Z</time></trkpt><trkpt lat="8.5768567" lon="-71.2241583"><ele>1597.0</ele><time>2026-04-29T19:23:21.089Z</time></trkpt><trkpt lat="8.5769233" lon="-71.22414"><ele>1597.0</ele><time>2026-04-29T19:23:23.091Z</time></trkpt><trkpt lat="8.576995" lon="-71.2241267"><ele>1597.0</ele><time>2026-04-29T19:23:25.091Z</time></trkpt><trkpt lat="8.5770683" lon="-71.2241167"><ele>1597.0</ele><time>2026-04-29T19:23:27.083Z</time></trkpt><trkpt lat="8.5771417" lon="-71.2240983"><ele>1597.0</ele><time>2026-04-29T19:23:29.068Z</time></trkpt><trkpt lat="8.57721" lon="-71.2240833"><ele>1597.0</ele><time>2026-04-29T19:23:31.063Z</time></trkpt><trkpt lat="8.5772767" lon="-71.2240667"><ele>1597.0</ele><time>2026-04-29T19:23:33.076Z</time></trkpt><trkpt lat="8.577345" lon="-71.224055"><ele>1596.7142857142858</ele><time>2026-04-29T19:23:35.083Z</time></trkpt><trkpt lat="8.5774117" lon="-71.2240433"><ele>1596.4285714285716</ele><time>2026-04-29T19:23:37.083Z</time></trkpt><trkpt lat="8.5774817" lon="-71.22404"><ele>1596.142857142857</ele><time>2026-04-29T19:23:39.079Z</time></trkpt><trkpt lat="8.5775533" lon="-71.2240467"><ele>1595.857142857143</ele><time>2026-04-29T19:23:41.086Z</time></trkpt><trkpt lat="8.5776233" lon="-71.2240617"><ele>1595.5714285714284</ele><time>2026-04-29T19:23:43.07Z</time></trkpt><trkpt lat="8.5776917" lon="-71.2240783"><ele>1595.2857142857142</ele><time>2026-04-29T19:23:45.084Z</time></trkpt><trkpt lat="8.57775" lon="-71.2241067"><ele>1595.0</ele><time>2026-04-29T19:23:47.072Z</time></trkpt><trkpt lat="8.5778067" lon="-71.2241417"><ele>1598.2857142857142</ele><time>2026-04-29T19:23:49.084Z</time></trkpt><trkpt lat="8.5778617" lon="-71.2241833"><ele>1601.5714285714284</ele><time>2026-04-29T19:23:51.075Z</time></trkpt><trkpt lat="8.5779117" lon="-71.2242383"><ele>1604.857142857143</ele><time>2026-04-29T19:23:53.079Z</time></trkpt><trkpt lat="8.577955" lon="-71.2243017"><ele>1608.142857142857</ele><time>2026-04-29T19:23:55.091Z</time></trkpt><trkpt lat="8.5779833" lon="-71.2243617"><ele>1611.4285714285716</ele><time>2026-04-29T19:23:57.102Z</time></trkpt><trkpt lat="8.5780017" lon="-71.2244267"><ele>1614.7142857142858</ele><time>2026-04-29T19:23:59.071Z</time></trkpt><trkpt lat="8.5780167" lon="-71.2245"><ele>1618.0</ele><time>2026-04-29T19:24:01.099Z</time></trkpt><trkpt lat="8.5780233" lon="-71.2245683"><ele>1618.0</ele><time>2026-04-29T19:24:03.071Z</time></trkpt><trkpt lat="8.5780233" lon="-71.2246367"><ele>1618.0</ele><time>2026-04-29T19:24:05.076Z</time></trkpt><trkpt lat="8.57801" lon="-71.22473"><ele>1618.0</ele><time>2026-04-29T19:24:08.123Z</time></trkpt><trkpt lat="8.577995" lon="-71.224795"><ele>1618.0</ele><time>2026-04-29T19:24:10.079Z</time></trkpt><trkpt lat="8.5779817" lon="-71.224865"><ele>1618.0</ele><time>2026-04-29T19:24:12.07Z</time></trkpt><trkpt lat="8.57797" lon="-71.224935"><ele>1618.0</ele><time>2026-04-29T19:24:14.122Z</time></trkpt><trkpt lat="8.5779633" lon="-71.225"><ele>1618.0</ele><time>2026-04-29T19:24:16.064Z</time></trkpt><trkpt lat="8.577955" lon="-71.2250683"><ele>1618.3333333333335</ele><time>2026-04-29T19:24:18.092Z</time></trkpt><trkpt lat="8.577935" lon="-71.2251417"><ele>1618.6666666666667</ele><time>2026-04-29T19:24:20.132Z</time></trkpt><trkpt lat="8.57792" lon="-71.2252067"><ele>1619.0</ele><time>2026-04-29T19:24:22.069Z</time></trkpt><trkpt lat="8.5779067" lon="-71.22528"><ele>1619.3333333333335</ele><time>2026-04-29T19:24:24.086Z</time></trkpt><trkpt lat="8.577905" lon="-71.22535"><ele>1619.6666666666667</ele><time>2026-04-29T19:24:26.138Z</time></trkpt><trkpt lat="8.5779067" lon="-71.2254433"><ele>1620.0</ele><time>2026-04-29T19:24:29.04Z</time></trkpt><trkpt lat="8.5779167" lon="-71.225535"><ele>1620.0</ele><time>2026-04-29T19:24:32.111Z</time></trkpt><trkpt lat="8.57793" lon="-71.225625"><ele>1620.0</ele><time>2026-04-29T19:24:35.039Z</time></trkpt><trkpt lat="8.5779717" lon="-71.225695"><ele>1620.0</ele><time>2026-04-29T19:24:38.12Z</time></trkpt><trkpt lat="8.5780283" lon="-71.2257533"><ele>1620.0</ele><time>2026-04-29T19:24:41.074Z</time></trkpt><trkpt lat="8.578085" lon="-71.2258067"><ele>1620.0</ele><time>2026-04-29T19:24:44.107Z</time></trkpt><trkpt lat="8.578145" lon="-71.2258567"><ele>1620.0</ele><time>2026-04-29T19:24:47.104Z</time></trkpt><trkpt lat="8.5782067" lon="-71.2259083"><ele>1617.0</ele><time>2026-04-29T19:24:50.13Z</time></trkpt><trkpt lat="8.57828" lon="-71.225955"><ele>1614.0</ele><time>2026-04-29T19:24:53.074Z</time></trkpt><trkpt lat="8.5783617" lon="-71.2259883"><ele>1611.0</ele><time>2026-04-29T19:24:56.138Z</time></trkpt><trkpt lat="8.5784417" lon="-71.226015"><ele>1608.0</ele><time>2026-04-29T19:24:59.066Z</time></trkpt><trkpt lat="8.5785217" lon="-71.226045"><ele>1605.0</ele><time>2026-04-29T19:25:02.118Z</time></trkpt><trkpt lat="8.5786" lon="-71.2260867"><ele>1602.0</ele><time>2026-04-29T19:25:05.073Z</time></trkpt><trkpt lat="8.57868" lon="-71.22612"><ele>1604.6666666666667</ele><time>2026-04-29T19:25:08.12Z</time></trkpt><trkpt lat="8.5787567" lon="-71.2261383"><ele>1607.3333333333335</ele><time>2026-04-29T19:25:11.069Z</time></trkpt><trkpt lat="8.57883" lon="-71.2261633"><ele>1610.0</ele><time>2026-04-29T19:25:14.124Z</time></trkpt><trkpt lat="8.57891" lon="-71.2261933"><ele>1612.6666666666667</ele><time>2026-04-29T19:25:17.07Z</time></trkpt><trkpt lat="8.57899" lon="-71.2262217"><ele>1615.3333333333335</ele><time>2026-04-29T19:25:20.132Z</time></trkpt><trkpt lat="8.579065" lon="-71.22625"><ele>1618.0</ele><time>2026-04-29T19:25:23.08Z</time></trkpt><trkpt lat="8.5791317" lon="-71.22626"><ele>1618.0000000000002</ele><time>2026-04-29T19:25:26.14Z</time></trkpt><trkpt lat="8.5792133" lon="-71.2262683"><ele>1618.0</ele><time>2026-04-29T19:25:29.079Z</time></trkpt><trkpt lat="8.5793017" lon="-71.22626"><ele>1618.0</ele><time>2026-04-29T19:25:32.133Z</time></trkpt><trkpt lat="8.57939" lon="-71.2262467"><ele>1618.0</ele><time>2026-04-29T19:25:35.068Z</time></trkpt><trkpt lat="8.5794533" lon="-71.2262467"><ele>1618.0000000000002</ele><time>2026-04-29T19:25:37.061Z</time></trkpt><trkpt lat="8.5795467" lon="-71.2262367"><ele>1618.0</ele><time>2026-04-29T19:25:40.066Z</time></trkpt><trkpt lat="8.5796117" lon="-71.22623"><ele>1618.6666666666667</ele><time>2026-04-29T19:25:42.085Z</time></trkpt><trkpt lat="8.5796767" lon="-71.2262217"><ele>1619.3333333333335</ele><time>2026-04-29T19:25:44.131Z</time></trkpt><trkpt lat="8.57974" lon="-71.2262133"><ele>1620.0</ele><time>2026-04-29T19:25:46.071Z</time></trkpt><trkpt lat="8.5798317" lon="-71.2261983"><ele>1620.6666666666665</ele><time>2026-04-29T19:25:49.103Z</time></trkpt><trkpt lat="8.5799233" lon="-71.2261983"><ele>1621.3333333333333</ele><time>2026-04-29T19:25:52.069Z</time></trkpt><trkpt lat="8.5800083" lon="-71.22619"><ele>1622.0</ele><time>2026-04-29T19:25:55.098Z</time></trkpt><trkpt lat="8.5801" lon="-71.2261917"><ele>1621.9999999999998</ele><time>2026-04-29T19:25:58.079Z</time></trkpt><trkpt lat="8.5801867" lon="-71.2261933"><ele>1622.0</ele><time>2026-04-29T19:26:01.073Z</time></trkpt><trkpt lat="8.580275" lon="-71.2262067"><ele>1622.0</ele><time>2026-04-29T19:26:04.091Z</time></trkpt><trkpt lat="8.58036" lon="-71.2262283"><ele>1622.0</ele><time>2026-04-29T19:26:07.078Z</time></trkpt><trkpt lat="8.580445" lon="-71.2262533"><ele>1621.9999999999998</ele><time>2026-04-29T19:26:10.057Z</time></trkpt><trkpt lat="8.5805183" lon="-71.2262917"><ele>1622.0</ele><time>2026-04-29T19:26:13.072Z</time></trkpt><trkpt lat="8.5805933" lon="-71.2263317"><ele>1623.6666666666665</ele><time>2026-04-29T19:26:16.083Z</time></trkpt><trkpt lat="8.58067" lon="-71.2263833"><ele>1625.3333333333333</ele><time>2026-04-29T19:26:19.044Z</time></trkpt><trkpt lat="8.5807533" lon="-71.2264217"><ele>1627.0</ele><time>2026-04-29T19:26:22.079Z</time></trkpt><trkpt lat="8.5808317" lon="-71.22647"><ele>1628.6666666666665</ele><time>2026-04-29T19:26:25.041Z</time></trkpt><trkpt lat="8.580905" lon="-71.2265283"><ele>1630.3333333333333</ele><time>2026-04-29T19:26:28.052Z</time></trkpt><trkpt lat="8.5809617" lon="-71.2265567"><ele>1632.0</ele><time>2026-04-29T19:26:30.06Z</time></trkpt><trkpt lat="8.5810417" lon="-71.2266017"><ele>1629.5</ele><time>2026-04-29T19:26:33.046Z</time></trkpt><trkpt lat="8.5811133" lon="-71.22665"><ele>1627.0</ele><time>2026-04-29T19:26:36.069Z</time></trkpt><trkpt lat="8.581195" lon="-71.2266867"><ele>1624.5</ele><time>2026-04-29T19:26:39.079Z</time></trkpt><trkpt lat="8.58128" lon="-71.2267217"><ele>1622.0</ele><time>2026-04-29T19:26:42.099Z</time></trkpt><trkpt lat="8.5813383" lon="-71.22675"><ele>1619.5</ele><time>2026-04-29T19:26:44.116Z</time></trkpt><trkpt lat="8.581395" lon="-71.22678"><ele>1617.0</ele><time>2026-04-29T19:26:46.079Z</time></trkpt><trkpt lat="8.581455" lon="-71.2268017"><ele>1617.0</ele><time>2026-04-29T19:26:48.079Z</time></trkpt><trkpt lat="8.5815183" lon="-71.2268167"><ele>1617.0</ele><time>2026-04-29T19:26:50.128Z</time></trkpt><trkpt lat="8.58158" lon="-71.226835"><ele>1617.0</ele><time>2026-04-29T19:26:52.067Z</time></trkpt><trkpt lat="8.58167" lon="-71.22685"><ele>1617.0</ele><time>2026-04-29T19:26:55.076Z</time></trkpt><trkpt lat="8.5817617" lon="-71.22687"><ele>1617.0</ele><time>2026-04-29T19:26:58.096Z</time></trkpt><trkpt lat="8.581825" lon="-71.2268833"><ele>1617.0</ele><time>2026-04-29T19:27:00.076Z</time></trkpt><trkpt lat="8.58189" lon="-71.226895"><ele>1617.0</ele><time>2026-04-29T19:27:02.116Z</time></trkpt><trkpt lat="8.5819567" lon="-71.2269117"><ele>1618.3333333333333</ele><time>2026-04-29T19:27:04.096Z</time></trkpt><trkpt lat="8.5820233" lon="-71.2269233"><ele>1619.6666666666665</ele><time>2026-04-29T19:27:06.072Z</time></trkpt><trkpt lat="8.5820867" lon="-71.226935"><ele>1621.0</ele><time>2026-04-29T19:27:08.142Z</time></trkpt><trkpt lat="8.5821567" lon="-71.2269483"><ele>1622.3333333333333</ele><time>2026-04-29T19:27:10.082Z</time></trkpt><trkpt lat="8.5822367" lon="-71.226955"><ele>1623.6666666666665</ele><time>2026-04-29T19:27:12.092Z</time></trkpt><trkpt lat="8.5823267" lon="-71.2269683"><ele>1625.0</ele><time>2026-04-29T19:27:14.119Z</time></trkpt><trkpt lat="8.58242" lon="-71.22698"><ele>1625.0</ele><time>2026-04-29T19:27:16.071Z</time></trkpt><trkpt lat="8.5825233" lon="-71.2269983"><ele>1625.0</ele><time>2026-04-29T19:27:18.105Z</time></trkpt><trkpt lat="8.582635" lon="-71.2270217"><ele>1625.0</ele><time>2026-04-29T19:27:20.127Z</time></trkpt><trkpt lat="8.5827517" lon="-71.2270383"><ele>1625.0</ele><time>2026-04-29T19:27:22.07Z</time></trkpt><trkpt lat="8.582875" lon="-71.2270533"><ele>1625.5714285714287</ele><time>2026-04-29T19:27:24.105Z</time></trkpt><trkpt lat="8.58294" lon="-71.2270617"><ele>1626.1428571428573</ele><time>2026-04-29T19:27:25.07Z</time></trkpt><trkpt lat="8.583005" lon="-71.2270683"><ele>1626.7142857142858</ele><time>2026-04-29T19:27:26.128Z</time></trkpt><trkpt lat="8.58307" lon="-71.22707"><ele>1627.2857142857142</ele><time>2026-04-29T19:27:27.08Z</time></trkpt><trkpt lat="8.5831383" lon="-71.22707"><ele>1627.857142857143</ele><time>2026-04-29T19:27:28.078Z</time></trkpt><trkpt lat="8.5832067" lon="-71.2270617"><ele>1628.4285714285713</ele><time>2026-04-29T19:27:29.092Z</time></trkpt><trkpt lat="8.5832767" lon="-71.2270567"><ele>1629.0</ele><time>2026-04-29T19:27:30.081Z</time></trkpt><trkpt lat="8.5833483" lon="-71.227055"><ele>1629.0</ele><time>2026-04-29T19:27:31.09Z</time></trkpt><trkpt lat="8.5834217" lon="-71.2270517"><ele>1629.0</ele><time>2026-04-29T19:27:32.087Z</time></trkpt><trkpt lat="8.5834933" lon="-71.22704"><ele>1629.0</ele><time>2026-04-29T19:27:33.071Z</time></trkpt><trkpt lat="8.5835683" lon="-71.22703"><ele>1629.0</ele><time>2026-04-29T19:27:34.069Z</time></trkpt><trkpt lat="8.583645" lon="-71.2270217"><ele>1629.0</ele><time>2026-04-29T19:27:35.075Z</time></trkpt><trkpt lat="8.5837233" lon="-71.2270133"><ele>1629.0</ele><time>2026-04-29T19:27:36.08Z</time></trkpt><trkpt lat="8.5838" lon="-71.227"><ele>1627.3333333333333</ele><time>2026-04-29T19:27:37.085Z</time></trkpt><trkpt lat="8.5838767" lon="-71.22698"><ele>1625.6666666666665</ele><time>2026-04-29T19:27:38.118Z</time></trkpt><trkpt lat="8.583955" lon="-71.2269567"><ele>1624.0</ele><time>2026-04-29T19:27:39.092Z</time></trkpt><trkpt lat="8.5840333" lon="-71.2269367"><ele>1622.3333333333333</ele><time>2026-04-29T19:27:40.064Z</time></trkpt><trkpt lat="8.5841133" lon="-71.2269167"><ele>1620.6666666666665</ele><time>2026-04-29T19:27:41.083Z</time></trkpt><trkpt lat="8.5841917" lon="-71.226895"><ele>1619.0</ele><time>2026-04-29T19:27:42.083Z</time></trkpt><trkpt lat="8.5842683" lon="-71.226875"><ele>1618.9999999999998</ele><time>2026-04-29T19:27:43.077Z</time></trkpt><trkpt lat="8.5843433" lon="-71.2268517"><ele>1619.0</ele><time>2026-04-29T19:27:44.129Z</time></trkpt><trkpt lat="8.58442" lon="-71.2268317"><ele>1619.0</ele><time>2026-04-29T19:27:45.07Z</time></trkpt><trkpt lat="8.5844983" lon="-71.2268133"><ele>1619.0</ele><time>2026-04-29T19:27:46.086Z</time></trkpt><trkpt lat="8.5845767" lon="-71.2267983"><ele>1618.9999999999998</ele><time>2026-04-29T19:27:47.063Z</time></trkpt><trkpt lat="8.584655" lon="-71.226795"><ele>1619.0</ele><time>2026-04-29T19:27:48.079Z</time></trkpt><trkpt lat="8.5847283" lon="-71.2268"><ele>1616.857142857143</ele><time>2026-04-29T19:27:49.083Z</time></trkpt><trkpt lat="8.5848033" lon="-71.2268167"><ele>1614.7142857142856</ele><time>2026-04-29T19:27:50.123Z</time></trkpt><trkpt lat="8.5848767" lon="-71.2268383"><ele>1612.5714285714284</ele><time>2026-04-29T19:27:51.109Z</time></trkpt><trkpt lat="8.5849483" lon="-71.2268667"><ele>1610.4285714285716</ele><time>2026-04-29T19:27:52.082Z</time></trkpt><trkpt lat="8.5850133" lon="-71.2269017"><ele>1608.2857142857142</ele><time>2026-04-29T19:27:53.08Z</time></trkpt><trkpt lat="8.5850717" lon="-71.22694"><ele>1606.142857142857</ele><time>2026-04-29T19:27:54.094Z</time></trkpt><trkpt lat="8.585125" lon="-71.2269867"><ele>1604.0</ele><time>2026-04-29T19:27:55.048Z</time></trkpt><trkpt lat="8.585175" lon="-71.22704"><ele>1603.9999999999998</ele><time>2026-04-29T19:27:56.138Z</time></trkpt><trkpt lat="8.5852117" lon="-71.2270967"><ele>1604.0</ele><time>2026-04-29T19:27:57.084Z</time></trkpt><trkpt lat="8.5852433" lon="-71.2271567"><ele>1604.0</ele><time>2026-04-29T19:27:58.074Z</time></trkpt><trkpt lat="8.585265" lon="-71.2272167"><ele>1604.0</ele><time>2026-04-29T19:27:59.084Z</time></trkpt><trkpt lat="8.5853" lon="-71.2273317"><ele>1603.9999999999998</ele><time>2026-04-29T19:28:01.078Z</time></trkpt><trkpt lat="8.5853217" lon="-71.2274417"><ele>1604.0</ele><time>2026-04-29T19:28:03.075Z</time></trkpt><trkpt lat="8.585335" lon="-71.227545"><ele>1604.1666666666665</ele><time>2026-04-29T19:28:05.08Z</time></trkpt><trkpt lat="8.58534" lon="-71.2276433"><ele>1604.3333333333333</ele><time>2026-04-29T19:28:07.074Z</time></trkpt><trkpt lat="8.585345" lon="-71.2277317"><ele>1604.5</ele><time>2026-04-29T19:28:09.045Z</time></trkpt><trkpt lat="8.5853467" lon="-71.227815"><ele>1604.6666666666665</ele><time>2026-04-29T19:28:11.052Z</time></trkpt><trkpt lat="8.5853517" lon="-71.2278967"><ele>1604.8333333333333</ele><time>2026-04-29T19:28:13.095Z</time></trkpt><trkpt lat="8.5853633" lon="-71.227975"><ele>1605.0</ele><time>2026-04-29T19:28:15.081Z</time></trkpt><trkpt lat="8.58537" lon="-71.22805"><ele>1605.0</ele><time>2026-04-29T19:28:17.08Z</time></trkpt><trkpt lat="8.5853733" lon="-71.2281183"><ele>1605.0</ele><time>2026-04-29T19:28:19.081Z</time></trkpt><trkpt lat="8.5853783" lon="-71.2281867"><ele>1605.0</ele><time>2026-04-29T19:28:21.095Z</time></trkpt><trkpt lat="8.585385" lon="-71.2282783"><ele>1605.0</ele><time>2026-04-29T19:28:24.101Z</time></trkpt><trkpt lat="8.5853867" lon="-71.22837"><ele>1605.0</ele><time>2026-04-29T19:28:27.047Z</time></trkpt><trkpt lat="8.5853833" lon="-71.2284517"><ele>1605.0</ele><time>2026-04-29T19:28:30.084Z</time></trkpt><trkpt lat="8.5853883" lon="-71.2285317"><ele>1603.8333333333333</ele><time>2026-04-29T19:28:33.044Z</time></trkpt><trkpt lat="8.5853833" lon="-71.2286067"><ele>1602.6666666666665</ele><time>2026-04-29T19:28:36.079Z</time></trkpt><trkpt lat="8.5853783" lon="-71.2286833"><ele>1601.5</ele><time>2026-04-29T19:28:39.058Z</time></trkpt><trkpt lat="8.5853717" lon="-71.22876"><ele>1600.3333333333333</ele><time>2026-04-29T19:28:42.081Z</time></trkpt><trkpt lat="8.58536" lon="-71.2288367"><ele>1599.1666666666665</ele><time>2026-04-29T19:28:45.085Z</time></trkpt><trkpt lat="8.58534" lon="-71.2289083"><ele>1598.0</ele><time>2026-04-29T19:28:48.087Z</time></trkpt><trkpt lat="8.5853083" lon="-71.2289817"><ele>1597.9999999999998</ele><time>2026-04-29T19:28:51.081Z</time></trkpt><trkpt lat="8.5852783" lon="-71.2290617"><ele>1598.0</ele><time>2026-04-29T19:28:54.085Z</time></trkpt><trkpt lat="8.5852433" lon="-71.22914"><ele>1598.0</ele><time>2026-04-29T19:28:57.078Z</time></trkpt><trkpt lat="8.5852167" lon="-71.2292183"><ele>1598.0</ele><time>2026-04-29T19:29:00.066Z</time></trkpt><trkpt lat="8.58519" lon="-71.2292967"><ele>1597.9999999999998</ele><time>2026-04-29T19:29:03.087Z</time></trkpt><trkpt lat="8.5851617" lon="-71.2293667"><ele>1598.0</ele><time>2026-04-29T19:29:06.09Z</time></trkpt><trkpt lat="8.5851483" lon="-71.2294417"><ele>1597.9999999999998</ele><time>2026-04-29T19:29:09.08Z</time></trkpt><trkpt lat="8.585135" lon="-71.2295117"><ele>1598.0</ele><time>2026-04-29T19:29:12.085Z</time></trkpt><trkpt lat="8.5851133" lon="-71.2295833"><ele>1598.0</ele><time>2026-04-29T19:29:15.082Z</time></trkpt><trkpt lat="8.585095" lon="-71.2296567"><ele>1598.0</ele><time>2026-04-29T19:29:18.085Z</time></trkpt><trkpt lat="8.5850917" lon="-71.2297383"><ele>1597.9999999999998</ele><time>2026-04-29T19:29:21.087Z</time></trkpt><trkpt lat="8.585085" lon="-71.2298217"><ele>1598.0</ele><time>2026-04-29T19:29:24.092Z</time></trkpt><trkpt lat="8.585085" lon="-71.2299"><ele>1597.9999999999998</ele><time>2026-04-29T19:29:27.084Z</time></trkpt><trkpt lat="8.5851033" lon="-71.2299733"><ele>1598.0</ele><time>2026-04-29T19:29:30.079Z</time></trkpt><trkpt lat="8.5851233" lon="-71.2300467"><ele>1598.0</ele><time>2026-04-29T19:29:33.086Z</time></trkpt><trkpt lat="8.5851483" lon="-71.2301233"><ele>1598.0</ele><time>2026-04-29T19:29:36.102Z</time></trkpt><trkpt lat="8.5851867" lon="-71.2301917"><ele>1597.9999999999998</ele><time>2026-04-29T19:29:39.081Z</time></trkpt><trkpt lat="8.5852233" lon="-71.2302617"><ele>1598.0</ele><time>2026-04-29T19:29:42.087Z</time></trkpt><trkpt lat="8.585265" lon="-71.2303267"><ele>1598.0</ele><time>2026-04-29T19:29:45.089Z</time></trkpt><trkpt lat="8.5853083" lon="-71.2303767"><ele>1598.0</ele><time>2026-04-29T19:29:48.099Z</time></trkpt><trkpt lat="8.5853533" lon="-71.2304267"><ele>1598.0</ele><time>2026-04-29T19:29:51.078Z</time></trkpt><trkpt lat="8.5854117" lon="-71.2304783"><ele>1598.0</ele><time>2026-04-29T19:29:54.085Z</time></trkpt><trkpt lat="8.5854717" lon="-71.230515"><ele>1598.0</ele><time>2026-04-29T19:29:57.082Z</time></trkpt><trkpt lat="8.5855383" lon="-71.2305517"><ele>1598.0</ele><time>2026-04-29T19:30:00.089Z</time></trkpt><trkpt lat="8.5856017" lon="-71.2305983"><ele>1598.0</ele><time>2026-04-29T19:30:03.089Z</time></trkpt><trkpt lat="8.5856667" lon="-71.2306417"><ele>1599.5714285714287</ele><time>2026-04-29T19:30:06.075Z</time></trkpt><trkpt lat="8.5857333" lon="-71.230685"><ele>1601.142857142857</ele><time>2026-04-29T19:30:09.083Z</time></trkpt><trkpt lat="8.5857933" lon="-71.23072"><ele>1602.7142857142858</ele><time>2026-04-29T19:30:12.084Z</time></trkpt><trkpt lat="8.585855" lon="-71.2307683"><ele>1604.2857142857142</ele><time>2026-04-29T19:30:15.093Z</time></trkpt><trkpt lat="8.585915" lon="-71.2308067"><ele>1605.8571428571427</ele><time>2026-04-29T19:30:18.086Z</time></trkpt><trkpt lat="8.58597" lon="-71.2308467"><ele>1607.4285714285713</ele><time>2026-04-29T19:30:21.084Z</time></trkpt><trkpt lat="8.586025" lon="-71.2308867"><ele>1609.0</ele><time>2026-04-29T19:30:24.085Z</time></trkpt><trkpt lat="8.586085" lon="-71.2309183"><ele>1609.0</ele><time>2026-04-29T19:30:27.093Z</time></trkpt><trkpt lat="8.58615" lon="-71.23096"><ele>1609.0</ele><time>2026-04-29T19:30:30.086Z</time></trkpt><trkpt lat="8.58621" lon="-71.231005"><ele>1609.0</ele><time>2026-04-29T19:30:33.061Z</time></trkpt><trkpt lat="8.5862683" lon="-71.23105"><ele>1609.0</ele><time>2026-04-29T19:30:36.08Z</time></trkpt><trkpt lat="8.586335" lon="-71.2310917"><ele>1609.0</ele><time>2026-04-29T19:30:39.091Z</time></trkpt><trkpt lat="8.58639" lon="-71.2311317"><ele>1609.0</ele><time>2026-04-29T19:30:42.089Z</time></trkpt><trkpt lat="8.586445" lon="-71.23117"><ele>1609.0</ele><time>2026-04-29T19:30:45.075Z</time></trkpt><trkpt lat="8.5865017" lon="-71.23121"><ele>1609.142857142857</ele><time>2026-04-29T19:30:48.083Z</time></trkpt><trkpt lat="8.586545" lon="-71.2312617"><ele>1609.2857142857142</ele><time>2026-04-29T19:30:51.086Z</time></trkpt><trkpt lat="8.58659" lon="-71.2313117"><ele>1609.4285714285716</ele><time>2026-04-29T19:30:54.084Z</time></trkpt><trkpt lat="8.5866367" lon="-71.2313817"><ele>1609.5714285714284</ele><time>2026-04-29T19:30:58.082Z</time></trkpt><trkpt lat="8.5866833" lon="-71.2314433"><ele>1609.7142857142858</ele><time>2026-04-29T19:31:01.084Z</time></trkpt><trkpt lat="8.586725" lon="-71.2315033"><ele>1609.857142857143</ele><time>2026-04-29T19:31:04.076Z</time></trkpt><trkpt lat="8.5867583" lon="-71.2315583"><ele>1610.0</ele><time>2026-04-29T19:31:07.075Z</time></trkpt><trkpt lat="8.586805" lon="-71.2316133"><ele>1609.9999999999998</ele><time>2026-04-29T19:31:11.102Z</time></trkpt><trkpt lat="8.5868683" lon="-71.23165"><ele>1610.0</ele><time>2026-04-29T19:31:15.082Z</time></trkpt><trkpt lat="8.5869367" lon="-71.231685"><ele>1610.0</ele><time>2026-04-29T19:31:19.071Z</time></trkpt><trkpt lat="8.5869983" lon="-71.2317333"><ele>1610.0</ele><time>2026-04-29T19:31:23.086Z</time></trkpt><trkpt lat="8.58707" lon="-71.2317633"><ele>1609.9999999999998</ele><time>2026-04-29T19:31:27.074Z</time></trkpt><trkpt lat="8.58714" lon="-71.2317883"><ele>1610.0</ele><time>2026-04-29T19:31:31.083Z</time></trkpt><trkpt lat="8.5872217" lon="-71.2318133"><ele>1613.5714285714287</ele><time>2026-04-29T19:31:35.078Z</time></trkpt><trkpt lat="8.5873033" lon="-71.2318333"><ele>1617.142857142857</ele><time>2026-04-29T19:31:39.091Z</time></trkpt><trkpt lat="8.5873667" lon="-71.23185"><ele>1620.7142857142858</ele><time>2026-04-29T19:31:42.091Z</time></trkpt><trkpt lat="8.58743" lon="-71.23187"><ele>1624.2857142857142</ele><time>2026-04-29T19:31:45.088Z</time></trkpt><trkpt lat="8.587505" lon="-71.2318933"><ele>1627.857142857143</ele><time>2026-04-29T19:31:49.083Z</time></trkpt><trkpt lat="8.587575" lon="-71.231905"><ele>1631.4285714285716</ele><time>2026-04-29T19:31:52.068Z</time></trkpt><trkpt lat="8.5876533" lon="-71.2319067"><ele>1635.0</ele><time>2026-04-29T19:31:56.118Z</time></trkpt><trkpt lat="8.5877233" lon="-71.2318917"><ele>1635.0000000000002</ele><time>2026-04-29T19:31:59.056Z</time></trkpt><trkpt lat="8.5877967" lon="-71.2318833"><ele>1635.0</ele><time>2026-04-29T19:32:02.133Z</time></trkpt><trkpt lat="8.5878583" lon="-71.2318633"><ele>1635.0</ele><time>2026-04-29T19:32:05.068Z</time></trkpt><trkpt lat="8.5879317" lon="-71.2318467"><ele>1635.0</ele><time>2026-04-29T19:32:09.085Z</time></trkpt><trkpt lat="8.587995" lon="-71.2318333"><ele>1635.0</ele><time>2026-04-29T19:32:12.082Z</time></trkpt><trkpt lat="8.5880583" lon="-71.2318217"><ele>1635.0000000000002</ele><time>2026-04-29T19:32:15.09Z</time></trkpt><trkpt lat="8.5881217" lon="-71.2317983"><ele>1635.0</ele><time>2026-04-29T19:32:18.097Z</time></trkpt><trkpt lat="8.588185" lon="-71.2317767"><ele>1636.0</ele><time>2026-04-29T19:32:21.078Z</time></trkpt><trkpt lat="8.58826" lon="-71.231755"><ele>1637.0</ele><time>2026-04-29T19:32:25.082Z</time></trkpt><trkpt lat="8.5883383" lon="-71.2317317"><ele>1638.0</ele><time>2026-04-29T19:32:29.077Z</time></trkpt><trkpt lat="8.5884133" lon="-71.231705"><ele>1639.0</ele><time>2026-04-29T19:32:33.073Z</time></trkpt><trkpt lat="8.588485" lon="-71.2316817"><ele>1640.0</ele><time>2026-04-29T19:32:37.078Z</time></trkpt><trkpt lat="8.5885533" lon="-71.2316533"><ele>1641.0</ele><time>2026-04-29T19:32:41.099Z</time></trkpt><trkpt lat="8.588635" lon="-71.2316433"><ele>1641.8571428571427</ele><time>2026-04-29T19:32:45.056Z</time></trkpt><trkpt lat="8.588705" lon="-71.2316433"><ele>1642.7142857142858</ele><time>2026-04-29T19:32:48.082Z</time></trkpt><trkpt lat="8.5887733" lon="-71.2316467"><ele>1643.5714285714284</ele><time>2026-04-29T19:32:51.064Z</time></trkpt><trkpt lat="8.5888383" lon="-71.2316533"><ele>1644.4285714285713</ele><time>2026-04-29T19:32:54.079Z</time></trkpt><trkpt lat="8.5889067" lon="-71.23168"><ele>1645.2857142857142</ele><time>2026-04-29T19:32:58.092Z</time></trkpt><trkpt lat="8.588975" lon="-71.2317217"><ele>1646.142857142857</ele><time>2026-04-29T19:33:02.136Z</time></trkpt><trkpt lat="8.5890233" lon="-71.2317717"><ele>1647.0</ele><time>2026-04-29T19:33:05.079Z</time></trkpt><trkpt lat="8.5890617" lon="-71.2318317"><ele>1647.0</ele><time>2026-04-29T19:33:08.13Z</time></trkpt><trkpt lat="8.5891083" lon="-71.2318917"><ele>1647.0</ele><time>2026-04-29T19:33:11.086Z</time></trkpt><trkpt lat="8.589155" lon="-71.2319567"><ele>1647.0</ele><time>2026-04-29T19:33:14.122Z</time></trkpt><trkpt lat="8.589205" lon="-71.2320317"><ele>1647.0</ele><time>2026-04-29T19:33:17.068Z</time></trkpt><trkpt lat="8.5892433" lon="-71.23211"><ele>1647.0</ele><time>2026-04-29T19:33:20.127Z</time></trkpt><trkpt lat="8.589285" lon="-71.2321833"><ele>1647.0</ele><time>2026-04-29T19:33:23.084Z</time></trkpt><trkpt lat="8.5893183" lon="-71.2322467"><ele>1645.0</ele><time>2026-04-29T19:33:26.099Z</time></trkpt><trkpt lat="8.5893383" lon="-71.232315"><ele>1643.0</ele><time>2026-04-29T19:33:29.098Z</time></trkpt><trkpt lat="8.589355" lon="-71.2323833"><ele>1641.0</ele><time>2026-04-29T19:33:32.131Z</time></trkpt><trkpt lat="8.589365" lon="-71.2324567"><ele>1639.0</ele><time>2026-04-29T19:33:35.073Z</time></trkpt><trkpt lat="8.5893617" lon="-71.2325333"><ele>1637.0</ele><time>2026-04-29T19:33:38.127Z</time></trkpt><trkpt lat="8.589355" lon="-71.2326167"><ele>1635.0</ele><time>2026-04-29T19:33:41.089Z</time></trkpt><trkpt lat="8.58933" lon="-71.2326983"><ele>1635.0</ele><time>2026-04-29T19:33:44.124Z</time></trkpt><trkpt lat="8.589285" lon="-71.2327667"><ele>1635.0</ele><time>2026-04-29T19:33:47.083Z</time></trkpt><trkpt lat="8.5892333" lon="-71.232835"><ele>1635.0</ele><time>2026-04-29T19:33:50.116Z</time></trkpt><trkpt lat="8.5891683" lon="-71.23289"><ele>1635.0</ele><time>2026-04-29T19:33:53.084Z</time></trkpt><trkpt lat="8.5890967" lon="-71.2329383"><ele>1635.0</ele><time>2026-04-29T19:33:56.139Z</time></trkpt><trkpt lat="8.5890317" lon="-71.2329867"><ele>1635.0</ele><time>2026-04-29T19:33:59.097Z</time></trkpt><trkpt lat="8.58897" lon="-71.233035"><ele>1635.0</ele><time>2026-04-29T19:34:02.139Z</time></trkpt><trkpt lat="8.5889067" lon="-71.2330833"><ele>1635.0</ele><time>2026-04-29T19:34:05.073Z</time></trkpt><trkpt lat="8.5888533" lon="-71.2331283"><ele>1635.0</ele><time>2026-04-29T19:34:08.12Z</time></trkpt><trkpt lat="8.5887967" lon="-71.2331767"><ele>1635.0</ele><time>2026-04-29T19:34:11.084Z</time></trkpt><trkpt lat="8.58874" lon="-71.2332333"><ele>1635.0</ele><time>2026-04-29T19:34:14.128Z</time></trkpt><trkpt lat="8.5886917" lon="-71.2332917"><ele>1635.0</ele><time>2026-04-29T19:34:17.084Z</time></trkpt><trkpt lat="8.58864" lon="-71.2333467"><ele>1635.0000000000002</ele><time>2026-04-29T19:34:20.113Z</time></trkpt><trkpt lat="8.5885883" lon="-71.2334"><ele>1635.0</ele><time>2026-04-29T19:34:23.086Z</time></trkpt><trkpt lat="8.5885383" lon="-71.2334467"><ele>1635.0</ele><time>2026-04-29T19:34:26.135Z</time></trkpt><trkpt lat="8.5884967" lon="-71.2334967"><ele>1635.0</ele><time>2026-04-29T19:34:29.081Z</time></trkpt><trkpt lat="8.588455" lon="-71.233555"><ele>1635.0</ele><time>2026-04-29T19:34:32.136Z</time></trkpt><trkpt lat="8.5884117" lon="-71.2336067"><ele>1635.0000000000002</ele><time>2026-04-29T19:34:35.083Z</time></trkpt><trkpt lat="8.5883667" lon="-71.2336533"><ele>1635.0</ele><time>2026-04-29T19:34:38.128Z</time></trkpt><trkpt lat="8.5883117" lon="-71.23372"><ele>1635.0000000000002</ele><time>2026-04-29T19:34:42.062Z</time></trkpt><trkpt lat="8.5882833" lon="-71.2337783"><ele>1635.0</ele><time>2026-04-29T19:34:45.085Z</time></trkpt><trkpt lat="8.5882317" lon="-71.2338383"><ele>1635.0</ele><time>2026-04-29T19:34:49.044Z</time></trkpt><trkpt lat="8.588185" lon="-71.2339017"><ele>1635.0</ele><time>2026-04-29T19:34:53.085Z</time></trkpt><trkpt lat="8.588145" lon="-71.2339533"><ele>1635.0</ele><time>2026-04-29T19:34:56.154Z</time></trkpt><trkpt lat="8.5880983" lon="-71.2340133"><ele>1635.0000000000002</ele><time>2026-04-29T19:35:00.093Z</time></trkpt><trkpt lat="8.58805" lon="-71.234075"><ele>1635.0</ele><time>2026-04-29T19:35:04.081Z</time></trkpt><trkpt lat="8.5880133" lon="-71.2341417"><ele>1634.5714285714287</ele><time>2026-04-29T19:35:08.129Z</time></trkpt><trkpt lat="8.5879733" lon="-71.2342067"><ele>1634.142857142857</ele><time>2026-04-29T19:35:12.083Z</time></trkpt><trkpt lat="8.5879333" lon="-71.2342567"><ele>1633.7142857142858</ele><time>2026-04-29T19:35:16.083Z</time></trkpt><trkpt lat="8.5878967" lon="-71.23431"><ele>1633.2857142857142</ele><time>2026-04-29T19:35:20.123Z</time></trkpt><trkpt lat="8.5878483" lon="-71.2343583"><ele>1632.857142857143</ele><time>2026-04-29T19:35:24.079Z</time></trkpt><trkpt lat="8.5878017" lon="-71.23441"><ele>1632.4285714285716</ele><time>2026-04-29T19:35:28.085Z</time></trkpt><trkpt lat="8.5877617" lon="-71.234475"><ele>1632.0</ele><time>2026-04-29T19:35:32.123Z</time></trkpt><trkpt lat="8.5877217" lon="-71.2345383"><ele>1632.0</ele><time>2026-04-29T19:35:36.079Z</time></trkpt><trkpt lat="8.587685" lon="-71.2346033"><ele>1632.0</ele><time>2026-04-29T19:35:40.076Z</time></trkpt><trkpt lat="8.5876533" lon="-71.234675"><ele>1632.0</ele><time>2026-04-29T19:35:44.113Z</time></trkpt><trkpt lat="8.5876117" lon="-71.2347417"><ele>1632.0</ele><time>2026-04-29T19:35:48.084Z</time></trkpt><trkpt lat="8.5875667" lon="-71.23481"><ele>1632.0</ele><time>2026-04-29T19:35:52.081Z</time></trkpt><trkpt lat="8.5875183" lon="-71.2348683"><ele>1632.0</ele><time>2026-04-29T19:35:56.072Z</time></trkpt><trkpt lat="8.5874817" lon="-71.2349283"><ele>1635.857142857143</ele><time>2026-04-29T19:36:00.092Z</time></trkpt><trkpt lat="8.5874367" lon="-71.23498"><ele>1639.7142857142858</ele><time>2026-04-29T19:36:04.094Z</time></trkpt><trkpt lat="8.5873883" lon="-71.2350367"><ele>1643.5714285714284</ele><time>2026-04-29T19:36:08.104Z</time></trkpt><trkpt lat="8.587345" lon="-71.23509"><ele>1647.4285714285716</ele><time>2026-04-29T19:36:12.085Z</time></trkpt><trkpt lat="8.58729" lon="-71.2351333"><ele>1651.2857142857142</ele><time>2026-04-29T19:36:16.08Z</time></trkpt><trkpt lat="8.5872283" lon="-71.2351683"><ele>1655.142857142857</ele><time>2026-04-29T19:36:20.099Z</time></trkpt><trkpt lat="8.5871633" lon="-71.235205"><ele>1659.0</ele><time>2026-04-29T19:36:24.088Z</time></trkpt><trkpt lat="8.5870933" lon="-71.2352333"><ele>1659.0</ele><time>2026-04-29T19:36:28.091Z</time></trkpt><trkpt lat="8.5870217" lon="-71.2352433"><ele>1659.0</ele><time>2026-04-29T19:36:32.112Z</time></trkpt><trkpt lat="8.5869417" lon="-71.2352417"><ele>1659.0</ele><time>2026-04-29T19:36:36.085Z</time></trkpt><trkpt lat="8.58688" lon="-71.235225"><ele>1659.0</ele><time>2026-04-29T19:36:39.081Z</time></trkpt><trkpt lat="8.586805" lon="-71.2352067"><ele>1659.0</ele><time>2026-04-29T19:36:43.075Z</time></trkpt><trkpt lat="8.5867367" lon="-71.23519"><ele>1659.0</ele><time>2026-04-29T19:36:47.096Z</time></trkpt><trkpt lat="8.5866817" lon="-71.2351583"><ele>1659.0</ele><time>2026-04-29T19:36:50.126Z</time></trkpt><trkpt lat="8.5866233" lon="-71.235115"><ele>1658.5714285714287</ele><time>2026-04-29T19:36:54.089Z</time></trkpt><trkpt lat="8.5865867" lon="-71.23504"><ele>1658.142857142857</ele><time>2026-04-29T19:36:58.086Z</time></trkpt><trkpt lat="8.5865517" lon="-71.2349683"><ele>1657.7142857142858</ele><time>2026-04-29T19:37:02.119Z</time></trkpt><trkpt lat="8.5865117" lon="-71.23491"><ele>1657.2857142857142</ele><time>2026-04-29T19:37:06.084Z</time></trkpt><trkpt lat="8.5864783" lon="-71.23485"><ele>1656.857142857143</ele><time>2026-04-29T19:37:10.079Z</time></trkpt><trkpt lat="8.5864433" lon="-71.2347817"><ele>1656.4285714285716</ele><time>2026-04-29T19:37:14.134Z</time></trkpt><trkpt lat="8.5864133" lon="-71.234715"><ele>1656.0</ele><time>2026-04-29T19:37:18.091Z</time></trkpt><trkpt lat="8.5863817" lon="-71.234645"><ele>1656.8333333333333</ele><time>2026-04-29T19:37:22.081Z</time></trkpt><trkpt lat="8.5863533" lon="-71.2345733"><ele>1657.6666666666665</ele><time>2026-04-29T19:37:26.138Z</time></trkpt><trkpt lat="8.58631" lon="-71.2345133"><ele>1658.5</ele><time>2026-04-29T19:37:30.081Z</time></trkpt><trkpt lat="8.5862683" lon="-71.23445"><ele>1659.3333333333333</ele><time>2026-04-29T19:37:34.089Z</time></trkpt><trkpt lat="8.5862167" lon="-71.2343883"><ele>1660.1666666666665</ele><time>2026-04-29T19:37:38.128Z</time></trkpt><trkpt lat="8.5861567" lon="-71.2343417"><ele>1661.0</ele><time>2026-04-29T19:37:42.081Z</time></trkpt><trkpt lat="8.5860983" lon="-71.23429"><ele>1661.0</ele><time>2026-04-29T19:37:46.082Z</time></trkpt><trkpt lat="8.586025" lon="-71.2342583"><ele>1661.0</ele><time>2026-04-29T19:37:50.12Z</time></trkpt><trkpt lat="8.585955" lon="-71.2342367"><ele>1661.0</ele><time>2026-04-29T19:37:54.092Z</time></trkpt><trkpt lat="8.5858933" lon="-71.2342233"><ele>1661.0</ele><time>2026-04-29T19:37:57.087Z</time></trkpt><trkpt lat="8.5858217" lon="-71.2342083"><ele>1661.0</ele><time>2026-04-29T19:38:01.088Z</time></trkpt><trkpt lat="8.5857567" lon="-71.2342067"><ele>1661.0</ele><time>2026-04-29T19:38:05.081Z</time></trkpt><trkpt lat="8.5856933" lon="-71.2342033"><ele>1661.0</ele><time>2026-04-29T19:38:08.099Z</time></trkpt><trkpt lat="8.5856283" lon="-71.2341933"><ele>1661.0</ele><time>2026-04-29T19:38:11.038Z</time></trkpt><trkpt lat="8.5855517" lon="-71.234195"><ele>1661.0</ele><time>2026-04-29T19:38:15.095Z</time></trkpt><trkpt lat="8.58548" lon="-71.2342"><ele>1661.0</ele><time>2026-04-29T19:38:19.093Z</time></trkpt><trkpt lat="8.5854083" lon="-71.2341967"><ele>1661.0</ele><time>2026-04-29T19:38:23.081Z</time></trkpt><trkpt lat="8.585335" lon="-71.23419"><ele>1661.0</ele><time>2026-04-29T19:38:27.065Z</time></trkpt><trkpt lat="8.585265" lon="-71.234185"><ele>1661.0</ele><time>2026-04-29T19:38:31.08Z</time></trkpt><trkpt lat="8.585195" lon="-71.23419"><ele>1661.0</ele><time>2026-04-29T19:38:35.087Z</time></trkpt><trkpt lat="8.5851183" lon="-71.2342017"><ele>1662.142857142857</ele><time>2026-04-29T19:38:39.103Z</time></trkpt><trkpt lat="8.5850533" lon="-71.234205"><ele>1663.2857142857142</ele><time>2026-04-29T19:38:43.077Z</time></trkpt><trkpt lat="8.58499" lon="-71.2342117"><ele>1664.4285714285713</ele><time>2026-04-29T19:38:47.084Z</time></trkpt><trkpt lat="8.584915" lon="-71.2342133"><ele>1665.5714285714284</ele><time>2026-04-29T19:38:51.079Z</time></trkpt><trkpt lat="8.5848483" lon="-71.2342083"><ele>1666.7142857142858</ele><time>2026-04-29T19:38:55.072Z</time></trkpt><trkpt lat="8.5847833" lon="-71.2341967"><ele>1667.8571428571427</ele><time>2026-04-29T19:38:59.089Z</time></trkpt><trkpt lat="8.584715" lon="-71.2341767"><ele>1669.0</ele><time>2026-04-29T19:39:03.082Z</time></trkpt><trkpt lat="8.58464" lon="-71.2341517"><ele>1669.0000000000002</ele><time>2026-04-29T19:39:07.082Z</time></trkpt><trkpt lat="8.5845667" lon="-71.2341283"><ele>1669.0</ele><time>2026-04-29T19:39:11.074Z</time></trkpt><trkpt lat="8.5844967" lon="-71.2341117"><ele>1669.0</ele><time>2026-04-29T19:39:15.082Z</time></trkpt><trkpt lat="8.5844233" lon="-71.2340933"><ele>1669.0</ele><time>2026-04-29T19:39:19.083Z</time></trkpt><trkpt lat="8.5843517" lon="-71.234055"><ele>1669.0000000000002</ele><time>2026-04-29T19:39:23.092Z</time></trkpt><trkpt lat="8.5842783" lon="-71.23402"><ele>1669.0</ele><time>2026-04-29T19:39:27.087Z</time></trkpt><trkpt lat="8.584205" lon="-71.2339883"><ele>1664.7142857142856</ele><time>2026-04-29T19:39:31.084Z</time></trkpt><trkpt lat="8.584135" lon="-71.23396"><ele>1660.4285714285713</ele><time>2026-04-29T19:39:35.079Z</time></trkpt><trkpt lat="8.5840683" lon="-71.2339283"><ele>1656.142857142857</ele><time>2026-04-29T19:39:39.076Z</time></trkpt><trkpt lat="8.583995" lon="-71.2339083"><ele>1651.8571428571427</ele><time>2026-04-29T19:39:43.097Z</time></trkpt><trkpt lat="8.583925" lon="-71.23388"><ele>1647.5714285714287</ele><time>2026-04-29T19:39:47.08Z</time></trkpt><trkpt lat="8.5838583" lon="-71.2338467"><ele>1643.2857142857142</ele><time>2026-04-29T19:39:51.079Z</time></trkpt><trkpt lat="8.5837917" lon="-71.2338167"><ele>1639.0</ele><time>2026-04-29T19:39:55.089Z</time></trkpt><trkpt lat="8.5837217" lon="-71.2337933"><ele>1641.3333333333335</ele><time>2026-04-29T19:39:59.078Z</time></trkpt><trkpt lat="8.5836417" lon="-71.233765"><ele>1643.6666666666667</ele><time>2026-04-29T19:40:03.076Z</time></trkpt><trkpt lat="8.5835617" lon="-71.2337583"><ele>1646.0</ele><time>2026-04-29T19:40:07.085Z</time></trkpt><trkpt lat="8.583485" lon="-71.2337567"><ele>1648.3333333333335</ele><time>2026-04-29T19:40:11.089Z</time></trkpt><trkpt lat="8.58341" lon="-71.23375"><ele>1650.6666666666667</ele><time>2026-04-29T19:40:15.09Z</time></trkpt><trkpt lat="8.5833417" lon="-71.233755"><ele>1653.0</ele><time>2026-04-29T19:40:19.08Z</time></trkpt><trkpt lat="8.5832783" lon="-71.2337833"><ele>1653.0</ele><time>2026-04-29T19:40:23.084Z</time></trkpt><trkpt lat="8.58322" lon="-71.2338267"><ele>1653.0</ele><time>2026-04-29T19:40:27.095Z</time></trkpt><trkpt lat="8.5831633" lon="-71.2338733"><ele>1653.0</ele><time>2026-04-29T19:40:31.079Z</time></trkpt><trkpt lat="8.5831067" lon="-71.23392"><ele>1653.0</ele><time>2026-04-29T19:40:35.077Z</time></trkpt><trkpt lat="8.583055" lon="-71.233975"><ele>1653.0</ele><time>2026-04-29T19:40:39.076Z</time></trkpt><trkpt lat="8.58301" lon="-71.23404"><ele>1653.0</ele><time>2026-04-29T19:40:43.085Z</time></trkpt><trkpt lat="8.5829767" lon="-71.234115"><ele>1655.5</ele><time>2026-04-29T19:40:47.104Z</time></trkpt><trkpt lat="8.5829533" lon="-71.2341933"><ele>1658.0</ele><time>2026-04-29T19:40:51.078Z</time></trkpt><trkpt lat="8.58293" lon="-71.2342533"><ele>1660.5</ele><time>2026-04-29T19:40:54.087Z</time></trkpt><trkpt lat="8.5829033" lon="-71.2343283"><ele>1663.0</ele><time>2026-04-29T19:40:58.069Z</time></trkpt><trkpt lat="8.5828783" lon="-71.2344083"><ele>1665.5</ele><time>2026-04-29T19:41:02.129Z</time></trkpt><trkpt lat="8.5828467" lon="-71.2344733"><ele>1668.0</ele><time>2026-04-29T19:41:05.073Z</time></trkpt><trkpt lat="8.5828083" lon="-71.23454"><ele>1668.0</ele><time>2026-04-29T19:41:08.127Z</time></trkpt><trkpt lat="8.58276" lon="-71.2345933"><ele>1668.0</ele><time>2026-04-29T19:41:11.084Z</time></trkpt><trkpt lat="8.5827083" lon="-71.2346383"><ele>1668.0</ele><time>2026-04-29T19:41:14.139Z</time></trkpt><trkpt lat="8.58265" lon="-71.2346867"><ele>1668.0</ele><time>2026-04-29T19:41:17.084Z</time></trkpt><trkpt lat="8.58258" lon="-71.2347367"><ele>1668.0</ele><time>2026-04-29T19:41:20.132Z</time></trkpt><trkpt lat="8.5825167" lon="-71.23479"><ele>1668.0</ele><time>2026-04-29T19:41:23.074Z</time></trkpt><trkpt lat="8.5824533" lon="-71.2348417"><ele>1670.1666666666667</ele><time>2026-04-29T19:41:26.134Z</time></trkpt><trkpt lat="8.5823833" lon="-71.234895"><ele>1672.3333333333335</ele><time>2026-04-29T19:41:29.074Z</time></trkpt><trkpt lat="8.582305" lon="-71.23494"><ele>1674.5</ele><time>2026-04-29T19:41:32.139Z</time></trkpt><trkpt lat="8.5822217" lon="-71.2349683"><ele>1676.6666666666667</ele><time>2026-04-29T19:41:35.078Z</time></trkpt><trkpt lat="8.58216" lon="-71.2349833"><ele>1678.8333333333335</ele><time>2026-04-29T19:41:37.082Z</time></trkpt><trkpt lat="8.5820667" lon="-71.2349967"><ele>1681.0</ele><time>2026-04-29T19:41:40.078Z</time></trkpt><trkpt lat="8.5820033" lon="-71.2350017"><ele>1681.0000000000002</ele><time>2026-04-29T19:41:42.087Z</time></trkpt><trkpt lat="8.58194" lon="-71.23501"><ele>1681.0</ele><time>2026-04-29T19:41:44.123Z</time></trkpt><trkpt lat="8.58185" lon="-71.2350083"><ele>1681.0</ele><time>2026-04-29T19:41:47.082Z</time></trkpt><trkpt lat="8.5817617" lon="-71.2350067"><ele>1681.0</ele><time>2026-04-29T19:41:50.113Z</time></trkpt><trkpt lat="8.5816733" lon="-71.2349967"><ele>1681.0000000000002</ele><time>2026-04-29T19:41:53.084Z</time></trkpt><trkpt lat="8.5815867" lon="-71.2349783"><ele>1681.0</ele><time>2026-04-29T19:41:56.129Z</time></trkpt><trkpt lat="8.5815033" lon="-71.2349633"><ele>1681.0000000000002</ele><time>2026-04-29T19:41:59.078Z</time></trkpt><trkpt lat="8.581415" lon="-71.2349467"><ele>1681.0</ele><time>2026-04-29T19:42:02.14Z</time></trkpt><trkpt lat="8.5813267" lon="-71.23492"><ele>1681.0</ele><time>2026-04-29T19:42:05.075Z</time></trkpt><trkpt lat="8.5812633" lon="-71.2349083"><ele>1681.0</ele><time>2026-04-29T19:42:07.083Z</time></trkpt><trkpt lat="8.5811733" lon="-71.2348917"><ele>1681.0000000000002</ele><time>2026-04-29T19:42:10.078Z</time></trkpt><trkpt lat="8.581085" lon="-71.234875"><ele>1681.0</ele><time>2026-04-29T19:42:13.092Z</time></trkpt><trkpt lat="8.5809983" lon="-71.23486"><ele>1683.6</ele><time>2026-04-29T19:42:16.068Z</time></trkpt><trkpt lat="8.58091" lon="-71.2348383"><ele>1686.1999999999998</ele><time>2026-04-29T19:42:19.088Z</time></trkpt><trkpt lat="8.5808217" lon="-71.2348167"><ele>1688.8000000000002</ele><time>2026-04-29T19:42:22.082Z</time></trkpt><trkpt lat="8.5807317" lon="-71.2348033"><ele>1691.4</ele><time>2026-04-29T19:42:25.083Z</time></trkpt><trkpt lat="8.5806417" lon="-71.2347817"><ele>1694.0</ele><time>2026-04-29T19:42:28.082Z</time></trkpt><trkpt lat="8.5805533" lon="-71.2347583"><ele>1688.4999999999998</ele><time>2026-04-29T19:42:31.096Z</time></trkpt><trkpt lat="8.5804617" lon="-71.234735"><ele>1683.0</ele><time>2026-04-29T19:42:34.076Z</time></trkpt><trkpt lat="8.5803733" lon="-71.2347167"><ele>1677.5</ele><time>2026-04-29T19:42:37.065Z</time></trkpt><trkpt lat="8.58031" lon="-71.2347067"><ele>1672.0</ele><time>2026-04-29T19:42:39.083Z</time></trkpt><trkpt lat="8.5802183" lon="-71.2347033"><ele>1666.4999999999998</ele><time>2026-04-29T19:42:42.083Z</time></trkpt><trkpt lat="8.580155" lon="-71.2347067"><ele>1661.0</ele><time>2026-04-29T19:42:44.098Z</time></trkpt><trkpt lat="8.5800617" lon="-71.2347233"><ele>1660.857142857143</ele><time>2026-04-29T19:42:47.063Z</time></trkpt><trkpt lat="8.58" lon="-71.2347383"><ele>1660.7142857142856</ele><time>2026-04-29T19:42:49.091Z</time></trkpt><trkpt lat="8.5799167" lon="-71.234775"><ele>1660.5714285714284</ele><time>2026-04-29T19:42:52.079Z</time></trkpt><trkpt lat="8.5798617" lon="-71.2348083"><ele>1660.4285714285716</ele><time>2026-04-29T19:42:54.09Z</time></trkpt><trkpt lat="8.57981" lon="-71.234845"><ele>1660.2857142857142</ele><time>2026-04-29T19:42:56.132Z</time></trkpt><trkpt lat="8.5797417" lon="-71.2349083"><ele>1660.142857142857</ele><time>2026-04-29T19:42:59.08Z</time></trkpt><trkpt lat="8.579705" lon="-71.2349617"><ele>1660.0</ele><time>2026-04-29T19:43:01.09Z</time></trkpt><trkpt lat="8.5796683" lon="-71.2350167"><ele>1664.8333333333335</ele><time>2026-04-29T19:43:03.087Z</time></trkpt><trkpt lat="8.57963" lon="-71.2351017"><ele>1669.6666666666667</ele><time>2026-04-29T19:43:06.088Z</time></trkpt><trkpt lat="8.579615" lon="-71.235165"><ele>1674.5</ele><time>2026-04-29T19:43:08.121Z</time></trkpt><trkpt lat="8.5796033" lon="-71.235255"><ele>1679.3333333333335</ele><time>2026-04-29T19:43:11.083Z</time></trkpt><trkpt lat="8.5795967" lon="-71.235345"><ele>1684.1666666666667</ele><time>2026-04-29T19:43:14.127Z</time></trkpt><trkpt lat="8.5796033" lon="-71.2354367"><ele>1689.0</ele><time>2026-04-29T19:43:17.08Z</time></trkpt><trkpt lat="8.5796133" lon="-71.235525"><ele>1689.0</ele><time>2026-04-29T19:43:20.122Z</time></trkpt><trkpt lat="8.57963" lon="-71.2356083"><ele>1689.0</ele><time>2026-04-29T19:43:23.099Z</time></trkpt><trkpt lat="8.579645" lon="-71.2356967"><ele>1689.0</ele><time>2026-04-29T19:43:26.135Z</time></trkpt><trkpt lat="8.5796667" lon="-71.2357833"><ele>1689.0</ele><time>2026-04-29T19:43:29.088Z</time></trkpt><trkpt lat="8.5796817" lon="-71.2358683"><ele>1689.0</ele><time>2026-04-29T19:43:32.155Z</time></trkpt><trkpt lat="8.5796983" lon="-71.2359517"><ele>1689.0</ele><time>2026-04-29T19:43:35.089Z</time></trkpt><trkpt lat="8.5797083" lon="-71.2360317"><ele>1689.8333333333333</ele><time>2026-04-29T19:43:38.125Z</time></trkpt><trkpt lat="8.5797267" lon="-71.236115"><ele>1690.6666666666665</ele><time>2026-04-29T19:43:41.08Z</time></trkpt><trkpt lat="8.5797417" lon="-71.236195"><ele>1691.5</ele><time>2026-04-29T19:43:44.12Z</time></trkpt><trkpt lat="8.5797583" lon="-71.236275"><ele>1692.3333333333333</ele><time>2026-04-29T19:43:47.073Z</time></trkpt><trkpt lat="8.5797667" lon="-71.23636"><ele>1693.1666666666665</ele><time>2026-04-29T19:43:50.129Z</time></trkpt><trkpt lat="8.5797767" lon="-71.23644"><ele>1694.0</ele><time>2026-04-29T19:43:53.079Z</time></trkpt><trkpt lat="8.5797867" lon="-71.2365167"><ele>1694.0</ele><time>2026-04-29T19:43:56.14Z</time></trkpt><trkpt lat="8.579805" lon="-71.2365933"><ele>1694.0</ele><time>2026-04-29T19:43:59.082Z</time></trkpt><trkpt lat="8.579825" lon="-71.2366683"><ele>1694.0</ele><time>2026-04-29T19:44:02.128Z</time></trkpt><trkpt lat="8.5798483" lon="-71.2367483"><ele>1694.0</ele><time>2026-04-29T19:44:05.063Z</time></trkpt><trkpt lat="8.57987" lon="-71.2368183"><ele>1694.0</ele><time>2026-04-29T19:44:08.124Z</time></trkpt><trkpt lat="8.57988" lon="-71.2368867"><ele>1694.0</ele><time>2026-04-29T19:44:11.09Z</time></trkpt><trkpt lat="8.5798983" lon="-71.2369517"><ele>1694.0</ele><time>2026-04-29T19:44:14.125Z</time></trkpt><trkpt lat="8.5799033" lon="-71.2370217"><ele>1694.0</ele><time>2026-04-29T19:44:17.078Z</time></trkpt><trkpt lat="8.5799117" lon="-71.2370967"><ele>1694.0</ele><time>2026-04-29T19:44:20.12Z</time></trkpt><trkpt lat="8.5799267" lon="-71.237165"><ele>1694.0</ele><time>2026-04-29T19:44:23.086Z</time></trkpt><trkpt lat="8.5799433" lon="-71.2372333"><ele>1694.0</ele><time>2026-04-29T19:44:26.128Z</time></trkpt><trkpt lat="8.57996" lon="-71.2373033"><ele>1694.0</ele><time>2026-04-29T19:44:29.052Z</time></trkpt><trkpt lat="8.579975" lon="-71.237375"><ele>1694.0</ele><time>2026-04-29T19:44:32.13Z</time></trkpt><trkpt lat="8.579985" lon="-71.2374467"><ele>1694.0</ele><time>2026-04-29T19:44:35.082Z</time></trkpt><trkpt lat="8.57999" lon="-71.237515"><ele>1694.7142857142858</ele><time>2026-04-29T19:44:38.14Z</time></trkpt><trkpt lat="8.5800017" lon="-71.237585"><ele>1695.4285714285716</ele><time>2026-04-29T19:44:41.047Z</time></trkpt><trkpt lat="8.5800167" lon="-71.2376533"><ele>1696.142857142857</ele><time>2026-04-29T19:44:44.129Z</time></trkpt><trkpt lat="8.5800333" lon="-71.2377233"><ele>1696.857142857143</ele><time>2026-04-29T19:44:47.078Z</time></trkpt><trkpt lat="8.580045" lon="-71.2377917"><ele>1697.5714285714287</ele><time>2026-04-29T19:44:50.128Z</time></trkpt><trkpt lat="8.5800567" lon="-71.2378617"><ele>1698.2857142857142</ele><time>2026-04-29T19:44:53.086Z</time></trkpt><trkpt lat="8.5800617" lon="-71.2379333"><ele>1699.0</ele><time>2026-04-29T19:44:56.142Z</time></trkpt><trkpt lat="8.58007" lon="-71.238"><ele>1699.0</ele><time>2026-04-29T19:44:59.092Z</time></trkpt><trkpt lat="8.5800767" lon="-71.2380717"><ele>1699.0</ele><time>2026-04-29T19:45:02.131Z</time></trkpt><trkpt lat="8.5800833" lon="-71.238145"><ele>1699.0</ele><time>2026-04-29T19:45:05.073Z</time></trkpt><trkpt lat="8.5800917" lon="-71.2382183"><ele>1699.0</ele><time>2026-04-29T19:45:08.127Z</time></trkpt><trkpt lat="8.5800917" lon="-71.23829"><ele>1699.0</ele><time>2026-04-29T19:45:11.063Z</time></trkpt><trkpt lat="8.58008" lon="-71.2383667"><ele>1699.0</ele><time>2026-04-29T19:45:14.121Z</time></trkpt><trkpt lat="8.5800683" lon="-71.2384433"><ele>1699.0</ele><time>2026-04-29T19:45:17.081Z</time></trkpt><trkpt lat="8.580055" lon="-71.2385167"><ele>1699.142857142857</ele><time>2026-04-29T19:45:20.119Z</time></trkpt><trkpt lat="8.580055" lon="-71.2385933"><ele>1699.2857142857144</ele><time>2026-04-29T19:45:23.046Z</time></trkpt><trkpt lat="8.58004" lon="-71.2386633"><ele>1699.4285714285716</ele><time>2026-04-29T19:45:26.151Z</time></trkpt><trkpt lat="8.5800267" lon="-71.238735"><ele>1699.5714285714284</ele><time>2026-04-29T19:45:29.081Z</time></trkpt><trkpt lat="8.5800117" lon="-71.2388083"><ele>1699.7142857142858</ele><time>2026-04-29T19:45:32.142Z</time></trkpt><trkpt lat="8.5799833" lon="-71.238875"><ele>1699.857142857143</ele><time>2026-04-29T19:45:35.079Z</time></trkpt><trkpt lat="8.5799717" lon="-71.2389483"><ele>1700.0</ele><time>2026-04-29T19:45:38.131Z</time></trkpt><trkpt lat="8.579955" lon="-71.2390183"><ele>1701.5714285714284</ele><time>2026-04-29T19:45:41.079Z</time></trkpt><trkpt lat="8.5799383" lon="-71.23909"><ele>1703.142857142857</ele><time>2026-04-29T19:45:44.143Z</time></trkpt><trkpt lat="8.5799183" lon="-71.239155"><ele>1704.7142857142858</ele><time>2026-04-29T19:45:47.087Z</time></trkpt><trkpt lat="8.579905" lon="-71.2392233"><ele>1706.2857142857142</ele><time>2026-04-29T19:45:50.138Z</time></trkpt><trkpt lat="8.5798867" lon="-71.2392933"><ele>1707.857142857143</ele><time>2026-04-29T19:45:53.066Z</time></trkpt><trkpt lat="8.579875" lon="-71.2393617"><ele>1709.4285714285713</ele><time>2026-04-29T19:45:56.098Z</time></trkpt><trkpt lat="8.579865" lon="-71.2394267"><ele>1711.0</ele><time>2026-04-29T19:45:59.085Z</time></trkpt><trkpt lat="8.5798533" lon="-71.2394967"><ele>1710.9999999999998</ele><time>2026-04-29T19:46:02.127Z</time></trkpt><trkpt lat="8.5798417" lon="-71.2395667"><ele>1711.0</ele><time>2026-04-29T19:46:05.083Z</time></trkpt><trkpt lat="8.5798317" lon="-71.239635"><ele>1711.0</ele><time>2026-04-29T19:46:08.146Z</time></trkpt><trkpt lat="8.5798217" lon="-71.2397067"><ele>1711.0</ele><time>2026-04-29T19:46:11.072Z</time></trkpt><trkpt lat="8.57981" lon="-71.2397767"><ele>1711.0</ele><time>2026-04-29T19:46:14.143Z</time></trkpt><trkpt lat="8.5798033" lon="-71.2398467"><ele>1710.9999999999998</ele><time>2026-04-29T19:46:17.081Z</time></trkpt><trkpt lat="8.57979" lon="-71.2399133"><ele>1711.0</ele><time>2026-04-29T19:46:20.097Z</time></trkpt><trkpt lat="8.5797817" lon="-71.23998"><ele>1712.7142857142856</ele><time>2026-04-29T19:46:23.054Z</time></trkpt><trkpt lat="8.5797833" lon="-71.240045"><ele>1714.4285714285713</ele><time>2026-04-29T19:46:26.135Z</time></trkpt><trkpt lat="8.5797833" lon="-71.2401133"><ele>1716.142857142857</ele><time>2026-04-29T19:46:29.081Z</time></trkpt><trkpt lat="8.5797883" lon="-71.2401817"><ele>1717.8571428571427</ele><time>2026-04-29T19:46:32.119Z</time></trkpt><trkpt lat="8.57979" lon="-71.24025"><ele>1719.5714285714287</ele><time>2026-04-29T19:46:35.092Z</time></trkpt><trkpt lat="8.5797983" lon="-71.2403167"><ele>1721.2857142857142</ele><time>2026-04-29T19:46:38.116Z</time></trkpt><trkpt lat="8.5798067" lon="-71.24039"><ele>1723.0</ele><time>2026-04-29T19:46:41.092Z</time></trkpt><trkpt lat="8.5798117" lon="-71.24046"><ele>1723.0</ele><time>2026-04-29T19:46:44.131Z</time></trkpt><trkpt lat="8.5798217" lon="-71.2405333"><ele>1723.0</ele><time>2026-04-29T19:46:47.09Z</time></trkpt><trkpt lat="8.579835" lon="-71.2406083"><ele>1723.0</ele><time>2026-04-29T19:46:50.123Z</time></trkpt><trkpt lat="8.5798467" lon="-71.2406783"><ele>1723.0</ele><time>2026-04-29T19:46:53.073Z</time></trkpt><trkpt lat="8.5798567" lon="-71.240745"><ele>1723.0</ele><time>2026-04-29T19:46:56.153Z</time></trkpt><trkpt lat="8.5798733" lon="-71.2408083"><ele>1723.0</ele><time>2026-04-29T19:46:59.083Z</time></trkpt><trkpt lat="8.5798883" lon="-71.2408717"><ele>1723.0</ele><time>2026-04-29T19:47:02.133Z</time></trkpt><trkpt lat="8.5798983" lon="-71.24094"><ele>1723.2857142857142</ele><time>2026-04-29T19:47:05.084Z</time></trkpt><trkpt lat="8.579915" lon="-71.24101"><ele>1723.5714285714287</ele><time>2026-04-29T19:47:08.127Z</time></trkpt><trkpt lat="8.57993" lon="-71.2410733"><ele>1723.8571428571427</ele><time>2026-04-29T19:47:11.08Z</time></trkpt><trkpt lat="8.5799483" lon="-71.2411383"><ele>1724.142857142857</ele><time>2026-04-29T19:47:14.129Z</time></trkpt><trkpt lat="8.5799783" lon="-71.2411983"><ele>1724.4285714285713</ele><time>2026-04-29T19:47:17.09Z</time></trkpt><trkpt lat="8.5800167" lon="-71.2412533"><ele>1724.7142857142856</ele><time>2026-04-29T19:47:20.123Z</time></trkpt><trkpt lat="8.580055" lon="-71.241305"><ele>1725.0</ele><time>2026-04-29T19:47:23.092Z</time></trkpt><trkpt lat="8.5800967" lon="-71.2413567"><ele>1724.9999999999998</ele><time>2026-04-29T19:47:26.141Z</time></trkpt><trkpt lat="8.5801517" lon="-71.24142"><ele>1725.0</ele><time>2026-04-29T19:47:30.084Z</time></trkpt><trkpt lat="8.5802" lon="-71.241465"><ele>1725.0</ele><time>2026-04-29T19:47:33.075Z</time></trkpt><trkpt lat="8.580265" lon="-71.2415133"><ele>1725.0</ele><time>2026-04-29T19:47:37.076Z</time></trkpt><trkpt lat="8.5803183" lon="-71.241555"><ele>1725.0</ele><time>2026-04-29T19:47:40.092Z</time></trkpt><trkpt lat="8.58037" lon="-71.2415917"><ele>1724.9999999999998</ele><time>2026-04-29T19:47:43.069Z</time></trkpt><trkpt lat="8.58042" lon="-71.2416317"><ele>1725.0</ele><time>2026-04-29T19:47:46.086Z</time></trkpt><trkpt lat="8.5804767" lon="-71.241675"><ele>1727.9999999999998</ele><time>2026-04-29T19:47:49.088Z</time></trkpt><trkpt lat="8.58053" lon="-71.2417167"><ele>1731.0</ele><time>2026-04-29T19:47:52.095Z</time></trkpt><trkpt lat="8.5805883" lon="-71.2417583"><ele>1734.0</ele><time>2026-04-29T19:47:55.075Z</time></trkpt><trkpt lat="8.5806317" lon="-71.2418067"><ele>1737.0</ele><time>2026-04-29T19:47:58.076Z</time></trkpt><trkpt lat="8.5806817" lon="-71.2418533"><ele>1740.0</ele><time>2026-04-29T19:48:01.081Z</time></trkpt><trkpt lat="8.5807267" lon="-71.2419"><ele>1742.9999999999998</ele><time>2026-04-29T19:48:04.087Z</time></trkpt><trkpt lat="8.5807683" lon="-71.2419533"><ele>1746.0</ele><time>2026-04-29T19:48:07.079Z</time></trkpt><trkpt lat="8.58081" lon="-71.24201"><ele>1745.9999999999998</ele><time>2026-04-29T19:48:10.08Z</time></trkpt><trkpt lat="8.5808517" lon="-71.2420617"><ele>1746.0</ele><time>2026-04-29T19:48:13.061Z</time></trkpt><trkpt lat="8.5808967" lon="-71.2421167"><ele>1746.0</ele><time>2026-04-29T19:48:16.09Z</time></trkpt><trkpt lat="8.5809417" lon="-71.2421767"><ele>1746.0</ele><time>2026-04-29T19:48:19.081Z</time></trkpt><trkpt lat="8.5809767" lon="-71.2422367"><ele>1746.0</ele><time>2026-04-29T19:48:22.034Z</time></trkpt><trkpt lat="8.5810033" lon="-71.2423017"><ele>1745.9999999999998</ele><time>2026-04-29T19:48:25.093Z</time></trkpt><trkpt lat="8.5810333" lon="-71.2423683"><ele>1746.0</ele><time>2026-04-29T19:48:28.085Z</time></trkpt><trkpt lat="8.581065" lon="-71.2424267"><ele>1746.9999999999998</ele><time>2026-04-29T19:48:31.074Z</time></trkpt><trkpt lat="8.58111" lon="-71.242495"><ele>1748.0</ele><time>2026-04-29T19:48:35.089Z</time></trkpt><trkpt lat="8.5811417" lon="-71.2425517"><ele>1749.0</ele><time>2026-04-29T19:48:38.135Z</time></trkpt><trkpt lat="8.5811717" lon="-71.2426133"><ele>1750.0</ele><time>2026-04-29T19:48:41.087Z</time></trkpt><trkpt lat="8.5812" lon="-71.2426767"><ele>1751.0</ele><time>2026-04-29T19:48:44.133Z</time></trkpt><trkpt lat="8.58124" lon="-71.2427367"><ele>1751.9999999999998</ele><time>2026-04-29T19:48:47.076Z</time></trkpt><trkpt lat="8.58128" lon="-71.2427917"><ele>1753.0</ele><time>2026-04-29T19:48:50.139Z</time></trkpt><trkpt lat="8.581325" lon="-71.2428617"><ele>1752.9999999999998</ele><time>2026-04-29T19:48:54.067Z</time></trkpt><trkpt lat="8.5813717" lon="-71.242915"><ele>1753.0</ele><time>2026-04-29T19:48:57.081Z</time></trkpt><trkpt lat="8.58143" lon="-71.2429667"><ele>1753.0</ele><time>2026-04-29T19:49:00.086Z</time></trkpt><trkpt lat="8.5814817" lon="-71.2430067"><ele>1753.0</ele><time>2026-04-29T19:49:03.096Z</time></trkpt><trkpt lat="8.58155" lon="-71.2430383"><ele>1753.0</ele><time>2026-04-29T19:49:06.101Z</time></trkpt><trkpt lat="8.5816233" lon="-71.243065"><ele>1752.9999999999998</ele><time>2026-04-29T19:49:09.085Z</time></trkpt><trkpt lat="8.5816967" lon="-71.2430833"><ele>1753.0</ele><time>2026-04-29T19:49:12.087Z</time></trkpt><trkpt lat="8.5817717" lon="-71.2430983"><ele>1753.0000000000002</ele><time>2026-04-29T19:49:15.088Z</time></trkpt><trkpt lat="8.5818533" lon="-71.2431233"><ele>1753.0</ele><time>2026-04-29T19:49:18.096Z</time></trkpt><trkpt lat="8.581925" lon="-71.2431233"><ele>1753.0</ele><time>2026-04-29T19:49:21.085Z</time></trkpt><trkpt lat="8.5820067" lon="-71.2431483"><ele>1753.0</ele><time>2026-04-29T19:49:24.101Z</time></trkpt><trkpt lat="8.582085" lon="-71.2431767"><ele>1753.0000000000002</ele><time>2026-04-29T19:49:27.087Z</time></trkpt><trkpt lat="8.5821633" lon="-71.243205"><ele>1753.0</ele><time>2026-04-29T19:49:30.095Z</time></trkpt><trkpt lat="8.582245" lon="-71.2432533"><ele>1751.8000000000002</ele><time>2026-04-29T19:49:33.051Z</time></trkpt><trkpt lat="8.5823183" lon="-71.2433017"><ele>1750.6000000000001</ele><time>2026-04-29T19:49:36.08Z</time></trkpt><trkpt lat="8.58239" lon="-71.2433517"><ele>1749.3999999999999</ele><time>2026-04-29T19:49:39.087Z</time></trkpt><trkpt lat="8.5824517" lon="-71.24342"><ele>1748.1999999999998</ele><time>2026-04-29T19:49:42.103Z</time></trkpt><trkpt lat="8.5824983" lon="-71.2435067"><ele>1747.0</ele><time>2026-04-29T19:49:45.083Z</time></trkpt><trkpt lat="8.5825383" lon="-71.2435867"><ele>1747.0000000000002</ele><time>2026-04-29T19:49:48.084Z</time></trkpt><trkpt lat="8.58258" lon="-71.2436567"><ele>1747.0</ele><time>2026-04-29T19:49:51.079Z</time></trkpt><trkpt lat="8.5826133" lon="-71.2437367"><ele>1747.0</ele><time>2026-04-29T19:49:54.09Z</time></trkpt><trkpt lat="8.582655" lon="-71.2438083"><ele>1747.0</ele><time>2026-04-29T19:49:57.082Z</time></trkpt><trkpt lat="8.5826883" lon="-71.2438817"><ele>1747.0000000000002</ele><time>2026-04-29T19:50:00.082Z</time></trkpt><trkpt lat="8.5827283" lon="-71.2439517"><ele>1747.0</ele><time>2026-04-29T19:50:03.091Z</time></trkpt><trkpt lat="8.5827717" lon="-71.2440233"><ele>1748.3333333333335</ele><time>2026-04-29T19:50:06.079Z</time></trkpt><trkpt lat="8.5828033" lon="-71.2440983"><ele>1749.6666666666667</ele><time>2026-04-29T19:50:09.078Z</time></trkpt><trkpt lat="8.5828433" lon="-71.2441617"><ele>1751.0</ele><time>2026-04-29T19:50:12.084Z</time></trkpt><trkpt lat="8.58288" lon="-71.2442367"><ele>1752.3333333333335</ele><time>2026-04-29T19:50:15.085Z</time></trkpt><trkpt lat="8.58293" lon="-71.2443033"><ele>1753.6666666666667</ele><time>2026-04-29T19:50:18.076Z</time></trkpt><trkpt lat="8.5829833" lon="-71.24436"><ele>1755.0</ele><time>2026-04-29T19:50:21.083Z</time></trkpt><trkpt lat="8.5830533" lon="-71.2444133"><ele>1755.0</ele><time>2026-04-29T19:50:24.085Z</time></trkpt><trkpt lat="8.5831267" lon="-71.24447"><ele>1755.0</ele><time>2026-04-29T19:50:27.079Z</time></trkpt><trkpt lat="8.5832017" lon="-71.2445133"><ele>1755.0</ele><time>2026-04-29T19:50:30.081Z</time></trkpt><trkpt lat="8.5832583" lon="-71.2445433"><ele>1755.0</ele><time>2026-04-29T19:50:32.111Z</time></trkpt><trkpt lat="8.5833483" lon="-71.24457"><ele>1755.0</ele><time>2026-04-29T19:50:35.05Z</time></trkpt><trkpt lat="8.58344" lon="-71.2445817"><ele>1755.0</ele><time>2026-04-29T19:50:38.128Z</time></trkpt><trkpt lat="8.5835317" lon="-71.2445933"><ele>1755.0</ele><time>2026-04-29T19:50:41.07Z</time></trkpt><trkpt lat="8.583595" lon="-71.2446017"><ele>1755.0</ele><time>2026-04-29T19:50:43.083Z</time></trkpt><trkpt lat="8.5836583" lon="-71.2446067"><ele>1755.0</ele><time>2026-04-29T19:50:45.084Z</time></trkpt><trkpt lat="8.5837417" lon="-71.244615"><ele>1755.0</ele><time>2026-04-29T19:50:48.076Z</time></trkpt><trkpt lat="8.5838133" lon="-71.2446267"><ele>1755.0</ele><time>2026-04-29T19:50:51.093Z</time></trkpt><trkpt lat="8.5838817" lon="-71.2446333"><ele>1755.0</ele><time>2026-04-29T19:50:54.098Z</time></trkpt><trkpt lat="8.583955" lon="-71.2446483"><ele>1755.0</ele><time>2026-04-29T19:50:57.084Z</time></trkpt><trkpt lat="8.584045" lon="-71.244675"><ele>1756.5</ele><time>2026-04-29T19:51:00.081Z</time></trkpt><trkpt lat="8.5841083" lon="-71.2446883"><ele>1758.0</ele><time>2026-04-29T19:51:02.17Z</time></trkpt><trkpt lat="8.5841967" lon="-71.2447133"><ele>1759.5</ele><time>2026-04-29T19:51:05.092Z</time></trkpt><trkpt lat="8.5842867" lon="-71.24473"><ele>1761.0</ele><time>2026-04-29T19:51:08.127Z</time></trkpt><trkpt lat="8.5843733" lon="-71.2447367"><ele>1762.5</ele><time>2026-04-29T19:51:11.081Z</time></trkpt><trkpt lat="8.58446" lon="-71.244735"><ele>1764.0</ele><time>2026-04-29T19:51:14.146Z</time></trkpt><trkpt lat="8.5845517" lon="-71.24474"><ele>1764.0</ele><time>2026-04-29T19:51:17.085Z</time></trkpt><trkpt lat="8.58462" lon="-71.2447383"><ele>1764.0</ele><time>2026-04-29T19:51:19.089Z</time></trkpt><trkpt lat="8.5846883" lon="-71.2447333"><ele>1764.0</ele><time>2026-04-29T19:51:21.084Z</time></trkpt><trkpt lat="8.5847617" lon="-71.2447267"><ele>1764.0</ele><time>2026-04-29T19:51:23.091Z</time></trkpt><trkpt lat="8.5848433" lon="-71.2447183"><ele>1764.0</ele><time>2026-04-29T19:51:25.088Z</time></trkpt><trkpt lat="8.5849283" lon="-71.244705"><ele>1764.0</ele><time>2026-04-29T19:51:27.08Z</time></trkpt><trkpt lat="8.585015" lon="-71.2446817"><ele>1764.0</ele><time>2026-04-29T19:51:29.079Z</time></trkpt><trkpt lat="8.585105" lon="-71.2446583"><ele>1764.0</ele><time>2026-04-29T19:51:31.105Z</time></trkpt><trkpt lat="8.5852" lon="-71.2446317"><ele>1764.0</ele><time>2026-04-29T19:51:33.082Z</time></trkpt><trkpt lat="8.5853" lon="-71.2446067"><ele>1764.0</ele><time>2026-04-29T19:51:35.079Z</time></trkpt><trkpt lat="8.5854067" lon="-71.2445833"><ele>1764.0</ele><time>2026-04-29T19:51:37.081Z</time></trkpt><trkpt lat="8.5855167" lon="-71.244555"><ele>1762.75</ele><time>2026-04-29T19:51:39.087Z</time></trkpt><trkpt lat="8.5856283" lon="-71.2445283"><ele>1761.5</ele><time>2026-04-29T19:51:41.082Z</time></trkpt><trkpt lat="8.5857383" lon="-71.244505"><ele>1760.25</ele><time>2026-04-29T19:51:43.082Z</time></trkpt><trkpt lat="8.58585" lon="-71.2444783"><ele>1759.0</ele><time>2026-04-29T19:51:45.078Z</time></trkpt><trkpt lat="8.5859617" lon="-71.2444433"><ele>1759.0</ele><time>2026-04-29T19:51:47.075Z</time></trkpt><trkpt lat="8.586065" lon="-71.2444067"><ele>1759.0</ele><time>2026-04-29T19:51:49.078Z</time></trkpt><trkpt lat="8.5861833" lon="-71.244375"><ele>1759.0</ele><time>2026-04-29T19:51:51.088Z</time></trkpt><trkpt lat="8.5862983" lon="-71.2443517"><ele>1759.0</ele><time>2026-04-29T19:51:53.067Z</time></trkpt><trkpt lat="8.5863633" lon="-71.2443483"><ele>1759.0</ele><time>2026-04-29T19:51:54.077Z</time></trkpt><trkpt lat="8.58643" lon="-71.244345"><ele>1757.8333333333335</ele><time>2026-04-29T19:51:55.083Z</time></trkpt><trkpt lat="8.5864983" lon="-71.2443467"><ele>1756.6666666666667</ele><time>2026-04-29T19:51:56.152Z</time></trkpt><trkpt lat="8.5865667" lon="-71.244355"><ele>1755.5</ele><time>2026-04-29T19:51:57.082Z</time></trkpt><trkpt lat="8.5866333" lon="-71.244365"><ele>1754.3333333333335</ele><time>2026-04-29T19:51:58.084Z</time></trkpt><trkpt lat="8.5866983" lon="-71.244375"><ele>1753.1666666666667</ele><time>2026-04-29T19:51:59.074Z</time></trkpt><trkpt lat="8.5868233" lon="-71.244405"><ele>1752.0</ele><time>2026-04-29T19:52:01.092Z</time></trkpt><trkpt lat="8.5868883" lon="-71.2444367"><ele>1752.0</ele><time>2026-04-29T19:52:02.141Z</time></trkpt><trkpt lat="8.5869533" lon="-71.2444817"><ele>1752.0</ele><time>2026-04-29T19:52:03.088Z</time></trkpt><trkpt lat="8.5870133" lon="-71.2445267"><ele>1752.0</ele><time>2026-04-29T19:52:04.088Z</time></trkpt><trkpt lat="8.58707" lon="-71.2445733"><ele>1752.0</ele><time>2026-04-29T19:52:05.084Z</time></trkpt><trkpt lat="8.5871217" lon="-71.2446317"><ele>1752.0</ele><time>2026-04-29T19:52:06.092Z</time></trkpt><trkpt lat="8.5871667" lon="-71.2446933"><ele>1752.0</ele><time>2026-04-29T19:52:07.096Z</time></trkpt><trkpt lat="8.5872083" lon="-71.2447633"><ele>1747.6666666666667</ele><time>2026-04-29T19:52:08.119Z</time></trkpt><trkpt lat="8.5872483" lon="-71.2448367"><ele>1743.3333333333335</ele><time>2026-04-29T19:52:09.08Z</time></trkpt><trkpt lat="8.587285" lon="-71.2449083"><ele>1739.0</ele><time>2026-04-29T19:52:10.076Z</time></trkpt><trkpt lat="8.5873183" lon="-71.244985"><ele>1734.6666666666667</ele><time>2026-04-29T19:52:11.088Z</time></trkpt><trkpt lat="8.58735" lon="-71.245055"><ele>1730.3333333333335</ele><time>2026-04-29T19:52:12.095Z</time></trkpt><trkpt lat="8.587375" lon="-71.2451267"><ele>1726.0</ele><time>2026-04-29T19:52:13.083Z</time></trkpt><trkpt lat="8.5873917" lon="-71.2451983"><ele>1726.0000000000002</ele><time>2026-04-29T19:52:14.118Z</time></trkpt><trkpt lat="8.587405" lon="-71.2452617"><ele>1726.0</ele><time>2026-04-29T19:52:15.103Z</time></trkpt><trkpt lat="8.5874067" lon="-71.24533"><ele>1726.0</ele><time>2026-04-29T19:52:16.088Z</time></trkpt><trkpt lat="8.5874083" lon="-71.2453967"><ele>1726.0</ele><time>2026-04-29T19:52:17.084Z</time></trkpt><trkpt lat="8.587405" lon="-71.2455167"><ele>1726.0000000000002</ele><time>2026-04-29T19:52:19.087Z</time></trkpt><trkpt lat="8.587395" lon="-71.2456467"><ele>1726.0</ele><time>2026-04-29T19:52:21.078Z</time></trkpt><trkpt lat="8.58739" lon="-71.245765"><ele>1725.4285714285716</ele><time>2026-04-29T19:52:23.086Z</time></trkpt><trkpt lat="8.5873867" lon="-71.2458333"><ele>1724.857142857143</ele><time>2026-04-29T19:52:24.076Z</time></trkpt><trkpt lat="8.5873833" lon="-71.2459"><ele>1724.2857142857142</ele><time>2026-04-29T19:52:25.078Z</time></trkpt><trkpt lat="8.587385" lon="-71.2459717"><ele>1723.7142857142858</ele><time>2026-04-29T19:52:26.158Z</time></trkpt><trkpt lat="8.5873867" lon="-71.24604"><ele>1723.142857142857</ele><time>2026-04-29T19:52:27.092Z</time></trkpt><trkpt lat="8.5873883" lon="-71.24611"><ele>1722.5714285714287</ele><time>2026-04-29T19:52:28.089Z</time></trkpt><trkpt lat="8.5873883" lon="-71.2461783"><ele>1722.0</ele><time>2026-04-29T19:52:29.079Z</time></trkpt><trkpt lat="8.5873833" lon="-71.2462483"><ele>1722.0</ele><time>2026-04-29T19:52:30.084Z</time></trkpt><trkpt lat="8.5873833" lon="-71.2463167"><ele>1722.0</ele><time>2026-04-29T19:52:31.082Z</time></trkpt><trkpt lat="8.5873833" lon="-71.2463883"><ele>1722.0</ele><time>2026-04-29T19:52:32.149Z</time></trkpt><trkpt lat="8.58739" lon="-71.2464617"><ele>1722.0</ele><time>2026-04-29T19:52:33.078Z</time></trkpt><trkpt lat="8.587405" lon="-71.246535"><ele>1722.0</ele><time>2026-04-29T19:52:34.087Z</time></trkpt><trkpt lat="8.5874267" lon="-71.2466017"><ele>1722.0</ele><time>2026-04-29T19:52:35.089Z</time></trkpt><trkpt lat="8.5874517" lon="-71.246675"><ele>1722.0</ele><time>2026-04-29T19:52:36.082Z</time></trkpt><trkpt lat="8.5874867" lon="-71.246745"><ele>1722.3333333333333</ele><time>2026-04-29T19:52:37.039Z</time></trkpt><trkpt lat="8.5875333" lon="-71.2468067"><ele>1722.6666666666665</ele><time>2026-04-29T19:52:38.132Z</time></trkpt><trkpt lat="8.587585" lon="-71.246865"><ele>1723.0</ele><time>2026-04-29T19:52:39.089Z</time></trkpt><trkpt lat="8.587645" lon="-71.2469167"><ele>1723.3333333333333</ele><time>2026-04-29T19:52:40.078Z</time></trkpt><trkpt lat="8.5877133" lon="-71.2469633"><ele>1723.6666666666665</ele><time>2026-04-29T19:52:41.084Z</time></trkpt><trkpt lat="8.5877817" lon="-71.2470167"><ele>1724.0</ele><time>2026-04-29T19:52:42.091Z</time></trkpt><trkpt lat="8.587855" lon="-71.2470617"><ele>1723.9999999999998</ele><time>2026-04-29T19:52:43.05Z</time></trkpt><trkpt lat="8.5879317" lon="-71.2471"><ele>1724.0</ele><time>2026-04-29T19:52:44.113Z</time></trkpt><trkpt lat="8.5880117" lon="-71.2471283"><ele>1724.0</ele><time>2026-04-29T19:52:45.085Z</time></trkpt><trkpt lat="8.588095" lon="-71.2471483"><ele>1724.0</ele><time>2026-04-29T19:52:46.087Z</time></trkpt><trkpt lat="8.5881817" lon="-71.2471667"><ele>1723.9999999999998</ele><time>2026-04-29T19:52:47.084Z</time></trkpt><trkpt lat="8.5882683" lon="-71.2471817"><ele>1724.0</ele><time>2026-04-29T19:52:48.085Z</time></trkpt><trkpt lat="8.5883533" lon="-71.247195"><ele>1723.9999999999998</ele><time>2026-04-29T19:52:49.079Z</time></trkpt><trkpt lat="8.5884333" lon="-71.2472067"><ele>1724.0</ele><time>2026-04-29T19:52:50.13Z</time></trkpt><trkpt lat="8.5885133" lon="-71.2472283"><ele>1724.0</ele><time>2026-04-29T19:52:51.051Z</time></trkpt><trkpt lat="8.58859" lon="-71.247255"><ele>1724.0</ele><time>2026-04-29T19:52:52.093Z</time></trkpt><trkpt lat="8.5886633" lon="-71.2473"><ele>1723.9999999999998</ele><time>2026-04-29T19:52:53.087Z</time></trkpt><trkpt lat="8.588725" lon="-71.2473533"><ele>1724.0</ele><time>2026-04-29T19:52:54.091Z</time></trkpt><trkpt lat="8.58878" lon="-71.2474133"><ele>1722.4285714285716</ele><time>2026-04-29T19:52:55.091Z</time></trkpt><trkpt lat="8.5888283" lon="-71.2474767"><ele>1720.8571428571427</ele><time>2026-04-29T19:52:56.141Z</time></trkpt><trkpt lat="8.5888683" lon="-71.2475383"><ele>1719.2857142857142</ele><time>2026-04-29T19:52:57.099Z</time></trkpt><trkpt lat="8.5889017" lon="-71.247605"><ele>1717.7142857142858</ele><time>2026-04-29T19:52:58.092Z</time></trkpt><trkpt lat="8.5889233" lon="-71.2476783"><ele>1716.1428571428573</ele><time>2026-04-29T19:52:59.096Z</time></trkpt><trkpt lat="8.5889383" lon="-71.2477533"><ele>1714.5714285714284</ele><time>2026-04-29T19:53:00.079Z</time></trkpt><trkpt lat="8.588945" lon="-71.2478217"><ele>1713.0</ele><time>2026-04-29T19:53:01.083Z</time></trkpt><trkpt lat="8.5889417" lon="-71.2478883"><ele>1713.0</ele><time>2026-04-29T19:53:02.136Z</time></trkpt><trkpt lat="8.5889283" lon="-71.24796"><ele>1713.0</ele><time>2026-04-29T19:53:03.08Z</time></trkpt><trkpt lat="8.5888933" lon="-71.2480883"><ele>1713.0</ele><time>2026-04-29T19:53:05.085Z</time></trkpt><trkpt lat="8.58887" lon="-71.248155"><ele>1713.0</ele><time>2026-04-29T19:53:06.098Z</time></trkpt><trkpt lat="8.5888483" lon="-71.2482233"><ele>1713.0</ele><time>2026-04-29T19:53:07.087Z</time></trkpt><trkpt lat="8.5888233" lon="-71.2482917"><ele>1713.0</ele><time>2026-04-29T19:53:08.139Z</time></trkpt><trkpt lat="8.5887983" lon="-71.2483617"><ele>1711.6666666666667</ele><time>2026-04-29T19:53:09.076Z</time></trkpt><trkpt lat="8.5887733" lon="-71.2484283"><ele>1710.3333333333335</ele><time>2026-04-29T19:53:10.081Z</time></trkpt><trkpt lat="8.58875" lon="-71.2484883"><ele>1709.0</ele><time>2026-04-29T19:53:11.083Z</time></trkpt><trkpt lat="8.588705" lon="-71.2485933"><ele>1707.6666666666667</ele><time>2026-04-29T19:53:13.089Z</time></trkpt><trkpt lat="8.5886633" lon="-71.24869"><ele>1706.3333333333335</ele><time>2026-04-29T19:53:15.079Z</time></trkpt><trkpt lat="8.5886233" lon="-71.24877"><ele>1705.0</ele><time>2026-04-29T19:53:17.039Z</time></trkpt><trkpt lat="8.5885933" lon="-71.248845"><ele>1705.7142857142858</ele><time>2026-04-29T19:53:19.077Z</time></trkpt><trkpt lat="8.5885667" lon="-71.248915"><ele>1706.4285714285716</ele><time>2026-04-29T19:53:21.083Z</time></trkpt><trkpt lat="8.5885417" lon="-71.2489767"><ele>1707.1428571428573</ele><time>2026-04-29T19:53:23.095Z</time></trkpt><trkpt lat="8.5885017" lon="-71.249055"><ele>1707.857142857143</ele><time>2026-04-29T19:53:26.149Z</time></trkpt><trkpt lat="8.588455" lon="-71.2491067"><ele>1708.5714285714284</ele><time>2026-04-29T19:53:28.083Z</time></trkpt><trkpt lat="8.5884033" lon="-71.2491583"><ele>1709.2857142857144</ele><time>2026-04-29T19:53:30.068Z</time></trkpt><trkpt lat="8.588355" lon="-71.2492067"><ele>1710.0</ele><time>2026-04-29T19:53:32.129Z</time></trkpt><trkpt lat="8.5883033" lon="-71.24925"><ele>1710.0</ele><time>2026-04-29T19:53:34.081Z</time></trkpt><trkpt lat="8.58824" lon="-71.2493117"><ele>1710.0</ele><time>2026-04-29T19:53:37.084Z</time></trkpt><trkpt lat="8.5881883" lon="-71.2493633"><ele>1710.0</ele><time>2026-04-29T19:53:40.082Z</time></trkpt><trkpt lat="8.5881317" lon="-71.249415"><ele>1710.0</ele><time>2026-04-29T19:53:43.081Z</time></trkpt><trkpt lat="8.5880783" lon="-71.249465"><ele>1710.0</ele><time>2026-04-29T19:53:46.087Z</time></trkpt><trkpt lat="8.5880317" lon="-71.2495133"><ele>1710.0</ele><time>2026-04-29T19:53:49.083Z</time></trkpt><trkpt lat="8.5879833" lon="-71.24957"><ele>1710.0</ele><time>2026-04-29T19:53:53.068Z</time></trkpt><trkpt lat="8.5879333" lon="-71.24961"><ele>1710.0</ele><time>2026-04-29T19:53:56.129Z</time></trkpt><trkpt lat="8.5878783" lon="-71.2496583"><ele>1710.0</ele><time>2026-04-29T19:54:00.058Z</time></trkpt><trkpt lat="8.58782" lon="-71.24969"><ele>1710.0</ele><time>2026-04-29T19:54:03.09Z</time></trkpt><trkpt lat="8.5877767" lon="-71.249745"><ele>1710.0</ele><time>2026-04-29T19:54:07.076Z</time></trkpt><trkpt lat="8.58773" lon="-71.2498083"><ele>1710.0</ele><time>2026-04-29T19:54:11.081Z</time></trkpt><trkpt lat="8.5876767" lon="-71.2498617"><ele>1710.0</ele><time>2026-04-29T19:54:15.083Z</time></trkpt><trkpt lat="8.587625" lon="-71.249925"><ele>1710.7142857142858</ele><time>2026-04-29T19:54:19.1Z</time></trkpt><trkpt lat="8.5875717" lon="-71.2499717"><ele>1711.4285714285713</ele><time>2026-04-29T19:54:22.091Z</time></trkpt><trkpt lat="8.5875233" lon="-71.2500133"><ele>1712.142857142857</ele><time>2026-04-29T19:54:25.082Z</time></trkpt><trkpt lat="8.5874617" lon="-71.25007"><ele>1712.857142857143</ele><time>2026-04-29T19:54:29.089Z</time></trkpt><trkpt lat="8.5874033" lon="-71.250125"><ele>1713.5714285714284</ele><time>2026-04-29T19:54:33.091Z</time></trkpt><trkpt lat="8.5873517" lon="-71.2501833"><ele>1714.2857142857142</ele><time>2026-04-29T19:54:37.086Z</time></trkpt><trkpt lat="8.5873" lon="-71.2502233"><ele>1715.0</ele><time>2026-04-29T19:54:40.09Z</time></trkpt><trkpt lat="8.5872517" lon="-71.250285"><ele>1715.0</ele><time>2026-04-29T19:54:44.128Z</time></trkpt><trkpt lat="8.5872083" lon="-71.2503317"><ele>1715.0</ele><time>2026-04-29T19:54:47.083Z</time></trkpt><trkpt lat="8.587155" lon="-71.2503967"><ele>1715.0</ele><time>2026-04-29T19:54:51.078Z</time></trkpt><trkpt lat="8.5871" lon="-71.250455"><ele>1715.0</ele><time>2026-04-29T19:54:55.084Z</time></trkpt><trkpt lat="8.5870567" lon="-71.250505"><ele>1715.0</ele><time>2026-04-29T19:54:58.08Z</time></trkpt><trkpt lat="8.58701" lon="-71.2505533"><ele>1715.0</ele><time>2026-04-29T19:55:01.078Z</time></trkpt><trkpt lat="8.58696" lon="-71.2505933"><ele>1715.0</ele><time>2026-04-29T19:55:04.079Z</time></trkpt><trkpt lat="8.586895" lon="-71.250645"><ele>1715.3333333333333</ele><time>2026-04-29T19:55:08.08Z</time></trkpt><trkpt lat="8.5868517" lon="-71.2506917"><ele>1715.6666666666665</ele><time>2026-04-29T19:55:11.059Z</time></trkpt><trkpt lat="8.586795" lon="-71.25075"><ele>1716.0</ele><time>2026-04-29T19:55:15.08Z</time></trkpt><trkpt lat="8.586745" lon="-71.2508083"><ele>1716.3333333333335</ele><time>2026-04-29T19:55:19.079Z</time></trkpt><trkpt lat="8.5866817" lon="-71.25086"><ele>1716.6666666666667</ele><time>2026-04-29T19:55:23.075Z</time></trkpt><trkpt lat="8.58663" lon="-71.2509183"><ele>1717.0</ele><time>2026-04-29T19:55:27.076Z</time></trkpt><trkpt lat="8.5865783" lon="-71.2509817"><ele>1717.0</ele><time>2026-04-29T19:55:31.085Z</time></trkpt><trkpt lat="8.58654" lon="-71.251035"><ele>1717.0</ele><time>2026-04-29T19:55:34.076Z</time></trkpt><trkpt lat="8.5865033" lon="-71.2510883"><ele>1717.0</ele><time>2026-04-29T19:55:37.083Z</time></trkpt><trkpt lat="8.586465" lon="-71.25114"><ele>1717.0</ele><time>2026-04-29T19:55:40.077Z</time></trkpt><trkpt lat="8.5864283" lon="-71.2511983"><ele>1717.0</ele><time>2026-04-29T19:55:43.056Z</time></trkpt><trkpt lat="8.5864017" lon="-71.2512583"><ele>1717.0</ele><time>2026-04-29T19:55:46.051Z</time></trkpt><trkpt lat="8.58637" lon="-71.251335"><ele>1717.0</ele><time>2026-04-29T19:55:50.126Z</time></trkpt><trkpt lat="8.5863433" lon="-71.2514017"><ele>1719.857142857143</ele><time>2026-04-29T19:55:53.078Z</time></trkpt><trkpt lat="8.5863333" lon="-71.2514867"><ele>1722.7142857142856</ele><time>2026-04-29T19:55:57.088Z</time></trkpt><trkpt lat="8.58633" lon="-71.2515633"><ele>1725.5714285714284</ele><time>2026-04-29T19:56:00.084Z</time></trkpt><trkpt lat="8.5863367" lon="-71.2516317"><ele>1728.4285714285716</ele><time>2026-04-29T19:56:03.067Z</time></trkpt><trkpt lat="8.5863467" lon="-71.251705"><ele>1731.2857142857142</ele><time>2026-04-29T19:56:06.096Z</time></trkpt><trkpt lat="8.5863617" lon="-71.251775"><ele>1734.142857142857</ele><time>2026-04-29T19:56:09.087Z</time></trkpt><trkpt lat="8.5863733" lon="-71.2518417"><ele>1737.0</ele><time>2026-04-29T19:56:12.071Z</time></trkpt><trkpt lat="8.58638" lon="-71.2519183"><ele>1737.0</ele><time>2026-04-29T19:56:15.094Z</time></trkpt><trkpt lat="8.5863867" lon="-71.252"><ele>1737.0</ele><time>2026-04-29T19:56:18.051Z</time></trkpt><trkpt lat="8.5864" lon="-71.2520783"><ele>1737.0</ele><time>2026-04-29T19:56:21.078Z</time></trkpt><trkpt lat="8.5864233" lon="-71.25216"><ele>1737.0</ele><time>2026-04-29T19:56:24.086Z</time></trkpt><trkpt lat="8.5864417" lon="-71.2522417"><ele>1737.0</ele><time>2026-04-29T19:56:27.091Z</time></trkpt><trkpt lat="8.5864517" lon="-71.2523283"><ele>1737.0</ele><time>2026-04-29T19:56:30.086Z</time></trkpt><trkpt lat="8.5864617" lon="-71.2524133"><ele>1738.8333333333333</ele><time>2026-04-29T19:56:33.08Z</time></trkpt><trkpt lat="8.5864833" lon="-71.2524983"><ele>1740.6666666666665</ele><time>2026-04-29T19:56:36.066Z</time></trkpt><trkpt lat="8.5864933" lon="-71.2525767"><ele>1742.5</ele><time>2026-04-29T19:56:39.085Z</time></trkpt><trkpt lat="8.5865033" lon="-71.2526633"><ele>1744.3333333333333</ele><time>2026-04-29T19:56:42.079Z</time></trkpt><trkpt lat="8.5865083" lon="-71.25275"><ele>1746.1666666666665</ele><time>2026-04-29T19:56:45.082Z</time></trkpt><trkpt lat="8.586505" lon="-71.2528333"><ele>1748.0</ele><time>2026-04-29T19:56:48.086Z</time></trkpt><trkpt lat="8.586495" lon="-71.2529183"><ele>1747.9999999999998</ele><time>2026-04-29T19:56:51.082Z</time></trkpt><trkpt lat="8.586495" lon="-71.253"><ele>1748.0</ele><time>2026-04-29T19:56:54.053Z</time></trkpt><trkpt lat="8.5864933" lon="-71.2530783"><ele>1748.0</ele><time>2026-04-29T19:56:57.09Z</time></trkpt><trkpt lat="8.5864717" lon="-71.2531633"><ele>1748.0</ele><time>2026-04-29T19:57:00.095Z</time></trkpt><trkpt lat="8.5864433" lon="-71.2532467"><ele>1747.9999999999998</ele><time>2026-04-29T19:57:03.073Z</time></trkpt><trkpt lat="8.5864183" lon="-71.2533083"><ele>1748.0</ele><time>2026-04-29T19:57:05.078Z</time></trkpt><trkpt lat="8.5863867" lon="-71.25337"><ele>1748.9999999999998</ele><time>2026-04-29T19:57:07.079Z</time></trkpt><trkpt lat="8.5863533" lon="-71.2534267"><ele>1750.0</ele><time>2026-04-29T19:57:09.092Z</time></trkpt><trkpt lat="8.5863067" lon="-71.2535067"><ele>1751.0</ele><time>2026-04-29T19:57:12.074Z</time></trkpt><trkpt lat="8.5862667" lon="-71.2535833"><ele>1752.0</ele><time>2026-04-29T19:57:15.084Z</time></trkpt><trkpt lat="8.5862233" lon="-71.25366"><ele>1752.9999999999998</ele><time>2026-04-29T19:57:18.092Z</time></trkpt><trkpt lat="8.5861817" lon="-71.2537383"><ele>1754.0</ele><time>2026-04-29T19:57:21.083Z</time></trkpt><trkpt lat="8.586135" lon="-71.253805"><ele>1750.6666666666665</ele><time>2026-04-29T19:57:24.102Z</time></trkpt><trkpt lat="8.58608" lon="-71.2538767"><ele>1747.3333333333333</ele><time>2026-04-29T19:57:27.071Z</time></trkpt><trkpt lat="8.5860333" lon="-71.25395"><ele>1744.0</ele><time>2026-04-29T19:57:30.081Z</time></trkpt><trkpt lat="8.5859817" lon="-71.25402"><ele>1740.6666666666665</ele><time>2026-04-29T19:57:33.082Z</time></trkpt><trkpt lat="8.585915" lon="-71.2540833"><ele>1737.3333333333333</ele><time>2026-04-29T19:57:36.08Z</time></trkpt><trkpt lat="8.5858467" lon="-71.25414"><ele>1734.0</ele><time>2026-04-29T19:57:39.085Z</time></trkpt><trkpt lat="8.5858017" lon="-71.2541883"><ele>1734.0</ele><time>2026-04-29T19:57:41.084Z</time></trkpt><trkpt lat="8.5857517" lon="-71.25423"><ele>1734.0</ele><time>2026-04-29T19:57:43.083Z</time></trkpt><trkpt lat="8.5856983" lon="-71.2542667"><ele>1734.0</ele><time>2026-04-29T19:57:45.082Z</time></trkpt><trkpt lat="8.585645" lon="-71.254305"><ele>1734.0</ele><time>2026-04-29T19:57:47.08Z</time></trkpt><trkpt lat="8.58559" lon="-71.25435"><ele>1734.0</ele><time>2026-04-29T19:57:49.079Z</time></trkpt><trkpt lat="8.5855317" lon="-71.2543983"><ele>1734.0</ele><time>2026-04-29T19:57:51.072Z</time></trkpt><trkpt lat="8.5854733" lon="-71.254445"><ele>1734.0</ele><time>2026-04-29T19:57:53.084Z</time></trkpt><trkpt lat="8.5854133" lon="-71.25449"><ele>1734.0</ele><time>2026-04-29T19:57:55.083Z</time></trkpt><trkpt lat="8.585355" lon="-71.25454"><ele>1734.0</ele><time>2026-04-29T19:57:57.093Z</time></trkpt><trkpt lat="8.5853" lon="-71.25459"><ele>1734.0</ele><time>2026-04-29T19:57:59.086Z</time></trkpt><trkpt lat="8.585245" lon="-71.25464"><ele>1734.0</ele><time>2026-04-29T19:58:01.078Z</time></trkpt><trkpt lat="8.585185" lon="-71.254685"><ele>1734.0</ele><time>2026-04-29T19:58:03.092Z</time></trkpt><trkpt lat="8.585125" lon="-71.2547333"><ele>1734.0</ele><time>2026-04-29T19:58:05.08Z</time></trkpt><trkpt lat="8.585065" lon="-71.2547867"><ele>1733.4</ele><time>2026-04-29T19:58:07.084Z</time></trkpt><trkpt lat="8.5849883" lon="-71.2548433"><ele>1732.8000000000002</ele><time>2026-04-29T19:58:09.078Z</time></trkpt><trkpt lat="8.5849033" lon="-71.254905"><ele>1732.1999999999998</ele><time>2026-04-29T19:58:11.037Z</time></trkpt><trkpt lat="8.5848133" lon="-71.254975"><ele>1731.6</ele><time>2026-04-29T19:58:13.082Z</time></trkpt><trkpt lat="8.58472" lon="-71.2550467"><ele>1731.0</ele><time>2026-04-29T19:58:15.089Z</time></trkpt><trkpt lat="8.5846267" lon="-71.2551283"><ele>1731.0</ele><time>2026-04-29T19:58:17.082Z</time></trkpt><trkpt lat="8.58458" lon="-71.2551717"><ele>1731.0</ele><time>2026-04-29T19:58:18.083Z</time></trkpt><trkpt lat="8.5844817" lon="-71.2552533"><ele>1731.0</ele><time>2026-04-29T19:58:20.128Z</time></trkpt><trkpt lat="8.5844317" lon="-71.2552967"><ele>1731.0</ele><time>2026-04-29T19:58:21.086Z</time></trkpt><trkpt lat="8.5843767" lon="-71.25534"><ele>1731.0</ele><time>2026-04-29T19:58:22.042Z</time></trkpt><trkpt lat="8.5843183" lon="-71.255385"><ele>1731.0</ele><time>2026-04-29T19:58:23.068Z</time></trkpt><trkpt lat="8.5842583" lon="-71.2554317"><ele>1730.4285714285716</ele><time>2026-04-29T19:58:24.087Z</time></trkpt><trkpt lat="8.5842" lon="-71.2554767"><ele>1729.8571428571427</ele><time>2026-04-29T19:58:25.079Z</time></trkpt><trkpt lat="8.5841417" lon="-71.2555217"><ele>1729.2857142857142</ele><time>2026-04-29T19:58:26.098Z</time></trkpt><trkpt lat="8.5840867" lon="-71.2555667"><ele>1728.7142857142858</ele><time>2026-04-29T19:58:27.043Z</time></trkpt><trkpt lat="8.5840267" lon="-71.2556067"><ele>1728.1428571428573</ele><time>2026-04-29T19:58:28.069Z</time></trkpt><trkpt lat="8.5839667" lon="-71.2556433"><ele>1727.5714285714284</ele><time>2026-04-29T19:58:29.083Z</time></trkpt><trkpt lat="8.5839067" lon="-71.2556767"><ele>1727.0</ele><time>2026-04-29T19:58:30.077Z</time></trkpt><trkpt lat="8.5838467" lon="-71.2557033"><ele>1726.9999999999998</ele><time>2026-04-29T19:58:31.095Z</time></trkpt><trkpt lat="8.5837833" lon="-71.2557183"><ele>1727.0</ele><time>2026-04-29T19:58:32.123Z</time></trkpt><trkpt lat="8.5836667" lon="-71.2557283"><ele>1727.0</ele><time>2026-04-29T19:58:34.081Z</time></trkpt><trkpt lat="8.5835717" lon="-71.2557133"><ele>1727.0</ele><time>2026-04-29T19:58:36.082Z</time></trkpt><trkpt lat="8.5835117" lon="-71.2556933"><ele>1726.9999999999998</ele><time>2026-04-29T19:58:38.123Z</time></trkpt><trkpt lat="8.58345" lon="-71.255655"><ele>1727.0</ele><time>2026-04-29T19:58:40.087Z</time></trkpt><trkpt lat="8.5833867" lon="-71.255595"><ele>1726.142857142857</ele><time>2026-04-29T19:58:42.072Z</time></trkpt><trkpt lat="8.5833367" lon="-71.2555367"><ele>1725.2857142857144</ele><time>2026-04-29T19:58:44.131Z</time></trkpt><trkpt lat="8.5832933" lon="-71.2554683"><ele>1724.4285714285716</ele><time>2026-04-29T19:58:46.077Z</time></trkpt><trkpt lat="8.5832567" lon="-71.2554033"><ele>1723.5714285714284</ele><time>2026-04-29T19:58:48.099Z</time></trkpt><trkpt lat="8.58323" lon="-71.255335"><ele>1722.7142857142858</ele><time>2026-04-29T19:58:50.12Z</time></trkpt><trkpt lat="8.583205" lon="-71.2552683"><ele>1721.857142857143</ele><time>2026-04-29T19:58:52.088Z</time></trkpt><trkpt lat="8.5831817" lon="-71.2552033"><ele>1721.0</ele><time>2026-04-29T19:58:54.088Z</time></trkpt><trkpt lat="8.583165" lon="-71.2551317"><ele>1721.0</ele><time>2026-04-29T19:58:56.138Z</time></trkpt><trkpt lat="8.5831483" lon="-71.2550667"><ele>1721.0</ele><time>2026-04-29T19:58:58.085Z</time></trkpt><trkpt lat="8.583125" lon="-71.2549883"><ele>1721.0</ele><time>2026-04-29T19:59:01.083Z</time></trkpt><trkpt lat="8.5831017" lon="-71.2549183"><ele>1721.0</ele><time>2026-04-29T19:59:04.078Z</time></trkpt><trkpt lat="8.5830783" lon="-71.2548517"><ele>1721.0</ele><time>2026-04-29T19:59:07.081Z</time></trkpt><trkpt lat="8.583055" lon="-71.254785"><ele>1721.0</ele><time>2026-04-29T19:59:10.08Z</time></trkpt><trkpt lat="8.5830317" lon="-71.25471"><ele>1721.0</ele><time>2026-04-29T19:59:13.071Z</time></trkpt><trkpt lat="8.583005" lon="-71.2546367"><ele>1723.2857142857142</ele><time>2026-04-29T19:59:16.086Z</time></trkpt><trkpt lat="8.5829667" lon="-71.254575"><ele>1725.5714285714284</ele><time>2026-04-29T19:59:19.099Z</time></trkpt><trkpt lat="8.5829267" lon="-71.2545033"><ele>1727.857142857143</ele><time>2026-04-29T19:59:22.049Z</time></trkpt><trkpt lat="8.5828817" lon="-71.2544433"><ele>1730.142857142857</ele><time>2026-04-29T19:59:25.089Z</time></trkpt><trkpt lat="8.5828317" lon="-71.2543933"><ele>1732.4285714285716</ele><time>2026-04-29T19:59:28.089Z</time></trkpt><trkpt lat="8.5827817" lon="-71.2543467"><ele>1734.7142857142858</ele><time>2026-04-29T19:59:31.079Z</time></trkpt><trkpt lat="8.5827233" lon="-71.2543083"><ele>1737.0</ele><time>2026-04-29T19:59:34.087Z</time></trkpt><trkpt lat="8.5826633" lon="-71.254275"><ele>1737.0</ele><time>2026-04-29T19:59:37.085Z</time></trkpt><trkpt lat="8.5825983" lon="-71.254245"><ele>1737.0</ele><time>2026-04-29T19:59:40.1Z</time></trkpt><trkpt lat="8.5825383" lon="-71.254215"><ele>1737.0</ele><time>2026-04-29T19:59:43.06Z</time></trkpt><trkpt lat="8.58248" lon="-71.2541867"><ele>1737.0</ele><time>2026-04-29T19:59:46.071Z</time></trkpt><trkpt lat="8.5824017" lon="-71.2541567"><ele>1737.0</ele><time>2026-04-29T19:59:50.079Z</time></trkpt><trkpt lat="8.5823533" lon="-71.254105"><ele>1737.0</ele><time>2026-04-29T19:59:53.094Z</time></trkpt><trkpt lat="8.5822867" lon="-71.2540633"><ele>1737.0</ele><time>2026-04-29T19:59:57.086Z</time></trkpt><trkpt lat="8.5822233" lon="-71.2540033"><ele>1734.5714285714287</ele><time>2026-04-29T20:00:01.071Z</time></trkpt><trkpt lat="8.58219" lon="-71.2539483"><ele>1732.1428571428573</ele><time>2026-04-29T20:00:04.091Z</time></trkpt><trkpt lat="8.582155" lon="-71.2538917"><ele>1729.7142857142858</ele><time>2026-04-29T20:00:07.068Z</time></trkpt><trkpt lat="8.5821283" lon="-71.25383"><ele>1727.2857142857142</ele><time>2026-04-29T20:00:10.077Z</time></trkpt><trkpt lat="8.582095" lon="-71.2537567"><ele>1724.857142857143</ele><time>2026-04-29T20:00:14.075Z</time></trkpt><trkpt lat="8.5820733" lon="-71.2536817"><ele>1722.4285714285713</ele><time>2026-04-29T20:00:18.098Z</time></trkpt><trkpt lat="8.582065" lon="-71.253615"><ele>1720.0</ele><time>2026-04-29T20:00:21.083Z</time></trkpt><trkpt lat="8.5820567" lon="-71.2535417"><ele>1720.0</ele><time>2026-04-29T20:00:25.089Z</time></trkpt><trkpt lat="8.58204" lon="-71.2534583"><ele>1720.0</ele><time>2026-04-29T20:00:29.086Z</time></trkpt><trkpt lat="8.5820383" lon="-71.253385"><ele>1720.0</ele><time>2026-04-29T20:00:32.133Z</time></trkpt><trkpt lat="8.5820383" lon="-71.2533083"><ele>1720.0</ele><time>2026-04-29T20:00:35.064Z</time></trkpt><trkpt lat="8.582035" lon="-71.25324"><ele>1720.0</ele><time>2026-04-29T20:00:38.084Z</time></trkpt><trkpt lat="8.5820233" lon="-71.2531583"><ele>1720.0</ele><time>2026-04-29T20:00:42.083Z</time></trkpt><trkpt lat="8.582005" lon="-71.2530967"><ele>1720.0</ele><time>2026-04-29T20:00:45.085Z</time></trkpt><trkpt lat="8.5819867" lon="-71.25303"><ele>1721.4285714285713</ele><time>2026-04-29T20:00:48.08Z</time></trkpt><trkpt lat="8.5819467" lon="-71.2529733"><ele>1722.857142857143</ele><time>2026-04-29T20:00:51.084Z</time></trkpt><trkpt lat="8.5819033" lon="-71.2529183"><ele>1724.2857142857142</ele><time>2026-04-29T20:00:54.083Z</time></trkpt><trkpt lat="8.5818417" lon="-71.2528733"><ele>1725.7142857142858</ele><time>2026-04-29T20:00:57.081Z</time></trkpt><trkpt lat="8.5817783" lon="-71.25283"><ele>1727.1428571428573</ele><time>2026-04-29T20:01:00.093Z</time></trkpt><trkpt lat="8.58171" lon="-71.2527883"><ele>1728.5714285714287</ele><time>2026-04-29T20:01:03.092Z</time></trkpt><trkpt lat="8.5816333" lon="-71.2527717"><ele>1730.0</ele><time>2026-04-29T20:01:06.084Z</time></trkpt><trkpt lat="8.581545" lon="-71.2527717"><ele>1729.9999999999998</ele><time>2026-04-29T20:01:09.089Z</time></trkpt><trkpt lat="8.5814583" lon="-71.2527817"><ele>1730.0</ele><time>2026-04-29T20:01:12.079Z</time></trkpt><trkpt lat="8.581375" lon="-71.252795"><ele>1730.0</ele><time>2026-04-29T20:01:15.049Z</time></trkpt><trkpt lat="8.581295" lon="-71.2528067"><ele>1730.0</ele><time>2026-04-29T20:01:18.083Z</time></trkpt><trkpt lat="8.581205" lon="-71.252815"><ele>1729.9999999999998</ele><time>2026-04-29T20:01:21.073Z</time></trkpt><trkpt lat="8.581135" lon="-71.2528383"><ele>1730.0</ele><time>2026-04-29T20:01:24.075Z</time></trkpt><trkpt lat="8.5810617" lon="-71.2528483"><ele>1730.8333333333333</ele><time>2026-04-29T20:01:27.094Z</time></trkpt><trkpt lat="8.5809833" lon="-71.2528633"><ele>1731.6666666666665</ele><time>2026-04-29T20:01:30.084Z</time></trkpt><trkpt lat="8.5809" lon="-71.2528833"><ele>1732.5</ele><time>2026-04-29T20:01:33.075Z</time></trkpt><trkpt lat="8.5808183" lon="-71.252885"><ele>1733.3333333333335</ele><time>2026-04-29T20:01:36.102Z</time></trkpt><trkpt lat="8.5807383" lon="-71.2529017"><ele>1734.1666666666667</ele><time>2026-04-29T20:01:39.089Z</time></trkpt><trkpt lat="8.5806583" lon="-71.25292"><ele>1735.0</ele><time>2026-04-29T20:01:42.082Z</time></trkpt><trkpt lat="8.5805767" lon="-71.25294"><ele>1735.0000000000002</ele><time>2026-04-29T20:01:45.087Z</time></trkpt><trkpt lat="8.5804917" lon="-71.2529567"><ele>1735.0</ele><time>2026-04-29T20:01:48.085Z</time></trkpt><trkpt lat="8.58041" lon="-71.25296"><ele>1735.0</ele><time>2026-04-29T20:01:51.077Z</time></trkpt><trkpt lat="8.580325" lon="-71.2529683"><ele>1735.0</ele><time>2026-04-29T20:01:54.09Z</time></trkpt><trkpt lat="8.5802367" lon="-71.2529883"><ele>1735.0000000000002</ele><time>2026-04-29T20:01:57.077Z</time></trkpt><trkpt lat="8.58015" lon="-71.25301"><ele>1735.0</ele><time>2026-04-29T20:02:00.084Z</time></trkpt><trkpt lat="8.5800683" lon="-71.2530233"><ele>1734.6666666666667</ele><time>2026-04-29T20:02:03.094Z</time></trkpt><trkpt lat="8.5799833" lon="-71.2530283"><ele>1734.3333333333335</ele><time>2026-04-29T20:02:06.079Z</time></trkpt><trkpt lat="8.579905" lon="-71.2530333"><ele>1734.0</ele><time>2026-04-29T20:02:09.082Z</time></trkpt><trkpt lat="8.5798233" lon="-71.2530483"><ele>1733.6666666666665</ele><time>2026-04-29T20:02:12.101Z</time></trkpt><trkpt lat="8.5797483" lon="-71.2530683"><ele>1733.3333333333333</ele><time>2026-04-29T20:02:15.082Z</time></trkpt><trkpt lat="8.5796717" lon="-71.2530833"><ele>1733.0</ele><time>2026-04-29T20:02:18.09Z</time></trkpt><trkpt lat="8.5795933" lon="-71.253085"><ele>1732.9999999999998</ele><time>2026-04-29T20:02:21.077Z</time></trkpt><trkpt lat="8.57952" lon="-71.25308"><ele>1733.0</ele><time>2026-04-29T20:02:24.081Z</time></trkpt><trkpt lat="8.5794417" lon="-71.2530683"><ele>1733.0</ele><time>2026-04-29T20:02:27.084Z</time></trkpt><trkpt lat="8.5793683" lon="-71.2530533"><ele>1733.0</ele><time>2026-04-29T20:02:30.071Z</time></trkpt><trkpt lat="8.5792967" lon="-71.25303"><ele>1732.9999999999998</ele><time>2026-04-29T20:02:33.081Z</time></trkpt><trkpt lat="8.5792233" lon="-71.2530017"><ele>1733.0</ele><time>2026-04-29T20:02:36.095Z</time></trkpt><trkpt lat="8.5791633" lon="-71.25296"><ele>1734.7142857142858</ele><time>2026-04-29T20:02:39.077Z</time></trkpt><trkpt lat="8.5791033" lon="-71.2529133"><ele>1736.4285714285716</ele><time>2026-04-29T20:02:42.098Z</time></trkpt><trkpt lat="8.57905" lon="-71.2528683"><ele>1738.1428571428573</ele><time>2026-04-29T20:02:45.087Z</time></trkpt><trkpt lat="8.5790033" lon="-71.2528083"><ele>1739.857142857143</ele><time>2026-04-29T20:02:48.088Z</time></trkpt><trkpt lat="8.578965" lon="-71.2527383"><ele>1741.5714285714284</ele><time>2026-04-29T20:02:51.05Z</time></trkpt><trkpt lat="8.5789283" lon="-71.2526733"><ele>1743.2857142857144</ele><time>2026-04-29T20:02:54.048Z</time></trkpt><trkpt lat="8.5788933" lon="-71.2526167"><ele>1745.0</ele><time>2026-04-29T20:02:57.08Z</time></trkpt><trkpt lat="8.5788433" lon="-71.2525633"><ele>1745.0</ele><time>2026-04-29T20:03:00.079Z</time></trkpt><trkpt lat="8.5788083" lon="-71.2525067"><ele>1745.0</ele><time>2026-04-29T20:03:03.053Z</time></trkpt><trkpt lat="8.578775" lon="-71.2524467"><ele>1745.0</ele><time>2026-04-29T20:03:06.083Z</time></trkpt><trkpt lat="8.578735" lon="-71.2523733"><ele>1745.0</ele><time>2026-04-29T20:03:10.092Z</time></trkpt><trkpt lat="8.5787083" lon="-71.252315"><ele>1745.0</ele><time>2026-04-29T20:03:13.068Z</time></trkpt><trkpt lat="8.5786567" lon="-71.2522583"><ele>1745.0</ele><time>2026-04-29T20:03:17.088Z</time></trkpt><trkpt lat="8.5786167" lon="-71.2522067"><ele>1745.0</ele><time>2026-04-29T20:03:21.091Z</time></trkpt><trkpt lat="8.578585" lon="-71.2521417"><ele>1748.2857142857144</ele><time>2026-04-29T20:03:25.079Z</time></trkpt><trkpt lat="8.5785467" lon="-71.2520767"><ele>1751.5714285714284</ele><time>2026-04-29T20:03:29.073Z</time></trkpt><trkpt lat="8.5785167" lon="-71.252015"><ele>1754.857142857143</ele><time>2026-04-29T20:03:33.092Z</time></trkpt><trkpt lat="8.578495" lon="-71.2519483"><ele>1758.1428571428573</ele><time>2026-04-29T20:03:37.09Z</time></trkpt><trkpt lat="8.5784817" lon="-71.2518733"><ele>1761.4285714285716</ele><time>2026-04-29T20:03:41.062Z</time></trkpt><trkpt lat="8.5784767" lon="-71.251805"><ele>1764.7142857142858</ele><time>2026-04-29T20:03:44.089Z</time></trkpt><trkpt lat="8.5784633" lon="-71.2517383"><ele>1768.0</ele><time>2026-04-29T20:03:47.097Z</time></trkpt><trkpt lat="8.5784683" lon="-71.25167"><ele>1768.0000000000002</ele><time>2026-04-29T20:03:50.087Z</time></trkpt><trkpt lat="8.5784783" lon="-71.251605"><ele>1768.0</ele><time>2026-04-29T20:03:53.082Z</time></trkpt><trkpt lat="8.5784883" lon="-71.2515333"><ele>1768.0</ele><time>2026-04-29T20:03:56.14Z</time></trkpt><trkpt lat="8.5784967" lon="-71.2514583"><ele>1768.0</ele><time>2026-04-29T20:03:59.085Z</time></trkpt><trkpt lat="8.5784983" lon="-71.2513883"><ele>1768.0</ele><time>2026-04-29T20:04:02.132Z</time></trkpt><trkpt lat="8.5785017" lon="-71.2513183"><ele>1768.0000000000002</ele><time>2026-04-29T20:04:05.079Z</time></trkpt><trkpt lat="8.5785083" lon="-71.25125"><ele>1768.0</ele><time>2026-04-29T20:04:08.08Z</time></trkpt><trkpt lat="8.5785217" lon="-71.2511683"><ele>1768.7142857142858</ele><time>2026-04-29T20:04:12.082Z</time></trkpt><trkpt lat="8.5785467" lon="-71.2510917"><ele>1769.4285714285716</ele><time>2026-04-29T20:04:16.086Z</time></trkpt><trkpt lat="8.5785667" lon="-71.2510267"><ele>1770.1428571428573</ele><time>2026-04-29T20:04:19.081Z</time></trkpt><trkpt lat="8.5785917" lon="-71.2509583"><ele>1770.857142857143</ele><time>2026-04-29T20:04:22.08Z</time></trkpt><trkpt lat="8.5786267" lon="-71.2509"><ele>1771.5714285714284</ele><time>2026-04-29T20:04:25.089Z</time></trkpt><trkpt lat="8.578665" lon="-71.2508417"><ele>1772.2857142857144</ele><time>2026-04-29T20:04:28.075Z</time></trkpt><trkpt lat="8.5786933" lon="-71.2507817"><ele>1773.0</ele><time>2026-04-29T20:04:31.084Z</time></trkpt><trkpt lat="8.57872" lon="-71.2507217"><ele>1770.5714285714287</ele><time>2026-04-29T20:04:34.08Z</time></trkpt><trkpt lat="8.5787533" lon="-71.2506633"><ele>1768.142857142857</ele><time>2026-04-29T20:04:37.085Z</time></trkpt><trkpt lat="8.578795" lon="-71.25059"><ele>1765.7142857142858</ele><time>2026-04-29T20:04:41.069Z</time></trkpt><trkpt lat="8.5788217" lon="-71.25053"><ele>1763.2857142857142</ele><time>2026-04-29T20:04:44.095Z</time></trkpt><trkpt lat="8.5788417" lon="-71.2504667"><ele>1760.8571428571427</ele><time>2026-04-29T20:04:47.089Z</time></trkpt><trkpt lat="8.5788517" lon="-71.2504"><ele>1758.4285714285713</ele><time>2026-04-29T20:04:50.091Z</time></trkpt><trkpt lat="8.57886" lon="-71.250335"><ele>1756.0</ele><time>2026-04-29T20:04:53.089Z</time></trkpt><trkpt lat="8.578855" lon="-71.2502533"><ele>1756.0000000000002</ele><time>2026-04-29T20:04:57.089Z</time></trkpt><trkpt lat="8.5788383" lon="-71.2501717"><ele>1756.0</ele><time>2026-04-29T20:05:01.078Z</time></trkpt><trkpt lat="8.5788067" lon="-71.2501133"><ele>1756.0</ele><time>2026-04-29T20:05:04.087Z</time></trkpt><trkpt lat="8.5787533" lon="-71.2500533"><ele>1756.0</ele><time>2026-04-29T20:05:07.086Z</time></trkpt><trkpt lat="8.57869" lon="-71.2500017"><ele>1756.0000000000002</ele><time>2026-04-29T20:05:10.062Z</time></trkpt><trkpt lat="8.57862" lon="-71.2499667"><ele>1756.0</ele><time>2026-04-29T20:05:13.08Z</time></trkpt><trkpt lat="8.5785533" lon="-71.2499367"><ele>1757.8333333333335</ele><time>2026-04-29T20:05:16.07Z</time></trkpt><trkpt lat="8.57848" lon="-71.24991"><ele>1759.6666666666667</ele><time>2026-04-29T20:05:19.083Z</time></trkpt><trkpt lat="8.5784067" lon="-71.2499033"><ele>1761.5</ele><time>2026-04-29T20:05:22.092Z</time></trkpt><trkpt lat="8.57833" lon="-71.2499183"><ele>1763.3333333333335</ele><time>2026-04-29T20:05:25.062Z</time></trkpt><trkpt lat="8.5782533" lon="-71.2499483"><ele>1765.1666666666667</ele><time>2026-04-29T20:05:28.079Z</time></trkpt><trkpt lat="8.57818" lon="-71.2499867"><ele>1767.0</ele><time>2026-04-29T20:05:31.089Z</time></trkpt><trkpt lat="8.5781083" lon="-71.2500433"><ele>1766.9999999999998</ele><time>2026-04-29T20:05:34.081Z</time></trkpt><trkpt lat="8.5780567" lon="-71.25009"><ele>1767.0</ele><time>2026-04-29T20:05:36.048Z</time></trkpt><trkpt lat="8.5780083" lon="-71.2501417"><ele>1767.0</ele><time>2026-04-29T20:05:38.092Z</time></trkpt><trkpt lat="8.5779617" lon="-71.250195"><ele>1767.0</ele><time>2026-04-29T20:05:40.075Z</time></trkpt><trkpt lat="8.577915" lon="-71.2502483"><ele>1767.0</ele><time>2026-04-29T20:05:42.084Z</time></trkpt><trkpt lat="8.57787" lon="-71.2503017"><ele>1766.9999999999998</ele><time>2026-04-29T20:05:44.084Z</time></trkpt><trkpt lat="8.5778233" lon="-71.25036"><ele>1767.0</ele><time>2026-04-29T20:05:46.065Z</time></trkpt><trkpt lat="8.57777" lon="-71.25042"><ele>1768.1666666666667</ele><time>2026-04-29T20:05:48.079Z</time></trkpt><trkpt lat="8.57773" lon="-71.2504817"><ele>1769.3333333333335</ele><time>2026-04-29T20:05:50.103Z</time></trkpt><trkpt lat="8.5776817" lon="-71.250545"><ele>1770.5</ele><time>2026-04-29T20:05:52.062Z</time></trkpt><trkpt lat="8.5776183" lon="-71.2506067"><ele>1771.6666666666667</ele><time>2026-04-29T20:05:54.083Z</time></trkpt><trkpt lat="8.5775583" lon="-71.2506683"><ele>1772.8333333333335</ele><time>2026-04-29T20:05:56.131Z</time></trkpt><trkpt lat="8.5774983" lon="-71.2507283"><ele>1774.0</ele><time>2026-04-29T20:05:58.082Z</time></trkpt><trkpt lat="8.57744" lon="-71.2507817"><ele>1773.9999999999998</ele><time>2026-04-29T20:06:00.083Z</time></trkpt><trkpt lat="8.5773817" lon="-71.2508283"><ele>1774.0</ele><time>2026-04-29T20:06:02.132Z</time></trkpt><trkpt lat="8.5773167" lon="-71.2508683"><ele>1774.0</ele><time>2026-04-29T20:06:04.08Z</time></trkpt><trkpt lat="8.5772467" lon="-71.2508967"><ele>1774.0</ele><time>2026-04-29T20:06:06.092Z</time></trkpt><trkpt lat="8.5771783" lon="-71.250925"><ele>1774.0</ele><time>2026-04-29T20:06:08.092Z</time></trkpt><trkpt lat="8.5771117" lon="-71.2509417"><ele>1773.9999999999998</ele><time>2026-04-29T20:06:10.072Z</time></trkpt><trkpt lat="8.5770367" lon="-71.2509483"><ele>1774.0</ele><time>2026-04-29T20:06:12.098Z</time></trkpt><trkpt lat="8.5769533" lon="-71.2509517"><ele>1772.2</ele><time>2026-04-29T20:06:14.09Z</time></trkpt><trkpt lat="8.5768583" lon="-71.2509533"><ele>1770.4</ele><time>2026-04-29T20:06:16.081Z</time></trkpt><trkpt lat="8.5767567" lon="-71.250945"><ele>1768.6</ele><time>2026-04-29T20:06:18.092Z</time></trkpt><trkpt lat="8.576655" lon="-71.250935"><ele>1766.8</ele><time>2026-04-29T20:06:20.085Z</time></trkpt><trkpt lat="8.5765533" lon="-71.250915"><ele>1765.0</ele><time>2026-04-29T20:06:22.088Z</time></trkpt><trkpt lat="8.576455" lon="-71.2508883"><ele>1765.0</ele><time>2026-04-29T20:06:24.085Z</time></trkpt><trkpt lat="8.5763617" lon="-71.250845"><ele>1765.0</ele><time>2026-04-29T20:06:26.129Z</time></trkpt><trkpt lat="8.5762767" lon="-71.250795"><ele>1765.0</ele><time>2026-04-29T20:06:28.08Z</time></trkpt><trkpt lat="8.5762" lon="-71.250745"><ele>1765.0</ele><time>2026-04-29T20:06:30.087Z</time></trkpt><trkpt lat="8.5761267" lon="-71.2506917"><ele>1765.0</ele><time>2026-04-29T20:06:32.121Z</time></trkpt><trkpt lat="8.5760617" lon="-71.2506283"><ele>1763.857142857143</ele><time>2026-04-29T20:06:34.079Z</time></trkpt><trkpt lat="8.5759983" lon="-71.250565"><ele>1762.7142857142858</ele><time>2026-04-29T20:06:36.088Z</time></trkpt><trkpt lat="8.575945" lon="-71.2505067"><ele>1761.5714285714284</ele><time>2026-04-29T20:06:38.088Z</time></trkpt><trkpt lat="8.5758983" lon="-71.2504483"><ele>1760.4285714285716</ele><time>2026-04-29T20:06:40.09Z</time></trkpt><trkpt lat="8.5758483" lon="-71.2503983"><ele>1759.2857142857142</ele><time>2026-04-29T20:06:42.08Z</time></trkpt><trkpt lat="8.5758" lon="-71.2503467"><ele>1758.142857142857</ele><time>2026-04-29T20:06:44.1Z</time></trkpt><trkpt lat="8.5757583" lon="-71.2502967"><ele>1757.0</ele><time>2026-04-29T20:06:46.077Z</time></trkpt><trkpt lat="8.575715" lon="-71.2502483"><ele>1757.0</ele><time>2026-04-29T20:06:48.086Z</time></trkpt><trkpt lat="8.5756417" lon="-71.2501883"><ele>1756.9999999999998</ele><time>2026-04-29T20:06:51.081Z</time></trkpt><trkpt lat="8.575565" lon="-71.2501367"><ele>1756.9999999999998</ele><time>2026-04-29T20:06:54.065Z</time></trkpt><trkpt lat="8.575485" lon="-71.2500933"><ele>1757.0</ele><time>2026-04-29T20:06:57.067Z</time></trkpt><trkpt lat="8.575405" lon="-71.25006"><ele>1757.0</ele><time>2026-04-29T20:07:00.092Z</time></trkpt><trkpt lat="8.5753217" lon="-71.250025"><ele>1759.8</ele><time>2026-04-29T20:07:03.081Z</time></trkpt><trkpt lat="8.5752333" lon="-71.2500033"><ele>1762.6</ele><time>2026-04-29T20:07:06.094Z</time></trkpt><trkpt lat="8.5751483" lon="-71.2499833"><ele>1765.3999999999999</ele><time>2026-04-29T20:07:09.075Z</time></trkpt><trkpt lat="8.57506" lon="-71.2499633"><ele>1768.1999999999998</ele><time>2026-04-29T20:07:12.075Z</time></trkpt><trkpt lat="8.5749683" lon="-71.2499367"><ele>1771.0</ele><time>2026-04-29T20:07:15.1Z</time></trkpt><trkpt lat="8.57488" lon="-71.2499217"><ele>1771.0000000000002</ele><time>2026-04-29T20:07:18.076Z</time></trkpt><trkpt lat="8.5747967" lon="-71.2499067"><ele>1771.0</ele><time>2026-04-29T20:07:21.084Z</time></trkpt><trkpt lat="8.5747083" lon="-71.2498983"><ele>1771.0</ele><time>2026-04-29T20:07:24.092Z</time></trkpt><trkpt lat="8.5746183" lon="-71.249875"><ele>1771.0</ele><time>2026-04-29T20:07:27.077Z</time></trkpt><trkpt lat="8.5745367" lon="-71.2498667"><ele>1771.0000000000002</ele><time>2026-04-29T20:07:30.091Z</time></trkpt><trkpt lat="8.5744567" lon="-71.2498567"><ele>1771.0</ele><time>2026-04-29T20:07:33.089Z</time></trkpt><trkpt lat="8.5743717" lon="-71.2498367"><ele>1773.5000000000002</ele><time>2026-04-29T20:07:36.095Z</time></trkpt><trkpt lat="8.5742883" lon="-71.249815"><ele>1776.0</ele><time>2026-04-29T20:07:39.085Z</time></trkpt><trkpt lat="8.5742017" lon="-71.2497967"><ele>1778.5</ele><time>2026-04-29T20:07:42.075Z</time></trkpt><trkpt lat="8.57412" lon="-71.2497767"><ele>1781.0</ele><time>2026-04-29T20:07:45.079Z</time></trkpt><trkpt lat="8.5740367" lon="-71.2497583"><ele>1783.5000000000002</ele><time>2026-04-29T20:07:48.075Z</time></trkpt><trkpt lat="8.573955" lon="-71.249735"><ele>1786.0</ele><time>2026-04-29T20:07:51.086Z</time></trkpt><trkpt lat="8.5738717" lon="-71.2497133"><ele>1782.3333333333335</ele><time>2026-04-29T20:07:54.086Z</time></trkpt><trkpt lat="8.57379" lon="-71.2497017"><ele>1778.6666666666667</ele><time>2026-04-29T20:07:57.091Z</time></trkpt><trkpt lat="8.5737033" lon="-71.2496917"><ele>1775.0</ele><time>2026-04-29T20:08:00.085Z</time></trkpt><trkpt lat="8.573615" lon="-71.249675"><ele>1771.3333333333335</ele><time>2026-04-29T20:08:03.079Z</time></trkpt><trkpt lat="8.573525" lon="-71.2496583"><ele>1767.6666666666667</ele><time>2026-04-29T20:08:06.081Z</time></trkpt><trkpt lat="8.5734333" lon="-71.2496467"><ele>1764.0</ele><time>2026-04-29T20:08:09.095Z</time></trkpt><trkpt lat="8.57335" lon="-71.2496483"><ele>1764.0</ele><time>2026-04-29T20:08:12.056Z</time></trkpt><trkpt lat="8.573265" lon="-71.2496683"><ele>1764.0</ele><time>2026-04-29T20:08:15.097Z</time></trkpt><trkpt lat="8.5731867" lon="-71.2497033"><ele>1764.0</ele><time>2026-04-29T20:08:18.086Z</time></trkpt><trkpt lat="8.573115" lon="-71.24976"><ele>1764.0</ele><time>2026-04-29T20:08:21.084Z</time></trkpt><trkpt lat="8.573065" lon="-71.2498033"><ele>1764.0</ele><time>2026-04-29T20:08:23.086Z</time></trkpt><trkpt lat="8.5730267" lon="-71.2498633"><ele>1764.0</ele><time>2026-04-29T20:08:25.085Z</time></trkpt><trkpt lat="8.5729967" lon="-71.2499267"><ele>1763.0</ele><time>2026-04-29T20:08:27.054Z</time></trkpt><trkpt lat="8.572955" lon="-71.2500117"><ele>1762.0</ele><time>2026-04-29T20:08:30.087Z</time></trkpt><trkpt lat="8.5729217" lon="-71.2500983"><ele>1761.0</ele><time>2026-04-29T20:08:33.082Z</time></trkpt><trkpt lat="8.5728917" lon="-71.2501867"><ele>1760.0</ele><time>2026-04-29T20:08:36.098Z</time></trkpt><trkpt lat="8.5728767" lon="-71.2502517"><ele>1759.0</ele><time>2026-04-29T20:08:38.108Z</time></trkpt><trkpt lat="8.57285" lon="-71.2503117"><ele>1758.0</ele><time>2026-04-29T20:08:40.078Z</time></trkpt><trkpt lat="8.57282" lon="-71.2503717"><ele>1758.0</ele><time>2026-04-29T20:08:42.1Z</time></trkpt><trkpt lat="8.5727883" lon="-71.2504283"><ele>1758.0</ele><time>2026-04-29T20:08:44.098Z</time></trkpt><trkpt lat="8.5727567" lon="-71.250485"><ele>1758.0</ele><time>2026-04-29T20:08:46.084Z</time></trkpt><trkpt lat="8.572725" lon="-71.2505417"><ele>1758.0</ele><time>2026-04-29T20:08:48.087Z</time></trkpt><trkpt lat="8.5726883" lon="-71.250595"><ele>1758.0</ele><time>2026-04-29T20:08:50.103Z</time></trkpt><trkpt lat="8.5726517" lon="-71.25065"><ele>1758.0</ele><time>2026-04-29T20:08:52.086Z</time></trkpt><trkpt lat="8.5726183" lon="-71.250705"><ele>1758.0</ele><time>2026-04-29T20:08:54.086Z</time></trkpt><trkpt lat="8.5725717" lon="-71.25079"><ele>1760.7142857142858</ele><time>2026-04-29T20:08:57.089Z</time></trkpt><trkpt lat="8.5725517" lon="-71.2508533"><ele>1763.4285714285716</ele><time>2026-04-29T20:08:59.095Z</time></trkpt><trkpt lat="8.57254" lon="-71.2509233"><ele>1766.142857142857</ele><time>2026-04-29T20:09:01.079Z</time></trkpt><trkpt lat="8.5725417" lon="-71.25099"><ele>1768.857142857143</ele><time>2026-04-29T20:09:03.081Z</time></trkpt><trkpt lat="8.5725317" lon="-71.2510617"><ele>1771.5714285714284</ele><time>2026-04-29T20:09:05.086Z</time></trkpt><trkpt lat="8.5725233" lon="-71.2511333"><ele>1774.2857142857142</ele><time>2026-04-29T20:09:07.085Z</time></trkpt><trkpt lat="8.5725233" lon="-71.251205"><ele>1777.0</ele><time>2026-04-29T20:09:09.085Z</time></trkpt><trkpt lat="8.5725367" lon="-71.251275"><ele>1777.0000000000002</ele><time>2026-04-29T20:09:11.084Z</time></trkpt><trkpt lat="8.57256" lon="-71.251345"><ele>1777.0</ele><time>2026-04-29T20:09:13.075Z</time></trkpt><trkpt lat="8.5725883" lon="-71.2514117"><ele>1777.0</ele><time>2026-04-29T20:09:15.081Z</time></trkpt><trkpt lat="8.5726283" lon="-71.2514767"><ele>1777.0</ele><time>2026-04-29T20:09:17.083Z</time></trkpt><trkpt lat="8.5726783" lon="-71.2515417"><ele>1777.0000000000002</ele><time>2026-04-29T20:09:19.082Z</time></trkpt><trkpt lat="8.5727367" lon="-71.2516083"><ele>1777.0</ele><time>2026-04-29T20:09:21.081Z</time></trkpt><trkpt lat="8.5728033" lon="-71.2516617"><ele>1779.6</ele><time>2026-04-29T20:09:23.092Z</time></trkpt><trkpt lat="8.57288" lon="-71.25171"><ele>1782.1999999999998</ele><time>2026-04-29T20:09:25.08Z</time></trkpt><trkpt lat="8.5729633" lon="-71.251755"><ele>1784.8</ele><time>2026-04-29T20:09:27.091Z</time></trkpt><trkpt lat="8.5730517" lon="-71.2518067"><ele>1787.4</ele><time>2026-04-29T20:09:29.087Z</time></trkpt><trkpt lat="8.5731417" lon="-71.2518617"><ele>1790.0</ele><time>2026-04-29T20:09:31.086Z</time></trkpt><trkpt lat="8.573235" lon="-71.2519133"><ele>1790.0</ele><time>2026-04-29T20:09:33.08Z</time></trkpt><trkpt lat="8.5733317" lon="-71.2519667"><ele>1790.0</ele><time>2026-04-29T20:09:35.082Z</time></trkpt><trkpt lat="8.5734283" lon="-71.2520133"><ele>1790.0</ele><time>2026-04-29T20:09:37.081Z</time></trkpt><trkpt lat="8.5735283" lon="-71.25207"><ele>1790.0</ele><time>2026-04-29T20:09:39.088Z</time></trkpt><trkpt lat="8.57363" lon="-71.2521267"><ele>1790.0</ele><time>2026-04-29T20:09:41.094Z</time></trkpt><trkpt lat="8.5737283" lon="-71.2521867"><ele>1788.5</ele><time>2026-04-29T20:09:43.087Z</time></trkpt><trkpt lat="8.5738233" lon="-71.2522483"><ele>1787.0</ele><time>2026-04-29T20:09:45.117Z</time></trkpt><trkpt lat="8.573915" lon="-71.2523183"><ele>1785.5</ele><time>2026-04-29T20:09:47.082Z</time></trkpt><trkpt lat="8.5739917" lon="-71.2524033"><ele>1784.0</ele><time>2026-04-29T20:09:49.09Z</time></trkpt><trkpt lat="8.57406" lon="-71.2525033"><ele>1784.0</ele><time>2026-04-29T20:09:51.085Z</time></trkpt><trkpt lat="8.57412" lon="-71.2526117"><ele>1784.0</ele><time>2026-04-29T20:09:53.083Z</time></trkpt><trkpt lat="8.5741617" lon="-71.2527167"><ele>1784.0</ele><time>2026-04-29T20:09:55.089Z</time></trkpt><trkpt lat="8.574195" lon="-71.2528233"><ele>1784.0</ele><time>2026-04-29T20:09:57.086Z</time></trkpt><trkpt lat="8.5742183" lon="-71.2529367"><ele>1784.0</ele><time>2026-04-29T20:09:59.086Z</time></trkpt><trkpt lat="8.57423" lon="-71.2530583"><ele>1784.0</ele><time>2026-04-29T20:10:01.078Z</time></trkpt><trkpt lat="8.5742317" lon="-71.2531817"><ele>1784.0</ele><time>2026-04-29T20:10:03.09Z</time></trkpt><trkpt lat="8.5742233" lon="-71.2533017"><ele>1784.0</ele><time>2026-04-29T20:10:05.081Z</time></trkpt><trkpt lat="8.574225" lon="-71.2534233"><ele>1782.0</ele><time>2026-04-29T20:10:07.079Z</time></trkpt><trkpt lat="8.5742283" lon="-71.2535383"><ele>1780.0</ele><time>2026-04-29T20:10:09.076Z</time></trkpt><trkpt lat="8.5742283" lon="-71.25365"><ele>1778.0</ele><time>2026-04-29T20:10:11.083Z</time></trkpt><trkpt lat="8.5742233" lon="-71.25376"><ele>1776.0</ele><time>2026-04-29T20:10:13.08Z</time></trkpt><trkpt lat="8.5742183" lon="-71.2538717"><ele>1774.0</ele><time>2026-04-29T20:10:15.087Z</time></trkpt><trkpt lat="8.5742133" lon="-71.2539883"><ele>1774.0</ele><time>2026-04-29T20:10:17.091Z</time></trkpt><trkpt lat="8.5742117" lon="-71.254095"><ele>1774.0</ele><time>2026-04-29T20:10:19.072Z</time></trkpt><trkpt lat="8.5742033" lon="-71.2542067"><ele>1774.0</ele><time>2026-04-29T20:10:21.083Z</time></trkpt><trkpt lat="8.5742017" lon="-71.2543167"><ele>1774.0</ele><time>2026-04-29T20:10:23.081Z</time></trkpt><trkpt lat="8.5742017" lon="-71.2544283"><ele>1774.0</ele><time>2026-04-29T20:10:25.092Z</time></trkpt><trkpt lat="8.5742133" lon="-71.2545417"><ele>1774.0</ele><time>2026-04-29T20:10:27.082Z</time></trkpt><trkpt lat="8.57424" lon="-71.2546533"><ele>1774.0</ele><time>2026-04-29T20:10:29.077Z</time></trkpt><trkpt lat="8.5742717" lon="-71.25476"><ele>1774.0</ele><time>2026-04-29T20:10:31.083Z</time></trkpt><trkpt lat="8.5743167" lon="-71.2548567"><ele>1774.0</ele><time>2026-04-29T20:10:33.088Z</time></trkpt><trkpt lat="8.5743583" lon="-71.2549583"><ele>1774.0</ele><time>2026-04-29T20:10:35.081Z</time></trkpt><trkpt lat="8.5744067" lon="-71.2550567"><ele>1771.3333333333335</ele><time>2026-04-29T20:10:37.083Z</time></trkpt><trkpt lat="8.5744633" lon="-71.2551583"><ele>1768.6666666666667</ele><time>2026-04-29T20:10:39.083Z</time></trkpt><trkpt lat="8.5745233" lon="-71.2552683"><ele>1766.0</ele><time>2026-04-29T20:10:41.076Z</time></trkpt><trkpt lat="8.5745483" lon="-71.2553283"><ele>1763.3333333333335</ele><time>2026-04-29T20:10:42.079Z</time></trkpt><trkpt lat="8.5745733" lon="-71.2553933"><ele>1760.6666666666667</ele><time>2026-04-29T20:10:43.091Z</time></trkpt><trkpt lat="8.574595" lon="-71.25546"><ele>1758.0</ele><time>2026-04-29T20:10:44.094Z</time></trkpt><trkpt lat="8.574615" lon="-71.2555283"><ele>1763.1666666666667</ele><time>2026-04-29T20:10:45.076Z</time></trkpt><trkpt lat="8.5746333" lon="-71.2555983"><ele>1768.3333333333335</ele><time>2026-04-29T20:10:46.081Z</time></trkpt><trkpt lat="8.5746417" lon="-71.25567"><ele>1773.5</ele><time>2026-04-29T20:10:47.086Z</time></trkpt><trkpt lat="8.574635" lon="-71.255805"><ele>1778.6666666666667</ele><time>2026-04-29T20:10:49.09Z</time></trkpt><trkpt lat="8.5746233" lon="-71.25588"><ele>1783.8333333333335</ele><time>2026-04-29T20:10:50.105Z</time></trkpt><trkpt lat="8.5746067" lon="-71.255955"><ele>1789.0</ele><time>2026-04-29T20:10:51.07Z</time></trkpt><trkpt lat="8.5745833" lon="-71.2560317"><ele>1789.0000000000002</ele><time>2026-04-29T20:10:52.089Z</time></trkpt><trkpt lat="8.5745517" lon="-71.256105"><ele>1789.0</ele><time>2026-04-29T20:10:53.098Z</time></trkpt><trkpt lat="8.5745167" lon="-71.2561783"><ele>1789.0</ele><time>2026-04-29T20:10:54.087Z</time></trkpt><trkpt lat="8.5744783" lon="-71.2562517"><ele>1789.0</ele><time>2026-04-29T20:10:55.077Z</time></trkpt><trkpt lat="8.5744367" lon="-71.2563217"><ele>1789.0000000000002</ele><time>2026-04-29T20:10:56.132Z</time></trkpt><trkpt lat="8.5743933" lon="-71.2563917"><ele>1789.0</ele><time>2026-04-29T20:10:57.079Z</time></trkpt><trkpt lat="8.57435" lon="-71.25646"><ele>1783.6666666666667</ele><time>2026-04-29T20:10:58.081Z</time></trkpt><trkpt lat="8.574305" lon="-71.2565267"><ele>1778.3333333333335</ele><time>2026-04-29T20:10:59.085Z</time></trkpt><trkpt lat="8.57426" lon="-71.2565917"><ele>1773.0</ele><time>2026-04-29T20:11:00.092Z</time></trkpt><trkpt lat="8.5742183" lon="-71.25666"><ele>1767.6666666666665</ele><time>2026-04-29T20:11:01.082Z</time></trkpt><trkpt lat="8.5741767" lon="-71.256725"><ele>1762.3333333333333</ele><time>2026-04-29T20:11:02.148Z</time></trkpt><trkpt lat="8.5741317" lon="-71.2567883"><ele>1757.0</ele><time>2026-04-29T20:11:03.087Z</time></trkpt><trkpt lat="8.5740833" lon="-71.25685"><ele>1757.0</ele><time>2026-04-29T20:11:04.084Z</time></trkpt><trkpt lat="8.574035" lon="-71.2569117"><ele>1757.0</ele><time>2026-04-29T20:11:05.099Z</time></trkpt><trkpt lat="8.573995" lon="-71.2569733"><ele>1757.0</ele><time>2026-04-29T20:11:06.069Z</time></trkpt><trkpt lat="8.57396" lon="-71.2570367"><ele>1757.0</ele><time>2026-04-29T20:11:07.083Z</time></trkpt><trkpt lat="8.5739267" lon="-71.2570983"><ele>1757.0</ele><time>2026-04-29T20:11:08.108Z</time></trkpt><trkpt lat="8.57389" lon="-71.2571567"><ele>1757.0</ele><time>2026-04-29T20:11:09.096Z</time></trkpt><trkpt lat="8.5738517" lon="-71.257215"><ele>1757.0</ele><time>2026-04-29T20:11:10.082Z</time></trkpt><trkpt lat="8.5738167" lon="-71.2572733"><ele>1759.6666666666665</ele><time>2026-04-29T20:11:11.072Z</time></trkpt><trkpt lat="8.573785" lon="-71.2573317"><ele>1762.3333333333333</ele><time>2026-04-29T20:11:12.088Z</time></trkpt><trkpt lat="8.573755" lon="-71.25739"><ele>1765.0</ele><time>2026-04-29T20:11:13.084Z</time></trkpt><trkpt lat="8.5737333" lon="-71.25745"><ele>1767.6666666666665</ele><time>2026-04-29T20:11:14.098Z</time></trkpt><trkpt lat="8.5737067" lon="-71.257575"><ele>1770.3333333333333</ele><time>2026-04-29T20:11:16.085Z</time></trkpt><trkpt lat="8.5737" lon="-71.2576433"><ele>1773.0</ele><time>2026-04-29T20:11:17.082Z</time></trkpt><trkpt lat="8.5737017" lon="-71.2577083"><ele>1773.0</ele><time>2026-04-29T20:11:18.085Z</time></trkpt><trkpt lat="8.5737067" lon="-71.2577783"><ele>1773.0</ele><time>2026-04-29T20:11:19.083Z</time></trkpt><trkpt lat="8.57372" lon="-71.2578467"><ele>1773.0</ele><time>2026-04-29T20:11:20.098Z</time></trkpt><trkpt lat="8.5737383" lon="-71.257915"><ele>1773.0</ele><time>2026-04-29T20:11:21.074Z</time></trkpt><trkpt lat="8.57376" lon="-71.257985"><ele>1773.0</ele><time>2026-04-29T20:11:22.084Z</time></trkpt><trkpt lat="8.573785" lon="-71.2580517"><ele>1773.0</ele><time>2026-04-29T20:11:23.076Z</time></trkpt><trkpt lat="8.57381" lon="-71.2581233"><ele>1773.0</ele><time>2026-04-29T20:11:24.077Z</time></trkpt><trkpt lat="8.5738367" lon="-71.2581933"><ele>1772.2857142857144</ele><time>2026-04-29T20:11:25.037Z</time></trkpt><trkpt lat="8.5738633" lon="-71.258265"><ele>1771.5714285714284</ele><time>2026-04-29T20:11:26.139Z</time></trkpt><trkpt lat="8.57389" lon="-71.258335"><ele>1770.857142857143</ele><time>2026-04-29T20:11:27.093Z</time></trkpt><trkpt lat="8.5739183" lon="-71.2584067"><ele>1770.1428571428573</ele><time>2026-04-29T20:11:28.095Z</time></trkpt><trkpt lat="8.5739433" lon="-71.2584767"><ele>1769.4285714285716</ele><time>2026-04-29T20:11:29.071Z</time></trkpt><trkpt lat="8.5739617" lon="-71.2585483"><ele>1768.7142857142858</ele><time>2026-04-29T20:11:30.078Z</time></trkpt><trkpt lat="8.5739783" lon="-71.2586167"><ele>1768.0</ele><time>2026-04-29T20:11:31.082Z</time></trkpt><trkpt lat="8.5739917" lon="-71.2586883"><ele>1768.0000000000002</ele><time>2026-04-29T20:11:32.138Z</time></trkpt><trkpt lat="8.5740017" lon="-71.2587617"><ele>1768.0</ele><time>2026-04-29T20:11:33.097Z</time></trkpt><trkpt lat="8.57401" lon="-71.2588317"><ele>1768.0</ele><time>2026-04-29T20:11:34.078Z</time></trkpt><trkpt lat="8.5740167" lon="-71.2589033"><ele>1768.0</ele><time>2026-04-29T20:11:35.087Z</time></trkpt><trkpt lat="8.5740233" lon="-71.258975"><ele>1768.0</ele><time>2026-04-29T20:11:36.081Z</time></trkpt><trkpt lat="8.5740267" lon="-71.259045"><ele>1768.0000000000002</ele><time>2026-04-29T20:11:37.078Z</time></trkpt><trkpt lat="8.5740233" lon="-71.2591183"><ele>1768.0</ele><time>2026-04-29T20:11:38.12Z</time></trkpt><trkpt lat="8.5740183" lon="-71.2591883"><ele>1768.1666666666667</ele><time>2026-04-29T20:11:39.091Z</time></trkpt><trkpt lat="8.5740083" lon="-71.2592617"><ele>1768.3333333333335</ele><time>2026-04-29T20:11:40.091Z</time></trkpt><trkpt lat="8.573995" lon="-71.2593333"><ele>1768.5</ele><time>2026-04-29T20:11:41.088Z</time></trkpt><trkpt lat="8.5739733" lon="-71.2594067"><ele>1768.6666666666665</ele><time>2026-04-29T20:11:42.084Z</time></trkpt><trkpt lat="8.5739467" lon="-71.25948"><ele>1768.8333333333333</ele><time>2026-04-29T20:11:43.091Z</time></trkpt><trkpt lat="8.5739133" lon="-71.2595533"><ele>1769.0</ele><time>2026-04-29T20:11:44.105Z</time></trkpt><trkpt lat="8.5738783" lon="-71.2596267"><ele>1768.9999999999998</ele><time>2026-04-29T20:11:45.043Z</time></trkpt><trkpt lat="8.5738367" lon="-71.2597"><ele>1769.0</ele><time>2026-04-29T20:11:46.085Z</time></trkpt><trkpt lat="8.5737917" lon="-71.2597733"><ele>1769.0</ele><time>2026-04-29T20:11:47.088Z</time></trkpt><trkpt lat="8.5737533" lon="-71.259845"><ele>1769.0</ele><time>2026-04-29T20:11:48.083Z</time></trkpt><trkpt lat="8.57371" lon="-71.2599183"><ele>1768.9999999999998</ele><time>2026-04-29T20:11:49.07Z</time></trkpt><trkpt lat="8.573665" lon="-71.25999"><ele>1769.0</ele><time>2026-04-29T20:11:50.115Z</time></trkpt><trkpt lat="8.5736183" lon="-71.2600633"><ele>1761.6666666666665</ele><time>2026-04-29T20:11:51.097Z</time></trkpt><trkpt lat="8.5735733" lon="-71.2601367"><ele>1754.3333333333333</ele><time>2026-04-29T20:11:52.083Z</time></trkpt><trkpt lat="8.573525" lon="-71.26021"><ele>1747.0</ele><time>2026-04-29T20:11:53.077Z</time></trkpt><trkpt lat="8.5734767" lon="-71.2602833"><ele>1739.6666666666665</ele><time>2026-04-29T20:11:54.097Z</time></trkpt><trkpt lat="8.5734333" lon="-71.2603567"><ele>1732.3333333333333</ele><time>2026-04-29T20:11:55.069Z</time></trkpt><trkpt lat="8.5733933" lon="-71.2604317"><ele>1725.0</ele><time>2026-04-29T20:11:56.141Z</time></trkpt><trkpt lat="8.573355" lon="-71.2605067"><ele>1725.0</ele><time>2026-04-29T20:11:57.09Z</time></trkpt><trkpt lat="8.5733233" lon="-71.2605833"><ele>1725.0</ele><time>2026-04-29T20:11:58.087Z</time></trkpt><trkpt lat="8.5732983" lon="-71.2606617"><ele>1725.0</ele><time>2026-04-29T20:11:59.089Z</time></trkpt><trkpt lat="8.5732817" lon="-71.26074"><ele>1725.0</ele><time>2026-04-29T20:12:00.092Z</time></trkpt><trkpt lat="8.573275" lon="-71.2608217"><ele>1725.0</ele><time>2026-04-29T20:12:01.089Z</time></trkpt><trkpt lat="8.5732717" lon="-71.2609017"><ele>1725.0</ele><time>2026-04-29T20:12:02.141Z</time></trkpt><trkpt lat="8.5732633" lon="-71.2609817"><ele>1726.3333333333333</ele><time>2026-04-29T20:12:03.087Z</time></trkpt><trkpt lat="8.57326" lon="-71.2610633"><ele>1727.6666666666665</ele><time>2026-04-29T20:12:04.096Z</time></trkpt><trkpt lat="8.5732567" lon="-71.2611433"><ele>1729.0</ele><time>2026-04-29T20:12:05.095Z</time></trkpt><trkpt lat="8.5732533" lon="-71.2612233"><ele>1730.3333333333333</ele><time>2026-04-29T20:12:06.083Z</time></trkpt><trkpt lat="8.5732433" lon="-71.2613"><ele>1731.6666666666665</ele><time>2026-04-29T20:12:07.104Z</time></trkpt><trkpt lat="8.5732317" lon="-71.2613767"><ele>1733.0</ele><time>2026-04-29T20:12:08.108Z</time></trkpt><trkpt lat="8.5732117" lon="-71.2614483"><ele>1734.4285714285716</ele><time>2026-04-29T20:12:09.075Z</time></trkpt><trkpt lat="8.5731867" lon="-71.26152"><ele>1735.857142857143</ele><time>2026-04-29T20:12:10.077Z</time></trkpt><trkpt lat="8.5731533" lon="-71.2615867"><ele>1737.2857142857142</ele><time>2026-04-29T20:12:11.075Z</time></trkpt><trkpt lat="8.5731167" lon="-71.2616517"><ele>1738.7142857142858</ele><time>2026-04-29T20:12:12.088Z</time></trkpt><trkpt lat="8.5730767" lon="-71.2617167"><ele>1740.142857142857</ele><time>2026-04-29T20:12:13.083Z</time></trkpt><trkpt lat="8.5730333" lon="-71.2617783"><ele>1741.5714285714287</ele><time>2026-04-29T20:12:14.106Z</time></trkpt><trkpt lat="8.5729867" lon="-71.2618367"><ele>1743.0</ele><time>2026-04-29T20:12:15.085Z</time></trkpt><trkpt lat="8.57294" lon="-71.261895"><ele>1743.0</ele><time>2026-04-29T20:12:16.091Z</time></trkpt><trkpt lat="8.572895" lon="-71.2619533"><ele>1743.0</ele><time>2026-04-29T20:12:17.081Z</time></trkpt><trkpt lat="8.5728533" lon="-71.2620133"><ele>1743.0</ele><time>2026-04-29T20:12:18.091Z</time></trkpt><trkpt lat="8.5728133" lon="-71.26207"><ele>1743.0</ele><time>2026-04-29T20:12:19.088Z</time></trkpt><trkpt lat="8.5727717" lon="-71.26213"><ele>1743.0</ele><time>2026-04-29T20:12:20.094Z</time></trkpt><trkpt lat="8.572725" lon="-71.26219"><ele>1743.0</ele><time>2026-04-29T20:12:21.068Z</time></trkpt><trkpt lat="8.5726817" lon="-71.2622483"><ele>1743.0</ele><time>2026-04-29T20:12:22.077Z</time></trkpt><trkpt lat="8.5726367" lon="-71.262305"><ele>1740.142857142857</ele><time>2026-04-29T20:12:23.073Z</time></trkpt><trkpt lat="8.57259" lon="-71.2623617"><ele>1737.2857142857142</ele><time>2026-04-29T20:12:24.083Z</time></trkpt><trkpt lat="8.572545" lon="-71.26242"><ele>1734.4285714285716</ele><time>2026-04-29T20:12:25.091Z</time></trkpt><trkpt lat="8.5725033" lon="-71.26248"><ele>1731.5714285714284</ele><time>2026-04-29T20:12:26.132Z</time></trkpt><trkpt lat="8.57246" lon="-71.2625383"><ele>1728.7142857142858</ele><time>2026-04-29T20:12:27.073Z</time></trkpt><trkpt lat="8.572415" lon="-71.2625967"><ele>1725.857142857143</ele><time>2026-04-29T20:12:28.09Z</time></trkpt><trkpt lat="8.5723683" lon="-71.262655"><ele>1723.0</ele><time>2026-04-29T20:12:29.073Z</time></trkpt><trkpt lat="8.5723267" lon="-71.262715"><ele>1723.0</ele><time>2026-04-29T20:12:30.086Z</time></trkpt><trkpt lat="8.572285" lon="-71.262775"><ele>1723.0</ele><time>2026-04-29T20:12:31.068Z</time></trkpt><trkpt lat="8.5722483" lon="-71.2628333"><ele>1723.0</ele><time>2026-04-29T20:12:32.133Z</time></trkpt><trkpt lat="8.572215" lon="-71.2628967"><ele>1723.0</ele><time>2026-04-29T20:12:33.08Z</time></trkpt><trkpt lat="8.5721833" lon="-71.26296"><ele>1723.0</ele><time>2026-04-29T20:12:34.099Z</time></trkpt><trkpt lat="8.572155" lon="-71.263025"><ele>1723.0</ele><time>2026-04-29T20:12:35.081Z</time></trkpt><trkpt lat="8.5721317" lon="-71.26309"><ele>1723.0</ele><time>2026-04-29T20:12:36.074Z</time></trkpt><trkpt lat="8.5721117" lon="-71.2631533"><ele>1725.4285714285716</ele><time>2026-04-29T20:12:37.084Z</time></trkpt><trkpt lat="8.5720917" lon="-71.2632183"><ele>1727.857142857143</ele><time>2026-04-29T20:12:38.113Z</time></trkpt><trkpt lat="8.5720767" lon="-71.2632833"><ele>1730.2857142857142</ele><time>2026-04-29T20:12:39.083Z</time></trkpt><trkpt lat="8.5720633" lon="-71.2633517"><ele>1732.7142857142858</ele><time>2026-04-29T20:12:40.099Z</time></trkpt><trkpt lat="8.57205" lon="-71.2634233"><ele>1735.142857142857</ele><time>2026-04-29T20:12:41.09Z</time></trkpt><trkpt lat="8.5720417" lon="-71.263495"><ele>1737.5714285714287</ele><time>2026-04-29T20:12:42.081Z</time></trkpt><trkpt lat="8.5720333" lon="-71.2635667"><ele>1740.0</ele><time>2026-04-29T20:12:43.079Z</time></trkpt><trkpt lat="8.572035" lon="-71.2636367"><ele>1740.0000000000002</ele><time>2026-04-29T20:12:44.087Z</time></trkpt><trkpt lat="8.572035" lon="-71.263705"><ele>1740.0</ele><time>2026-04-29T20:12:45.081Z</time></trkpt><trkpt lat="8.5720417" lon="-71.2637733"><ele>1740.0</ele><time>2026-04-29T20:12:46.043Z</time></trkpt><trkpt lat="8.5720467" lon="-71.2638417"><ele>1740.0</ele><time>2026-04-29T20:12:47.084Z</time></trkpt><trkpt lat="8.57205" lon="-71.26391"><ele>1740.0</ele><time>2026-04-29T20:12:48.084Z</time></trkpt><trkpt lat="8.5720567" lon="-71.2639783"><ele>1740.0000000000002</ele><time>2026-04-29T20:12:49.081Z</time></trkpt><trkpt lat="8.5720583" lon="-71.2640483"><ele>1740.0</ele><time>2026-04-29T20:12:50.116Z</time></trkpt><trkpt lat="8.5720617" lon="-71.2641183"><ele>1741.1428571428573</ele><time>2026-04-29T20:12:51.057Z</time></trkpt><trkpt lat="8.5720667" lon="-71.2641867"><ele>1742.2857142857142</ele><time>2026-04-29T20:12:52.045Z</time></trkpt><trkpt lat="8.5720683" lon="-71.2642583"><ele>1743.4285714285716</ele><time>2026-04-29T20:12:53.074Z</time></trkpt><trkpt lat="8.57207" lon="-71.2643283"><ele>1744.5714285714287</ele><time>2026-04-29T20:12:54.082Z</time></trkpt><trkpt lat="8.5720717" lon="-71.2643983"><ele>1745.7142857142858</ele><time>2026-04-29T20:12:55.087Z</time></trkpt><trkpt lat="8.57207" lon="-71.264465"><ele>1746.857142857143</ele><time>2026-04-29T20:12:56.151Z</time></trkpt><trkpt lat="8.57207" lon="-71.2645317"><ele>1748.0</ele><time>2026-04-29T20:12:57.092Z</time></trkpt><trkpt lat="8.5720633" lon="-71.2646"><ele>1748.0</ele><time>2026-04-29T20:12:58.076Z</time></trkpt><trkpt lat="8.5720533" lon="-71.2646683"><ele>1748.0</ele><time>2026-04-29T20:12:59.078Z</time></trkpt><trkpt lat="8.5720333" lon="-71.264735"><ele>1748.0</ele><time>2026-04-29T20:13:00.08Z</time></trkpt><trkpt lat="8.5720067" lon="-71.2648"><ele>1748.0</ele><time>2026-04-29T20:13:01.076Z</time></trkpt><trkpt lat="8.57197" lon="-71.2648617"><ele>1748.0</ele><time>2026-04-29T20:13:02.148Z</time></trkpt><trkpt lat="8.5719233" lon="-71.2649183"><ele>1748.0</ele><time>2026-04-29T20:13:03.079Z</time></trkpt><trkpt lat="8.5718683" lon="-71.26497"><ele>1748.0</ele><time>2026-04-29T20:13:04.083Z</time></trkpt><trkpt lat="8.571805" lon="-71.2650167"><ele>1740.7142857142856</ele><time>2026-04-29T20:13:05.074Z</time></trkpt><trkpt lat="8.5717367" lon="-71.265055"><ele>1733.4285714285716</ele><time>2026-04-29T20:13:06.095Z</time></trkpt><trkpt lat="8.5716633" lon="-71.2650833"><ele>1726.142857142857</ele><time>2026-04-29T20:13:07.077Z</time></trkpt><trkpt lat="8.57159" lon="-71.265105"><ele>1718.8571428571427</ele><time>2026-04-29T20:13:08.114Z</time></trkpt><trkpt lat="8.5715183" lon="-71.2651183"><ele>1711.5714285714284</ele><time>2026-04-29T20:13:09.079Z</time></trkpt><trkpt lat="8.5714533" lon="-71.2651267"><ele>1704.2857142857142</ele><time>2026-04-29T20:13:10.085Z</time></trkpt><trkpt lat="8.5713883" lon="-71.2651333"><ele>1697.0</ele><time>2026-04-29T20:13:11.088Z</time></trkpt><trkpt lat="8.5713133" lon="-71.26514"><ele>1696.9999999999998</ele><time>2026-04-29T20:13:12.095Z</time></trkpt><trkpt lat="8.57124" lon="-71.2651467"><ele>1697.0</ele><time>2026-04-29T20:13:13.091Z</time></trkpt><trkpt lat="8.5711717" lon="-71.265155"><ele>1697.0</ele><time>2026-04-29T20:13:14.121Z</time></trkpt><trkpt lat="8.5711033" lon="-71.2651583"><ele>1697.0</ele><time>2026-04-29T20:13:15.085Z</time></trkpt><trkpt lat="8.5709867" lon="-71.2651617"><ele>1696.9999999999998</ele><time>2026-04-29T20:13:17.055Z</time></trkpt><trkpt lat="8.5708733" lon="-71.2651683"><ele>1697.0</ele><time>2026-04-29T20:13:19.072Z</time></trkpt><trkpt lat="8.57078" lon="-71.2651767"><ele>1696.4999999999998</ele><time>2026-04-29T20:13:21.076Z</time></trkpt><trkpt lat="8.5707017" lon="-71.2651817"><ele>1696.0</ele><time>2026-04-29T20:13:23.085Z</time></trkpt><trkpt lat="8.57063" lon="-71.2651917"><ele>1695.5</ele><time>2026-04-29T20:13:25.08Z</time></trkpt><trkpt lat="8.57056" lon="-71.2651983"><ele>1695.0</ele><time>2026-04-29T20:13:27.102Z</time></trkpt><trkpt lat="8.5704967" lon="-71.2652033"><ele>1694.4999999999998</ele><time>2026-04-29T20:13:29.079Z</time></trkpt><trkpt lat="8.57041" lon="-71.2652017"><ele>1694.0</ele><time>2026-04-29T20:13:32.128Z</time></trkpt><trkpt lat="8.5703283" lon="-71.2651983"><ele>1693.1666666666665</ele><time>2026-04-29T20:13:35.093Z</time></trkpt><trkpt lat="8.5702383" lon="-71.265215"><ele>1692.3333333333333</ele><time>2026-04-29T20:13:38.119Z</time></trkpt><trkpt lat="8.570155" lon="-71.2652433"><ele>1691.5</ele><time>2026-04-29T20:13:41.087Z</time></trkpt><trkpt lat="8.57008" lon="-71.2652767"><ele>1690.6666666666665</ele><time>2026-04-29T20:13:44.121Z</time></trkpt><trkpt lat="8.5700067" lon="-71.2653317"><ele>1689.8333333333333</ele><time>2026-04-29T20:13:47.041Z</time></trkpt><trkpt lat="8.569965" lon="-71.26538"><ele>1689.0</ele><time>2026-04-29T20:13:49.088Z</time></trkpt><trkpt lat="8.56993" lon="-71.2654367"><ele>1689.0</ele><time>2026-04-29T20:13:51.084Z</time></trkpt><trkpt lat="8.569895" lon="-71.2654917"><ele>1689.0</ele><time>2026-04-29T20:13:53.058Z</time></trkpt><trkpt lat="8.5698633" lon="-71.265555"><ele>1689.0</ele><time>2026-04-29T20:13:55.08Z</time></trkpt><trkpt lat="8.5698367" lon="-71.2656233"><ele>1689.0</ele><time>2026-04-29T20:13:57.085Z</time></trkpt><trkpt lat="8.56982" lon="-71.2656933"><ele>1689.0</ele><time>2026-04-29T20:13:59.091Z</time></trkpt><trkpt lat="8.5698233" lon="-71.2657667"><ele>1689.0</ele><time>2026-04-29T20:14:01.09Z</time></trkpt><trkpt lat="8.569825" lon="-71.2658383"><ele>1689.0</ele><time>2026-04-29T20:14:03.078Z</time></trkpt><trkpt lat="8.5698217" lon="-71.2659067"><ele>1691.4285714285716</ele><time>2026-04-29T20:14:05.081Z</time></trkpt><trkpt lat="8.56982" lon="-71.2659983"><ele>1693.8571428571427</ele><time>2026-04-29T20:14:08.121Z</time></trkpt><trkpt lat="8.5698167" lon="-71.266065"><ele>1696.2857142857142</ele><time>2026-04-29T20:14:10.085Z</time></trkpt><trkpt lat="8.5698167" lon="-71.266135"><ele>1698.7142857142858</ele><time>2026-04-29T20:14:12.097Z</time></trkpt><trkpt lat="8.569815" lon="-71.2662017"><ele>1701.1428571428573</ele><time>2026-04-29T20:14:14.113Z</time></trkpt><trkpt lat="8.5698133" lon="-71.26627"><ele>1703.5714285714284</ele><time>2026-04-29T20:14:16.075Z</time></trkpt><trkpt lat="8.56982" lon="-71.2663417"><ele>1706.0</ele><time>2026-04-29T20:14:18.086Z</time></trkpt><trkpt lat="8.5698217" lon="-71.2664167"><ele>1709.3333333333333</ele><time>2026-04-29T20:14:20.116Z</time></trkpt><trkpt lat="8.569815" lon="-71.2664933"><ele>1712.6666666666665</ele><time>2026-04-29T20:14:22.079Z</time></trkpt><trkpt lat="8.5698033" lon="-71.2665733"><ele>1716.0</ele><time>2026-04-29T20:14:24.09Z</time></trkpt><trkpt lat="8.5697867" lon="-71.26665"><ele>1719.3333333333335</ele><time>2026-04-29T20:14:26.136Z</time></trkpt><trkpt lat="8.5697583" lon="-71.2667333"><ele>1722.6666666666667</ele><time>2026-04-29T20:14:28.086Z</time></trkpt><trkpt lat="8.5697267" lon="-71.266815"><ele>1726.0</ele><time>2026-04-29T20:14:30.093Z</time></trkpt><trkpt lat="8.5696933" lon="-71.2668983"><ele>1726.0</ele><time>2026-04-29T20:14:32.138Z</time></trkpt><trkpt lat="8.569645" lon="-71.2669833"><ele>1726.0</ele><time>2026-04-29T20:14:34.086Z</time></trkpt><trkpt lat="8.569585" lon="-71.267075"><ele>1726.0</ele><time>2026-04-29T20:14:36.085Z</time></trkpt><trkpt lat="8.5695033" lon="-71.267165"><ele>1726.0</ele><time>2026-04-29T20:14:38.109Z</time></trkpt><trkpt lat="8.5694583" lon="-71.2672117"><ele>1726.0</ele><time>2026-04-29T20:14:39.077Z</time></trkpt><trkpt lat="8.5693783" lon="-71.26731"><ele>1722.1428571428573</ele><time>2026-04-29T20:14:41.072Z</time></trkpt><trkpt lat="8.5693317" lon="-71.26736"><ele>1718.2857142857142</ele><time>2026-04-29T20:14:42.097Z</time></trkpt><trkpt lat="8.5692867" lon="-71.2674117"><ele>1714.4285714285716</ele><time>2026-04-29T20:14:43.063Z</time></trkpt><trkpt lat="8.5692367" lon="-71.267465"><ele>1710.5714285714287</ele><time>2026-04-29T20:14:44.112Z</time></trkpt><trkpt lat="8.5691883" lon="-71.2675183"><ele>1706.7142857142858</ele><time>2026-04-29T20:14:45.074Z</time></trkpt><trkpt lat="8.56915" lon="-71.2675733"><ele>1702.857142857143</ele><time>2026-04-29T20:14:46.071Z</time></trkpt><trkpt lat="8.5691083" lon="-71.2676283"><ele>1699.0</ele><time>2026-04-29T20:14:47.087Z</time></trkpt><trkpt lat="8.5690617" lon="-71.26768"><ele>1699.0000000000002</ele><time>2026-04-29T20:14:48.061Z</time></trkpt><trkpt lat="8.5690083" lon="-71.2677317"><ele>1699.0</ele><time>2026-04-29T20:14:49.08Z</time></trkpt><trkpt lat="8.5689533" lon="-71.267785"><ele>1699.0</ele><time>2026-04-29T20:14:50.129Z</time></trkpt><trkpt lat="8.568895" lon="-71.267835"><ele>1699.0</ele><time>2026-04-29T20:14:51.086Z</time></trkpt><trkpt lat="8.56883" lon="-71.2678833"><ele>1699.0000000000002</ele><time>2026-04-29T20:14:52.089Z</time></trkpt><trkpt lat="8.5687633" lon="-71.2679283"><ele>1699.0</ele><time>2026-04-29T20:14:53.077Z</time></trkpt><trkpt lat="8.5686933" lon="-71.26797"><ele>1699.8333333333335</ele><time>2026-04-29T20:14:54.082Z</time></trkpt><trkpt lat="8.5686217" lon="-71.2680083"><ele>1700.6666666666667</ele><time>2026-04-29T20:14:55.077Z</time></trkpt><trkpt lat="8.56855" lon="-71.268045"><ele>1701.5</ele><time>2026-04-29T20:14:56.145Z</time></trkpt><trkpt lat="8.5684733" lon="-71.268075"><ele>1702.3333333333335</ele><time>2026-04-29T20:14:57.08Z</time></trkpt><trkpt lat="8.5683967" lon="-71.268105"><ele>1703.1666666666667</ele><time>2026-04-29T20:14:58.081Z</time></trkpt><trkpt lat="8.56833" lon="-71.2681333"><ele>1704.0</ele><time>2026-04-29T20:14:59.088Z</time></trkpt><trkpt lat="8.5682667" lon="-71.26816"><ele>1704.0</ele><time>2026-04-29T20:15:00.089Z</time></trkpt><trkpt lat="8.5682017" lon="-71.2681833"><ele>1704.0</ele><time>2026-04-29T20:15:01.078Z</time></trkpt><trkpt lat="8.5681417" lon="-71.26821"><ele>1704.0</ele><time>2026-04-29T20:15:02.144Z</time></trkpt><trkpt lat="8.5680367" lon="-71.2682517"><ele>1704.0</ele><time>2026-04-29T20:15:04.082Z</time></trkpt><trkpt lat="8.56795" lon="-71.2682817"><ele>1704.0</ele><time>2026-04-29T20:15:06.08Z</time></trkpt><trkpt lat="8.5678833" lon="-71.2683083"><ele>1704.0</ele><time>2026-04-29T20:15:08.115Z</time></trkpt><trkpt lat="8.5678017" lon="-71.2683133"><ele>1702.1666666666667</ele><time>2026-04-29T20:15:11.073Z</time></trkpt><trkpt lat="8.567715" lon="-71.268325"><ele>1700.3333333333335</ele><time>2026-04-29T20:15:14.119Z</time></trkpt><trkpt lat="8.5676567" lon="-71.26836"><ele>1698.5</ele><time>2026-04-29T20:15:16.085Z</time></trkpt><trkpt lat="8.5675867" lon="-71.2683933"><ele>1696.6666666666667</ele><time>2026-04-29T20:15:18.071Z</time></trkpt><trkpt lat="8.56751" lon="-71.2684183"><ele>1694.8333333333335</ele><time>2026-04-29T20:15:20.125Z</time></trkpt><trkpt lat="8.5674417" lon="-71.2684433"><ele>1693.0</ele><time>2026-04-29T20:15:22.066Z</time></trkpt><trkpt lat="8.567375" lon="-71.2684683"><ele>1693.0</ele><time>2026-04-29T20:15:24.087Z</time></trkpt><trkpt lat="8.5673017" lon="-71.2684917"><ele>1693.0</ele><time>2026-04-29T20:15:26.153Z</time></trkpt><trkpt lat="8.56723" lon="-71.2685067"><ele>1693.0</ele><time>2026-04-29T20:15:28.081Z</time></trkpt><trkpt lat="8.5671633" lon="-71.2685217"><ele>1693.0</ele><time>2026-04-29T20:15:30.086Z</time></trkpt><trkpt lat="8.5671" lon="-71.2685317"><ele>1693.0</ele><time>2026-04-29T20:15:32.141Z</time></trkpt><trkpt lat="8.5670367" lon="-71.2685333"><ele>1693.0</ele><time>2026-04-29T20:15:34.101Z</time></trkpt><trkpt lat="8.5669733" lon="-71.268535"><ele>1693.0</ele><time>2026-04-29T20:15:36.08Z</time></trkpt><trkpt lat="8.5668817" lon="-71.26853"><ele>1692.857142857143</ele><time>2026-04-29T20:15:39.097Z</time></trkpt><trkpt lat="8.5667917" lon="-71.26852"><ele>1692.7142857142858</ele><time>2026-04-29T20:15:42.066Z</time></trkpt><trkpt lat="8.5667317" lon="-71.2685"><ele>1692.5714285714284</ele><time>2026-04-29T20:15:44.114Z</time></trkpt><trkpt lat="8.5666683" lon="-71.26848"><ele>1692.4285714285716</ele><time>2026-04-29T20:15:46.082Z</time></trkpt><trkpt lat="8.5666067" lon="-71.26846"><ele>1692.2857142857144</ele><time>2026-04-29T20:15:48.094Z</time></trkpt><trkpt lat="8.5665433" lon="-71.268445"><ele>1692.142857142857</ele><time>2026-04-29T20:15:50.083Z</time></trkpt><trkpt lat="8.566485" lon="-71.268415"><ele>1692.0</ele><time>2026-04-29T20:15:52.079Z</time></trkpt><trkpt lat="8.566405" lon="-71.2683783"><ele>1692.0</ele><time>2026-04-29T20:15:55.076Z</time></trkpt><trkpt lat="8.566325" lon="-71.2683383"><ele>1692.0</ele><time>2026-04-29T20:15:58.087Z</time></trkpt><trkpt lat="8.5662767" lon="-71.2682967"><ele>1692.0</ele><time>2026-04-29T20:16:00.091Z</time></trkpt><trkpt lat="8.5662233" lon="-71.26826"><ele>1692.0</ele><time>2026-04-29T20:16:02.134Z</time></trkpt><trkpt lat="8.5661667" lon="-71.26822"><ele>1692.0</ele><time>2026-04-29T20:16:04.058Z</time></trkpt><trkpt lat="8.566115" lon="-71.268175"><ele>1692.0</ele><time>2026-04-29T20:16:06.087Z</time></trkpt><trkpt lat="8.5660583" lon="-71.2681383"><ele>1692.0</ele><time>2026-04-29T20:16:08.1Z</time></trkpt><trkpt lat="8.566" lon="-71.2680967"><ele>1688.5</ele><time>2026-04-29T20:16:10.08Z</time></trkpt><trkpt lat="8.5659383" lon="-71.2680483"><ele>1685.0</ele><time>2026-04-29T20:16:12.066Z</time></trkpt><trkpt lat="8.5658717" lon="-71.26801"><ele>1681.5</ele><time>2026-04-29T20:16:14.105Z</time></trkpt><trkpt lat="8.565805" lon="-71.26797"><ele>1678.0</ele><time>2026-04-29T20:16:16.083Z</time></trkpt><trkpt lat="8.5657333" lon="-71.26794"><ele>1674.5</ele><time>2026-04-29T20:16:18.089Z</time></trkpt><trkpt lat="8.5656617" lon="-71.2679217"><ele>1671.0</ele><time>2026-04-29T20:16:20.088Z</time></trkpt><trkpt lat="8.5655883" lon="-71.2679117"><ele>1671.0</ele><time>2026-04-29T20:16:22.076Z</time></trkpt><trkpt lat="8.5655133" lon="-71.2679033"><ele>1671.0</ele><time>2026-04-29T20:16:24.047Z</time></trkpt><trkpt lat="8.56544" lon="-71.2678933"><ele>1671.0</ele><time>2026-04-29T20:16:26.148Z</time></trkpt><trkpt lat="8.5653667" lon="-71.2678967"><ele>1671.0</ele><time>2026-04-29T20:16:28.088Z</time></trkpt><trkpt lat="8.5652933" lon="-71.2679067"><ele>1671.0</ele><time>2026-04-29T20:16:30.082Z</time></trkpt><trkpt lat="8.5652233" lon="-71.2679233"><ele>1671.0</ele><time>2026-04-29T20:16:32.131Z</time></trkpt><trkpt lat="8.565155" lon="-71.2679417"><ele>1671.0</ele><time>2026-04-29T20:16:34.085Z</time></trkpt><trkpt lat="8.5650933" lon="-71.267965"><ele>1671.142857142857</ele><time>2026-04-29T20:16:36.076Z</time></trkpt><trkpt lat="8.5650267" lon="-71.2679883"><ele>1671.2857142857144</ele><time>2026-04-29T20:16:38.123Z</time></trkpt><trkpt lat="8.5649583" lon="-71.2680083"><ele>1671.4285714285716</ele><time>2026-04-29T20:16:40.079Z</time></trkpt><trkpt lat="8.5648967" lon="-71.268025"><ele>1671.5714285714284</ele><time>2026-04-29T20:16:42.074Z</time></trkpt><trkpt lat="8.5648283" lon="-71.2680417"><ele>1671.7142857142858</ele><time>2026-04-29T20:16:44.118Z</time></trkpt><trkpt lat="8.5647617" lon="-71.2680567"><ele>1671.857142857143</ele><time>2026-04-29T20:16:46.08Z</time></trkpt><trkpt lat="8.5646667" lon="-71.268075"><ele>1672.0</ele><time>2026-04-29T20:16:49.089Z</time></trkpt><trkpt lat="8.5646017" lon="-71.26809"><ele>1671.857142857143</ele><time>2026-04-29T20:16:51.083Z</time></trkpt><trkpt lat="8.56452" lon="-71.2681067"><ele>1671.7142857142858</ele><time>2026-04-29T20:16:54.084Z</time></trkpt><trkpt lat="8.5644517" lon="-71.2681083"><ele>1671.5714285714284</ele><time>2026-04-29T20:16:56.134Z</time></trkpt><trkpt lat="8.5643817" lon="-71.2681067"><ele>1671.4285714285716</ele><time>2026-04-29T20:16:58.075Z</time></trkpt><trkpt lat="8.5643117" lon="-71.2681"><ele>1671.2857142857144</ele><time>2026-04-29T20:17:00.081Z</time></trkpt><trkpt lat="8.564235" lon="-71.2680917"><ele>1671.142857142857</ele><time>2026-04-29T20:17:02.143Z</time></trkpt><trkpt lat="8.5641633" lon="-71.2680867"><ele>1671.0</ele><time>2026-04-29T20:17:04.076Z</time></trkpt><trkpt lat="8.564095" lon="-71.2680783"><ele>1671.0</ele><time>2026-04-29T20:17:06.086Z</time></trkpt><trkpt lat="8.5640233" lon="-71.2680633"><ele>1671.0</ele><time>2026-04-29T20:17:08.114Z</time></trkpt><trkpt lat="8.5639567" lon="-71.2680483"><ele>1671.0</ele><time>2026-04-29T20:17:10.08Z</time></trkpt><trkpt lat="8.5638683" lon="-71.2680283"><ele>1671.0</ele><time>2026-04-29T20:17:13.08Z</time></trkpt><trkpt lat="8.56378" lon="-71.268005"><ele>1671.0</ele><time>2026-04-29T20:17:16.049Z</time></trkpt><trkpt lat="8.5636917" lon="-71.2679767"><ele>1671.0</ele><time>2026-04-29T20:17:19.08Z</time></trkpt><trkpt lat="8.5636283" lon="-71.26795"><ele>1674.8333333333333</ele><time>2026-04-29T20:17:21.05Z</time></trkpt><trkpt lat="8.56357" lon="-71.267915"><ele>1678.6666666666665</ele><time>2026-04-29T20:17:23.083Z</time></trkpt><trkpt lat="8.5634867" lon="-71.2678717"><ele>1682.5</ele><time>2026-04-29T20:17:26.124Z</time></trkpt><trkpt lat="8.5634083" lon="-71.2678217"><ele>1686.3333333333333</ele><time>2026-04-29T20:17:29.087Z</time></trkpt><trkpt lat="8.563355" lon="-71.2677833"><ele>1690.1666666666665</ele><time>2026-04-29T20:17:31.094Z</time></trkpt><trkpt lat="8.5633033" lon="-71.2677417"><ele>1694.0</ele><time>2026-04-29T20:17:33.098Z</time></trkpt><trkpt lat="8.56325" lon="-71.2677017"><ele>1693.9999999999998</ele><time>2026-04-29T20:17:35.083Z</time></trkpt><trkpt lat="8.563195" lon="-71.2676667"><ele>1694.0</ele><time>2026-04-29T20:17:37.07Z</time></trkpt><trkpt lat="8.5631133" lon="-71.2676167"><ele>1694.0</ele><time>2026-04-29T20:17:40.084Z</time></trkpt><trkpt lat="8.5630567" lon="-71.2675733"><ele>1694.0</ele><time>2026-04-29T20:17:42.088Z</time></trkpt><trkpt lat="8.562995" lon="-71.26753"><ele>1693.9999999999998</ele><time>2026-04-29T20:17:44.137Z</time></trkpt><trkpt lat="8.5629317" lon="-71.26748"><ele>1694.0</ele><time>2026-04-29T20:17:46.087Z</time></trkpt><trkpt lat="8.56286" lon="-71.267425"><ele>1696.6</ele><time>2026-04-29T20:17:48.089Z</time></trkpt><trkpt lat="8.5627817" lon="-71.2673633"><ele>1699.2</ele><time>2026-04-29T20:17:50.118Z</time></trkpt><trkpt lat="8.5626983" lon="-71.2673017"><ele>1701.7999999999997</ele><time>2026-04-29T20:17:52.083Z</time></trkpt><trkpt lat="8.56261" lon="-71.267235"><ele>1704.3999999999999</ele><time>2026-04-29T20:17:54.09Z</time></trkpt><trkpt lat="8.5625217" lon="-71.2671717"><ele>1707.0</ele><time>2026-04-29T20:17:56.133Z</time></trkpt><trkpt lat="8.5624267" lon="-71.2671117"><ele>1703.0</ele><time>2026-04-29T20:17:58.081Z</time></trkpt><trkpt lat="8.5623417" lon="-71.26704"><ele>1698.9999999999998</ele><time>2026-04-29T20:18:00.081Z</time></trkpt><trkpt lat="8.56226" lon="-71.2669733"><ele>1695.0</ele><time>2026-04-29T20:18:02.133Z</time></trkpt><trkpt lat="8.5621717" lon="-71.2669183"><ele>1691.0</ele><time>2026-04-29T20:18:04.082Z</time></trkpt><trkpt lat="8.56208" lon="-71.2668733"><ele>1687.0</ele><time>2026-04-29T20:18:06.084Z</time></trkpt><trkpt lat="8.5619883" lon="-71.2668467"><ele>1687.0</ele><time>2026-04-29T20:18:08.122Z</time></trkpt><trkpt lat="8.5619" lon="-71.2668433"><ele>1687.0</ele><time>2026-04-29T20:18:10.081Z</time></trkpt><trkpt lat="8.5618067" lon="-71.26687"><ele>1687.0</ele><time>2026-04-29T20:18:12.083Z</time></trkpt><trkpt lat="8.5617167" lon="-71.2669167"><ele>1687.0</ele><time>2026-04-29T20:18:14.13Z</time></trkpt><trkpt lat="8.5616317" lon="-71.2669883"><ele>1687.0</ele><time>2026-04-29T20:18:16.079Z</time></trkpt><trkpt lat="8.561555" lon="-71.2670767"><ele>1687.0000000000002</ele><time>2026-04-29T20:18:18.063Z</time></trkpt><trkpt lat="8.5614817" lon="-71.2671817"><ele>1687.0</ele><time>2026-04-29T20:18:20.121Z</time></trkpt><trkpt lat="8.5614433" lon="-71.267235"><ele>1687.0</ele><time>2026-04-29T20:18:21.103Z</time></trkpt><trkpt lat="8.5614067" lon="-71.2672917"><ele>1687.0</ele><time>2026-04-29T20:18:22.091Z</time></trkpt><trkpt lat="8.5613717" lon="-71.2673517"><ele>1687.0000000000002</ele><time>2026-04-29T20:18:23.079Z</time></trkpt><trkpt lat="8.5613467" lon="-71.267415"><ele>1687.0</ele><time>2026-04-29T20:18:24.09Z</time></trkpt><trkpt lat="8.5613217" lon="-71.26748"><ele>1688.7142857142858</ele><time>2026-04-29T20:18:25.099Z</time></trkpt><trkpt lat="8.5612967" lon="-71.2675483"><ele>1690.4285714285716</ele><time>2026-04-29T20:18:26.135Z</time></trkpt><trkpt lat="8.561275" lon="-71.2676183"><ele>1692.142857142857</ele><time>2026-04-29T20:18:27.077Z</time></trkpt><trkpt lat="8.5612567" lon="-71.26769"><ele>1693.857142857143</ele><time>2026-04-29T20:18:28.07Z</time></trkpt><trkpt lat="8.5612383" lon="-71.2677583"><ele>1695.5714285714287</ele><time>2026-04-29T20:18:29.085Z</time></trkpt><trkpt lat="8.5612217" lon="-71.26783"><ele>1697.2857142857142</ele><time>2026-04-29T20:18:30.09Z</time></trkpt><trkpt lat="8.5612117" lon="-71.2678983"><ele>1699.0</ele><time>2026-04-29T20:18:31.09Z</time></trkpt><trkpt lat="8.5612033" lon="-71.2679683"><ele>1697.142857142857</ele><time>2026-04-29T20:18:32.14Z</time></trkpt><trkpt lat="8.5611917" lon="-71.2680417"><ele>1695.2857142857144</ele><time>2026-04-29T20:18:33.08Z</time></trkpt><trkpt lat="8.5611733" lon="-71.2681117"><ele>1693.4285714285716</ele><time>2026-04-29T20:18:34.045Z</time></trkpt><trkpt lat="8.5611533" lon="-71.2681783"><ele>1691.5714285714284</ele><time>2026-04-29T20:18:35.096Z</time></trkpt><trkpt lat="8.5611233" lon="-71.2682417"><ele>1689.7142857142858</ele><time>2026-04-29T20:18:36.082Z</time></trkpt><trkpt lat="8.5610783" lon="-71.2682967"><ele>1687.857142857143</ele><time>2026-04-29T20:18:37.079Z</time></trkpt><trkpt lat="8.561025" lon="-71.268345"><ele>1686.0</ele><time>2026-04-29T20:18:38.12Z</time></trkpt><trkpt lat="8.5609683" lon="-71.2683883"><ele>1686.0</ele><time>2026-04-29T20:18:39.09Z</time></trkpt><trkpt lat="8.560905" lon="-71.2684267"><ele>1686.0</ele><time>2026-04-29T20:18:40.095Z</time></trkpt><trkpt lat="8.5608383" lon="-71.2684583"><ele>1686.0</ele><time>2026-04-29T20:18:41.089Z</time></trkpt><trkpt lat="8.5607717" lon="-71.268485"><ele>1686.0</ele><time>2026-04-29T20:18:42.072Z</time></trkpt><trkpt lat="8.560705" lon="-71.268505"><ele>1686.0</ele><time>2026-04-29T20:18:43.085Z</time></trkpt><trkpt lat="8.5606383" lon="-71.2685233"><ele>1686.0</ele><time>2026-04-29T20:18:44.089Z</time></trkpt><trkpt lat="8.5605683" lon="-71.2685317"><ele>1686.0</ele><time>2026-04-29T20:18:45.088Z</time></trkpt><trkpt lat="8.5605" lon="-71.2685333"><ele>1686.0</ele><time>2026-04-29T20:18:46.078Z</time></trkpt><trkpt lat="8.560435" lon="-71.268535"><ele>1686.0</ele><time>2026-04-29T20:18:47.09Z</time></trkpt><trkpt lat="8.5603167" lon="-71.268525"><ele>1686.0</ele><time>2026-04-29T20:18:49.092Z</time></trkpt><trkpt lat="8.5602533" lon="-71.2685117"><ele>1686.0</ele><time>2026-04-29T20:18:50.114Z</time></trkpt><trkpt lat="8.56019" lon="-71.268495"><ele>1686.0</ele><time>2026-04-29T20:18:51.083Z</time></trkpt><trkpt lat="8.5601267" lon="-71.2684733"><ele>1686.0</ele><time>2026-04-29T20:18:52.066Z</time></trkpt><trkpt lat="8.56006" lon="-71.2684533"><ele>1685.142857142857</ele><time>2026-04-29T20:18:53.084Z</time></trkpt><trkpt lat="8.55999" lon="-71.26843"><ele>1684.2857142857142</ele><time>2026-04-29T20:18:54.084Z</time></trkpt><trkpt lat="8.5599217" lon="-71.2684133"><ele>1683.4285714285716</ele><time>2026-04-29T20:18:55.077Z</time></trkpt><trkpt lat="8.55985" lon="-71.2683933"><ele>1682.5714285714284</ele><time>2026-04-29T20:18:56.125Z</time></trkpt><trkpt lat="8.55978" lon="-71.2683717"><ele>1681.7142857142858</ele><time>2026-04-29T20:18:57.077Z</time></trkpt><trkpt lat="8.55971" lon="-71.2683517"><ele>1680.857142857143</ele><time>2026-04-29T20:18:58.084Z</time></trkpt><trkpt lat="8.5596417" lon="-71.2683283"><ele>1680.0</ele><time>2026-04-29T20:18:59.082Z</time></trkpt><trkpt lat="8.559575" lon="-71.26831"><ele>1680.2857142857142</ele><time>2026-04-29T20:19:00.081Z</time></trkpt><trkpt lat="8.55951" lon="-71.2682917"><ele>1680.5714285714284</ele><time>2026-04-29T20:19:01.088Z</time></trkpt><trkpt lat="8.5594433" lon="-71.2682717"><ele>1680.857142857143</ele><time>2026-04-29T20:19:02.115Z</time></trkpt><trkpt lat="8.5593767" lon="-71.26825"><ele>1681.142857142857</ele><time>2026-04-29T20:19:03.089Z</time></trkpt><trkpt lat="8.5593117" lon="-71.2682317"><ele>1681.4285714285713</ele><time>2026-04-29T20:19:04.068Z</time></trkpt><trkpt lat="8.5592433" lon="-71.2682167"><ele>1681.7142857142858</ele><time>2026-04-29T20:19:05.086Z</time></trkpt><trkpt lat="8.55918" lon="-71.2682033"><ele>1682.0</ele><time>2026-04-29T20:19:06.08Z</time></trkpt><trkpt lat="8.5590583" lon="-71.2681867"><ele>1682.0</ele><time>2026-04-29T20:19:08.1Z</time></trkpt><trkpt lat="8.5589417" lon="-71.2681817"><ele>1682.0</ele><time>2026-04-29T20:19:10.083Z</time></trkpt><trkpt lat="8.55883" lon="-71.2682"><ele>1682.0</ele><time>2026-04-29T20:19:12.083Z</time></trkpt><trkpt lat="8.5587317" lon="-71.2682267"><ele>1682.0</ele><time>2026-04-29T20:19:14.109Z</time></trkpt><trkpt lat="8.558645" lon="-71.2682683"><ele>1682.0</ele><time>2026-04-29T20:19:16.082Z</time></trkpt><trkpt lat="8.5585717" lon="-71.2683167"><ele>1680.6666666666665</ele><time>2026-04-29T20:19:18.06Z</time></trkpt><trkpt lat="8.5585217" lon="-71.2683767"><ele>1679.3333333333333</ele><time>2026-04-29T20:19:20.118Z</time></trkpt><trkpt lat="8.5584783" lon="-71.26844"><ele>1678.0</ele><time>2026-04-29T20:19:22.083Z</time></trkpt><trkpt lat="8.558435" lon="-71.268505"><ele>1676.6666666666665</ele><time>2026-04-29T20:19:24.086Z</time></trkpt><trkpt lat="8.5583917" lon="-71.2685783"><ele>1675.3333333333333</ele><time>2026-04-29T20:19:26.13Z</time></trkpt><trkpt lat="8.5583683" lon="-71.2686617"><ele>1674.0</ele><time>2026-04-29T20:19:28.084Z</time></trkpt><trkpt lat="8.55836" lon="-71.2687517"><ele>1674.0</ele><time>2026-04-29T20:19:30.077Z</time></trkpt><trkpt lat="8.5583617" lon="-71.268855"><ele>1674.0</ele><time>2026-04-29T20:19:32.119Z</time></trkpt><trkpt lat="8.558375" lon="-71.2689617"><ele>1674.0</ele><time>2026-04-29T20:19:34.088Z</time></trkpt><trkpt lat="8.5583833" lon="-71.269075"><ele>1674.0</ele><time>2026-04-29T20:19:36.084Z</time></trkpt><trkpt lat="8.5583967" lon="-71.2691383"><ele>1674.0</ele><time>2026-04-29T20:19:37.071Z</time></trkpt><trkpt lat="8.5584083" lon="-71.269205"><ele>1673.4285714285716</ele><time>2026-04-29T20:19:38.11Z</time></trkpt><trkpt lat="8.55842" lon="-71.269275"><ele>1672.857142857143</ele><time>2026-04-29T20:19:39.088Z</time></trkpt><trkpt lat="8.558435" lon="-71.269345"><ele>1672.2857142857142</ele><time>2026-04-29T20:19:40.089Z</time></trkpt><trkpt lat="8.5584483" lon="-71.2694183"><ele>1671.7142857142858</ele><time>2026-04-29T20:19:41.085Z</time></trkpt><trkpt lat="8.5584633" lon="-71.2694933"><ele>1671.142857142857</ele><time>2026-04-29T20:19:42.1Z</time></trkpt><trkpt lat="8.55848" lon="-71.2695633"><ele>1670.5714285714287</ele><time>2026-04-29T20:19:43.083Z</time></trkpt><trkpt lat="8.5584967" lon="-71.2696367"><ele>1670.0</ele><time>2026-04-29T20:19:44.123Z</time></trkpt><trkpt lat="8.5585133" lon="-71.2697133"><ele>1667.6666666666665</ele><time>2026-04-29T20:19:45.084Z</time></trkpt><trkpt lat="8.55853" lon="-71.2697933"><ele>1665.3333333333333</ele><time>2026-04-29T20:19:46.069Z</time></trkpt><trkpt lat="8.55855" lon="-71.269875"><ele>1663.0</ele><time>2026-04-29T20:19:47.082Z</time></trkpt><trkpt lat="8.5585683" lon="-71.2699583"><ele>1660.6666666666665</ele><time>2026-04-29T20:19:48.091Z</time></trkpt><trkpt lat="8.5585883" lon="-71.270045"><ele>1658.3333333333333</ele><time>2026-04-29T20:19:49.076Z</time></trkpt><trkpt lat="8.5586083" lon="-71.2701367"><ele>1656.0</ele><time>2026-04-29T20:19:50.141Z</time></trkpt><trkpt lat="8.5586217" lon="-71.2702267"><ele>1656.0</ele><time>2026-04-29T20:19:51.087Z</time></trkpt><trkpt lat="8.5586383" lon="-71.2703167"><ele>1656.0</ele><time>2026-04-29T20:19:52.073Z</time></trkpt><trkpt lat="8.5586567" lon="-71.27041"><ele>1656.0</ele><time>2026-04-29T20:19:53.091Z</time></trkpt><trkpt lat="8.5586767" lon="-71.2705033"><ele>1656.0</ele><time>2026-04-29T20:19:54.088Z</time></trkpt><trkpt lat="8.5586967" lon="-71.2705917"><ele>1656.0</ele><time>2026-04-29T20:19:55.098Z</time></trkpt><trkpt lat="8.5587183" lon="-71.27068"><ele>1658.6</ele><time>2026-04-29T20:19:56.145Z</time></trkpt><trkpt lat="8.55874" lon="-71.27077"><ele>1661.1999999999998</ele><time>2026-04-29T20:19:57.071Z</time></trkpt><trkpt lat="8.5587633" lon="-71.2708633"><ele>1663.8000000000002</ele><time>2026-04-29T20:19:58.087Z</time></trkpt><trkpt lat="8.558785" lon="-71.2709617"><ele>1666.4</ele><time>2026-04-29T20:19:59.084Z</time></trkpt><trkpt lat="8.5588033" lon="-71.2710567"><ele>1669.0</ele><time>2026-04-29T20:20:00.097Z</time></trkpt><trkpt lat="8.558825" lon="-71.27115"><ele>1669.0</ele><time>2026-04-29T20:20:01.083Z</time></trkpt><trkpt lat="8.558845" lon="-71.2712433"><ele>1669.0</ele><time>2026-04-29T20:20:02.141Z</time></trkpt><trkpt lat="8.5588633" lon="-71.2713367"><ele>1669.0</ele><time>2026-04-29T20:20:03.057Z</time></trkpt><trkpt lat="8.5588817" lon="-71.2714283"><ele>1669.0</ele><time>2026-04-29T20:20:04.091Z</time></trkpt><trkpt lat="8.5589017" lon="-71.27152"><ele>1669.0</ele><time>2026-04-29T20:20:05.086Z</time></trkpt><trkpt lat="8.5589217" lon="-71.2716083"><ele>1668.3333333333335</ele><time>2026-04-29T20:20:06.085Z</time></trkpt><trkpt lat="8.55894" lon="-71.2716967"><ele>1667.6666666666667</ele><time>2026-04-29T20:20:07.091Z</time></trkpt><trkpt lat="8.5589567" lon="-71.2717817"><ele>1667.0</ele><time>2026-04-29T20:20:08.103Z</time></trkpt><trkpt lat="8.55897" lon="-71.2718633"><ele>1666.3333333333335</ele><time>2026-04-29T20:20:09.084Z</time></trkpt><trkpt lat="8.5589867" lon="-71.27194"><ele>1665.6666666666667</ele><time>2026-04-29T20:20:10.079Z</time></trkpt><trkpt lat="8.5590033" lon="-71.2720117"><ele>1665.0</ele><time>2026-04-29T20:20:11.087Z</time></trkpt><trkpt lat="8.5590233" lon="-71.2720817"><ele>1665.0</ele><time>2026-04-29T20:20:12.111Z</time></trkpt><trkpt lat="8.559045" lon="-71.2721483"><ele>1665.0</ele><time>2026-04-29T20:20:13.083Z</time></trkpt><trkpt lat="8.559065" lon="-71.27221"><ele>1665.0</ele><time>2026-04-29T20:20:14.121Z</time></trkpt><trkpt lat="8.5591033" lon="-71.2723133"><ele>1665.0</ele><time>2026-04-29T20:20:16.087Z</time></trkpt><trkpt lat="8.559145" lon="-71.2723933"><ele>1665.0</ele><time>2026-04-29T20:20:18.085Z</time></trkpt><trkpt lat="8.5591733" lon="-71.2724617"><ele>1665.0</ele><time>2026-04-29T20:20:20.119Z</time></trkpt><trkpt lat="8.5592017" lon="-71.272525"><ele>1665.0</ele><time>2026-04-29T20:20:22.082Z</time></trkpt><trkpt lat="8.5592367" lon="-71.2725783"><ele>1665.0</ele><time>2026-04-29T20:20:24.087Z</time></trkpt><trkpt lat="8.5593" lon="-71.272645"><ele>1665.0</ele><time>2026-04-29T20:20:27.082Z</time></trkpt><trkpt lat="8.559365" lon="-71.272715"><ele>1665.0</ele><time>2026-04-29T20:20:30.085Z</time></trkpt><trkpt lat="8.55941" lon="-71.2727633"><ele>1665.0</ele><time>2026-04-29T20:20:32.139Z</time></trkpt><trkpt lat="8.5594617" lon="-71.2728033"><ele>1665.0</ele><time>2026-04-29T20:20:34.082Z</time></trkpt><trkpt lat="8.5595083" lon="-71.2728467"><ele>1665.0</ele><time>2026-04-29T20:20:36.092Z</time></trkpt><trkpt lat="8.5595717" lon="-71.2729"><ele>1666.2857142857142</ele><time>2026-04-29T20:20:39.082Z</time></trkpt><trkpt lat="8.5596183" lon="-71.2729467"><ele>1667.5714285714284</ele><time>2026-04-29T20:20:41.046Z</time></trkpt><trkpt lat="8.5596683" lon="-71.2729883"><ele>1668.857142857143</ele><time>2026-04-29T20:20:43.079Z</time></trkpt><trkpt lat="8.5597383" lon="-71.2730483"><ele>1670.142857142857</ele><time>2026-04-29T20:20:46.087Z</time></trkpt><trkpt lat="8.5597883" lon="-71.2730917"><ele>1671.4285714285716</ele><time>2026-04-29T20:20:48.092Z</time></trkpt><trkpt lat="8.5598333" lon="-71.2731367"><ele>1672.7142857142858</ele><time>2026-04-29T20:20:50.129Z</time></trkpt><trkpt lat="8.559895" lon="-71.2732017"><ele>1674.0</ele><time>2026-04-29T20:20:53.079Z</time></trkpt><trkpt lat="8.5599517" lon="-71.273255"><ele>1674.0</ele><time>2026-04-29T20:20:56.152Z</time></trkpt><trkpt lat="8.56" lon="-71.27331"><ele>1674.0</ele><time>2026-04-29T20:20:59.073Z</time></trkpt><trkpt lat="8.5600533" lon="-71.2733533"><ele>1674.0</ele><time>2026-04-29T20:21:02.137Z</time></trkpt><trkpt lat="8.560105" lon="-71.2734017"><ele>1674.0</ele><time>2026-04-29T20:21:05.07Z</time></trkpt><trkpt lat="8.5601567" lon="-71.2734533"><ele>1674.0</ele><time>2026-04-29T20:21:08.099Z</time></trkpt><trkpt lat="8.56022" lon="-71.2734967"><ele>1674.0</ele><time>2026-04-29T20:21:12.077Z</time></trkpt><trkpt lat="8.5602683" lon="-71.2735417"><ele>1674.0</ele><time>2026-04-29T20:21:15.09Z</time></trkpt><trkpt lat="8.5603167" lon="-71.27359"><ele>1677.5714285714287</ele><time>2026-04-29T20:21:18.075Z</time></trkpt><trkpt lat="8.56038" lon="-71.273645"><ele>1681.1428571428573</ele><time>2026-04-29T20:21:22.103Z</time></trkpt><trkpt lat="8.5604283" lon="-71.273695"><ele>1684.7142857142858</ele><time>2026-04-29T20:21:25.082Z</time></trkpt><trkpt lat="8.5604867" lon="-71.27373"><ele>1688.2857142857142</ele><time>2026-04-29T20:21:28.082Z</time></trkpt><trkpt lat="8.56054" lon="-71.2737683"><ele>1691.857142857143</ele><time>2026-04-29T20:21:31.095Z</time></trkpt><trkpt lat="8.560605" lon="-71.2738233"><ele>1695.4285714285713</ele><time>2026-04-29T20:21:35.083Z</time></trkpt><trkpt lat="8.5606567" lon="-71.2738717"><ele>1699.0</ele><time>2026-04-29T20:21:38.112Z</time></trkpt><trkpt lat="8.5607183" lon="-71.2739233"><ele>1696.857142857143</ele><time>2026-04-29T20:21:42.067Z</time></trkpt><trkpt lat="8.5607667" lon="-71.273965"><ele>1694.7142857142858</ele><time>2026-04-29T20:21:45.067Z</time></trkpt><trkpt lat="8.5608183" lon="-71.274025"><ele>1692.5714285714287</ele><time>2026-04-29T20:21:49.08Z</time></trkpt><trkpt lat="8.5608767" lon="-71.2740783"><ele>1690.4285714285716</ele><time>2026-04-29T20:21:53.035Z</time></trkpt><trkpt lat="8.5609333" lon="-71.2741383"><ele>1688.2857142857142</ele><time>2026-04-29T20:21:57.082Z</time></trkpt><trkpt lat="8.5609817" lon="-71.2741867"><ele>1686.1428571428573</ele><time>2026-04-29T20:22:00.075Z</time></trkpt><trkpt lat="8.5610267" lon="-71.27424"><ele>1684.0</ele><time>2026-04-29T20:22:03.09Z</time></trkpt><trkpt lat="8.5610833" lon="-71.2743"><ele>1684.0000000000002</ele><time>2026-04-29T20:22:07.084Z</time></trkpt><trkpt lat="8.5611417" lon="-71.2743383"><ele>1684.0</ele><time>2026-04-29T20:22:11.077Z</time></trkpt><trkpt lat="8.5611933" lon="-71.2743867"><ele>1684.0</ele><time>2026-04-29T20:22:15.097Z</time></trkpt><trkpt lat="8.5612533" lon="-71.2744367"><ele>1684.0</ele><time>2026-04-29T20:22:19.088Z</time></trkpt><trkpt lat="8.5613133" lon="-71.274485"><ele>1684.0</ele><time>2026-04-29T20:22:23.073Z</time></trkpt><trkpt lat="8.56136" lon="-71.2745367"><ele>1684.0000000000002</ele><time>2026-04-29T20:22:26.141Z</time></trkpt><trkpt lat="8.5614183" lon="-71.2745833"><ele>1684.0</ele><time>2026-04-29T20:22:30.095Z</time></trkpt><trkpt lat="8.5614767" lon="-71.2746267"><ele>1684.5714285714287</ele><time>2026-04-29T20:22:34.063Z</time></trkpt><trkpt lat="8.5615383" lon="-71.27467"><ele>1685.142857142857</ele><time>2026-04-29T20:22:38.112Z</time></trkpt><trkpt lat="8.5616033" lon="-71.2747067"><ele>1685.7142857142858</ele><time>2026-04-29T20:22:42.096Z</time></trkpt><trkpt lat="8.5616567" lon="-71.274745"><ele>1686.2857142857142</ele><time>2026-04-29T20:22:45.081Z</time></trkpt><trkpt lat="8.56171" lon="-71.274805"><ele>1686.857142857143</ele><time>2026-04-29T20:22:49.088Z</time></trkpt><trkpt lat="8.56175" lon="-71.2748617"><ele>1687.4285714285716</ele><time>2026-04-29T20:22:52.051Z</time></trkpt><trkpt lat="8.5617883" lon="-71.27492"><ele>1688.0</ele><time>2026-04-29T20:22:55.084Z</time></trkpt><trkpt lat="8.56183" lon="-71.2749767"><ele>1687.9999999999998</ele><time>2026-04-29T20:22:58.083Z</time></trkpt><trkpt lat="8.5618683" lon="-71.27504"><ele>1688.0</ele><time>2026-04-29T20:23:02.131Z</time></trkpt><trkpt lat="8.5618933" lon="-71.2751083"><ele>1688.0</ele><time>2026-04-29T20:23:06.089Z</time></trkpt><trkpt lat="8.5619167" lon="-71.275185"><ele>1688.0</ele><time>2026-04-29T20:23:10.092Z</time></trkpt><trkpt lat="8.5619267" lon="-71.2752517"><ele>1687.9999999999998</ele><time>2026-04-29T20:23:13.073Z</time></trkpt><trkpt lat="8.561945" lon="-71.2753267"><ele>1688.0</ele><time>2026-04-29T20:23:17.051Z</time></trkpt><trkpt lat="8.5619467" lon="-71.275415"><ele>1688.0</ele><time>2026-04-29T20:23:21.092Z</time></trkpt><trkpt lat="8.5619517" lon="-71.2754817"><ele>1688.0</ele><time>2026-04-29T20:23:24.075Z</time></trkpt><trkpt lat="8.5619533" lon="-71.2755533"><ele>1688.0</ele><time>2026-04-29T20:23:27.079Z</time></trkpt><trkpt lat="8.56195" lon="-71.2756217"><ele>1688.0</ele><time>2026-04-29T20:23:30.081Z</time></trkpt><trkpt lat="8.561945" lon="-71.2757017"><ele>1688.0</ele><time>2026-04-29T20:23:34.075Z</time></trkpt><trkpt lat="8.5619267" lon="-71.2757767"><ele>1688.0</ele><time>2026-04-29T20:23:37.078Z</time></trkpt><trkpt lat="8.5619183" lon="-71.2758433"><ele>1688.0</ele><time>2026-04-29T20:23:40.071Z</time></trkpt><trkpt lat="8.5619083" lon="-71.2759117"><ele>1688.4285714285716</ele><time>2026-04-29T20:23:44.128Z</time></trkpt><trkpt lat="8.5618917" lon="-71.2759883"><ele>1688.857142857143</ele><time>2026-04-29T20:23:49.074Z</time></trkpt><trkpt lat="8.5618783" lon="-71.2760617"><ele>1689.2857142857142</ele><time>2026-04-29T20:23:53.074Z</time></trkpt><trkpt lat="8.5618617" lon="-71.2761417"><ele>1689.7142857142858</ele><time>2026-04-29T20:23:57.085Z</time></trkpt><trkpt lat="8.561855" lon="-71.276215"><ele>1690.142857142857</ele><time>2026-04-29T20:24:01.083Z</time></trkpt><trkpt lat="8.5618383" lon="-71.276285"><ele>1690.5714285714287</ele><time>2026-04-29T20:24:05.067Z</time></trkpt><trkpt lat="8.5618383" lon="-71.2763567"><ele>1691.0</ele><time>2026-04-29T20:24:09.086Z</time></trkpt><trkpt lat="8.5618233" lon="-71.27644"><ele>1690.9999999999998</ele><time>2026-04-29T20:24:14.119Z</time></trkpt><trkpt lat="8.561815" lon="-71.2765133"><ele>1691.0</ele><time>2026-04-29T20:24:18.09Z</time></trkpt><trkpt lat="8.5618117" lon="-71.2765833"><ele>1691.0</ele><time>2026-04-29T20:24:22.079Z</time></trkpt><trkpt lat="8.5618" lon="-71.2766633"><ele>1691.0</ele><time>2026-04-29T20:24:26.147Z</time></trkpt><trkpt lat="8.5617733" lon="-71.2767383"><ele>1690.9999999999998</ele><time>2026-04-29T20:24:31.078Z</time></trkpt><trkpt lat="8.561755" lon="-71.2768183"><ele>1691.0</ele><time>2026-04-29T20:24:36.097Z</time></trkpt><trkpt lat="8.5617433" lon="-71.2768983"><ele>1691.0000000000002</ele><time>2026-04-29T20:24:40.041Z</time></trkpt><trkpt lat="8.5617267" lon="-71.27698"><ele>1691.0</ele><time>2026-04-29T20:24:44.121Z</time></trkpt><trkpt lat="8.5617133" lon="-71.27706"><ele>1691.0</ele><time>2026-04-29T20:24:48.082Z</time></trkpt><trkpt lat="8.5617" lon="-71.2771367"><ele>1691.0</ele><time>2026-04-29T20:24:52.086Z</time></trkpt><trkpt lat="8.5616833" lon="-71.2772033"><ele>1691.0</ele><time>2026-04-29T20:24:56.138Z</time></trkpt><trkpt lat="8.56168" lon="-71.2772717"><ele>1691.0000000000002</ele><time>2026-04-29T20:25:00.083Z</time></trkpt><trkpt lat="8.561655" lon="-71.277335"><ele>1691.0</ele><time>2026-04-29T20:25:04.08Z</time></trkpt><trkpt lat="8.5616267" lon="-71.2774017"><ele>1693.1428571428573</ele><time>2026-04-29T20:25:08.108Z</time></trkpt><trkpt lat="8.5615983" lon="-71.2774683"><ele>1695.2857142857142</ele><time>2026-04-29T20:25:12.088Z</time></trkpt><trkpt lat="8.5615517" lon="-71.2775267"><ele>1697.4285714285716</ele><time>2026-04-29T20:25:16.081Z</time></trkpt><trkpt lat="8.56151" lon="-71.277575"><ele>1699.5714285714287</ele><time>2026-04-29T20:25:19.083Z</time></trkpt><trkpt lat="8.5614633" lon="-71.27764"><ele>1701.7142857142858</ele><time>2026-04-29T20:25:24.086Z</time></trkpt><trkpt lat="8.5614333" lon="-71.277705"><ele>1703.857142857143</ele><time>2026-04-29T20:25:28.075Z</time></trkpt><trkpt lat="8.5614133" lon="-71.2777667"><ele>1706.0</ele><time>2026-04-29T20:25:32.145Z</time></trkpt><trkpt lat="8.5614" lon="-71.277835"><ele>1706.0</ele><time>2026-04-29T20:25:36.091Z</time></trkpt><trkpt lat="8.5613983" lon="-71.2779"><ele>1706.0</ele><time>2026-04-29T20:25:40.074Z</time></trkpt><trkpt lat="8.5613933" lon="-71.277965"><ele>1706.0</ele><time>2026-04-29T20:25:44.118Z</time></trkpt><trkpt lat="8.5614" lon="-71.27803"><ele>1706.0</ele><time>2026-04-29T20:25:48.083Z</time></trkpt><trkpt lat="8.5614267" lon="-71.2781017"><ele>1706.0</ele><time>2026-04-29T20:25:53.074Z</time></trkpt><trkpt lat="8.5614583" lon="-71.2781683"><ele>1706.0</ele><time>2026-04-29T20:25:57.081Z</time></trkpt><trkpt lat="8.56148" lon="-71.27824"><ele>1706.0</ele><time>2026-04-29T20:26:01.093Z</time></trkpt><trkpt lat="8.5615183" lon="-71.2782983"><ele>1706.4285714285713</ele><time>2026-04-29T20:26:05.104Z</time></trkpt><trkpt lat="8.5615633" lon="-71.278365"><ele>1706.857142857143</ele><time>2026-04-29T20:26:10.084Z</time></trkpt><trkpt lat="8.5616083" lon="-71.2784267"><ele>1707.2857142857142</ele><time>2026-04-29T20:26:15.083Z</time></trkpt><trkpt lat="8.5616433" lon="-71.2784833"><ele>1707.7142857142858</ele><time>2026-04-29T20:26:19.039Z</time></trkpt><trkpt lat="8.5616767" lon="-71.2785433"><ele>1708.1428571428573</ele><time>2026-04-29T20:26:23.089Z</time></trkpt><trkpt lat="8.5617167" lon="-71.2786017"><ele>1708.5714285714287</ele><time>2026-04-29T20:26:27.085Z</time></trkpt><trkpt lat="8.5617583" lon="-71.278665"><ele>1709.0</ele><time>2026-04-29T20:26:32.141Z</time></trkpt><trkpt lat="8.5617783" lon="-71.2787317"><ele>1709.0</ele><time>2026-04-29T20:26:36.044Z</time></trkpt><trkpt lat="8.5617933" lon="-71.278805"><ele>1709.0</ele><time>2026-04-29T20:26:40.074Z</time></trkpt><trkpt lat="8.5618133" lon="-71.2788683"><ele>1709.0</ele><time>2026-04-29T20:26:44.113Z</time></trkpt><trkpt lat="8.5618217" lon="-71.278945"><ele>1709.0</ele><time>2026-04-29T20:26:48.082Z</time></trkpt><trkpt lat="8.5618" lon="-71.2790233"><ele>1709.0</ele><time>2026-04-29T20:26:52.086Z</time></trkpt><trkpt lat="8.5617867" lon="-71.2790867"><ele>1709.0</ele><time>2026-04-29T20:26:55.085Z</time></trkpt><trkpt lat="8.56175" lon="-71.2791467"><ele>1709.0</ele><time>2026-04-29T20:26:59.076Z</time></trkpt><trkpt lat="8.5617167" lon="-71.279205"><ele>1709.142857142857</ele><time>2026-04-29T20:27:03.076Z</time></trkpt><trkpt lat="8.5616867" lon="-71.2792717"><ele>1709.2857142857142</ele><time>2026-04-29T20:27:07.054Z</time></trkpt><trkpt lat="8.5616667" lon="-71.279345"><ele>1709.4285714285716</ele><time>2026-04-29T20:27:11.08Z</time></trkpt><trkpt lat="8.56163" lon="-71.279415"><ele>1709.5714285714284</ele><time>2026-04-29T20:27:15.089Z</time></trkpt><trkpt lat="8.5616" lon="-71.2794833"><ele>1709.7142857142856</ele><time>2026-04-29T20:27:19.084Z</time></trkpt><trkpt lat="8.561565" lon="-71.2795533"><ele>1709.857142857143</ele><time>2026-04-29T20:27:23.086Z</time></trkpt><trkpt lat="8.5615483" lon="-71.2796233"><ele>1710.0</ele><time>2026-04-29T20:27:27.085Z</time></trkpt><trkpt lat="8.5615033" lon="-71.279695"><ele>1710.0</ele><time>2026-04-29T20:27:32.143Z</time></trkpt><trkpt lat="8.56146" lon="-71.279765"><ele>1710.0</ele><time>2026-04-29T20:27:36.072Z</time></trkpt><trkpt lat="8.5614333" lon="-71.2798367"><ele>1710.0</ele><time>2026-04-29T20:27:40.084Z</time></trkpt><trkpt lat="8.56139" lon="-71.2799033"><ele>1710.0</ele><time>2026-04-29T20:27:44.122Z</time></trkpt><trkpt lat="8.5613517" lon="-71.2799567"><ele>1710.0</ele><time>2026-04-29T20:27:47.082Z</time></trkpt><trkpt lat="8.5613033" lon="-71.2800167"><ele>1710.0</ele><time>2026-04-29T20:27:51.087Z</time></trkpt><trkpt lat="8.5612667" lon="-71.2800867"><ele>1708.6666666666667</ele><time>2026-04-29T20:27:55.095Z</time></trkpt><trkpt lat="8.5612317" lon="-71.2801517"><ele>1707.3333333333335</ele><time>2026-04-29T20:27:59.085Z</time></trkpt><trkpt lat="8.561185" lon="-71.2802217"><ele>1706.0</ele><time>2026-04-29T20:28:03.086Z</time></trkpt><trkpt lat="8.5611417" lon="-71.280285"><ele>1704.6666666666667</ele><time>2026-04-29T20:28:07.095Z</time></trkpt><trkpt lat="8.561105" lon="-71.2803533"><ele>1703.3333333333335</ele><time>2026-04-29T20:28:11.04Z</time></trkpt><trkpt lat="8.561065" lon="-71.2804233"><ele>1702.0</ele><time>2026-04-29T20:28:15.072Z</time></trkpt><trkpt lat="8.5610183" lon="-71.280485"><ele>1702.0</ele><time>2026-04-29T20:28:19.085Z</time></trkpt><trkpt lat="8.5609783" lon="-71.2805517"><ele>1702.0</ele><time>2026-04-29T20:28:23.065Z</time></trkpt><trkpt lat="8.5609367" lon="-71.2806183"><ele>1702.0</ele><time>2026-04-29T20:28:27.092Z</time></trkpt><trkpt lat="8.5609" lon="-71.2806767"><ele>1702.0</ele><time>2026-04-29T20:28:31.08Z</time></trkpt><trkpt lat="8.5608517" lon="-71.2807367"><ele>1702.0</ele><time>2026-04-29T20:28:35.065Z</time></trkpt><trkpt lat="8.5608167" lon="-71.2807933"><ele>1702.0</ele><time>2026-04-29T20:28:39.082Z</time></trkpt><trkpt lat="8.5607933" lon="-71.280855"><ele>1702.0</ele><time>2026-04-29T20:28:43.071Z</time></trkpt><trkpt lat="8.5607683" lon="-71.2809267"><ele>1704.4285714285716</ele><time>2026-04-29T20:28:47.071Z</time></trkpt><trkpt lat="8.5607333" lon="-71.28099"><ele>1706.857142857143</ele><time>2026-04-29T20:28:51.09Z</time></trkpt><trkpt lat="8.5606883" lon="-71.2810433"><ele>1709.2857142857142</ele><time>2026-04-29T20:28:55.085Z</time></trkpt><trkpt lat="8.5606533" lon="-71.2811083"><ele>1711.7142857142858</ele><time>2026-04-29T20:28:59.068Z</time></trkpt><trkpt lat="8.5606133" lon="-71.28117"><ele>1714.142857142857</ele><time>2026-04-29T20:29:03.074Z</time></trkpt><trkpt lat="8.5605717" lon="-71.2812283"><ele>1716.5714285714287</ele><time>2026-04-29T20:29:07.1Z</time></trkpt><trkpt lat="8.56054" lon="-71.28129"><ele>1719.0</ele><time>2026-04-29T20:29:11.089Z</time></trkpt><trkpt lat="8.560505" lon="-71.2813517"><ele>1719.0000000000002</ele><time>2026-04-29T20:29:15.088Z</time></trkpt><trkpt lat="8.5604767" lon="-71.28141"><ele>1719.0</ele><time>2026-04-29T20:29:19.081Z</time></trkpt><trkpt lat="8.5604417" lon="-71.28147"><ele>1719.0</ele><time>2026-04-29T20:29:23.076Z</time></trkpt><trkpt lat="8.56042" lon="-71.2815333"><ele>1719.0</ele><time>2026-04-29T20:29:27.085Z</time></trkpt><trkpt lat="8.5603983" lon="-71.2815967"><ele>1719.0</ele><time>2026-04-29T20:29:31.084Z</time></trkpt><trkpt lat="8.560375" lon="-71.2816617"><ele>1719.0000000000002</ele><time>2026-04-29T20:29:35.078Z</time></trkpt><trkpt lat="8.5603517" lon="-71.2817267"><ele>1719.0</ele><time>2026-04-29T20:29:39.055Z</time></trkpt><trkpt lat="8.56034" lon="-71.281805"><ele>1717.1428571428573</ele><time>2026-04-29T20:29:44.118Z</time></trkpt><trkpt lat="8.5603333" lon="-71.281875"><ele>1715.2857142857142</ele><time>2026-04-29T20:29:48.09Z</time></trkpt><trkpt lat="8.5603317" lon="-71.28194"><ele>1713.4285714285716</ele><time>2026-04-29T20:29:52.084Z</time></trkpt><trkpt lat="8.5603317" lon="-71.2820067"><ele>1711.5714285714287</ele><time>2026-04-29T20:29:56.151Z</time></trkpt><trkpt lat="8.5603333" lon="-71.2820817"><ele>1709.7142857142858</ele><time>2026-04-29T20:30:00.071Z</time></trkpt><trkpt lat="8.560335" lon="-71.2821467"><ele>1707.857142857143</ele><time>2026-04-29T20:30:03.088Z</time></trkpt><trkpt lat="8.5603467" lon="-71.282215"><ele>1706.0</ele><time>2026-04-29T20:30:07.085Z</time></trkpt><trkpt lat="8.5603683" lon="-71.282285"><ele>1712.2857142857142</ele><time>2026-04-29T20:30:11.082Z</time></trkpt><trkpt lat="8.5603967" lon="-71.282345"><ele>1718.5714285714287</ele><time>2026-04-29T20:30:15.09Z</time></trkpt><trkpt lat="8.560425" lon="-71.28241"><ele>1724.857142857143</ele><time>2026-04-29T20:30:19.095Z</time></trkpt><trkpt lat="8.560465" lon="-71.2824667"><ele>1731.142857142857</ele><time>2026-04-29T20:30:23.083Z</time></trkpt><trkpt lat="8.5604967" lon="-71.2825267"><ele>1737.4285714285716</ele><time>2026-04-29T20:30:26.131Z</time></trkpt><trkpt lat="8.5605367" lon="-71.2825833"><ele>1743.7142857142858</ele><time>2026-04-29T20:30:30.09Z</time></trkpt><trkpt lat="8.5605733" lon="-71.28264"><ele>1750.0</ele><time>2026-04-29T20:30:34.071Z</time></trkpt><trkpt lat="8.5606217" lon="-71.282695"><ele>1750.0000000000002</ele><time>2026-04-29T20:30:39.084Z</time></trkpt><trkpt lat="8.5606733" lon="-71.2827517"><ele>1750.0</ele><time>2026-04-29T20:30:43.088Z</time></trkpt><trkpt lat="8.5607233" lon="-71.2827983"><ele>1750.0</ele><time>2026-04-29T20:30:47.09Z</time></trkpt><trkpt lat="8.56078" lon="-71.2828417"><ele>1750.0</ele><time>2026-04-29T20:30:51.069Z</time></trkpt><trkpt lat="8.5608117" lon="-71.2829017"><ele>1750.0000000000002</ele><time>2026-04-29T20:30:55.084Z</time></trkpt><trkpt lat="8.560735" lon="-71.2828733"><ele>1750.0</ele><time>2026-04-29T20:33:05.084Z</time></trkpt><trkpt lat="8.56067" lon="-71.28281"><ele>1750.0</ele><time>2026-04-29T20:33:08.136Z</time></trkpt><trkpt lat="8.5606267" lon="-71.2827583"><ele>1750.0</ele><time>2026-04-29T20:33:10.085Z</time></trkpt><trkpt lat="8.5605717" lon="-71.2826967"><ele>1750.0</ele><time>2026-04-29T20:33:12.079Z</time></trkpt><trkpt lat="8.5605167" lon="-71.2826167"><ele>1750.0</ele><time>2026-04-29T20:33:14.115Z</time></trkpt><trkpt lat="8.560465" lon="-71.2825233"><ele>1750.0</ele><time>2026-04-29T20:33:16.09Z</time></trkpt><trkpt lat="8.5604117" lon="-71.2824267"><ele>1744.3333333333335</ele><time>2026-04-29T20:33:18.089Z</time></trkpt><trkpt lat="8.5603633" lon="-71.2823317"><ele>1738.6666666666667</ele><time>2026-04-29T20:33:20.122Z</time></trkpt><trkpt lat="8.5603267" lon="-71.282215"><ele>1733.0</ele><time>2026-04-29T20:33:22.085Z</time></trkpt><trkpt lat="8.5603133" lon="-71.28215"><ele>1727.3333333333335</ele><time>2026-04-29T20:33:23.089Z</time></trkpt><trkpt lat="8.5603067" lon="-71.2820817"><ele>1721.6666666666667</ele><time>2026-04-29T20:33:24.105Z</time></trkpt><trkpt lat="8.560305" lon="-71.2820133"><ele>1716.0</ele><time>2026-04-29T20:33:25.09Z</time></trkpt><trkpt lat="8.5603117" lon="-71.28194"><ele>1714.3333333333333</ele><time>2026-04-29T20:33:26.148Z</time></trkpt><trkpt lat="8.5603233" lon="-71.2818683"><ele>1712.6666666666665</ele><time>2026-04-29T20:33:27.087Z</time></trkpt><trkpt lat="8.560335" lon="-71.28179"><ele>1711.0</ele><time>2026-04-29T20:33:28.081Z</time></trkpt><trkpt lat="8.5603517" lon="-71.28171"><ele>1709.3333333333333</ele><time>2026-04-29T20:33:29.096Z</time></trkpt><trkpt lat="8.560375" lon="-71.2816333"><ele>1707.6666666666665</ele><time>2026-04-29T20:33:30.055Z</time></trkpt><trkpt lat="8.5604" lon="-71.281555"><ele>1706.0</ele><time>2026-04-29T20:33:31.094Z</time></trkpt><trkpt lat="8.5604283" lon="-71.2814767"><ele>1708.1666666666665</ele><time>2026-04-29T20:33:32.118Z</time></trkpt><trkpt lat="8.5604633" lon="-71.2813983"><ele>1710.3333333333333</ele><time>2026-04-29T20:33:33.077Z</time></trkpt><trkpt lat="8.5605067" lon="-71.2813167"><ele>1712.5</ele><time>2026-04-29T20:33:34.087Z</time></trkpt><trkpt lat="8.5605533" lon="-71.2812367"><ele>1714.6666666666665</ele><time>2026-04-29T20:33:35.068Z</time></trkpt><trkpt lat="8.560605" lon="-71.2811617"><ele>1716.8333333333333</ele><time>2026-04-29T20:33:36.094Z</time></trkpt><trkpt lat="8.560655" lon="-71.2810883"><ele>1719.0</ele><time>2026-04-29T20:33:37.085Z</time></trkpt><trkpt lat="8.5607033" lon="-71.2810117"><ele>1719.0</ele><time>2026-04-29T20:33:38.132Z</time></trkpt><trkpt lat="8.5607483" lon="-71.2809333"><ele>1719.0</ele><time>2026-04-29T20:33:39.088Z</time></trkpt><trkpt lat="8.5607933" lon="-71.28086"><ele>1719.0</ele><time>2026-04-29T20:33:40.083Z</time></trkpt><trkpt lat="8.56084" lon="-71.2807883"><ele>1719.0</ele><time>2026-04-29T20:33:41.085Z</time></trkpt><trkpt lat="8.5608867" lon="-71.2807117"><ele>1719.0</ele><time>2026-04-29T20:33:42.086Z</time></trkpt><trkpt lat="8.5609333" lon="-71.28063"><ele>1719.0</ele><time>2026-04-29T20:33:43.053Z</time></trkpt><trkpt lat="8.5609783" lon="-71.2805533"><ele>1720.8333333333333</ele><time>2026-04-29T20:33:44.136Z</time></trkpt><trkpt lat="8.5610217" lon="-71.2804783"><ele>1722.6666666666665</ele><time>2026-04-29T20:33:45.086Z</time></trkpt><trkpt lat="8.5610667" lon="-71.2804033"><ele>1724.5</ele><time>2026-04-29T20:33:46.073Z</time></trkpt><trkpt lat="8.5611133" lon="-71.2803333"><ele>1726.3333333333333</ele><time>2026-04-29T20:33:47.086Z</time></trkpt><trkpt lat="8.5611617" lon="-71.2802617"><ele>1728.1666666666665</ele><time>2026-04-29T20:33:48.096Z</time></trkpt><trkpt lat="8.56121" lon="-71.28019"><ele>1730.0</ele><time>2026-04-29T20:33:49.087Z</time></trkpt><trkpt lat="8.5612567" lon="-71.280115"><ele>1729.9999999999998</ele><time>2026-04-29T20:33:50.121Z</time></trkpt><trkpt lat="8.5613033" lon="-71.2800417"><ele>1730.0</ele><time>2026-04-29T20:33:51.081Z</time></trkpt><trkpt lat="8.5613517" lon="-71.2799683"><ele>1730.0</ele><time>2026-04-29T20:33:52.085Z</time></trkpt><trkpt lat="8.561395" lon="-71.2798967"><ele>1730.0</ele><time>2026-04-29T20:33:53.098Z</time></trkpt><trkpt lat="8.5614367" lon="-71.27982"><ele>1729.9999999999998</ele><time>2026-04-29T20:33:54.094Z</time></trkpt><trkpt lat="8.561475" lon="-71.2797433"><ele>1730.0</ele><time>2026-04-29T20:33:55.088Z</time></trkpt><trkpt lat="8.5615133" lon="-71.2796667"><ele>1726.6666666666665</ele><time>2026-04-29T20:33:56.148Z</time></trkpt><trkpt lat="8.5615517" lon="-71.2795933"><ele>1723.3333333333333</ele><time>2026-04-29T20:33:57.088Z</time></trkpt><trkpt lat="8.5615917" lon="-71.2795167"><ele>1720.0</ele><time>2026-04-29T20:33:58.085Z</time></trkpt><trkpt lat="8.5616317" lon="-71.2794417"><ele>1716.6666666666665</ele><time>2026-04-29T20:33:59.088Z</time></trkpt><trkpt lat="8.56167" lon="-71.27937"><ele>1713.3333333333333</ele><time>2026-04-29T20:34:00.084Z</time></trkpt><trkpt lat="8.5617033" lon="-71.2793083"><ele>1710.0</ele><time>2026-04-29T20:34:01.092Z</time></trkpt><trkpt lat="8.5617367" lon="-71.2792483"><ele>1710.0</ele><time>2026-04-29T20:34:02.141Z</time></trkpt><trkpt lat="8.5617683" lon="-71.2791867"><ele>1710.0</ele><time>2026-04-29T20:34:03.077Z</time></trkpt><trkpt lat="8.5617983" lon="-71.279065"><ele>1710.0</ele><time>2026-04-29T20:34:05.087Z</time></trkpt><trkpt lat="8.5618083" lon="-71.2789983"><ele>1710.0</ele><time>2026-04-29T20:34:06.097Z</time></trkpt><trkpt lat="8.5618117" lon="-71.2789267"><ele>1710.0</ele><time>2026-04-29T20:34:07.09Z</time></trkpt><trkpt lat="8.561805" lon="-71.278855"><ele>1710.0</ele><time>2026-04-29T20:34:08.115Z</time></trkpt><trkpt lat="8.56179" lon="-71.2787883"><ele>1709.857142857143</ele><time>2026-04-29T20:34:09.085Z</time></trkpt><trkpt lat="8.5617683" lon="-71.278725"><ele>1709.7142857142856</ele><time>2026-04-29T20:34:10.081Z</time></trkpt><trkpt lat="8.5617383" lon="-71.278665"><ele>1709.5714285714284</ele><time>2026-04-29T20:34:11.084Z</time></trkpt><trkpt lat="8.5617067" lon="-71.2786033"><ele>1709.4285714285716</ele><time>2026-04-29T20:34:12.084Z</time></trkpt><trkpt lat="8.561675" lon="-71.2785433"><ele>1709.2857142857142</ele><time>2026-04-29T20:34:13.084Z</time></trkpt><trkpt lat="8.5616317" lon="-71.2784817"><ele>1709.142857142857</ele><time>2026-04-29T20:34:14.127Z</time></trkpt><trkpt lat="8.561585" lon="-71.2784183"><ele>1709.0</ele><time>2026-04-29T20:34:15.068Z</time></trkpt><trkpt lat="8.5615383" lon="-71.278355"><ele>1709.0</ele><time>2026-04-29T20:34:16.088Z</time></trkpt><trkpt lat="8.5614917" lon="-71.27829"><ele>1709.0</ele><time>2026-04-29T20:34:17.086Z</time></trkpt><trkpt lat="8.561445" lon="-71.2782283"><ele>1709.0</ele><time>2026-04-29T20:34:18.082Z</time></trkpt><trkpt lat="8.561405" lon="-71.27817"><ele>1709.0</ele><time>2026-04-29T20:34:19.083Z</time></trkpt><trkpt lat="8.56137" lon="-71.2781067"><ele>1709.0</ele><time>2026-04-29T20:34:20.122Z</time></trkpt><trkpt lat="8.5613483" lon="-71.27804"><ele>1709.0</ele><time>2026-04-29T20:34:21.051Z</time></trkpt><trkpt lat="8.561335" lon="-71.2779683"><ele>1709.0</ele><time>2026-04-29T20:34:22.085Z</time></trkpt><trkpt lat="8.5613283" lon="-71.27789"><ele>1708.4999999999998</ele><time>2026-04-29T20:34:23.081Z</time></trkpt><trkpt lat="8.5613333" lon="-71.27781"><ele>1708.0</ele><time>2026-04-29T20:34:24.088Z</time></trkpt><trkpt lat="8.5613467" lon="-71.2777367"><ele>1707.5</ele><time>2026-04-29T20:34:25.074Z</time></trkpt><trkpt lat="8.5613683" lon="-71.277665"><ele>1707.0</ele><time>2026-04-29T20:34:26.13Z</time></trkpt><trkpt lat="8.5613933" lon="-71.2775933"><ele>1706.4999999999998</ele><time>2026-04-29T20:34:27.089Z</time></trkpt><trkpt lat="8.5614233" lon="-71.2775133"><ele>1706.0</ele><time>2026-04-29T20:34:28.087Z</time></trkpt><trkpt lat="8.56146" lon="-71.2774317"><ele>1705.9999999999998</ele><time>2026-04-29T20:34:29.094Z</time></trkpt><trkpt lat="8.5615" lon="-71.2773483"><ele>1706.0</ele><time>2026-04-29T20:34:30.104Z</time></trkpt><trkpt lat="8.5615367" lon="-71.277265"><ele>1706.0</ele><time>2026-04-29T20:34:31.088Z</time></trkpt><trkpt lat="8.5615767" lon="-71.2771817"><ele>1706.0</ele><time>2026-04-29T20:34:32.139Z</time></trkpt><trkpt lat="8.56161" lon="-71.277105"><ele>1705.9999999999998</ele><time>2026-04-29T20:34:33.085Z</time></trkpt><trkpt lat="8.5616433" lon="-71.2770267"><ele>1706.0</ele><time>2026-04-29T20:34:34.085Z</time></trkpt><trkpt lat="8.5616767" lon="-71.2769467"><ele>1703.4999999999998</ele><time>2026-04-29T20:34:35.069Z</time></trkpt><trkpt lat="8.5617033" lon="-71.27687"><ele>1701.0</ele><time>2026-04-29T20:34:36.078Z</time></trkpt><trkpt lat="8.5617267" lon="-71.27679"><ele>1698.5</ele><time>2026-04-29T20:34:37.083Z</time></trkpt><trkpt lat="8.56175" lon="-71.2767083"><ele>1696.0</ele><time>2026-04-29T20:34:38.126Z</time></trkpt><trkpt lat="8.5617733" lon="-71.2766333"><ele>1693.4999999999998</ele><time>2026-04-29T20:34:39.079Z</time></trkpt><trkpt lat="8.5617917" lon="-71.276565"><ele>1691.0</ele><time>2026-04-29T20:34:40.042Z</time></trkpt><trkpt lat="8.5618067" lon="-71.276495"><ele>1689.4</ele><time>2026-04-29T20:34:41.079Z</time></trkpt><trkpt lat="8.5618183" lon="-71.27642"><ele>1687.8</ele><time>2026-04-29T20:34:42.082Z</time></trkpt><trkpt lat="8.5618267" lon="-71.2762833"><ele>1686.2</ele><time>2026-04-29T20:34:44.14Z</time></trkpt><trkpt lat="8.5618317" lon="-71.276205"><ele>1684.6000000000001</ele><time>2026-04-29T20:34:45.064Z</time></trkpt><trkpt lat="8.5618383" lon="-71.27612"><ele>1683.0</ele><time>2026-04-29T20:34:46.099Z</time></trkpt><trkpt lat="8.561845" lon="-71.2760283"><ele>1683.0</ele><time>2026-04-29T20:34:47.073Z</time></trkpt><trkpt lat="8.5618517" lon="-71.275935"><ele>1683.0</ele><time>2026-04-29T20:34:48.09Z</time></trkpt><trkpt lat="8.5618617" lon="-71.2758467"><ele>1683.0</ele><time>2026-04-29T20:34:49.089Z</time></trkpt><trkpt lat="8.5618667" lon="-71.27576"><ele>1683.0</ele><time>2026-04-29T20:34:50.116Z</time></trkpt><trkpt lat="8.561875" lon="-71.2756667"><ele>1683.0</ele><time>2026-04-29T20:34:51.074Z</time></trkpt><trkpt lat="8.561885" lon="-71.2755767"><ele>1683.0</ele><time>2026-04-29T20:34:52.082Z</time></trkpt><trkpt lat="8.5618933" lon="-71.2754867"><ele>1683.8333333333333</ele><time>2026-04-29T20:34:53.084Z</time></trkpt><trkpt lat="8.5618967" lon="-71.2753983"><ele>1684.6666666666665</ele><time>2026-04-29T20:34:54.094Z</time></trkpt><trkpt lat="8.5618967" lon="-71.2753117"><ele>1685.5</ele><time>2026-04-29T20:34:55.078Z</time></trkpt><trkpt lat="8.561885" lon="-71.2752233"><ele>1686.3333333333333</ele><time>2026-04-29T20:34:56.141Z</time></trkpt><trkpt lat="8.5618717" lon="-71.2751367"><ele>1687.1666666666665</ele><time>2026-04-29T20:34:57.079Z</time></trkpt><trkpt lat="8.5618433" lon="-71.2750583"><ele>1688.0</ele><time>2026-04-29T20:34:58.093Z</time></trkpt><trkpt lat="8.5617983" lon="-71.2749817"><ele>1688.0</ele><time>2026-04-29T20:34:59.087Z</time></trkpt><trkpt lat="8.5617517" lon="-71.2749083"><ele>1688.0</ele><time>2026-04-29T20:35:00.088Z</time></trkpt><trkpt lat="8.561695" lon="-71.27484"><ele>1688.0</ele><time>2026-04-29T20:35:01.086Z</time></trkpt><trkpt lat="8.561635" lon="-71.2747767"><ele>1688.0</ele><time>2026-04-29T20:35:02.147Z</time></trkpt><trkpt lat="8.56156" lon="-71.2747183"><ele>1688.0</ele><time>2026-04-29T20:35:03.097Z</time></trkpt><trkpt lat="8.5614783" lon="-71.2746633"><ele>1687.3333333333333</ele><time>2026-04-29T20:35:04.072Z</time></trkpt><trkpt lat="8.5614033" lon="-71.274605"><ele>1686.6666666666665</ele><time>2026-04-29T20:35:05.078Z</time></trkpt><trkpt lat="8.5613283" lon="-71.2745533"><ele>1686.0</ele><time>2026-04-29T20:35:06.087Z</time></trkpt><trkpt lat="8.561255" lon="-71.2745017"><ele>1685.3333333333335</ele><time>2026-04-29T20:35:07.086Z</time></trkpt><trkpt lat="8.5611833" lon="-71.2744517"><ele>1684.6666666666667</ele><time>2026-04-29T20:35:08.112Z</time></trkpt><trkpt lat="8.5611167" lon="-71.2744017"><ele>1684.0</ele><time>2026-04-29T20:35:09.049Z</time></trkpt><trkpt lat="8.5610517" lon="-71.27435"><ele>1684.0000000000002</ele><time>2026-04-29T20:35:10.087Z</time></trkpt><trkpt lat="8.5609867" lon="-71.274295"><ele>1684.0</ele><time>2026-04-29T20:35:11.086Z</time></trkpt><trkpt lat="8.560925" lon="-71.2742383"><ele>1684.0</ele><time>2026-04-29T20:35:12.091Z</time></trkpt><trkpt lat="8.560855" lon="-71.2741817"><ele>1684.0</ele><time>2026-04-29T20:35:13.055Z</time></trkpt><trkpt lat="8.5607833" lon="-71.2741217"><ele>1684.0000000000002</ele><time>2026-04-29T20:35:14.131Z</time></trkpt><trkpt lat="8.5607183" lon="-71.27406"><ele>1684.0</ele><time>2026-04-29T20:35:15.081Z</time></trkpt><trkpt lat="8.5606583" lon="-71.2739967"><ele>1682.3333333333335</ele><time>2026-04-29T20:35:16.081Z</time></trkpt><trkpt lat="8.5606017" lon="-71.2739333"><ele>1680.6666666666667</ele><time>2026-04-29T20:35:17.084Z</time></trkpt><trkpt lat="8.5605367" lon="-71.273875"><ele>1679.0</ele><time>2026-04-29T20:35:18.07Z</time></trkpt><trkpt lat="8.56047" lon="-71.2738167"><ele>1677.3333333333335</ele><time>2026-04-29T20:35:19.087Z</time></trkpt><trkpt lat="8.5604017" lon="-71.27376"><ele>1675.6666666666667</ele><time>2026-04-29T20:35:20.107Z</time></trkpt><trkpt lat="8.5603333" lon="-71.2736983"><ele>1674.0</ele><time>2026-04-29T20:35:21.082Z</time></trkpt><trkpt lat="8.560265" lon="-71.2736317"><ele>1674.0</ele><time>2026-04-29T20:35:22.081Z</time></trkpt><trkpt lat="8.5601933" lon="-71.2735667"><ele>1674.0</ele><time>2026-04-29T20:35:23.083Z</time></trkpt><trkpt lat="8.5601233" lon="-71.2734967"><ele>1674.0</ele><time>2026-04-29T20:35:24.094Z</time></trkpt><trkpt lat="8.5600533" lon="-71.2734283"><ele>1674.0</ele><time>2026-04-29T20:35:25.093Z</time></trkpt><trkpt lat="8.5599817" lon="-71.273365"><ele>1674.0</ele><time>2026-04-29T20:35:26.156Z</time></trkpt><trkpt lat="8.5599117" lon="-71.2732983"><ele>1674.0</ele><time>2026-04-29T20:35:27.084Z</time></trkpt><trkpt lat="8.559845" lon="-71.2732317"><ele>1674.0</ele><time>2026-04-29T20:35:28.077Z</time></trkpt><trkpt lat="8.5597767" lon="-71.2731683"><ele>1674.0</ele><time>2026-04-29T20:35:29.086Z</time></trkpt><trkpt lat="8.5597083" lon="-71.27311"><ele>1674.0</ele><time>2026-04-29T20:35:30.091Z</time></trkpt><trkpt lat="8.5596433" lon="-71.2730483"><ele>1674.0</ele><time>2026-04-29T20:35:31.084Z</time></trkpt><trkpt lat="8.55958" lon="-71.272985"><ele>1672.2</ele><time>2026-04-29T20:35:32.128Z</time></trkpt><trkpt lat="8.559515" lon="-71.2729233"><ele>1670.4</ele><time>2026-04-29T20:35:33.087Z</time></trkpt><trkpt lat="8.55945" lon="-71.2728617"><ele>1668.6</ele><time>2026-04-29T20:35:34.08Z</time></trkpt><trkpt lat="8.5593833" lon="-71.2727967"><ele>1666.8</ele><time>2026-04-29T20:35:35.089Z</time></trkpt><trkpt lat="8.5593183" lon="-71.27273"><ele>1665.0</ele><time>2026-04-29T20:35:36.088Z</time></trkpt><trkpt lat="8.5592567" lon="-71.2726617"><ele>1665.0</ele><time>2026-04-29T20:35:37.092Z</time></trkpt><trkpt lat="8.5591967" lon="-71.2725917"><ele>1665.0</ele><time>2026-04-29T20:35:38.137Z</time></trkpt><trkpt lat="8.5591417" lon="-71.2725133"><ele>1665.0</ele><time>2026-04-29T20:35:39.083Z</time></trkpt><trkpt lat="8.5590917" lon="-71.2724317"><ele>1665.0</ele><time>2026-04-29T20:35:40.076Z</time></trkpt><trkpt lat="8.5590483" lon="-71.2723467"><ele>1665.0</ele><time>2026-04-29T20:35:41.087Z</time></trkpt><trkpt lat="8.55901" lon="-71.2722567"><ele>1665.0</ele><time>2026-04-29T20:35:42.088Z</time></trkpt><trkpt lat="8.5589817" lon="-71.2721633"><ele>1665.0</ele><time>2026-04-29T20:35:43.083Z</time></trkpt><trkpt lat="8.5589583" lon="-71.2720683"><ele>1665.0</ele><time>2026-04-29T20:35:44.121Z</time></trkpt><trkpt lat="8.55894" lon="-71.2719767"><ele>1665.0</ele><time>2026-04-29T20:35:45.088Z</time></trkpt><trkpt lat="8.5589217" lon="-71.271885"><ele>1665.0</ele><time>2026-04-29T20:35:46.083Z</time></trkpt><trkpt lat="8.5589067" lon="-71.2717967"><ele>1665.0</ele><time>2026-04-29T20:35:47.081Z</time></trkpt><trkpt lat="8.5588917" lon="-71.27171"><ele>1665.0</ele><time>2026-04-29T20:35:48.081Z</time></trkpt><trkpt lat="8.5588817" lon="-71.2716217"><ele>1665.0</ele><time>2026-04-29T20:35:49.083Z</time></trkpt><trkpt lat="8.5588733" lon="-71.2715383"><ele>1665.0</ele><time>2026-04-29T20:35:50.125Z</time></trkpt><trkpt lat="8.5588583" lon="-71.27146"><ele>1665.0</ele><time>2026-04-29T20:35:51.088Z</time></trkpt><trkpt lat="8.55884" lon="-71.2713883"><ele>1665.0</ele><time>2026-04-29T20:35:52.081Z</time></trkpt><trkpt lat="8.5588233" lon="-71.2713183"><ele>1665.8</ele><time>2026-04-29T20:35:53.078Z</time></trkpt><trkpt lat="8.5588083" lon="-71.2712517"><ele>1666.6</ele><time>2026-04-29T20:35:54.082Z</time></trkpt><trkpt lat="8.55878" lon="-71.2711367"><ele>1667.4</ele><time>2026-04-29T20:35:56.118Z</time></trkpt><trkpt lat="8.5587583" lon="-71.2710333"><ele>1668.2</ele><time>2026-04-29T20:35:58.086Z</time></trkpt><trkpt lat="8.5587367" lon="-71.2709617"><ele>1669.0</ele><time>2026-04-29T20:36:00.091Z</time></trkpt><trkpt lat="8.5587217" lon="-71.27087"><ele>1668.9999999999998</ele><time>2026-04-29T20:36:03.079Z</time></trkpt><trkpt lat="8.5587067" lon="-71.2707867"><ele>1669.0</ele><time>2026-04-29T20:36:06.082Z</time></trkpt><trkpt lat="8.558695" lon="-71.2707233"><ele>1669.0</ele><time>2026-04-29T20:36:09.091Z</time></trkpt><trkpt lat="8.5586883" lon="-71.2706517"><ele>1669.0</ele><time>2026-04-29T20:36:12.084Z</time></trkpt><trkpt lat="8.5586683" lon="-71.2705817"><ele>1669.0</ele><time>2026-04-29T20:36:15.084Z</time></trkpt><trkpt lat="8.5586467" lon="-71.2705033"><ele>1668.9999999999998</ele><time>2026-04-29T20:36:19.044Z</time></trkpt><trkpt lat="8.558625" lon="-71.2704367"><ele>1669.0</ele><time>2026-04-29T20:36:22.082Z</time></trkpt><trkpt lat="8.5586" lon="-71.270365"><ele>1666.8333333333335</ele><time>2026-04-29T20:36:25.087Z</time></trkpt><trkpt lat="8.5585783" lon="-71.2702917"><ele>1664.6666666666667</ele><time>2026-04-29T20:36:28.083Z</time></trkpt><trkpt lat="8.5585717" lon="-71.2702017"><ele>1662.5</ele><time>2026-04-29T20:36:31.085Z</time></trkpt><trkpt lat="8.5585683" lon="-71.2701183"><ele>1660.3333333333335</ele><time>2026-04-29T20:36:34.077Z</time></trkpt><trkpt lat="8.5585517" lon="-71.270045"><ele>1658.1666666666667</ele><time>2026-04-29T20:36:37.087Z</time></trkpt><trkpt lat="8.5585383" lon="-71.26998"><ele>1656.0</ele><time>2026-04-29T20:36:40.084Z</time></trkpt><trkpt lat="8.5585283" lon="-71.2699133"><ele>1656.0000000000002</ele><time>2026-04-29T20:36:43.092Z</time></trkpt><trkpt lat="8.5585183" lon="-71.26985"><ele>1656.0</ele><time>2026-04-29T20:36:46.085Z</time></trkpt><trkpt lat="8.558505" lon="-71.269785"><ele>1656.0</ele><time>2026-04-29T20:36:49.086Z</time></trkpt><trkpt lat="8.5584983" lon="-71.2697217"><ele>1656.0</ele><time>2026-04-29T20:36:52.088Z</time></trkpt><trkpt lat="8.5584767" lon="-71.2696383"><ele>1656.0</ele><time>2026-04-29T20:36:56.14Z</time></trkpt><trkpt lat="8.5584683" lon="-71.2695533"><ele>1656.0000000000002</ele><time>2026-04-29T20:37:00.109Z</time></trkpt><trkpt lat="8.55846" lon="-71.2694883"><ele>1656.0</ele><time>2026-04-29T20:37:03.092Z</time></trkpt><trkpt lat="8.55845" lon="-71.2694117"><ele>1658.0000000000002</ele><time>2026-04-29T20:37:07.07Z</time></trkpt><trkpt lat="8.558425" lon="-71.269345"><ele>1660.0</ele><time>2026-04-29T20:37:12.077Z</time></trkpt><trkpt lat="8.558415" lon="-71.2692767"><ele>1662.0</ele><time>2026-04-29T20:37:16.076Z</time></trkpt><trkpt lat="8.558405" lon="-71.269205"><ele>1664.0</ele><time>2026-04-29T20:37:20.131Z</time></trkpt><trkpt lat="8.5583967" lon="-71.26914"><ele>1666.0</ele><time>2026-04-29T20:37:24.075Z</time></trkpt><trkpt lat="8.5583783" lon="-71.269075"><ele>1668.0000000000002</ele><time>2026-04-29T20:37:28.084Z</time></trkpt><trkpt lat="8.558365" lon="-71.269005"><ele>1670.0</ele><time>2026-04-29T20:37:32.129Z</time></trkpt><trkpt lat="8.5583533" lon="-71.2689283"><ele>1670.5714285714287</ele><time>2026-04-29T20:37:37.084Z</time></trkpt><trkpt lat="8.5583417" lon="-71.268865"><ele>1671.142857142857</ele><time>2026-04-29T20:37:41.056Z</time></trkpt><trkpt lat="8.5583233" lon="-71.2688017"><ele>1671.7142857142858</ele><time>2026-04-29T20:37:45.054Z</time></trkpt><trkpt lat="8.5583233" lon="-71.26873"><ele>1672.2857142857142</ele><time>2026-04-29T20:37:49.087Z</time></trkpt><trkpt lat="8.5583417" lon="-71.2686517"><ele>1672.857142857143</ele><time>2026-04-29T20:37:55.089Z</time></trkpt><trkpt lat="8.55835" lon="-71.268575"><ele>1673.4285714285716</ele><time>2026-04-29T20:37:59.08Z</time></trkpt><trkpt lat="8.5583717" lon="-71.268515"><ele>1674.0</ele><time>2026-04-29T20:38:02.129Z</time></trkpt><trkpt lat="8.5584067" lon="-71.2684517"><ele>1674.0</ele><time>2026-04-29T20:38:05.086Z</time></trkpt><trkpt lat="8.5584633" lon="-71.2683767"><ele>1674.0</ele><time>2026-04-29T20:38:08.121Z</time></trkpt><trkpt lat="8.5585267" lon="-71.268315"><ele>1674.0</ele><time>2026-04-29T20:38:11.081Z</time></trkpt><trkpt lat="8.558595" lon="-71.2682617"><ele>1674.0</ele><time>2026-04-29T20:38:14.121Z</time></trkpt><trkpt lat="8.5586717" lon="-71.26822"><ele>1674.0</ele><time>2026-04-29T20:38:17.084Z</time></trkpt><trkpt lat="8.5587517" lon="-71.2681767"><ele>1674.0</ele><time>2026-04-29T20:38:20.133Z</time></trkpt><trkpt lat="8.5588383" lon="-71.2681467"><ele>1675.3333333333333</ele><time>2026-04-29T20:38:23.054Z</time></trkpt><trkpt lat="8.55893" lon="-71.2681433"><ele>1676.6666666666665</ele><time>2026-04-29T20:38:26.107Z</time></trkpt><trkpt lat="8.5590183" lon="-71.2681417"><ele>1678.0</ele><time>2026-04-29T20:38:29.079Z</time></trkpt><trkpt lat="8.5591067" lon="-71.268155"><ele>1679.3333333333333</ele><time>2026-04-29T20:38:32.148Z</time></trkpt><trkpt lat="8.5591917" lon="-71.26817"><ele>1680.6666666666665</ele><time>2026-04-29T20:38:35.089Z</time></trkpt><trkpt lat="8.559275" lon="-71.2681867"><ele>1682.0</ele><time>2026-04-29T20:38:38.126Z</time></trkpt><trkpt lat="8.5593567" lon="-71.268215"><ele>1681.9999999999998</ele><time>2026-04-29T20:38:41.083Z</time></trkpt><trkpt lat="8.5594383" lon="-71.2682417"><ele>1682.0</ele><time>2026-04-29T20:38:44.122Z</time></trkpt><trkpt lat="8.559525" lon="-71.2682567"><ele>1682.0</ele><time>2026-04-29T20:38:47.055Z</time></trkpt><trkpt lat="8.5596083" lon="-71.268285"><ele>1682.0</ele><time>2026-04-29T20:38:50.12Z</time></trkpt><trkpt lat="8.5596917" lon="-71.268315"><ele>1681.9999999999998</ele><time>2026-04-29T20:38:53.087Z</time></trkpt><trkpt lat="8.55978" lon="-71.268335"><ele>1682.0</ele><time>2026-04-29T20:38:56.135Z</time></trkpt><trkpt lat="8.5598583" lon="-71.2683583"><ele>1681.6666666666665</ele><time>2026-04-29T20:38:59.081Z</time></trkpt><trkpt lat="8.5599317" lon="-71.2683783"><ele>1681.3333333333333</ele><time>2026-04-29T20:39:02.125Z</time></trkpt><trkpt lat="8.560015" lon="-71.2683983"><ele>1681.0</ele><time>2026-04-29T20:39:05.08Z</time></trkpt><trkpt lat="8.5600983" lon="-71.2684167"><ele>1680.6666666666665</ele><time>2026-04-29T20:39:08.124Z</time></trkpt><trkpt lat="8.5601833" lon="-71.268435"><ele>1680.3333333333333</ele><time>2026-04-29T20:39:11.08Z</time></trkpt><trkpt lat="8.5602567" lon="-71.2684617"><ele>1680.0</ele><time>2026-04-29T20:39:14.122Z</time></trkpt><trkpt lat="8.5603333" lon="-71.26848"><ele>1681.0</ele><time>2026-04-29T20:39:17.081Z</time></trkpt><trkpt lat="8.5604117" lon="-71.2684983"><ele>1682.0</ele><time>2026-04-29T20:39:20.122Z</time></trkpt><trkpt lat="8.5604967" lon="-71.2685017"><ele>1683.0</ele><time>2026-04-29T20:39:23.044Z</time></trkpt><trkpt lat="8.5605833" lon="-71.2685033"><ele>1684.0</ele><time>2026-04-29T20:39:26.147Z</time></trkpt><trkpt lat="8.5606717" lon="-71.2684717"><ele>1685.0</ele><time>2026-04-29T20:39:29.078Z</time></trkpt><trkpt lat="8.5607533" lon="-71.268435"><ele>1686.0</ele><time>2026-04-29T20:39:32.137Z</time></trkpt><trkpt lat="8.56083" lon="-71.2684"><ele>1686.0</ele><time>2026-04-29T20:39:35.075Z</time></trkpt><trkpt lat="8.560905" lon="-71.26836"><ele>1686.0</ele><time>2026-04-29T20:39:38.118Z</time></trkpt><trkpt lat="8.560955" lon="-71.268315"><ele>1686.0</ele><time>2026-04-29T20:39:40.088Z</time></trkpt><trkpt lat="8.5610167" lon="-71.2682533"><ele>1686.0</ele><time>2026-04-29T20:39:43.083Z</time></trkpt><trkpt lat="8.5610667" lon="-71.26819"><ele>1686.0</ele><time>2026-04-29T20:39:46.075Z</time></trkpt><trkpt lat="8.5611083" lon="-71.2681217"><ele>1686.0</ele><time>2026-04-29T20:39:49.089Z</time></trkpt><trkpt lat="8.5611383" lon="-71.2680433"><ele>1684.2857142857142</ele><time>2026-04-29T20:39:52.083Z</time></trkpt><trkpt lat="8.5611583" lon="-71.2679717"><ele>1682.5714285714284</ele><time>2026-04-29T20:39:55.085Z</time></trkpt><trkpt lat="8.5611567" lon="-71.2678783"><ele>1680.857142857143</ele><time>2026-04-29T20:39:58.091Z</time></trkpt><trkpt lat="8.561165" lon="-71.267815"><ele>1679.142857142857</ele><time>2026-04-29T20:40:00.083Z</time></trkpt><trkpt lat="8.5611733" lon="-71.26775"><ele>1677.4285714285716</ele><time>2026-04-29T20:40:02.139Z</time></trkpt><trkpt lat="8.5611883" lon="-71.2676667"><ele>1675.7142857142858</ele><time>2026-04-29T20:40:05.082Z</time></trkpt><trkpt lat="8.561205" lon="-71.2676033"><ele>1674.0</ele><time>2026-04-29T20:40:08.127Z</time></trkpt><trkpt lat="8.5612317" lon="-71.2675433"><ele>1676.1666666666667</ele><time>2026-04-29T20:40:11.076Z</time></trkpt><trkpt lat="8.561265" lon="-71.2674883"><ele>1678.3333333333335</ele><time>2026-04-29T20:40:14.134Z</time></trkpt><trkpt lat="8.5612967" lon="-71.26741"><ele>1680.5</ele><time>2026-04-29T20:40:18.092Z</time></trkpt><trkpt lat="8.5613367" lon="-71.2673367"><ele>1682.6666666666667</ele><time>2026-04-29T20:40:22.069Z</time></trkpt><trkpt lat="8.5613783" lon="-71.26727"><ele>1684.8333333333335</ele><time>2026-04-29T20:40:26.152Z</time></trkpt><trkpt lat="8.56141" lon="-71.2672067"><ele>1687.0</ele><time>2026-04-29T20:40:30.09Z</time></trkpt><trkpt lat="8.5614467" lon="-71.26713"><ele>1687.0</ele><time>2026-04-29T20:40:34.091Z</time></trkpt><trkpt lat="8.5614917" lon="-71.2670633"><ele>1687.0</ele><time>2026-04-29T20:40:38.13Z</time></trkpt><trkpt lat="8.5615317" lon="-71.2670133"><ele>1687.0</ele><time>2026-04-29T20:40:41.087Z</time></trkpt><trkpt lat="8.5615767" lon="-71.2669667"><ele>1687.0</ele><time>2026-04-29T20:40:44.124Z</time></trkpt><trkpt lat="8.5616333" lon="-71.266915"><ele>1687.0</ele><time>2026-04-29T20:40:48.087Z</time></trkpt><trkpt lat="8.5617017" lon="-71.2668817"><ele>1687.0</ele><time>2026-04-29T20:40:52.083Z</time></trkpt><trkpt lat="8.5617633" lon="-71.2668533"><ele>1687.0</ele><time>2026-04-29T20:40:55.089Z</time></trkpt><trkpt lat="8.56183" lon="-71.2668333"><ele>1687.0</ele><time>2026-04-29T20:40:58.072Z</time></trkpt><trkpt lat="8.5618917" lon="-71.26682"><ele>1687.0</ele><time>2026-04-29T20:41:01.091Z</time></trkpt><trkpt lat="8.5619733" lon="-71.266825"><ele>1687.0</ele><time>2026-04-29T20:41:05.088Z</time></trkpt><trkpt lat="8.5620517" lon="-71.26684"><ele>1687.0</ele><time>2026-04-29T20:41:09.093Z</time></trkpt><trkpt lat="8.5621183" lon="-71.2668467"><ele>1687.0</ele><time>2026-04-29T20:41:12.081Z</time></trkpt><trkpt lat="8.5621833" lon="-71.266875"><ele>1687.0</ele><time>2026-04-29T20:41:15.085Z</time></trkpt><trkpt lat="8.56224" lon="-71.26692"><ele>1687.0</ele><time>2026-04-29T20:41:18.087Z</time></trkpt><trkpt lat="8.562295" lon="-71.26696"><ele>1685.6666666666667</ele><time>2026-04-29T20:41:21.093Z</time></trkpt><trkpt lat="8.56235" lon="-71.267005"><ele>1684.3333333333335</ele><time>2026-04-29T20:41:24.076Z</time></trkpt><trkpt lat="8.5624033" lon="-71.2670683"><ele>1683.0</ele><time>2026-04-29T20:41:27.082Z</time></trkpt><trkpt lat="8.5624533" lon="-71.26713"><ele>1681.6666666666665</ele><time>2026-04-29T20:41:30.086Z</time></trkpt><trkpt lat="8.56251" lon="-71.267165"><ele>1680.3333333333333</ele><time>2026-04-29T20:41:33.085Z</time></trkpt><trkpt lat="8.5625817" lon="-71.2672067"><ele>1679.0</ele><time>2026-04-29T20:41:37.096Z</time></trkpt><trkpt lat="8.5626367" lon="-71.2672483"><ele>1681.4999999999998</ele><time>2026-04-29T20:41:40.091Z</time></trkpt><trkpt lat="8.5627033" lon="-71.26729"><ele>1684.0</ele><time>2026-04-29T20:41:43.088Z</time></trkpt><trkpt lat="8.562765" lon="-71.2673283"><ele>1686.5</ele><time>2026-04-29T20:41:46.087Z</time></trkpt><trkpt lat="8.562835" lon="-71.2673667"><ele>1689.0</ele><time>2026-04-29T20:41:49.082Z</time></trkpt><trkpt lat="8.5629017" lon="-71.26741"><ele>1691.4999999999998</ele><time>2026-04-29T20:41:52.09Z</time></trkpt><trkpt lat="8.562965" lon="-71.2674617"><ele>1694.0</ele><time>2026-04-29T20:41:55.087Z</time></trkpt><trkpt lat="8.5630283" lon="-71.267515"><ele>1693.9999999999998</ele><time>2026-04-29T20:41:58.053Z</time></trkpt><trkpt lat="8.5630767" lon="-71.26757"><ele>1694.0</ele><time>2026-04-29T20:42:01.104Z</time></trkpt><trkpt lat="8.563125" lon="-71.2676167"><ele>1694.0</ele><time>2026-04-29T20:42:04.083Z</time></trkpt><trkpt lat="8.56318" lon="-71.26766"><ele>1694.0</ele><time>2026-04-29T20:42:07.091Z</time></trkpt><trkpt lat="8.563245" lon="-71.2677067"><ele>1693.9999999999998</ele><time>2026-04-29T20:42:10.083Z</time></trkpt><trkpt lat="8.5633133" lon="-71.2677483"><ele>1694.0</ele><time>2026-04-29T20:42:13.081Z</time></trkpt><trkpt lat="8.5633867" lon="-71.2677917"><ele>1693.9999999999998</ele><time>2026-04-29T20:42:16.081Z</time></trkpt><trkpt lat="8.5634717" lon="-71.26783"><ele>1694.0</ele><time>2026-04-29T20:42:19.081Z</time></trkpt><trkpt lat="8.5635367" lon="-71.2678567"><ele>1694.0</ele><time>2026-04-29T20:42:21.107Z</time></trkpt><trkpt lat="8.5636017" lon="-71.2678867"><ele>1694.0</ele><time>2026-04-29T20:42:23.088Z</time></trkpt><trkpt lat="8.5636767" lon="-71.2679133"><ele>1693.9999999999998</ele><time>2026-04-29T20:42:25.065Z</time></trkpt><trkpt lat="8.5637533" lon="-71.267945"><ele>1694.0</ele><time>2026-04-29T20:42:27.094Z</time></trkpt><trkpt lat="8.5638433" lon="-71.2679767"><ele>1689.4</ele><time>2026-04-29T20:42:29.077Z</time></trkpt><trkpt lat="8.5639383" lon="-71.2680067"><ele>1684.8000000000002</ele><time>2026-04-29T20:42:31.085Z</time></trkpt><trkpt lat="8.5640367" lon="-71.268035"><ele>1680.1999999999998</ele><time>2026-04-29T20:42:33.082Z</time></trkpt><trkpt lat="8.5641333" lon="-71.26806"><ele>1675.6</ele><time>2026-04-29T20:42:35.096Z</time></trkpt><trkpt lat="8.5642267" lon="-71.2680783"><ele>1671.0</ele><time>2026-04-29T20:42:37.091Z</time></trkpt><trkpt lat="8.5643017" lon="-71.2680967"><ele>1671.0</ele><time>2026-04-29T20:42:39.083Z</time></trkpt><trkpt lat="8.5643883" lon="-71.268105"><ele>1671.0</ele><time>2026-04-29T20:42:41.082Z</time></trkpt><trkpt lat="8.5644717" lon="-71.2681033"><ele>1671.0</ele><time>2026-04-29T20:42:43.084Z</time></trkpt><trkpt lat="8.5645583" lon="-71.26809"><ele>1671.0</ele><time>2026-04-29T20:42:45.082Z</time></trkpt><trkpt lat="8.56465" lon="-71.2680617"><ele>1671.0</ele><time>2026-04-29T20:42:47.095Z</time></trkpt><trkpt lat="8.5647383" lon="-71.2680333"><ele>1671.0</ele><time>2026-04-29T20:42:49.08Z</time></trkpt><trkpt lat="8.5648133" lon="-71.2680017"><ele>1671.1666666666667</ele><time>2026-04-29T20:42:51.115Z</time></trkpt><trkpt lat="8.5648867" lon="-71.2679783"><ele>1671.3333333333335</ele><time>2026-04-29T20:42:53.051Z</time></trkpt><trkpt lat="8.564965" lon="-71.26796"><ele>1671.5</ele><time>2026-04-29T20:42:55.089Z</time></trkpt><trkpt lat="8.5650417" lon="-71.2679417"><ele>1671.6666666666667</ele><time>2026-04-29T20:42:57.085Z</time></trkpt><trkpt lat="8.56512" lon="-71.2679067"><ele>1671.8333333333335</ele><time>2026-04-29T20:42:59.079Z</time></trkpt><trkpt lat="8.5652" lon="-71.2678733"><ele>1672.0</ele><time>2026-04-29T20:43:01.088Z</time></trkpt><trkpt lat="8.5652783" lon="-71.2678533"><ele>1672.0000000000002</ele><time>2026-04-29T20:43:03.094Z</time></trkpt><trkpt lat="8.5653583" lon="-71.2678433"><ele>1672.0</ele><time>2026-04-29T20:43:05.078Z</time></trkpt><trkpt lat="8.5654317" lon="-71.2678383"><ele>1672.0</ele><time>2026-04-29T20:43:07.07Z</time></trkpt><trkpt lat="8.56551" lon="-71.2678383"><ele>1672.0</ele><time>2026-04-29T20:43:09.081Z</time></trkpt><trkpt lat="8.565585" lon="-71.2678483"><ele>1672.0000000000002</ele><time>2026-04-29T20:43:11.102Z</time></trkpt><trkpt lat="8.5656617" lon="-71.2678667"><ele>1672.0</ele><time>2026-04-29T20:43:13.069Z</time></trkpt><trkpt lat="8.565735" lon="-71.26789"><ele>1671.857142857143</ele><time>2026-04-29T20:43:15.086Z</time></trkpt><trkpt lat="8.5658017" lon="-71.2679133"><ele>1671.7142857142858</ele><time>2026-04-29T20:43:17.074Z</time></trkpt><trkpt lat="8.5658633" lon="-71.2679417"><ele>1671.5714285714284</ele><time>2026-04-29T20:43:19.088Z</time></trkpt><trkpt lat="8.5659317" lon="-71.2679783"><ele>1671.4285714285716</ele><time>2026-04-29T20:43:21.082Z</time></trkpt><trkpt lat="8.56599" lon="-71.26802"><ele>1671.2857142857144</ele><time>2026-04-29T20:43:23.088Z</time></trkpt><trkpt lat="8.5660467" lon="-71.2680633"><ele>1671.142857142857</ele><time>2026-04-29T20:43:25.075Z</time></trkpt><trkpt lat="8.566105" lon="-71.2681083"><ele>1671.0</ele><time>2026-04-29T20:43:27.085Z</time></trkpt><trkpt lat="8.5661617" lon="-71.2681467"><ele>1674.5</ele><time>2026-04-29T20:43:29.087Z</time></trkpt><trkpt lat="8.5662267" lon="-71.2681817"><ele>1678.0</ele><time>2026-04-29T20:43:31.093Z</time></trkpt><trkpt lat="8.5662867" lon="-71.268225"><ele>1681.5</ele><time>2026-04-29T20:43:33.081Z</time></trkpt><trkpt lat="8.5663467" lon="-71.2682683"><ele>1685.0</ele><time>2026-04-29T20:43:35.086Z</time></trkpt><trkpt lat="8.5664167" lon="-71.26831"><ele>1688.5</ele><time>2026-04-29T20:43:37.085Z</time></trkpt><trkpt lat="8.5664783" lon="-71.2683567"><ele>1692.0</ele><time>2026-04-29T20:43:39.084Z</time></trkpt><trkpt lat="8.566545" lon="-71.2683933"><ele>1692.0</ele><time>2026-04-29T20:43:41.085Z</time></trkpt><trkpt lat="8.5666167" lon="-71.2684283"><ele>1692.0</ele><time>2026-04-29T20:43:43.081Z</time></trkpt><trkpt lat="8.5666867" lon="-71.2684583"><ele>1692.0</ele><time>2026-04-29T20:43:45.087Z</time></trkpt><trkpt lat="8.566765" lon="-71.2684767"><ele>1692.0</ele><time>2026-04-29T20:43:47.082Z</time></trkpt><trkpt lat="8.5668417" lon="-71.2684933"><ele>1692.0</ele><time>2026-04-29T20:43:49.084Z</time></trkpt><trkpt lat="8.5669267" lon="-71.2685067"><ele>1692.0</ele><time>2026-04-29T20:43:51.043Z</time></trkpt><trkpt lat="8.5670083" lon="-71.268515"><ele>1692.1666666666667</ele><time>2026-04-29T20:43:53.099Z</time></trkpt><trkpt lat="8.5670983" lon="-71.2685083"><ele>1692.3333333333335</ele><time>2026-04-29T20:43:55.087Z</time></trkpt><trkpt lat="8.5671883" lon="-71.2684933"><ele>1692.5</ele><time>2026-04-29T20:43:57.057Z</time></trkpt><trkpt lat="8.5672767" lon="-71.2684733"><ele>1692.6666666666667</ele><time>2026-04-29T20:43:59.078Z</time></trkpt><trkpt lat="8.567365" lon="-71.2684433"><ele>1692.8333333333335</ele><time>2026-04-29T20:44:01.078Z</time></trkpt><trkpt lat="8.567445" lon="-71.2684167"><ele>1693.0</ele><time>2026-04-29T20:44:03.093Z</time></trkpt><trkpt lat="8.56753" lon="-71.2683867"><ele>1693.0000000000002</ele><time>2026-04-29T20:44:05.095Z</time></trkpt><trkpt lat="8.56761" lon="-71.2683567"><ele>1693.0</ele><time>2026-04-29T20:44:07.087Z</time></trkpt><trkpt lat="8.5676817" lon="-71.268325"><ele>1693.0</ele><time>2026-04-29T20:44:09.094Z</time></trkpt><trkpt lat="8.5677417" lon="-71.2682883"><ele>1693.0</ele><time>2026-04-29T20:44:11.082Z</time></trkpt><trkpt lat="8.56782" lon="-71.2682533"><ele>1693.0000000000002</ele><time>2026-04-29T20:44:14.137Z</time></trkpt><trkpt lat="8.5679083" lon="-71.2682217"><ele>1693.0</ele><time>2026-04-29T20:44:17.078Z</time></trkpt><trkpt lat="8.5679933" lon="-71.2681967"><ele>1694.8333333333335</ele><time>2026-04-29T20:44:20.144Z</time></trkpt><trkpt lat="8.5680733" lon="-71.2681683"><ele>1696.6666666666667</ele><time>2026-04-29T20:44:23.09Z</time></trkpt><trkpt lat="8.56816" lon="-71.268145"><ele>1698.5</ele><time>2026-04-29T20:44:26.132Z</time></trkpt><trkpt lat="8.568245" lon="-71.2681117"><ele>1700.3333333333335</ele><time>2026-04-29T20:44:29.081Z</time></trkpt><trkpt lat="8.5683267" lon="-71.2680917"><ele>1702.1666666666667</ele><time>2026-04-29T20:44:32.137Z</time></trkpt><trkpt lat="8.5684083" lon="-71.2680533"><ele>1704.0</ele><time>2026-04-29T20:44:35.076Z</time></trkpt><trkpt lat="8.5684817" lon="-71.2680167"><ele>1703.1666666666667</ele><time>2026-04-29T20:44:38.159Z</time></trkpt><trkpt lat="8.56856" lon="-71.2679817"><ele>1702.3333333333335</ele><time>2026-04-29T20:44:41.088Z</time></trkpt><trkpt lat="8.5686367" lon="-71.267945"><ele>1701.5</ele><time>2026-04-29T20:44:44.141Z</time></trkpt><trkpt lat="8.5687167" lon="-71.2679033"><ele>1700.6666666666667</ele><time>2026-04-29T20:44:47.074Z</time></trkpt><trkpt lat="8.5687867" lon="-71.267855"><ele>1699.8333333333335</ele><time>2026-04-29T20:44:50.136Z</time></trkpt><trkpt lat="8.5688467" lon="-71.267805"><ele>1699.0</ele><time>2026-04-29T20:44:53.09Z</time></trkpt><trkpt lat="8.568905" lon="-71.2677567"><ele>1699.0000000000002</ele><time>2026-04-29T20:44:56.165Z</time></trkpt><trkpt lat="8.56896" lon="-71.26769"><ele>1699.0</ele><time>2026-04-29T20:44:59.091Z</time></trkpt><trkpt lat="8.5690083" lon="-71.2676367"><ele>1699.0</ele><time>2026-04-29T20:45:02.135Z</time></trkpt><trkpt lat="8.56906" lon="-71.2675717"><ele>1699.0</ele><time>2026-04-29T20:45:05.083Z</time></trkpt><trkpt lat="8.5691117" lon="-71.26752"><ele>1699.0000000000002</ele><time>2026-04-29T20:45:08.12Z</time></trkpt><trkpt lat="8.569165" lon="-71.2674583"><ele>1699.0</ele><time>2026-04-29T20:45:11.089Z</time></trkpt><trkpt lat="8.5692167" lon="-71.267395"><ele>1699.0000000000002</ele><time>2026-04-29T20:45:14.125Z</time></trkpt><trkpt lat="8.5692683" lon="-71.2673333"><ele>1699.0</ele><time>2026-04-29T20:45:17.1Z</time></trkpt><trkpt lat="8.5693083" lon="-71.2672783"><ele>1699.0</ele><time>2026-04-29T20:45:20.137Z</time></trkpt><trkpt lat="8.5693517" lon="-71.267225"><ele>1699.0</ele><time>2026-04-29T20:45:23.083Z</time></trkpt><trkpt lat="8.5694" lon="-71.2671583"><ele>1699.0000000000002</ele><time>2026-04-29T20:45:26.145Z</time></trkpt><trkpt lat="8.5694483" lon="-71.2670983"><ele>1699.0</ele><time>2026-04-29T20:45:29.08Z</time></trkpt><trkpt lat="8.5694917" lon="-71.2670317"><ele>1703.5000000000002</ele><time>2026-04-29T20:45:32.151Z</time></trkpt><trkpt lat="8.56954" lon="-71.2669767"><ele>1708.0</ele><time>2026-04-29T20:45:35.089Z</time></trkpt><trkpt lat="8.5695917" lon="-71.2669233"><ele>1712.5</ele><time>2026-04-29T20:45:38.132Z</time></trkpt><trkpt lat="8.56964" lon="-71.2668517"><ele>1717.0</ele><time>2026-04-29T20:45:41.095Z</time></trkpt><trkpt lat="8.5696767" lon="-71.2667783"><ele>1721.5000000000002</ele><time>2026-04-29T20:45:44.126Z</time></trkpt><trkpt lat="8.56971" lon="-71.2666967"><ele>1726.0</ele><time>2026-04-29T20:45:47.088Z</time></trkpt><trkpt lat="8.56974" lon="-71.266625"><ele>1726.0000000000002</ele><time>2026-04-29T20:45:50.131Z</time></trkpt><trkpt lat="8.56976" lon="-71.2665467"><ele>1726.0</ele><time>2026-04-29T20:45:53.047Z</time></trkpt><trkpt lat="8.5697817" lon="-71.2664683"><ele>1726.0</ele><time>2026-04-29T20:45:56.139Z</time></trkpt><trkpt lat="8.5697917" lon="-71.266405"><ele>1726.0</ele><time>2026-04-29T20:45:58.083Z</time></trkpt><trkpt lat="8.5697967" lon="-71.266335"><ele>1726.0</ele><time>2026-04-29T20:46:00.085Z</time></trkpt><trkpt lat="8.5697983" lon="-71.26627"><ele>1726.0000000000002</ele><time>2026-04-29T20:46:02.139Z</time></trkpt><trkpt lat="8.5697967" lon="-71.2662033"><ele>1726.0</ele><time>2026-04-29T20:46:04.076Z</time></trkpt><trkpt lat="8.56979" lon="-71.2661367"><ele>1722.0</ele><time>2026-04-29T20:46:06.085Z</time></trkpt><trkpt lat="8.5697917" lon="-71.2660433"><ele>1718.0</ele><time>2026-04-29T20:46:09.088Z</time></trkpt><trkpt lat="8.5697917" lon="-71.2659517"><ele>1714.0</ele><time>2026-04-29T20:46:12.084Z</time></trkpt><trkpt lat="8.5697767" lon="-71.2658667"><ele>1710.0</ele><time>2026-04-29T20:46:15.087Z</time></trkpt><trkpt lat="8.5697733" lon="-71.2657767"><ele>1706.0</ele><time>2026-04-29T20:46:18.089Z</time></trkpt><trkpt lat="8.569775" lon="-71.2656817"><ele>1703.1666666666665</ele><time>2026-04-29T20:46:21.056Z</time></trkpt><trkpt lat="8.569795" lon="-71.2655883"><ele>1700.3333333333333</ele><time>2026-04-29T20:46:24.091Z</time></trkpt><trkpt lat="8.5698133" lon="-71.265515"><ele>1697.5</ele><time>2026-04-29T20:46:26.136Z</time></trkpt><trkpt lat="8.5698383" lon="-71.26545"><ele>1694.6666666666665</ele><time>2026-04-29T20:46:28.074Z</time></trkpt><trkpt lat="8.5698867" lon="-71.2653733"><ele>1691.8333333333333</ele><time>2026-04-29T20:46:31.085Z</time></trkpt><trkpt lat="8.5699317" lon="-71.2653283"><ele>1689.0</ele><time>2026-04-29T20:46:33.091Z</time></trkpt><trkpt lat="8.5699817" lon="-71.2652817"><ele>1689.0</ele><time>2026-04-29T20:46:35.07Z</time></trkpt><trkpt lat="8.57004" lon="-71.265235"><ele>1689.0</ele><time>2026-04-29T20:46:37.089Z</time></trkpt><trkpt lat="8.57011" lon="-71.2652"><ele>1689.0</ele><time>2026-04-29T20:46:39.087Z</time></trkpt><trkpt lat="8.57019" lon="-71.26517"><ele>1689.0</ele><time>2026-04-29T20:46:41.091Z</time></trkpt><trkpt lat="8.5702783" lon="-71.2651467"><ele>1689.0</ele><time>2026-04-29T20:46:43.089Z</time></trkpt><trkpt lat="8.5703883" lon="-71.2651317"><ele>1689.0</ele><time>2026-04-29T20:46:45.092Z</time></trkpt><trkpt lat="8.5705067" lon="-71.2651283"><ele>1689.8333333333333</ele><time>2026-04-29T20:46:47.089Z</time></trkpt><trkpt lat="8.57063" lon="-71.265125"><ele>1690.6666666666665</ele><time>2026-04-29T20:46:49.081Z</time></trkpt><trkpt lat="8.5706967" lon="-71.2651233"><ele>1691.5</ele><time>2026-04-29T20:46:50.139Z</time></trkpt><trkpt lat="8.5707633" lon="-71.2651217"><ele>1692.3333333333333</ele><time>2026-04-29T20:46:51.081Z</time></trkpt><trkpt lat="8.5708333" lon="-71.265115"><ele>1693.1666666666665</ele><time>2026-04-29T20:46:52.081Z</time></trkpt><trkpt lat="8.5709033" lon="-71.26511"><ele>1694.0</ele><time>2026-04-29T20:46:53.08Z</time></trkpt><trkpt lat="8.5709683" lon="-71.2651133"><ele>1693.9999999999998</ele><time>2026-04-29T20:46:54.05Z</time></trkpt><trkpt lat="8.571035" lon="-71.2651133"><ele>1694.0</ele><time>2026-04-29T20:46:55.059Z</time></trkpt><trkpt lat="8.571105" lon="-71.2651083"><ele>1694.0</ele><time>2026-04-29T20:46:56.143Z</time></trkpt><trkpt lat="8.5712267" lon="-71.265115"><ele>1694.0</ele><time>2026-04-29T20:46:58.087Z</time></trkpt><trkpt lat="8.57129" lon="-71.26511"><ele>1693.9999999999998</ele><time>2026-04-29T20:46:59.091Z</time></trkpt><trkpt lat="8.5714083" lon="-71.2651"><ele>1694.0</ele><time>2026-04-29T20:47:01.076Z</time></trkpt><trkpt lat="8.5715183" lon="-71.26508"><ele>1694.4999999999998</ele><time>2026-04-29T20:47:03.081Z</time></trkpt><trkpt lat="8.5716167" lon="-71.2650517"><ele>1695.0</ele><time>2026-04-29T20:47:05.086Z</time></trkpt><trkpt lat="8.5716983" lon="-71.265015"><ele>1695.5</ele><time>2026-04-29T20:47:07.056Z</time></trkpt><trkpt lat="8.5717667" lon="-71.2649767"><ele>1696.0</ele><time>2026-04-29T20:47:09.082Z</time></trkpt><trkpt lat="8.571825" lon="-71.2649283"><ele>1696.4999999999998</ele><time>2026-04-29T20:47:11.091Z</time></trkpt><trkpt lat="8.571875" lon="-71.2648817"><ele>1697.0</ele><time>2026-04-29T20:47:13.087Z</time></trkpt><trkpt lat="8.5719183" lon="-71.2648317"><ele>1695.7142857142856</ele><time>2026-04-29T20:47:15.093Z</time></trkpt><trkpt lat="8.571955" lon="-71.2647667"><ele>1694.4285714285713</ele><time>2026-04-29T20:47:17.081Z</time></trkpt><trkpt lat="8.571985" lon="-71.2647067"><ele>1693.142857142857</ele><time>2026-04-29T20:47:19.086Z</time></trkpt><trkpt lat="8.5720083" lon="-71.2646433"><ele>1691.8571428571427</ele><time>2026-04-29T20:47:21.083Z</time></trkpt><trkpt lat="8.5720333" lon="-71.2645633"><ele>1690.5714285714287</ele><time>2026-04-29T20:47:24.092Z</time></trkpt><trkpt lat="8.5720433" lon="-71.2644983"><ele>1689.2857142857142</ele><time>2026-04-29T20:47:27.081Z</time></trkpt><trkpt lat="8.57204" lon="-71.2644317"><ele>1688.0</ele><time>2026-04-29T20:47:30.087Z</time></trkpt><trkpt lat="8.572035" lon="-71.2643583"><ele>1687.9999999999998</ele><time>2026-04-29T20:47:33.088Z</time></trkpt><trkpt lat="8.57203" lon="-71.2642717"><ele>1688.0</ele><time>2026-04-29T20:47:37.091Z</time></trkpt><trkpt lat="8.57203" lon="-71.2641967"><ele>1688.0</ele><time>2026-04-29T20:47:41.052Z</time></trkpt><trkpt lat="8.5720183" lon="-71.26412"><ele>1688.0</ele><time>2026-04-29T20:47:45.076Z</time></trkpt><trkpt lat="8.57201" lon="-71.2640317"><ele>1687.9999999999998</ele><time>2026-04-29T20:47:50.144Z</time></trkpt><trkpt lat="8.571995" lon="-71.2639533"><ele>1688.0</ele><time>2026-04-29T20:47:54.074Z</time></trkpt><trkpt lat="8.5719883" lon="-71.2638833"><ele>1688.2857142857142</ele><time>2026-04-29T20:47:58.086Z</time></trkpt><trkpt lat="8.5719867" lon="-71.263805"><ele>1688.5714285714287</ele><time>2026-04-29T20:48:02.132Z</time></trkpt><trkpt lat="8.57199" lon="-71.26373"><ele>1688.8571428571427</ele><time>2026-04-29T20:48:06.087Z</time></trkpt><trkpt lat="8.5719933" lon="-71.2636583"><ele>1689.142857142857</ele><time>2026-04-29T20:48:10.081Z</time></trkpt><trkpt lat="8.571995" lon="-71.263585"><ele>1689.4285714285713</ele><time>2026-04-29T20:48:14.146Z</time></trkpt><trkpt lat="8.572" lon="-71.263515"><ele>1689.7142857142856</ele><time>2026-04-29T20:48:18.085Z</time></trkpt><trkpt lat="8.5720067" lon="-71.2634417"><ele>1690.0</ele><time>2026-04-29T20:48:22.077Z</time></trkpt><trkpt lat="8.5720183" lon="-71.26337"><ele>1694.7142857142856</ele><time>2026-04-29T20:48:26.109Z</time></trkpt><trkpt lat="8.5720317" lon="-71.263295"><ele>1699.4285714285713</ele><time>2026-04-29T20:48:30.083Z</time></trkpt><trkpt lat="8.5720467" lon="-71.26322"><ele>1704.142857142857</ele><time>2026-04-29T20:48:35.089Z</time></trkpt><trkpt lat="8.5720667" lon="-71.263155"><ele>1708.8571428571427</ele><time>2026-04-29T20:48:39.087Z</time></trkpt><trkpt lat="8.5720967" lon="-71.2630783"><ele>1713.5714285714287</ele><time>2026-04-29T20:48:45.091Z</time></trkpt><trkpt lat="8.572125" lon="-71.2630083"><ele>1718.2857142857142</ele><time>2026-04-29T20:48:49.075Z</time></trkpt><trkpt lat="8.57215" lon="-71.26294"><ele>1723.0</ele><time>2026-04-29T20:48:53.093Z</time></trkpt><trkpt lat="8.57218" lon="-71.26287"><ele>1723.0</ele><time>2026-04-29T20:48:57.086Z</time></trkpt><trkpt lat="8.5722067" lon="-71.2628033"><ele>1723.0</ele><time>2026-04-29T20:49:01.069Z</time></trkpt><trkpt lat="8.5722433" lon="-71.2627433"><ele>1723.0</ele><time>2026-04-29T20:49:05.084Z</time></trkpt><trkpt lat="8.5722833" lon="-71.2626883"><ele>1723.0</ele><time>2026-04-29T20:49:09.093Z</time></trkpt><trkpt lat="8.572335" lon="-71.26263"><ele>1723.0</ele><time>2026-04-29T20:49:14.144Z</time></trkpt><trkpt lat="8.5723833" lon="-71.2625767"><ele>1723.0</ele><time>2026-04-29T20:49:19.087Z</time></trkpt><trkpt lat="8.5724183" lon="-71.2625233"><ele>1723.0</ele><time>2026-04-29T20:49:23.059Z</time></trkpt><trkpt lat="8.5724617" lon="-71.2624633"><ele>1723.0</ele><time>2026-04-29T20:49:28.081Z</time></trkpt><trkpt lat="8.5724967" lon="-71.262405"><ele>1723.0</ele><time>2026-04-29T20:49:32.139Z</time></trkpt><trkpt lat="8.5725367" lon="-71.2623467"><ele>1723.0</ele><time>2026-04-29T20:49:36.078Z</time></trkpt><trkpt lat="8.57258" lon="-71.262285"><ele>1723.0</ele><time>2026-04-29T20:49:41.071Z</time></trkpt><trkpt lat="8.572635" lon="-71.2622333"><ele>1723.0</ele><time>2026-04-29T20:49:46.08Z</time></trkpt><trkpt lat="8.5726867" lon="-71.26217"><ele>1723.0</ele><time>2026-04-29T20:49:52.087Z</time></trkpt><trkpt lat="8.5727217" lon="-71.2621067"><ele>1723.0</ele><time>2026-04-29T20:49:56.149Z</time></trkpt><trkpt lat="8.5727633" lon="-71.2620533"><ele>1725.857142857143</ele><time>2026-04-29T20:50:00.079Z</time></trkpt><trkpt lat="8.5728017" lon="-71.262"><ele>1728.7142857142858</ele><time>2026-04-29T20:50:04.084Z</time></trkpt><trkpt lat="8.572845" lon="-71.2619533"><ele>1731.5714285714284</ele><time>2026-04-29T20:50:08.14Z</time></trkpt><trkpt lat="8.5728883" lon="-71.2619067"><ele>1734.4285714285716</ele><time>2026-04-29T20:50:12.081Z</time></trkpt><trkpt lat="8.5729267" lon="-71.261855"><ele>1737.2857142857142</ele><time>2026-04-29T20:50:16.082Z</time></trkpt><trkpt lat="8.57297" lon="-71.2617983"><ele>1740.142857142857</ele><time>2026-04-29T20:50:20.137Z</time></trkpt><trkpt lat="8.5730083" lon="-71.2617433"><ele>1743.0</ele><time>2026-04-29T20:50:24.086Z</time></trkpt><trkpt lat="8.5730583" lon="-71.261685"><ele>1743.0</ele><time>2026-04-29T20:50:29.091Z</time></trkpt><trkpt lat="8.57309" lon="-71.261625"><ele>1743.0</ele><time>2026-04-29T20:50:34.087Z</time></trkpt><trkpt lat="8.5731233" lon="-71.26156"><ele>1743.0</ele><time>2026-04-29T20:50:38.139Z</time></trkpt><trkpt lat="8.57315" lon="-71.2615017"><ele>1743.0</ele><time>2026-04-29T20:50:42.063Z</time></trkpt><trkpt lat="8.573185" lon="-71.2614383"><ele>1743.0</ele><time>2026-04-29T20:50:47.084Z</time></trkpt><trkpt lat="8.57321" lon="-71.2613767"><ele>1743.0</ele><time>2026-04-29T20:50:51.07Z</time></trkpt><trkpt lat="8.5732267" lon="-71.26131"><ele>1743.0</ele><time>2026-04-29T20:50:55.091Z</time></trkpt><trkpt lat="8.573235" lon="-71.261235"><ele>1741.5714285714287</ele><time>2026-04-29T20:51:00.093Z</time></trkpt><trkpt lat="8.5732333" lon="-71.2611667"><ele>1740.142857142857</ele><time>2026-04-29T20:51:04.087Z</time></trkpt><trkpt lat="8.5732383" lon="-71.26109"><ele>1738.7142857142858</ele><time>2026-04-29T20:51:09.089Z</time></trkpt><trkpt lat="8.57324" lon="-71.261025"><ele>1737.2857142857142</ele><time>2026-04-29T20:51:13.082Z</time></trkpt><trkpt lat="8.5732467" lon="-71.2609483"><ele>1735.857142857143</ele><time>2026-04-29T20:51:18.078Z</time></trkpt><trkpt lat="8.573265" lon="-71.260875"><ele>1734.4285714285716</ele><time>2026-04-29T20:51:23.082Z</time></trkpt><trkpt lat="8.5732567" lon="-71.2607983"><ele>1733.0</ele><time>2026-04-29T20:51:28.052Z</time></trkpt><trkpt lat="8.57327" lon="-71.260735"><ele>1733.0000000000002</ele><time>2026-04-29T20:51:33.086Z</time></trkpt><trkpt lat="8.5732917" lon="-71.2606717"><ele>1733.0</ele><time>2026-04-29T20:51:38.136Z</time></trkpt><trkpt lat="8.5732983" lon="-71.2605983"><ele>1733.0</ele><time>2026-04-29T20:51:43.082Z</time></trkpt><trkpt lat="8.5733117" lon="-71.2605067"><ele>1733.0</ele><time>2026-04-29T20:51:50.159Z</time></trkpt><trkpt lat="8.573345" lon="-71.2604383"><ele>1733.0</ele><time>2026-04-29T20:51:55.087Z</time></trkpt><trkpt lat="8.5733783" lon="-71.2603717"><ele>1733.0000000000002</ele><time>2026-04-29T20:52:00.088Z</time></trkpt><trkpt lat="8.5734217" lon="-71.26032"><ele>1733.0</ele><time>2026-04-29T20:52:05.081Z</time></trkpt><trkpt lat="8.5734583" lon="-71.260255"><ele>1731.857142857143</ele><time>2026-04-29T20:52:10.086Z</time></trkpt><trkpt lat="8.5734983" lon="-71.2601867"><ele>1730.7142857142858</ele><time>2026-04-29T20:52:15.08Z</time></trkpt><trkpt lat="8.5735333" lon="-71.2601233"><ele>1729.5714285714284</ele><time>2026-04-29T20:52:20.136Z</time></trkpt><trkpt lat="8.5735717" lon="-71.260065"><ele>1728.4285714285716</ele><time>2026-04-29T20:52:25.09Z</time></trkpt><trkpt lat="8.5736117" lon="-71.26"><ele>1727.2857142857142</ele><time>2026-04-29T20:52:30.086Z</time></trkpt><trkpt lat="8.5736483" lon="-71.2599383"><ele>1726.142857142857</ele><time>2026-04-29T20:52:35.084Z</time></trkpt><trkpt lat="8.573685" lon="-71.2598767"><ele>1725.0</ele><time>2026-04-29T20:52:40.076Z</time></trkpt><trkpt lat="8.5737217" lon="-71.2598067"><ele>1731.2857142857142</ele><time>2026-04-29T20:52:45.058Z</time></trkpt><trkpt lat="8.5737467" lon="-71.2597467"><ele>1737.5714285714284</ele><time>2026-04-29T20:52:49.084Z</time></trkpt><trkpt lat="8.5737783" lon="-71.259675"><ele>1743.8571428571427</ele><time>2026-04-29T20:52:55.083Z</time></trkpt><trkpt lat="8.57381" lon="-71.2596183"><ele>1750.142857142857</ele><time>2026-04-29T20:52:59.071Z</time></trkpt><trkpt lat="8.5738417" lon="-71.2595617"><ele>1756.4285714285716</ele><time>2026-04-29T20:53:04.09Z</time></trkpt><trkpt lat="8.5738883" lon="-71.259495"><ele>1762.7142857142856</ele><time>2026-04-29T20:53:11.096Z</time></trkpt><trkpt lat="8.5739117" lon="-71.25943"><ele>1769.0</ele><time>2026-04-29T20:53:15.093Z</time></trkpt><trkpt lat="8.57392" lon="-71.25935"><ele>1769.0</ele><time>2026-04-29T20:53:20.145Z</time></trkpt><trkpt lat="8.5739367" lon="-71.2592867"><ele>1769.0</ele><time>2026-04-29T20:53:24.073Z</time></trkpt><trkpt lat="8.5739517" lon="-71.25921"><ele>1769.0</ele><time>2026-04-29T20:53:29.093Z</time></trkpt><trkpt lat="8.5739717" lon="-71.2591417"><ele>1769.0</ele><time>2026-04-29T20:53:33.089Z</time></trkpt><trkpt lat="8.5739783" lon="-71.25907"><ele>1769.0</ele><time>2026-04-29T20:53:38.151Z</time></trkpt><trkpt lat="8.57398" lon="-71.2589983"><ele>1769.0</ele><time>2026-04-29T20:53:43.085Z</time></trkpt><trkpt lat="8.5739817" lon="-71.2589183"><ele>1769.0</ele><time>2026-04-29T20:53:48.093Z</time></trkpt><trkpt lat="8.5739783" lon="-71.2588517"><ele>1768.857142857143</ele><time>2026-04-29T20:53:52.087Z</time></trkpt><trkpt lat="8.5739733" lon="-71.2587867"><ele>1768.7142857142858</ele><time>2026-04-29T20:53:56.143Z</time></trkpt><trkpt lat="8.5739583" lon="-71.2587117"><ele>1768.5714285714287</ele><time>2026-04-29T20:54:01.06Z</time></trkpt><trkpt lat="8.5739383" lon="-71.25864"><ele>1768.4285714285716</ele><time>2026-04-29T20:54:05.087Z</time></trkpt><trkpt lat="8.573925" lon="-71.2585733"><ele>1768.2857142857142</ele><time>2026-04-29T20:54:09.083Z</time></trkpt><trkpt lat="8.5739217" lon="-71.2585067"><ele>1768.1428571428573</ele><time>2026-04-29T20:54:13.099Z</time></trkpt><trkpt lat="8.5739017" lon="-71.2584417"><ele>1768.0</ele><time>2026-04-29T20:54:17.093Z</time></trkpt><trkpt lat="8.57388" lon="-71.25838"><ele>1768.0000000000002</ele><time>2026-04-29T20:54:21.051Z</time></trkpt><trkpt lat="8.5738467" lon="-71.2583067"><ele>1768.0</ele><time>2026-04-29T20:54:26.14Z</time></trkpt><trkpt lat="8.57382" lon="-71.2582467"><ele>1768.0</ele><time>2026-04-29T20:54:30.078Z</time></trkpt><trkpt lat="8.5737967" lon="-71.2581833"><ele>1768.0</ele><time>2026-04-29T20:54:34.083Z</time></trkpt><trkpt lat="8.5737767" lon="-71.25811"><ele>1768.0</ele><time>2026-04-29T20:54:39.087Z</time></trkpt><trkpt lat="8.5737433" lon="-71.2580467"><ele>1768.0000000000002</ele><time>2026-04-29T20:54:44.15Z</time></trkpt><trkpt lat="8.5737233" lon="-71.2579833"><ele>1768.0</ele><time>2026-04-29T20:54:48.097Z</time></trkpt><trkpt lat="8.5737067" lon="-71.2579217"><ele>1768.7142857142858</ele><time>2026-04-29T20:54:52.096Z</time></trkpt><trkpt lat="8.5736933" lon="-71.2578517"><ele>1769.4285714285716</ele><time>2026-04-29T20:54:56.14Z</time></trkpt><trkpt lat="8.573675" lon="-71.25779"><ele>1770.1428571428573</ele><time>2026-04-29T20:55:00.097Z</time></trkpt><trkpt lat="8.57367" lon="-71.2577167"><ele>1770.857142857143</ele><time>2026-04-29T20:55:05.101Z</time></trkpt><trkpt lat="8.573665" lon="-71.2576517"><ele>1771.5714285714284</ele><time>2026-04-29T20:55:09.062Z</time></trkpt><trkpt lat="8.5736667" lon="-71.2575817"><ele>1772.2857142857144</ele><time>2026-04-29T20:55:13.071Z</time></trkpt><trkpt lat="8.5736717" lon="-71.257515"><ele>1773.0</ele><time>2026-04-29T20:55:17.086Z</time></trkpt><trkpt lat="8.5736867" lon="-71.25744"><ele>1773.0</ele><time>2026-04-29T20:55:21.088Z</time></trkpt><trkpt lat="8.573725" lon="-71.2573667"><ele>1773.0</ele><time>2026-04-29T20:55:25.104Z</time></trkpt><trkpt lat="8.5737583" lon="-71.2572983"><ele>1773.0</ele><time>2026-04-29T20:55:29.08Z</time></trkpt><trkpt lat="8.573795" lon="-71.2572383"><ele>1773.0</ele><time>2026-04-29T20:55:33.085Z</time></trkpt><trkpt lat="8.5738167" lon="-71.2571783"><ele>1773.0</ele><time>2026-04-29T20:55:37.076Z</time></trkpt><trkpt lat="8.57385" lon="-71.2571167"><ele>1773.0</ele><time>2026-04-29T20:55:41.087Z</time></trkpt><trkpt lat="8.573895" lon="-71.2570567"><ele>1773.0</ele><time>2026-04-29T20:55:45.089Z</time></trkpt><trkpt lat="8.5739417" lon="-71.256995"><ele>1770.7142857142858</ele><time>2026-04-29T20:55:49.091Z</time></trkpt><trkpt lat="8.5739767" lon="-71.2569417"><ele>1768.4285714285713</ele><time>2026-04-29T20:55:52.07Z</time></trkpt><trkpt lat="8.5740217" lon="-71.2568767"><ele>1766.142857142857</ele><time>2026-04-29T20:55:56.141Z</time></trkpt><trkpt lat="8.5740667" lon="-71.25682"><ele>1763.857142857143</ele><time>2026-04-29T20:56:00.054Z</time></trkpt><trkpt lat="8.574115" lon="-71.2567583"><ele>1761.5714285714284</ele><time>2026-04-29T20:56:04.103Z</time></trkpt><trkpt lat="8.5741567" lon="-71.2566933"><ele>1759.2857142857142</ele><time>2026-04-29T20:56:08.139Z</time></trkpt><trkpt lat="8.5741867" lon="-71.2566367"><ele>1757.0</ele><time>2026-04-29T20:56:11.083Z</time></trkpt><trkpt lat="8.5742233" lon="-71.2565833"><ele>1756.9999999999998</ele><time>2026-04-29T20:56:15.091Z</time></trkpt><trkpt lat="8.57426" lon="-71.2565217"><ele>1757.0</ele><time>2026-04-29T20:56:19.078Z</time></trkpt><trkpt lat="8.5743017" lon="-71.256455"><ele>1757.0</ele><time>2026-04-29T20:56:23.077Z</time></trkpt><trkpt lat="8.5743417" lon="-71.2563917"><ele>1757.0</ele><time>2026-04-29T20:56:27.077Z</time></trkpt><trkpt lat="8.5743867" lon="-71.25633"><ele>1756.9999999999998</ele><time>2026-04-29T20:56:31.086Z</time></trkpt><trkpt lat="8.57443" lon="-71.2562533"><ele>1757.0</ele><time>2026-04-29T20:56:35.077Z</time></trkpt><trkpt lat="8.5744683" lon="-71.2561867"><ele>1754.7142857142858</ele><time>2026-04-29T20:56:39.082Z</time></trkpt><trkpt lat="8.5745067" lon="-71.256115"><ele>1752.4285714285716</ele><time>2026-04-29T20:56:43.091Z</time></trkpt><trkpt lat="8.574545" lon="-71.256045"><ele>1750.142857142857</ele><time>2026-04-29T20:56:47.079Z</time></trkpt><trkpt lat="8.5745667" lon="-71.255985"><ele>1747.857142857143</ele><time>2026-04-29T20:56:50.133Z</time></trkpt><trkpt lat="8.5745883" lon="-71.25591"><ele>1745.5714285714287</ele><time>2026-04-29T20:56:54.075Z</time></trkpt><trkpt lat="8.5746017" lon="-71.2558417"><ele>1743.2857142857142</ele><time>2026-04-29T20:56:58.088Z</time></trkpt><trkpt lat="8.5746083" lon="-71.255775"><ele>1741.0</ele><time>2026-04-29T20:57:02.145Z</time></trkpt><trkpt lat="8.5745967" lon="-71.2557067"><ele>1743.4285714285713</ele><time>2026-04-29T20:57:06.069Z</time></trkpt><trkpt lat="8.5745967" lon="-71.25564"><ele>1745.857142857143</ele><time>2026-04-29T20:57:10.085Z</time></trkpt><trkpt lat="8.574585" lon="-71.2555717"><ele>1748.2857142857142</ele><time>2026-04-29T20:57:14.113Z</time></trkpt><trkpt lat="8.5745583" lon="-71.255495"><ele>1750.7142857142858</ele><time>2026-04-29T20:57:18.096Z</time></trkpt><trkpt lat="8.57453" lon="-71.2554217"><ele>1753.1428571428573</ele><time>2026-04-29T20:57:22.08Z</time></trkpt><trkpt lat="8.5745067" lon="-71.2553533"><ele>1755.5714285714287</ele><time>2026-04-29T20:57:26.139Z</time></trkpt><trkpt lat="8.5744833" lon="-71.255285"><ele>1758.0</ele><time>2026-04-29T20:57:30.052Z</time></trkpt><trkpt lat="8.5744583" lon="-71.2552217"><ele>1758.0</ele><time>2026-04-29T20:57:34.091Z</time></trkpt><trkpt lat="8.574425" lon="-71.25516"><ele>1758.0</ele><time>2026-04-29T20:57:38.137Z</time></trkpt><trkpt lat="8.5743833" lon="-71.2551017"><ele>1758.0</ele><time>2026-04-29T20:57:42.083Z</time></trkpt><trkpt lat="8.574345" lon="-71.2550317"><ele>1758.0</ele><time>2026-04-29T20:57:47.092Z</time></trkpt><trkpt lat="8.5743017" lon="-71.25496"><ele>1758.0</ele><time>2026-04-29T20:57:53.081Z</time></trkpt><trkpt lat="8.5742817" lon="-71.2548867"><ele>1758.0</ele><time>2026-04-29T20:57:57.077Z</time></trkpt><trkpt lat="8.574255" lon="-71.2548217"><ele>1758.0</ele><time>2026-04-29T20:58:01.087Z</time></trkpt><trkpt lat="8.574235" lon="-71.2547517"><ele>1760.2857142857142</ele><time>2026-04-29T20:58:05.09Z</time></trkpt><trkpt lat="8.5742267" lon="-71.25468"><ele>1762.5714285714287</ele><time>2026-04-29T20:58:09.086Z</time></trkpt><trkpt lat="8.5742183" lon="-71.254615"><ele>1764.8571428571427</ele><time>2026-04-29T20:58:12.07Z</time></trkpt><trkpt lat="8.5742033" lon="-71.2545467"><ele>1767.142857142857</ele><time>2026-04-29T20:58:15.087Z</time></trkpt><trkpt lat="8.574185" lon="-71.254465"><ele>1769.4285714285713</ele><time>2026-04-29T20:58:19.081Z</time></trkpt><trkpt lat="8.5741733" lon="-71.2544"><ele>1771.7142857142856</ele><time>2026-04-29T20:58:23.052Z</time></trkpt><trkpt lat="8.574175" lon="-71.254325"><ele>1774.0</ele><time>2026-04-29T20:58:27.078Z</time></trkpt><trkpt lat="8.57418" lon="-71.2542517"><ele>1773.9999999999998</ele><time>2026-04-29T20:58:31.08Z</time></trkpt><trkpt lat="8.5741767" lon="-71.2541683"><ele>1774.0</ele><time>2026-04-29T20:58:35.088Z</time></trkpt><trkpt lat="8.57418" lon="-71.2540917"><ele>1774.0</ele><time>2026-04-29T20:58:39.081Z</time></trkpt><trkpt lat="8.5741833" lon="-71.2540183"><ele>1774.0</ele><time>2026-04-29T20:58:44.131Z</time></trkpt><trkpt lat="8.57419" lon="-71.2539533"><ele>1774.0</ele><time>2026-04-29T20:58:48.075Z</time></trkpt><trkpt lat="8.5741833" lon="-71.2538783"><ele>1773.9999999999998</ele><time>2026-04-29T20:58:52.079Z</time></trkpt><trkpt lat="8.5741817" lon="-71.253805"><ele>1774.0</ele><time>2026-04-29T20:58:55.076Z</time></trkpt><trkpt lat="8.5741783" lon="-71.2537333"><ele>1773.3333333333335</ele><time>2026-04-29T20:58:58.082Z</time></trkpt><trkpt lat="8.574175" lon="-71.2536667"><ele>1772.6666666666667</ele><time>2026-04-29T20:59:01.052Z</time></trkpt><trkpt lat="8.5741817" lon="-71.253585"><ele>1772.0</ele><time>2026-04-29T20:59:05.089Z</time></trkpt><trkpt lat="8.5741867" lon="-71.2535033"><ele>1771.3333333333335</ele><time>2026-04-29T20:59:09.079Z</time></trkpt><trkpt lat="8.5741917" lon="-71.253425"><ele>1770.6666666666667</ele><time>2026-04-29T20:59:13.08Z</time></trkpt><trkpt lat="8.5741967" lon="-71.2533433"><ele>1770.0</ele><time>2026-04-29T20:59:17.086Z</time></trkpt><trkpt lat="8.5741983" lon="-71.2532767"><ele>1770.0</ele><time>2026-04-29T20:59:20.137Z</time></trkpt><trkpt lat="8.574195" lon="-71.2531933"><ele>1770.0</ele><time>2026-04-29T20:59:24.087Z</time></trkpt><trkpt lat="8.5741967" lon="-71.25311"><ele>1770.0</ele><time>2026-04-29T20:59:28.103Z</time></trkpt><trkpt lat="8.574195" lon="-71.2530267"><ele>1770.0</ele><time>2026-04-29T20:59:32.143Z</time></trkpt><trkpt lat="8.5741967" lon="-71.2529433"><ele>1770.0</ele><time>2026-04-29T20:59:36.079Z</time></trkpt><trkpt lat="8.574195" lon="-71.25287"><ele>1770.0</ele><time>2026-04-29T20:59:40.078Z</time></trkpt><trkpt lat="8.5741833" lon="-71.2527833"><ele>1772.3333333333333</ele><time>2026-04-29T20:59:44.142Z</time></trkpt><trkpt lat="8.5741567" lon="-71.2527233"><ele>1774.6666666666665</ele><time>2026-04-29T20:59:47.055Z</time></trkpt><trkpt lat="8.5741267" lon="-71.25265"><ele>1777.0</ele><time>2026-04-29T20:59:51.082Z</time></trkpt><trkpt lat="8.5740817" lon="-71.2525767"><ele>1779.3333333333333</ele><time>2026-04-29T20:59:55.079Z</time></trkpt><trkpt lat="8.5740433" lon="-71.252505"><ele>1781.6666666666665</ele><time>2026-04-29T20:59:59.083Z</time></trkpt><trkpt lat="8.574" lon="-71.2524517"><ele>1784.0</ele><time>2026-04-29T21:00:02.147Z</time></trkpt><trkpt lat="8.5739467" lon="-71.252395"><ele>1783.9999999999998</ele><time>2026-04-29T21:00:06.091Z</time></trkpt><trkpt lat="8.5739017" lon="-71.2523483"><ele>1784.0</ele><time>2026-04-29T21:00:09.084Z</time></trkpt><trkpt lat="8.573835" lon="-71.2522967"><ele>1784.0</ele><time>2026-04-29T21:00:13.075Z</time></trkpt><trkpt lat="8.5737667" lon="-71.2522517"><ele>1784.0</ele><time>2026-04-29T21:00:17.074Z</time></trkpt><trkpt lat="8.5736983" lon="-71.25221"><ele>1783.9999999999998</ele><time>2026-04-29T21:00:21.088Z</time></trkpt><trkpt lat="8.5736417" lon="-71.252175"><ele>1784.0</ele><time>2026-04-29T21:00:25.085Z</time></trkpt><trkpt lat="8.57357" lon="-71.25214"><ele>1784.9999999999998</ele><time>2026-04-29T21:00:29.088Z</time></trkpt><trkpt lat="8.5735" lon="-71.2521017"><ele>1786.0</ele><time>2026-04-29T21:00:33.081Z</time></trkpt><trkpt lat="8.5734333" lon="-71.2520683"><ele>1787.0</ele><time>2026-04-29T21:00:37.081Z</time></trkpt><trkpt lat="8.57336" lon="-71.2520283"><ele>1788.0</ele><time>2026-04-29T21:00:41.09Z</time></trkpt><trkpt lat="8.57329" lon="-71.251985"><ele>1788.9999999999998</ele><time>2026-04-29T21:00:45.079Z</time></trkpt><trkpt lat="8.5732317" lon="-71.2519417"><ele>1790.0</ele><time>2026-04-29T21:00:49.074Z</time></trkpt><trkpt lat="8.5731783" lon="-71.2519067"><ele>1789.9999999999998</ele><time>2026-04-29T21:00:52.084Z</time></trkpt><trkpt lat="8.57311" lon="-71.2518683"><ele>1790.0</ele><time>2026-04-29T21:00:56.146Z</time></trkpt><trkpt lat="8.57304" lon="-71.25183"><ele>1790.0</ele><time>2026-04-29T21:01:00.053Z</time></trkpt><trkpt lat="8.572975" lon="-71.2517917"><ele>1790.0</ele><time>2026-04-29T21:01:04.094Z</time></trkpt><trkpt lat="8.5729083" lon="-71.251745"><ele>1789.9999999999998</ele><time>2026-04-29T21:01:08.144Z</time></trkpt><trkpt lat="8.572835" lon="-71.25171"><ele>1790.0</ele><time>2026-04-29T21:01:12.096Z</time></trkpt><trkpt lat="8.5727667" lon="-71.25167"><ele>1788.142857142857</ele><time>2026-04-29T21:01:16.084Z</time></trkpt><trkpt lat="8.5727083" lon="-71.2516183"><ele>1786.2857142857144</ele><time>2026-04-29T21:01:20.133Z</time></trkpt><trkpt lat="8.57266" lon="-71.2515583"><ele>1784.4285714285716</ele><time>2026-04-29T21:01:24.086Z</time></trkpt><trkpt lat="8.5726217" lon="-71.2514967"><ele>1782.5714285714284</ele><time>2026-04-29T21:01:28.071Z</time></trkpt><trkpt lat="8.5725833" lon="-71.2514317"><ele>1780.7142857142858</ele><time>2026-04-29T21:01:32.138Z</time></trkpt><trkpt lat="8.57256" lon="-71.2513717"><ele>1778.857142857143</ele><time>2026-04-29T21:01:35.105Z</time></trkpt><trkpt lat="8.5725333" lon="-71.2512933"><ele>1777.0</ele><time>2026-04-29T21:01:39.067Z</time></trkpt><trkpt lat="8.572525" lon="-71.2512183"><ele>1777.0</ele><time>2026-04-29T21:01:43.089Z</time></trkpt><trkpt lat="8.5725317" lon="-71.251135"><ele>1777.0</ele><time>2026-04-29T21:01:47.091Z</time></trkpt><trkpt lat="8.5725317" lon="-71.2510633"><ele>1777.0</ele><time>2026-04-29T21:01:51.095Z</time></trkpt><trkpt lat="8.5725383" lon="-71.2509817"><ele>1777.0</ele><time>2026-04-29T21:01:55.086Z</time></trkpt><trkpt lat="8.5725417" lon="-71.2509167"><ele>1777.0</ele><time>2026-04-29T21:01:58.088Z</time></trkpt><trkpt lat="8.5725483" lon="-71.25085"><ele>1777.0</ele><time>2026-04-29T21:02:01.089Z</time></trkpt><trkpt lat="8.5725633" lon="-71.250775"><ele>1777.0</ele><time>2026-04-29T21:02:05.075Z</time></trkpt><trkpt lat="8.5725917" lon="-71.250715"><ele>1777.0000000000002</ele><time>2026-04-29T21:02:08.143Z</time></trkpt><trkpt lat="8.572625" lon="-71.2506417"><ele>1777.0</ele><time>2026-04-29T21:02:11.083Z</time></trkpt><trkpt lat="8.5726633" lon="-71.2505567"><ele>1777.0</ele><time>2026-04-29T21:02:14.133Z</time></trkpt><trkpt lat="8.57269" lon="-71.2504983"><ele>1777.0</ele><time>2026-04-29T21:02:16.1Z</time></trkpt><trkpt lat="8.5727333" lon="-71.250415"><ele>1777.0000000000002</ele><time>2026-04-29T21:02:19.088Z</time></trkpt><trkpt lat="8.5727633" lon="-71.2503567"><ele>1777.0</ele><time>2026-04-29T21:02:21.103Z</time></trkpt><trkpt lat="8.5728033" lon="-71.2503"><ele>1778.5714285714284</ele><time>2026-04-29T21:02:23.08Z</time></trkpt><trkpt lat="8.5728317" lon="-71.250235"><ele>1780.142857142857</ele><time>2026-04-29T21:02:25.094Z</time></trkpt><trkpt lat="8.5728383" lon="-71.25017"><ele>1781.7142857142858</ele><time>2026-04-29T21:02:27.083Z</time></trkpt><trkpt lat="8.5728567" lon="-71.2501033"><ele>1783.2857142857142</ele><time>2026-04-29T21:02:29.09Z</time></trkpt><trkpt lat="8.572885" lon="-71.25004"><ele>1784.857142857143</ele><time>2026-04-29T21:02:31.092Z</time></trkpt><trkpt lat="8.57291" lon="-71.2499717"><ele>1786.4285714285713</ele><time>2026-04-29T21:02:33.089Z</time></trkpt><trkpt lat="8.5729383" lon="-71.2499033"><ele>1788.0</ele><time>2026-04-29T21:02:35.084Z</time></trkpt><trkpt lat="8.5729717" lon="-71.24984"><ele>1784.5714285714284</ele><time>2026-04-29T21:02:37.084Z</time></trkpt><trkpt lat="8.57301" lon="-71.2497833"><ele>1781.142857142857</ele><time>2026-04-29T21:02:39.095Z</time></trkpt><trkpt lat="8.5730533" lon="-71.2497333"><ele>1777.7142857142858</ele><time>2026-04-29T21:02:41.082Z</time></trkpt><trkpt lat="8.5731067" lon="-71.24969"><ele>1774.2857142857142</ele><time>2026-04-29T21:02:43.075Z</time></trkpt><trkpt lat="8.5731817" lon="-71.24965"><ele>1770.857142857143</ele><time>2026-04-29T21:02:46.081Z</time></trkpt><trkpt lat="8.5732433" lon="-71.2496317"><ele>1767.4285714285713</ele><time>2026-04-29T21:02:48.08Z</time></trkpt><trkpt lat="8.5733117" lon="-71.2496183"><ele>1764.0</ele><time>2026-04-29T21:02:50.143Z</time></trkpt><trkpt lat="8.5733883" lon="-71.2496133"><ele>1764.0</ele><time>2026-04-29T21:02:52.044Z</time></trkpt><trkpt lat="8.5734717" lon="-71.24962"><ele>1764.0</ele><time>2026-04-29T21:02:54.052Z</time></trkpt><trkpt lat="8.5735617" lon="-71.2496317"><ele>1764.0</ele><time>2026-04-29T21:02:56.136Z</time></trkpt><trkpt lat="8.5736567" lon="-71.2496467"><ele>1764.0</ele><time>2026-04-29T21:02:58.074Z</time></trkpt><trkpt lat="8.5737583" lon="-71.2496717"><ele>1764.0</ele><time>2026-04-29T21:03:00.094Z</time></trkpt><trkpt lat="8.5738633" lon="-71.249695"><ele>1758.5</ele><time>2026-04-29T21:03:02.125Z</time></trkpt><trkpt lat="8.57397" lon="-71.2497167"><ele>1753.0</ele><time>2026-04-29T21:03:04.075Z</time></trkpt><trkpt lat="8.574085" lon="-71.249735"><ele>1747.5</ele><time>2026-04-29T21:03:06.089Z</time></trkpt><trkpt lat="8.5742017" lon="-71.249755"><ele>1742.0</ele><time>2026-04-29T21:03:08.143Z</time></trkpt><trkpt lat="8.5743267" lon="-71.2497783"><ele>1746.8333333333333</ele><time>2026-04-29T21:03:10.088Z</time></trkpt><trkpt lat="8.5744517" lon="-71.2497967"><ele>1751.6666666666665</ele><time>2026-04-29T21:03:12.087Z</time></trkpt><trkpt lat="8.57452" lon="-71.24981"><ele>1756.5</ele><time>2026-04-29T21:03:13.093Z</time></trkpt><trkpt lat="8.574585" lon="-71.2498217"><ele>1761.3333333333335</ele><time>2026-04-29T21:03:14.136Z</time></trkpt><trkpt lat="8.5746517" lon="-71.2498317"><ele>1766.1666666666667</ele><time>2026-04-29T21:03:15.084Z</time></trkpt><trkpt lat="8.5747183" lon="-71.2498367"><ele>1771.0</ele><time>2026-04-29T21:03:16.078Z</time></trkpt><trkpt lat="8.5747867" lon="-71.2498417"><ele>1771.0</ele><time>2026-04-29T21:03:17.076Z</time></trkpt><trkpt lat="8.5748533" lon="-71.24985"><ele>1771.0</ele><time>2026-04-29T21:03:18.04Z</time></trkpt><trkpt lat="8.5749233" lon="-71.2498633"><ele>1771.0</ele><time>2026-04-29T21:03:19.083Z</time></trkpt><trkpt lat="8.5749917" lon="-71.2498767"><ele>1771.0</ele><time>2026-04-29T21:03:20.145Z</time></trkpt><trkpt lat="8.5750617" lon="-71.2498933"><ele>1771.0</ele><time>2026-04-29T21:03:21.09Z</time></trkpt><trkpt lat="8.5751283" lon="-71.2499083"><ele>1771.0</ele><time>2026-04-29T21:03:22.078Z</time></trkpt><trkpt lat="8.5751967" lon="-71.2499283"><ele>1771.0</ele><time>2026-04-29T21:03:23.074Z</time></trkpt><trkpt lat="8.5752667" lon="-71.2499483"><ele>1771.0</ele><time>2026-04-29T21:03:24.088Z</time></trkpt><trkpt lat="8.575335" lon="-71.2499717"><ele>1771.0</ele><time>2026-04-29T21:03:25.096Z</time></trkpt><trkpt lat="8.5754033" lon="-71.2499967"><ele>1771.0</ele><time>2026-04-29T21:03:26.12Z</time></trkpt><trkpt lat="8.57547" lon="-71.2500217"><ele>1771.0</ele><time>2026-04-29T21:03:27.085Z</time></trkpt><trkpt lat="8.5755317" lon="-71.2500533"><ele>1771.0</ele><time>2026-04-29T21:03:28.088Z</time></trkpt><trkpt lat="8.57559" lon="-71.25009"><ele>1771.0</ele><time>2026-04-29T21:03:29.074Z</time></trkpt><trkpt lat="8.5756517" lon="-71.2501333"><ele>1771.0</ele><time>2026-04-29T21:03:30.09Z</time></trkpt><trkpt lat="8.57571" lon="-71.2501817"><ele>1768.1999999999998</ele><time>2026-04-29T21:03:31.084Z</time></trkpt><trkpt lat="8.5757667" lon="-71.2502333"><ele>1765.3999999999999</ele><time>2026-04-29T21:03:32.121Z</time></trkpt><trkpt lat="8.5758233" lon="-71.2502917"><ele>1762.6</ele><time>2026-04-29T21:03:33.077Z</time></trkpt><trkpt lat="8.575875" lon="-71.2503517"><ele>1759.8</ele><time>2026-04-29T21:03:34.077Z</time></trkpt><trkpt lat="8.5759217" lon="-71.2504067"><ele>1757.0</ele><time>2026-04-29T21:03:35.083Z</time></trkpt><trkpt lat="8.5760133" lon="-71.250525"><ele>1756.9999999999998</ele><time>2026-04-29T21:03:37.088Z</time></trkpt><trkpt lat="8.57606" lon="-71.2505833"><ele>1757.0</ele><time>2026-04-29T21:03:38.137Z</time></trkpt><trkpt lat="8.5761067" lon="-71.250635"><ele>1757.0</ele><time>2026-04-29T21:03:39.086Z</time></trkpt><trkpt lat="8.576155" lon="-71.2506833"><ele>1757.0</ele><time>2026-04-29T21:03:40.078Z</time></trkpt><trkpt lat="8.5762133" lon="-71.250725"><ele>1756.9999999999998</ele><time>2026-04-29T21:03:41.052Z</time></trkpt><trkpt lat="8.5762717" lon="-71.2507583"><ele>1757.0</ele><time>2026-04-29T21:03:42.074Z</time></trkpt><trkpt lat="8.57638" lon="-71.2508133"><ele>1758.6</ele><time>2026-04-29T21:03:44.14Z</time></trkpt><trkpt lat="8.5764867" lon="-71.2508583"><ele>1760.1999999999998</ele><time>2026-04-29T21:03:46.088Z</time></trkpt><trkpt lat="8.5765867" lon="-71.25089"><ele>1761.8</ele><time>2026-04-29T21:03:48.081Z</time></trkpt><trkpt lat="8.576675" lon="-71.2509083"><ele>1763.4</ele><time>2026-04-29T21:03:50.146Z</time></trkpt><trkpt lat="8.5767533" lon="-71.2509217"><ele>1765.0</ele><time>2026-04-29T21:03:52.095Z</time></trkpt><trkpt lat="8.57682" lon="-71.2509267"><ele>1765.0000000000002</ele><time>2026-04-29T21:03:54.088Z</time></trkpt><trkpt lat="8.576905" lon="-71.25093"><ele>1765.0</ele><time>2026-04-29T21:03:57.087Z</time></trkpt><trkpt lat="8.5769867" lon="-71.250915"><ele>1765.0</ele><time>2026-04-29T21:04:00.091Z</time></trkpt><trkpt lat="8.5770667" lon="-71.2508883"><ele>1765.0</ele><time>2026-04-29T21:04:03.096Z</time></trkpt><trkpt lat="8.5771433" lon="-71.2508567"><ele>1765.0000000000002</ele><time>2026-04-29T21:04:06.074Z</time></trkpt><trkpt lat="8.5772317" lon="-71.2508267"><ele>1765.0</ele><time>2026-04-29T21:04:09.088Z</time></trkpt><trkpt lat="8.57731" lon="-71.2508017"><ele>1766.8</ele><time>2026-04-29T21:04:12.081Z</time></trkpt><trkpt lat="8.5773883" lon="-71.2507567"><ele>1768.6</ele><time>2026-04-29T21:04:15.077Z</time></trkpt><trkpt lat="8.5774567" lon="-71.250705"><ele>1770.4</ele><time>2026-04-29T21:04:18.086Z</time></trkpt><trkpt lat="8.5775267" lon="-71.2506433"><ele>1772.2</ele><time>2026-04-29T21:04:21.056Z</time></trkpt><trkpt lat="8.57759" lon="-71.2505733"><ele>1774.0</ele><time>2026-04-29T21:04:24.083Z</time></trkpt><trkpt lat="8.5776467" lon="-71.2505033"><ele>1772.8333333333335</ele><time>2026-04-29T21:04:27.084Z</time></trkpt><trkpt lat="8.577695" lon="-71.25044"><ele>1771.6666666666667</ele><time>2026-04-29T21:04:30.083Z</time></trkpt><trkpt lat="8.5777483" lon="-71.2503867"><ele>1770.5</ele><time>2026-04-29T21:04:33.085Z</time></trkpt><trkpt lat="8.5777967" lon="-71.25033"><ele>1769.3333333333335</ele><time>2026-04-29T21:04:36.086Z</time></trkpt><trkpt lat="8.57785" lon="-71.2502817"><ele>1768.1666666666667</ele><time>2026-04-29T21:04:39.063Z</time></trkpt><trkpt lat="8.5778967" lon="-71.2502283"><ele>1767.0</ele><time>2026-04-29T21:04:42.056Z</time></trkpt><trkpt lat="8.5779533" lon="-71.25017"><ele>1767.0</ele><time>2026-04-29T21:04:45.078Z</time></trkpt><trkpt lat="8.5780083" lon="-71.2501067"><ele>1767.0</ele><time>2026-04-29T21:04:48.088Z</time></trkpt><trkpt lat="8.578055" lon="-71.2500483"><ele>1767.0</ele><time>2026-04-29T21:04:51.072Z</time></trkpt><trkpt lat="8.5781083" lon="-71.2499933"><ele>1767.0</ele><time>2026-04-29T21:04:54.089Z</time></trkpt><trkpt lat="8.5781733" lon="-71.2499467"><ele>1767.0</ele><time>2026-04-29T21:04:57.092Z</time></trkpt><trkpt lat="8.5782533" lon="-71.249905"><ele>1767.0</ele><time>2026-04-29T21:05:00.04Z</time></trkpt><trkpt lat="8.5783367" lon="-71.249885"><ele>1767.0</ele><time>2026-04-29T21:05:03.081Z</time></trkpt><trkpt lat="8.578425" lon="-71.2498717"><ele>1767.0</ele><time>2026-04-29T21:05:06.088Z</time></trkpt><trkpt lat="8.578495" lon="-71.2498817"><ele>1767.0</ele><time>2026-04-29T21:05:08.137Z</time></trkpt><trkpt lat="8.5785683" lon="-71.2498983"><ele>1767.0</ele><time>2026-04-29T21:05:10.077Z</time></trkpt><trkpt lat="8.5786433" lon="-71.2499333"><ele>1767.0</ele><time>2026-04-29T21:05:12.083Z</time></trkpt><trkpt lat="8.57872" lon="-71.2499833"><ele>1767.0</ele><time>2026-04-29T21:05:14.144Z</time></trkpt><trkpt lat="8.5787783" lon="-71.25005"><ele>1764.8</ele><time>2026-04-29T21:05:16.079Z</time></trkpt><trkpt lat="8.5788317" lon="-71.2501283"><ele>1762.6</ele><time>2026-04-29T21:05:18.082Z</time></trkpt><trkpt lat="8.5788633" lon="-71.2502317"><ele>1760.3999999999999</ele><time>2026-04-29T21:05:20.136Z</time></trkpt><trkpt lat="8.578875" lon="-71.250335"><ele>1758.1999999999998</ele><time>2026-04-29T21:05:22.083Z</time></trkpt><trkpt lat="8.5788683" lon="-71.2504417"><ele>1756.0</ele><time>2026-04-29T21:05:24.097Z</time></trkpt><trkpt lat="8.578845" lon="-71.2505483"><ele>1755.0</ele><time>2026-04-29T21:05:26.132Z</time></trkpt><trkpt lat="8.5787933" lon="-71.250655"><ele>1754.0</ele><time>2026-04-29T21:05:28.082Z</time></trkpt><trkpt lat="8.5787633" lon="-71.2507117"><ele>1753.0</ele><time>2026-04-29T21:05:29.088Z</time></trkpt><trkpt lat="8.5786967" lon="-71.25082"><ele>1752.0</ele><time>2026-04-29T21:05:31.08Z</time></trkpt><trkpt lat="8.578645" lon="-71.250865"><ele>1751.0</ele><time>2026-04-29T21:05:32.15Z</time></trkpt><trkpt lat="8.5785517" lon="-71.2509483"><ele>1754.6666666666665</ele><time>2026-04-29T21:05:34.088Z</time></trkpt><trkpt lat="8.5785117" lon="-71.251005"><ele>1758.3333333333333</ele><time>2026-04-29T21:05:35.082Z</time></trkpt><trkpt lat="8.578475" lon="-71.251075"><ele>1762.0</ele><time>2026-04-29T21:05:36.077Z</time></trkpt><trkpt lat="8.5784483" lon="-71.25115"><ele>1765.6666666666665</ele><time>2026-04-29T21:05:37.083Z</time></trkpt><trkpt lat="8.57843" lon="-71.2512317"><ele>1769.3333333333333</ele><time>2026-04-29T21:05:38.143Z</time></trkpt><trkpt lat="8.5784133" lon="-71.2513167"><ele>1773.0</ele><time>2026-04-29T21:05:39.088Z</time></trkpt><trkpt lat="8.5784067" lon="-71.251405"><ele>1772.0</ele><time>2026-04-29T21:05:40.087Z</time></trkpt><trkpt lat="8.5784067" lon="-71.251495"><ele>1771.0000000000002</ele><time>2026-04-29T21:05:41.061Z</time></trkpt><trkpt lat="8.5784133" lon="-71.2515883"><ele>1770.0000000000002</ele><time>2026-04-29T21:05:42.078Z</time></trkpt><trkpt lat="8.5784283" lon="-71.25168"><ele>1769.0</ele><time>2026-04-29T21:05:43.084Z</time></trkpt><trkpt lat="8.5784433" lon="-71.2517733"><ele>1768.0</ele><time>2026-04-29T21:05:44.139Z</time></trkpt><trkpt lat="8.5784617" lon="-71.251865"><ele>1768.0</ele><time>2026-04-29T21:05:45.092Z</time></trkpt><trkpt lat="8.5784917" lon="-71.2519533"><ele>1768.0000000000002</ele><time>2026-04-29T21:05:46.066Z</time></trkpt><trkpt lat="8.5785283" lon="-71.2520417"><ele>1768.0000000000002</ele><time>2026-04-29T21:05:47.08Z</time></trkpt><trkpt lat="8.57857" lon="-71.2521283"><ele>1768.0</ele><time>2026-04-29T21:05:48.079Z</time></trkpt><trkpt lat="8.5786167" lon="-71.2522183"><ele>1768.0</ele><time>2026-04-29T21:05:49.077Z</time></trkpt><trkpt lat="8.5786683" lon="-71.2523067"><ele>1763.4</ele><time>2026-04-29T21:05:50.143Z</time></trkpt><trkpt lat="8.5787217" lon="-71.2523867"><ele>1758.8000000000002</ele><time>2026-04-29T21:05:51.083Z</time></trkpt><trkpt lat="8.5787767" lon="-71.25247"><ele>1754.2</ele><time>2026-04-29T21:05:52.041Z</time></trkpt><trkpt lat="8.5788317" lon="-71.2525567"><ele>1749.6</ele><time>2026-04-29T21:05:53.096Z</time></trkpt><trkpt lat="8.57889" lon="-71.2526417"><ele>1745.0</ele><time>2026-04-29T21:05:54.079Z</time></trkpt><trkpt lat="8.5789517" lon="-71.2527217"><ele>1745.0</ele><time>2026-04-29T21:05:55.084Z</time></trkpt><trkpt lat="8.57902" lon="-71.2528017"><ele>1745.0</ele><time>2026-04-29T21:05:56.139Z</time></trkpt><trkpt lat="8.579095" lon="-71.25288"><ele>1745.0</ele><time>2026-04-29T21:05:57.091Z</time></trkpt><trkpt lat="8.5791767" lon="-71.2529467"><ele>1745.0</ele><time>2026-04-29T21:05:58.086Z</time></trkpt><trkpt lat="8.5792717" lon="-71.2529967"><ele>1745.0</ele><time>2026-04-29T21:05:59.083Z</time></trkpt><trkpt lat="8.5793717" lon="-71.253035"><ele>1745.0</ele><time>2026-04-29T21:06:00.081Z</time></trkpt><trkpt lat="8.5794767" lon="-71.2530517"><ele>1745.0</ele><time>2026-04-29T21:06:01.084Z</time></trkpt><trkpt lat="8.5795817" lon="-71.253055"><ele>1745.0</ele><time>2026-04-29T21:06:02.136Z</time></trkpt><trkpt lat="8.579685" lon="-71.2530417"><ele>1745.0</ele><time>2026-04-29T21:06:03.083Z</time></trkpt><trkpt lat="8.5797833" lon="-71.2530267"><ele>1745.0</ele><time>2026-04-29T21:06:04.084Z</time></trkpt><trkpt lat="8.579875" lon="-71.2530117"><ele>1743.3333333333333</ele><time>2026-04-29T21:06:05.089Z</time></trkpt><trkpt lat="8.5799667" lon="-71.2529983"><ele>1741.6666666666665</ele><time>2026-04-29T21:06:06.086Z</time></trkpt><trkpt lat="8.58005" lon="-71.2529833"><ele>1740.0</ele><time>2026-04-29T21:06:07.072Z</time></trkpt><trkpt lat="8.58014" lon="-71.2529733"><ele>1738.3333333333335</ele><time>2026-04-29T21:06:08.136Z</time></trkpt><trkpt lat="8.5802267" lon="-71.2529583"><ele>1736.6666666666667</ele><time>2026-04-29T21:06:09.08Z</time></trkpt><trkpt lat="8.5803133" lon="-71.2529417"><ele>1735.0</ele><time>2026-04-29T21:06:10.083Z</time></trkpt><trkpt lat="8.580405" lon="-71.2529217"><ele>1735.0</ele><time>2026-04-29T21:06:11.118Z</time></trkpt><trkpt lat="8.5804967" lon="-71.2529067"><ele>1735.0</ele><time>2026-04-29T21:06:12.058Z</time></trkpt><trkpt lat="8.5805883" lon="-71.2528933"><ele>1735.0</ele><time>2026-04-29T21:06:13.084Z</time></trkpt><trkpt lat="8.58068" lon="-71.2528783"><ele>1735.0</ele><time>2026-04-29T21:06:14.137Z</time></trkpt><trkpt lat="8.58077" lon="-71.2528617"><ele>1735.0</ele><time>2026-04-29T21:06:15.082Z</time></trkpt><trkpt lat="8.5808567" lon="-71.2528417"><ele>1735.0000000000002</ele><time>2026-04-29T21:06:16.081Z</time></trkpt><trkpt lat="8.5809433" lon="-71.2528267"><ele>1735.0</ele><time>2026-04-29T21:06:17.091Z</time></trkpt><trkpt lat="8.5810283" lon="-71.252815"><ele>1735.0</ele><time>2026-04-29T21:06:18.066Z</time></trkpt><trkpt lat="8.5811133" lon="-71.2528017"><ele>1735.0</ele><time>2026-04-29T21:06:19.089Z</time></trkpt><trkpt lat="8.5811917" lon="-71.25279"><ele>1735.0000000000002</ele><time>2026-04-29T21:06:20.122Z</time></trkpt><trkpt lat="8.5812733" lon="-71.2527733"><ele>1735.0</ele><time>2026-04-29T21:06:21.047Z</time></trkpt><trkpt lat="8.581355" lon="-71.2527617"><ele>1734.1666666666667</ele><time>2026-04-29T21:06:22.086Z</time></trkpt><trkpt lat="8.5814367" lon="-71.25275"><ele>1733.3333333333335</ele><time>2026-04-29T21:06:23.088Z</time></trkpt><trkpt lat="8.58152" lon="-71.252745"><ele>1732.5</ele><time>2026-04-29T21:06:24.084Z</time></trkpt><trkpt lat="8.5816017" lon="-71.25275"><ele>1731.6666666666665</ele><time>2026-04-29T21:06:25.048Z</time></trkpt><trkpt lat="8.5816817" lon="-71.2527617"><ele>1730.8333333333333</ele><time>2026-04-29T21:06:26.152Z</time></trkpt><trkpt lat="8.581755" lon="-71.2527883"><ele>1730.0</ele><time>2026-04-29T21:06:27.085Z</time></trkpt><trkpt lat="8.5818283" lon="-71.2528317"><ele>1729.9999999999998</ele><time>2026-04-29T21:06:28.077Z</time></trkpt><trkpt lat="8.581895" lon="-71.252885"><ele>1730.0</ele><time>2026-04-29T21:06:29.086Z</time></trkpt><trkpt lat="8.5819517" lon="-71.2529483"><ele>1730.0</ele><time>2026-04-29T21:06:30.096Z</time></trkpt><trkpt lat="8.5819933" lon="-71.253025"><ele>1730.0</ele><time>2026-04-29T21:06:31.09Z</time></trkpt><trkpt lat="8.5820267" lon="-71.2531067"><ele>1729.9999999999998</ele><time>2026-04-29T21:06:32.145Z</time></trkpt><trkpt lat="8.58205" lon="-71.2531917"><ele>1730.0</ele><time>2026-04-29T21:06:33.091Z</time></trkpt><trkpt lat="8.5820667" lon="-71.2532817"><ele>1728.0</ele><time>2026-04-29T21:06:34.043Z</time></trkpt><trkpt lat="8.5820767" lon="-71.2533733"><ele>1726.0</ele><time>2026-04-29T21:06:35.082Z</time></trkpt><trkpt lat="8.5820817" lon="-71.2534667"><ele>1724.0</ele><time>2026-04-29T21:06:36.093Z</time></trkpt><trkpt lat="8.5820883" lon="-71.2535583"><ele>1722.0</ele><time>2026-04-29T21:06:37.093Z</time></trkpt><trkpt lat="8.5820983" lon="-71.253655"><ele>1720.0</ele><time>2026-04-29T21:06:38.136Z</time></trkpt><trkpt lat="8.5821133" lon="-71.25375"><ele>1720.0</ele><time>2026-04-29T21:06:39.095Z</time></trkpt><trkpt lat="8.5821417" lon="-71.2538433"><ele>1720.0</ele><time>2026-04-29T21:06:40.094Z</time></trkpt><trkpt lat="8.5821867" lon="-71.2539317"><ele>1720.0</ele><time>2026-04-29T21:06:41.093Z</time></trkpt><trkpt lat="8.58225" lon="-71.25401"><ele>1720.0</ele><time>2026-04-29T21:06:42.088Z</time></trkpt><trkpt lat="8.5823267" lon="-71.2540733"><ele>1720.0</ele><time>2026-04-29T21:06:43.083Z</time></trkpt><trkpt lat="8.5824083" lon="-71.2541267"><ele>1723.4</ele><time>2026-04-29T21:06:44.141Z</time></trkpt><trkpt lat="8.582495" lon="-71.2541733"><ele>1726.8</ele><time>2026-04-29T21:06:45.087Z</time></trkpt><trkpt lat="8.5825817" lon="-71.2542167"><ele>1730.1999999999998</ele><time>2026-04-29T21:06:46.095Z</time></trkpt><trkpt lat="8.5826633" lon="-71.2542583"><ele>1733.6</ele><time>2026-04-29T21:06:47.084Z</time></trkpt><trkpt lat="8.58274" lon="-71.2543017"><ele>1737.0</ele><time>2026-04-29T21:06:48.085Z</time></trkpt><trkpt lat="8.5828117" lon="-71.254355"><ele>1730.3999999999999</ele><time>2026-04-29T21:06:49.077Z</time></trkpt><trkpt lat="8.5828733" lon="-71.2544183"><ele>1723.7999999999997</ele><time>2026-04-29T21:06:50.12Z</time></trkpt><trkpt lat="8.5829283" lon="-71.2544917"><ele>1717.2</ele><time>2026-04-29T21:06:51.097Z</time></trkpt><trkpt lat="8.5829783" lon="-71.25457"><ele>1710.6</ele><time>2026-04-29T21:06:52.091Z</time></trkpt><trkpt lat="8.5830183" lon="-71.2546533"><ele>1704.0</ele><time>2026-04-29T21:06:53.096Z</time></trkpt><trkpt lat="8.5830533" lon="-71.2547367"><ele>1707.4</ele><time>2026-04-29T21:06:54.093Z</time></trkpt><trkpt lat="8.58309" lon="-71.2548233"><ele>1710.8000000000002</ele><time>2026-04-29T21:06:55.042Z</time></trkpt><trkpt lat="8.583125" lon="-71.2549083"><ele>1714.1999999999998</ele><time>2026-04-29T21:06:56.14Z</time></trkpt><trkpt lat="8.58316" lon="-71.2549967"><ele>1717.6</ele><time>2026-04-29T21:06:57.088Z</time></trkpt><trkpt lat="8.5831917" lon="-71.2550867"><ele>1721.0</ele><time>2026-04-29T21:06:58.081Z</time></trkpt><trkpt lat="8.5832233" lon="-71.2551767"><ele>1721.0</ele><time>2026-04-29T21:06:59.072Z</time></trkpt><trkpt lat="8.5832533" lon="-71.2552683"><ele>1721.0</ele><time>2026-04-29T21:07:00.088Z</time></trkpt><trkpt lat="8.58329" lon="-71.2553583"><ele>1721.0</ele><time>2026-04-29T21:07:01.075Z</time></trkpt><trkpt lat="8.5833317" lon="-71.2554433"><ele>1721.0</ele><time>2026-04-29T21:07:02.14Z</time></trkpt><trkpt lat="8.5833817" lon="-71.25552"><ele>1721.0</ele><time>2026-04-29T21:07:03.088Z</time></trkpt><trkpt lat="8.5834383" lon="-71.2555867"><ele>1721.9999999999998</ele><time>2026-04-29T21:07:04.082Z</time></trkpt><trkpt lat="8.5834983" lon="-71.25564"><ele>1723.0</ele><time>2026-04-29T21:07:05.076Z</time></trkpt><trkpt lat="8.58357" lon="-71.2556867"><ele>1724.0</ele><time>2026-04-29T21:07:06.083Z</time></trkpt><trkpt lat="8.5836483" lon="-71.2557117"><ele>1725.0</ele><time>2026-04-29T21:07:07.088Z</time></trkpt><trkpt lat="8.5837267" lon="-71.2557217"><ele>1725.9999999999998</ele><time>2026-04-29T21:07:08.136Z</time></trkpt><trkpt lat="8.5838067" lon="-71.255715"><ele>1727.0</ele><time>2026-04-29T21:07:09.088Z</time></trkpt><trkpt lat="8.5838767" lon="-71.2556917"><ele>1726.9999999999998</ele><time>2026-04-29T21:07:10.083Z</time></trkpt><trkpt lat="8.5839417" lon="-71.2556617"><ele>1727.0</ele><time>2026-04-29T21:07:11.078Z</time></trkpt><trkpt lat="8.5839983" lon="-71.255625"><ele>1727.0</ele><time>2026-04-29T21:07:12.072Z</time></trkpt><trkpt lat="8.5840483" lon="-71.2555817"><ele>1727.0</ele><time>2026-04-29T21:07:13.076Z</time></trkpt><trkpt lat="8.5841333" lon="-71.255495"><ele>1726.9999999999998</ele><time>2026-04-29T21:07:15.111Z</time></trkpt><trkpt lat="8.58421" lon="-71.2554183"><ele>1727.0</ele><time>2026-04-29T21:07:17.073Z</time></trkpt><trkpt lat="8.58428" lon="-71.2553567"><ele>1727.6666666666665</ele><time>2026-04-29T21:07:19.096Z</time></trkpt><trkpt lat="8.5843483" lon="-71.25531"><ele>1728.3333333333333</ele><time>2026-04-29T21:07:21.082Z</time></trkpt><trkpt lat="8.584415" lon="-71.2552683"><ele>1729.0</ele><time>2026-04-29T21:07:23.084Z</time></trkpt><trkpt lat="8.5844717" lon="-71.255225"><ele>1729.6666666666665</ele><time>2026-04-29T21:07:25.092Z</time></trkpt><trkpt lat="8.58452" lon="-71.25518"><ele>1730.3333333333333</ele><time>2026-04-29T21:07:27.085Z</time></trkpt><trkpt lat="8.58459" lon="-71.2551283"><ele>1731.0</ele><time>2026-04-29T21:07:30.089Z</time></trkpt><trkpt lat="8.5846517" lon="-71.2550783"><ele>1731.0</ele><time>2026-04-29T21:07:33.08Z</time></trkpt><trkpt lat="8.5847117" lon="-71.2550217"><ele>1731.0</ele><time>2026-04-29T21:07:36.077Z</time></trkpt><trkpt lat="8.58477" lon="-71.2549683"><ele>1731.0</ele><time>2026-04-29T21:07:39.082Z</time></trkpt><trkpt lat="8.5848283" lon="-71.2549117"><ele>1731.0</ele><time>2026-04-29T21:07:42.1Z</time></trkpt><trkpt lat="8.5848967" lon="-71.2548633"><ele>1731.0</ele><time>2026-04-29T21:07:45.087Z</time></trkpt><trkpt lat="8.58496" lon="-71.25481"><ele>1731.0</ele><time>2026-04-29T21:07:48.087Z</time></trkpt><trkpt lat="8.5850233" lon="-71.2547583"><ele>1731.5</ele><time>2026-04-29T21:07:51.06Z</time></trkpt><trkpt lat="8.58509" lon="-71.2547083"><ele>1732.0</ele><time>2026-04-29T21:07:54.071Z</time></trkpt><trkpt lat="8.5851567" lon="-71.254655"><ele>1732.5</ele><time>2026-04-29T21:07:57.085Z</time></trkpt><trkpt lat="8.5852083" lon="-71.254615"><ele>1733.0</ele><time>2026-04-29T21:07:59.082Z</time></trkpt><trkpt lat="8.5852817" lon="-71.2545617"><ele>1733.5</ele><time>2026-04-29T21:08:02.119Z</time></trkpt><trkpt lat="8.5853533" lon="-71.2545117"><ele>1734.0</ele><time>2026-04-29T21:08:05.095Z</time></trkpt><trkpt lat="8.585425" lon="-71.254455"><ele>1734.0</ele><time>2026-04-29T21:08:08.139Z</time></trkpt><trkpt lat="8.5854933" lon="-71.2543967"><ele>1734.0</ele><time>2026-04-29T21:08:11.084Z</time></trkpt><trkpt lat="8.585555" lon="-71.254355"><ele>1734.0</ele><time>2026-04-29T21:08:14.112Z</time></trkpt><trkpt lat="8.5856133" lon="-71.2543117"><ele>1734.0</ele><time>2026-04-29T21:08:17.078Z</time></trkpt><trkpt lat="8.5856783" lon="-71.2542583"><ele>1734.0</ele><time>2026-04-29T21:08:20.158Z</time></trkpt><trkpt lat="8.585745" lon="-71.2541983"><ele>1734.0</ele><time>2026-04-29T21:08:23.09Z</time></trkpt><trkpt lat="8.5857967" lon="-71.2541517"><ele>1734.0</ele><time>2026-04-29T21:08:25.079Z</time></trkpt><trkpt lat="8.585845" lon="-71.25411"><ele>1734.0</ele><time>2026-04-29T21:08:27.081Z</time></trkpt><trkpt lat="8.5858917" lon="-71.25406"><ele>1734.0</ele><time>2026-04-29T21:08:29.079Z</time></trkpt><trkpt lat="8.5859517" lon="-71.2539883"><ele>1734.0</ele><time>2026-04-29T21:08:32.135Z</time></trkpt><trkpt lat="8.585995" lon="-71.2539367"><ele>1734.0</ele><time>2026-04-29T21:08:34.08Z</time></trkpt><trkpt lat="8.5860467" lon="-71.2538583"><ele>1734.0</ele><time>2026-04-29T21:08:37.092Z</time></trkpt><trkpt lat="8.586085" lon="-71.2538017"><ele>1732.0</ele><time>2026-04-29T21:08:39.077Z</time></trkpt><trkpt lat="8.5861217" lon="-71.2537483"><ele>1730.0</ele><time>2026-04-29T21:08:41.086Z</time></trkpt><trkpt lat="8.5861633" lon="-71.25369"><ele>1728.0</ele><time>2026-04-29T21:08:43.093Z</time></trkpt><trkpt lat="8.5862" lon="-71.253625"><ele>1726.0</ele><time>2026-04-29T21:08:45.089Z</time></trkpt><trkpt lat="8.5862417" lon="-71.2535467"><ele>1724.0</ele><time>2026-04-29T21:08:47.083Z</time></trkpt><trkpt lat="8.5862783" lon="-71.2534667"><ele>1722.0</ele><time>2026-04-29T21:08:49.08Z</time></trkpt><trkpt lat="8.586315" lon="-71.2533933"><ele>1726.3333333333333</ele><time>2026-04-29T21:08:51.08Z</time></trkpt><trkpt lat="8.5863433" lon="-71.2533167"><ele>1730.6666666666665</ele><time>2026-04-29T21:08:53.085Z</time></trkpt><trkpt lat="8.5863683" lon="-71.25324"><ele>1735.0</ele><time>2026-04-29T21:08:55.087Z</time></trkpt><trkpt lat="8.5863917" lon="-71.25317"><ele>1739.3333333333333</ele><time>2026-04-29T21:08:57.087Z</time></trkpt><trkpt lat="8.5864067" lon="-71.2530933"><ele>1743.6666666666665</ele><time>2026-04-29T21:08:59.068Z</time></trkpt><trkpt lat="8.5864217" lon="-71.253015"><ele>1748.0</ele><time>2026-04-29T21:09:01.099Z</time></trkpt><trkpt lat="8.5864367" lon="-71.2529317"><ele>1748.0</ele><time>2026-04-29T21:09:03.093Z</time></trkpt><trkpt lat="8.5864467" lon="-71.2528467"><ele>1748.0000000000002</ele><time>2026-04-29T21:09:05.076Z</time></trkpt><trkpt lat="8.5864467" lon="-71.2527583"><ele>1748.0000000000002</ele><time>2026-04-29T21:09:07.09Z</time></trkpt><trkpt lat="8.586445" lon="-71.252665"><ele>1748.0</ele><time>2026-04-29T21:09:09.083Z</time></trkpt><trkpt lat="8.5864367" lon="-71.2525683"><ele>1748.0</ele><time>2026-04-29T21:09:11.088Z</time></trkpt><trkpt lat="8.5864267" lon="-71.252475"><ele>1748.0</ele><time>2026-04-29T21:09:13.081Z</time></trkpt><trkpt lat="8.5864167" lon="-71.2523833"><ele>1748.0000000000002</ele><time>2026-04-29T21:09:15.081Z</time></trkpt><trkpt lat="8.5864" lon="-71.2522833"><ele>1748.0000000000002</ele><time>2026-04-29T21:09:17.094Z</time></trkpt><trkpt lat="8.586375" lon="-71.2521783"><ele>1748.0</ele><time>2026-04-29T21:09:19.082Z</time></trkpt><trkpt lat="8.58636" lon="-71.2520717"><ele>1748.0</ele><time>2026-04-29T21:09:21.099Z</time></trkpt><trkpt lat="8.5863467" lon="-71.2519633"><ele>1745.8000000000002</ele><time>2026-04-29T21:09:23.08Z</time></trkpt><trkpt lat="8.58633" lon="-71.2518583"><ele>1743.6000000000001</ele><time>2026-04-29T21:09:25.078Z</time></trkpt><trkpt lat="8.5863183" lon="-71.2517483"><ele>1741.3999999999999</ele><time>2026-04-29T21:09:27.096Z</time></trkpt><trkpt lat="8.586305" lon="-71.25165"><ele>1739.1999999999998</ele><time>2026-04-29T21:09:29.07Z</time></trkpt><trkpt lat="8.5863017" lon="-71.2515567"><ele>1737.0</ele><time>2026-04-29T21:09:31.064Z</time></trkpt><trkpt lat="8.586305" lon="-71.2514667"><ele>1733.6666666666667</ele><time>2026-04-29T21:09:33.055Z</time></trkpt><trkpt lat="8.5863267" lon="-71.25136"><ele>1730.3333333333335</ele><time>2026-04-29T21:09:35.099Z</time></trkpt><trkpt lat="8.5863667" lon="-71.2512433"><ele>1727.0</ele><time>2026-04-29T21:09:37.084Z</time></trkpt><trkpt lat="8.5863967" lon="-71.2511867"><ele>1723.6666666666667</ele><time>2026-04-29T21:09:38.134Z</time></trkpt><trkpt lat="8.5864317" lon="-71.25113"><ele>1720.3333333333335</ele><time>2026-04-29T21:09:39.083Z</time></trkpt><trkpt lat="8.5864683" lon="-71.2510767"><ele>1717.0</ele><time>2026-04-29T21:09:40.083Z</time></trkpt><trkpt lat="8.58651" lon="-71.2510217"><ele>1717.0</ele><time>2026-04-29T21:09:41.082Z</time></trkpt><trkpt lat="8.5865533" lon="-71.2509683"><ele>1717.0</ele><time>2026-04-29T21:09:42.086Z</time></trkpt><trkpt lat="8.5865983" lon="-71.2509133"><ele>1717.0</ele><time>2026-04-29T21:09:43.085Z</time></trkpt><trkpt lat="8.5866483" lon="-71.25086"><ele>1717.0</ele><time>2026-04-29T21:09:44.117Z</time></trkpt><trkpt lat="8.5866967" lon="-71.250805"><ele>1717.0</ele><time>2026-04-29T21:09:45.089Z</time></trkpt><trkpt lat="8.5867467" lon="-71.25075"><ele>1717.0</ele><time>2026-04-29T21:09:46.075Z</time></trkpt><trkpt lat="8.5867967" lon="-71.2506967"><ele>1717.0</ele><time>2026-04-29T21:09:47.059Z</time></trkpt><trkpt lat="8.58685" lon="-71.2506433"><ele>1716.7142857142858</ele><time>2026-04-29T21:09:48.086Z</time></trkpt><trkpt lat="8.5869033" lon="-71.2505917"><ele>1716.4285714285713</ele><time>2026-04-29T21:09:49.069Z</time></trkpt><trkpt lat="8.5869533" lon="-71.2505383"><ele>1716.142857142857</ele><time>2026-04-29T21:09:50.14Z</time></trkpt><trkpt lat="8.587005" lon="-71.2504867"><ele>1715.857142857143</ele><time>2026-04-29T21:09:51.078Z</time></trkpt><trkpt lat="8.587055" lon="-71.250435"><ele>1715.5714285714284</ele><time>2026-04-29T21:09:52.081Z</time></trkpt><trkpt lat="8.5871083" lon="-71.2503833"><ele>1715.2857142857142</ele><time>2026-04-29T21:09:53.091Z</time></trkpt><trkpt lat="8.58716" lon="-71.2503317"><ele>1715.0</ele><time>2026-04-29T21:09:54.089Z</time></trkpt><trkpt lat="8.5872117" lon="-71.25028"><ele>1715.0</ele><time>2026-04-29T21:09:55.085Z</time></trkpt><trkpt lat="8.5872617" lon="-71.25023"><ele>1715.0</ele><time>2026-04-29T21:09:56.143Z</time></trkpt><trkpt lat="8.5873133" lon="-71.2501783"><ele>1715.0</ele><time>2026-04-29T21:09:57.09Z</time></trkpt><trkpt lat="8.587365" lon="-71.250125"><ele>1715.0</ele><time>2026-04-29T21:09:58.089Z</time></trkpt><trkpt lat="8.5874183" lon="-71.2500717"><ele>1715.0</ele><time>2026-04-29T21:09:59.094Z</time></trkpt><trkpt lat="8.58747" lon="-71.2500183"><ele>1715.0</ele><time>2026-04-29T21:10:00.089Z</time></trkpt><trkpt lat="8.5875217" lon="-71.2499667"><ele>1715.0</ele><time>2026-04-29T21:10:01.089Z</time></trkpt><trkpt lat="8.587575" lon="-71.2499117"><ele>1714.9999999999998</ele><time>2026-04-29T21:10:02.135Z</time></trkpt><trkpt lat="8.5876283" lon="-71.249855"><ele>1715.0</ele><time>2026-04-29T21:10:03.09Z</time></trkpt><trkpt lat="8.5876833" lon="-71.2497983"><ele>1715.0</ele><time>2026-04-29T21:10:04.07Z</time></trkpt><trkpt lat="8.5877367" lon="-71.2497417"><ele>1715.0</ele><time>2026-04-29T21:10:05.084Z</time></trkpt><trkpt lat="8.58779" lon="-71.2496867"><ele>1714.9999999999998</ele><time>2026-04-29T21:10:06.086Z</time></trkpt><trkpt lat="8.5878417" lon="-71.24963"><ele>1715.0</ele><time>2026-04-29T21:10:07.035Z</time></trkpt><trkpt lat="8.587895" lon="-71.2495767"><ele>1714.1666666666665</ele><time>2026-04-29T21:10:08.107Z</time></trkpt><trkpt lat="8.587945" lon="-71.2495217"><ele>1713.3333333333333</ele><time>2026-04-29T21:10:09.07Z</time></trkpt><trkpt lat="8.5879967" lon="-71.2494667"><ele>1712.5</ele><time>2026-04-29T21:10:10.087Z</time></trkpt><trkpt lat="8.5880533" lon="-71.24941"><ele>1711.6666666666665</ele><time>2026-04-29T21:10:11.079Z</time></trkpt><trkpt lat="8.5881083" lon="-71.2493567"><ele>1710.8333333333333</ele><time>2026-04-29T21:10:12.074Z</time></trkpt><trkpt lat="8.5881633" lon="-71.249305"><ele>1710.0</ele><time>2026-04-29T21:10:13.083Z</time></trkpt><trkpt lat="8.5882183" lon="-71.2492467"><ele>1710.0</ele><time>2026-04-29T21:10:14.139Z</time></trkpt><trkpt lat="8.5882717" lon="-71.2491917"><ele>1710.0</ele><time>2026-04-29T21:10:15.085Z</time></trkpt><trkpt lat="8.588325" lon="-71.2491367"><ele>1710.0</ele><time>2026-04-29T21:10:16.074Z</time></trkpt><trkpt lat="8.5883783" lon="-71.2490817"><ele>1710.0</ele><time>2026-04-29T21:10:17.069Z</time></trkpt><trkpt lat="8.58843" lon="-71.2490233"><ele>1710.0</ele><time>2026-04-29T21:10:18.085Z</time></trkpt><trkpt lat="8.5884783" lon="-71.248965"><ele>1710.0</ele><time>2026-04-29T21:10:19.064Z</time></trkpt><trkpt lat="8.5885217" lon="-71.2488967"><ele>1709.1666666666667</ele><time>2026-04-29T21:10:20.147Z</time></trkpt><trkpt lat="8.5885533" lon="-71.248825"><ele>1708.3333333333335</ele><time>2026-04-29T21:10:21.081Z</time></trkpt><trkpt lat="8.5885833" lon="-71.2487533"><ele>1707.5</ele><time>2026-04-29T21:10:22.094Z</time></trkpt><trkpt lat="8.5886167" lon="-71.24868"><ele>1706.6666666666667</ele><time>2026-04-29T21:10:23.077Z</time></trkpt><trkpt lat="8.5886467" lon="-71.2486067"><ele>1705.8333333333335</ele><time>2026-04-29T21:10:24.083Z</time></trkpt><trkpt lat="8.588675" lon="-71.2485333"><ele>1705.0</ele><time>2026-04-29T21:10:25.088Z</time></trkpt><trkpt lat="8.5887033" lon="-71.2484617"><ele>1705.0000000000002</ele><time>2026-04-29T21:10:26.13Z</time></trkpt><trkpt lat="8.5887333" lon="-71.24839"><ele>1705.0</ele><time>2026-04-29T21:10:27.089Z</time></trkpt><trkpt lat="8.5887583" lon="-71.2483217"><ele>1705.0</ele><time>2026-04-29T21:10:28.084Z</time></trkpt><trkpt lat="8.58878" lon="-71.2482533"><ele>1705.0</ele><time>2026-04-29T21:10:29.105Z</time></trkpt><trkpt lat="8.5888" lon="-71.248185"><ele>1705.0</ele><time>2026-04-29T21:10:30.103Z</time></trkpt><trkpt lat="8.58882" lon="-71.2481183"><ele>1705.0000000000002</ele><time>2026-04-29T21:10:31.089Z</time></trkpt><trkpt lat="8.5888417" lon="-71.248055"><ele>1705.0</ele><time>2026-04-29T21:10:32.138Z</time></trkpt><trkpt lat="8.5888617" lon="-71.2479917"><ele>1706.3333333333335</ele><time>2026-04-29T21:10:33.086Z</time></trkpt><trkpt lat="8.58888" lon="-71.2478867"><ele>1707.6666666666667</ele><time>2026-04-29T21:10:35.085Z</time></trkpt><trkpt lat="8.58888" lon="-71.247795"><ele>1709.0</ele><time>2026-04-29T21:10:37.085Z</time></trkpt><trkpt lat="8.588875" lon="-71.24772"><ele>1710.3333333333335</ele><time>2026-04-29T21:10:39.084Z</time></trkpt><trkpt lat="8.5888633" lon="-71.2476417"><ele>1711.6666666666667</ele><time>2026-04-29T21:10:41.077Z</time></trkpt><trkpt lat="8.5888433" lon="-71.2475717"><ele>1713.0</ele><time>2026-04-29T21:10:43.083Z</time></trkpt><trkpt lat="8.5888117" lon="-71.2475017"><ele>1713.0</ele><time>2026-04-29T21:10:45.086Z</time></trkpt><trkpt lat="8.5887683" lon="-71.247435"><ele>1713.0</ele><time>2026-04-29T21:10:47.08Z</time></trkpt><trkpt lat="8.5887167" lon="-71.2473817"><ele>1713.0</ele><time>2026-04-29T21:10:49.075Z</time></trkpt><trkpt lat="8.5886433" lon="-71.247325"><ele>1713.0</ele><time>2026-04-29T21:10:52.082Z</time></trkpt><trkpt lat="8.5885833" lon="-71.247295"><ele>1713.0</ele><time>2026-04-29T21:10:54.089Z</time></trkpt><trkpt lat="8.5885067" lon="-71.24727"><ele>1713.0</ele><time>2026-04-29T21:10:57.069Z</time></trkpt><trkpt lat="8.5884333" lon="-71.24725"><ele>1714.5714285714284</ele><time>2026-04-29T21:11:00.09Z</time></trkpt><trkpt lat="8.5883617" lon="-71.247225"><ele>1716.1428571428573</ele><time>2026-04-29T21:11:03.087Z</time></trkpt><trkpt lat="8.58829" lon="-71.247205"><ele>1717.7142857142858</ele><time>2026-04-29T21:11:06.09Z</time></trkpt><trkpt lat="8.5882233" lon="-71.247195"><ele>1719.2857142857142</ele><time>2026-04-29T21:11:09.087Z</time></trkpt><trkpt lat="8.58816" lon="-71.2471917"><ele>1720.8571428571427</ele><time>2026-04-29T21:11:12.093Z</time></trkpt><trkpt lat="8.588085" lon="-71.2471817"><ele>1722.4285714285716</ele><time>2026-04-29T21:11:15.082Z</time></trkpt><trkpt lat="8.5880167" lon="-71.2471633"><ele>1724.0</ele><time>2026-04-29T21:11:18.1Z</time></trkpt><trkpt lat="8.5879483" lon="-71.2471433"><ele>1724.0</ele><time>2026-04-29T21:11:21.087Z</time></trkpt><trkpt lat="8.5878767" lon="-71.24712"><ele>1724.0</ele><time>2026-04-29T21:11:24.09Z</time></trkpt><trkpt lat="8.5878167" lon="-71.2471"><ele>1724.0</ele><time>2026-04-29T21:11:27.066Z</time></trkpt><trkpt lat="8.58775" lon="-71.2470667"><ele>1724.0</ele><time>2026-04-29T21:11:31.088Z</time></trkpt><trkpt lat="8.587675" lon="-71.2470267"><ele>1724.0</ele><time>2026-04-29T21:11:35.079Z</time></trkpt><trkpt lat="8.5876233" lon="-71.2469867"><ele>1724.0</ele><time>2026-04-29T21:11:38.154Z</time></trkpt><trkpt lat="8.58756" lon="-71.2469367"><ele>1724.0</ele><time>2026-04-29T21:11:42.087Z</time></trkpt><trkpt lat="8.587515" lon="-71.24689"><ele>1723.7142857142858</ele><time>2026-04-29T21:11:45.081Z</time></trkpt><trkpt lat="8.587475" lon="-71.2468283"><ele>1723.4285714285713</ele><time>2026-04-29T21:11:48.078Z</time></trkpt><trkpt lat="8.5874383" lon="-71.24677"><ele>1723.142857142857</ele><time>2026-04-29T21:11:51.08Z</time></trkpt><trkpt lat="8.5874033" lon="-71.2467067"><ele>1722.857142857143</ele><time>2026-04-29T21:11:54.085Z</time></trkpt><trkpt lat="8.5873817" lon="-71.2466433"><ele>1722.5714285714284</ele><time>2026-04-29T21:11:57.089Z</time></trkpt><trkpt lat="8.5873583" lon="-71.2465833"><ele>1722.2857142857142</ele><time>2026-04-29T21:12:00.09Z</time></trkpt><trkpt lat="8.5873417" lon="-71.2465117"><ele>1722.0</ele><time>2026-04-29T21:12:03.077Z</time></trkpt><trkpt lat="8.5873283" lon="-71.2464283"><ele>1722.0</ele><time>2026-04-29T21:12:07.085Z</time></trkpt><trkpt lat="8.587325" lon="-71.24636"><ele>1722.0</ele><time>2026-04-29T21:12:10.096Z</time></trkpt><trkpt lat="8.5873183" lon="-71.24629"><ele>1722.0</ele><time>2026-04-29T21:12:13.084Z</time></trkpt><trkpt lat="8.5873117" lon="-71.24622"><ele>1722.0</ele><time>2026-04-29T21:12:16.091Z</time></trkpt><trkpt lat="8.5873033" lon="-71.2461433"><ele>1722.0</ele><time>2026-04-29T21:12:21.095Z</time></trkpt><trkpt lat="8.58732" lon="-71.24607"><ele>1722.0</ele><time>2026-04-29T21:12:25.086Z</time></trkpt><trkpt lat="8.58734" lon="-71.2459883"><ele>1722.0</ele><time>2026-04-29T21:12:28.088Z</time></trkpt><trkpt lat="8.587345" lon="-71.2459133"><ele>1722.0</ele><time>2026-04-29T21:12:31.08Z</time></trkpt><trkpt lat="8.5873483" lon="-71.2458433"><ele>1722.0</ele><time>2026-04-29T21:12:34.05Z</time></trkpt><trkpt lat="8.58735" lon="-71.2457717"><ele>1722.0</ele><time>2026-04-29T21:12:37.084Z</time></trkpt><trkpt lat="8.5873533" lon="-71.245695"><ele>1722.0</ele><time>2026-04-29T21:12:40.087Z</time></trkpt><trkpt lat="8.5873617" lon="-71.2456183"><ele>1722.0</ele><time>2026-04-29T21:12:43.087Z</time></trkpt><trkpt lat="8.5873733" lon="-71.245545"><ele>1722.0</ele><time>2026-04-29T21:12:46.078Z</time></trkpt><trkpt lat="8.5873717" lon="-71.2454617"><ele>1722.0</ele><time>2026-04-29T21:12:50.123Z</time></trkpt><trkpt lat="8.5873717" lon="-71.2453883"><ele>1722.6666666666667</ele><time>2026-04-29T21:12:53.084Z</time></trkpt><trkpt lat="8.587375" lon="-71.2453183"><ele>1723.3333333333335</ele><time>2026-04-29T21:12:56.158Z</time></trkpt><trkpt lat="8.5873767" lon="-71.2452483"><ele>1724.0</ele><time>2026-04-29T21:12:59.097Z</time></trkpt><trkpt lat="8.58737" lon="-71.2451633"><ele>1724.6666666666667</ele><time>2026-04-29T21:13:02.138Z</time></trkpt><trkpt lat="8.5873483" lon="-71.2450817"><ele>1725.3333333333335</ele><time>2026-04-29T21:13:05.081Z</time></trkpt><trkpt lat="8.5873183" lon="-71.2450017"><ele>1726.0</ele><time>2026-04-29T21:13:08.144Z</time></trkpt><trkpt lat="8.58729" lon="-71.2449267"><ele>1726.0000000000002</ele><time>2026-04-29T21:13:11.089Z</time></trkpt><trkpt lat="8.58726" lon="-71.244845"><ele>1726.0</ele><time>2026-04-29T21:13:14.139Z</time></trkpt><trkpt lat="8.5872317" lon="-71.244785"><ele>1726.0</ele><time>2026-04-29T21:13:17.076Z</time></trkpt><trkpt lat="8.5871767" lon="-71.2447267"><ele>1726.0</ele><time>2026-04-29T21:13:21.089Z</time></trkpt><trkpt lat="8.5871217" lon="-71.2446717"><ele>1726.0000000000002</ele><time>2026-04-29T21:13:25.059Z</time></trkpt><trkpt lat="8.5870817" lon="-71.24461"><ele>1726.0</ele><time>2026-04-29T21:13:29.067Z</time></trkpt><trkpt lat="8.5870317" lon="-71.2445583"><ele>1729.7142857142858</ele><time>2026-04-29T21:13:33.087Z</time></trkpt><trkpt lat="8.5869817" lon="-71.24451"><ele>1733.4285714285716</ele><time>2026-04-29T21:13:37.077Z</time></trkpt><trkpt lat="8.5869317" lon="-71.244465"><ele>1737.1428571428573</ele><time>2026-04-29T21:13:42.081Z</time></trkpt><trkpt lat="8.586865" lon="-71.2444217"><ele>1740.857142857143</ele><time>2026-04-29T21:13:46.082Z</time></trkpt><trkpt lat="8.5867967" lon="-71.244395"><ele>1744.5714285714284</ele><time>2026-04-29T21:13:50.134Z</time></trkpt><trkpt lat="8.586735" lon="-71.2443717"><ele>1748.2857142857144</ele><time>2026-04-29T21:13:54.095Z</time></trkpt><trkpt lat="8.5866633" lon="-71.2443567"><ele>1752.0</ele><time>2026-04-29T21:13:58.081Z</time></trkpt><trkpt lat="8.5865983" lon="-71.2443467"><ele>1752.0</ele><time>2026-04-29T21:14:01.083Z</time></trkpt><trkpt lat="8.5865183" lon="-71.24435"><ele>1752.0</ele><time>2026-04-29T21:14:05.091Z</time></trkpt><trkpt lat="8.5864483" lon="-71.2443517"><ele>1752.0</ele><time>2026-04-29T21:14:08.132Z</time></trkpt><trkpt lat="8.5863717" lon="-71.2443667"><ele>1752.0</ele><time>2026-04-29T21:14:12.078Z</time></trkpt><trkpt lat="8.5862917" lon="-71.2443833"><ele>1752.0</ele><time>2026-04-29T21:14:16.079Z</time></trkpt><trkpt lat="8.58623" lon="-71.2444033"><ele>1752.0</ele><time>2026-04-29T21:14:19.099Z</time></trkpt><trkpt lat="8.5861667" lon="-71.244415"><ele>1752.0</ele><time>2026-04-29T21:14:22.089Z</time></trkpt><trkpt lat="8.5860883" lon="-71.2444333"><ele>1753.0</ele><time>2026-04-29T21:14:26.148Z</time></trkpt><trkpt lat="8.5860283" lon="-71.2444533"><ele>1754.0</ele><time>2026-04-29T21:14:29.081Z</time></trkpt><trkpt lat="8.585965" lon="-71.244475"><ele>1755.0</ele><time>2026-04-29T21:14:32.134Z</time></trkpt><trkpt lat="8.5858967" lon="-71.24449"><ele>1756.0</ele><time>2026-04-29T21:14:35.11Z</time></trkpt><trkpt lat="8.5858217" lon="-71.2445183"><ele>1757.0</ele><time>2026-04-29T21:14:39.061Z</time></trkpt><trkpt lat="8.585745" lon="-71.2445333"><ele>1758.0</ele><time>2026-04-29T21:14:43.081Z</time></trkpt><trkpt lat="8.58567" lon="-71.2445533"><ele>1759.0</ele><time>2026-04-29T21:14:47.084Z</time></trkpt><trkpt lat="8.5855933" lon="-71.2445683"><ele>1759.0000000000002</ele><time>2026-04-29T21:14:51.102Z</time></trkpt><trkpt lat="8.58552" lon="-71.2445967"><ele>1759.0</ele><time>2026-04-29T21:14:55.075Z</time></trkpt><trkpt lat="8.585455" lon="-71.2446133"><ele>1759.0</ele><time>2026-04-29T21:14:58.08Z</time></trkpt><trkpt lat="8.5853767" lon="-71.2446317"><ele>1759.0</ele><time>2026-04-29T21:15:02.134Z</time></trkpt><trkpt lat="8.5853083" lon="-71.244655"><ele>1759.0000000000002</ele><time>2026-04-29T21:15:06.07Z</time></trkpt><trkpt lat="8.585235" lon="-71.2446883"><ele>1759.0</ele><time>2026-04-29T21:15:10.08Z</time></trkpt><trkpt lat="8.585165" lon="-71.2447167"><ele>1759.8333333333335</ele><time>2026-04-29T21:15:14.141Z</time></trkpt><trkpt lat="8.5850967" lon="-71.244745"><ele>1760.6666666666667</ele><time>2026-04-29T21:15:18.086Z</time></trkpt><trkpt lat="8.5850283" lon="-71.244765"><ele>1761.5</ele><time>2026-04-29T21:15:22.08Z</time></trkpt><trkpt lat="8.5849517" lon="-71.2447783"><ele>1762.3333333333335</ele><time>2026-04-29T21:15:26.143Z</time></trkpt><trkpt lat="8.58487" lon="-71.24479"><ele>1763.1666666666667</ele><time>2026-04-29T21:15:30.053Z</time></trkpt><trkpt lat="8.5847883" lon="-71.244795"><ele>1764.0</ele><time>2026-04-29T21:15:34.091Z</time></trkpt><trkpt lat="8.5847067" lon="-71.2448017"><ele>1764.0</ele><time>2026-04-29T21:15:38.138Z</time></trkpt><trkpt lat="8.5846417" lon="-71.2448033"><ele>1764.0</ele><time>2026-04-29T21:15:41.089Z</time></trkpt><trkpt lat="8.58456" lon="-71.2447933"><ele>1764.0</ele><time>2026-04-29T21:15:45.08Z</time></trkpt><trkpt lat="8.584475" lon="-71.2447833"><ele>1764.0</ele><time>2026-04-29T21:15:49.089Z</time></trkpt><trkpt lat="8.5844117" lon="-71.2447717"><ele>1764.0</ele><time>2026-04-29T21:15:52.063Z</time></trkpt><trkpt lat="8.584345" lon="-71.2447583"><ele>1764.0</ele><time>2026-04-29T21:15:55.085Z</time></trkpt><trkpt lat="8.584265" lon="-71.24475"><ele>1764.0</ele><time>2026-04-29T21:15:58.079Z</time></trkpt><trkpt lat="8.58418" lon="-71.24474"><ele>1765.3333333333333</ele><time>2026-04-29T21:16:01.084Z</time></trkpt><trkpt lat="8.584095" lon="-71.244725"><ele>1766.6666666666665</ele><time>2026-04-29T21:16:04.086Z</time></trkpt><trkpt lat="8.5840133" lon="-71.2446983"><ele>1768.0</ele><time>2026-04-29T21:16:07.085Z</time></trkpt><trkpt lat="8.5839533" lon="-71.2446783"><ele>1769.3333333333333</ele><time>2026-04-29T21:16:09.093Z</time></trkpt><trkpt lat="8.5838617" lon="-71.244655"><ele>1770.6666666666665</ele><time>2026-04-29T21:16:12.086Z</time></trkpt><trkpt lat="8.5837983" lon="-71.24464"><ele>1772.0</ele><time>2026-04-29T21:16:14.136Z</time></trkpt><trkpt lat="8.5837333" lon="-71.2446267"><ele>1769.5714285714287</ele><time>2026-04-29T21:16:16.094Z</time></trkpt><trkpt lat="8.58364" lon="-71.2446133"><ele>1767.1428571428573</ele><time>2026-04-29T21:16:19.083Z</time></trkpt><trkpt lat="8.5835733" lon="-71.2446033"><ele>1764.7142857142858</ele><time>2026-04-29T21:16:21.057Z</time></trkpt><trkpt lat="8.5835083" lon="-71.244595"><ele>1762.2857142857142</ele><time>2026-04-29T21:16:23.082Z</time></trkpt><trkpt lat="8.583445" lon="-71.2445833"><ele>1759.857142857143</ele><time>2026-04-29T21:16:25.051Z</time></trkpt><trkpt lat="8.58337" lon="-71.2445783"><ele>1757.4285714285713</ele><time>2026-04-29T21:16:27.094Z</time></trkpt><trkpt lat="8.5832983" lon="-71.244565"><ele>1755.0</ele><time>2026-04-29T21:16:29.083Z</time></trkpt><trkpt lat="8.5832333" lon="-71.2445417"><ele>1755.0</ele><time>2026-04-29T21:16:31.044Z</time></trkpt><trkpt lat="8.58317" lon="-71.2445217"><ele>1755.0</ele><time>2026-04-29T21:16:33.054Z</time></trkpt><trkpt lat="8.583105" lon="-71.2444917"><ele>1755.0</ele><time>2026-04-29T21:16:35.072Z</time></trkpt><trkpt lat="8.583045" lon="-71.24445"><ele>1755.0</ele><time>2026-04-29T21:16:37.08Z</time></trkpt><trkpt lat="8.5829883" lon="-71.244405"><ele>1755.0</ele><time>2026-04-29T21:16:39.076Z</time></trkpt><trkpt lat="8.5829433" lon="-71.24436"><ele>1755.0</ele><time>2026-04-29T21:16:41.095Z</time></trkpt><trkpt lat="8.5829" lon="-71.2443117"><ele>1755.0</ele><time>2026-04-29T21:16:43.093Z</time></trkpt><trkpt lat="8.582865" lon="-71.2442483"><ele>1753.857142857143</ele><time>2026-04-29T21:16:45.079Z</time></trkpt><trkpt lat="8.5828383" lon="-71.2441867"><ele>1752.7142857142858</ele><time>2026-04-29T21:16:47.095Z</time></trkpt><trkpt lat="8.5828067" lon="-71.244125"><ele>1751.5714285714287</ele><time>2026-04-29T21:16:49.08Z</time></trkpt><trkpt lat="8.5827717" lon="-71.2440667"><ele>1750.4285714285716</ele><time>2026-04-29T21:16:51.089Z</time></trkpt><trkpt lat="8.5827383" lon="-71.2440083"><ele>1749.2857142857142</ele><time>2026-04-29T21:16:53.076Z</time></trkpt><trkpt lat="8.5827083" lon="-71.2439467"><ele>1748.1428571428573</ele><time>2026-04-29T21:16:55.082Z</time></trkpt><trkpt lat="8.5826733" lon="-71.2438817"><ele>1747.0</ele><time>2026-04-29T21:16:57.099Z</time></trkpt><trkpt lat="8.5826417" lon="-71.2438167"><ele>1747.0000000000002</ele><time>2026-04-29T21:16:59.072Z</time></trkpt><trkpt lat="8.5826117" lon="-71.243745"><ele>1747.0</ele><time>2026-04-29T21:17:01.112Z</time></trkpt><trkpt lat="8.582585" lon="-71.2436767"><ele>1747.0</ele><time>2026-04-29T21:17:03.09Z</time></trkpt><trkpt lat="8.5825583" lon="-71.24361"><ele>1747.0</ele><time>2026-04-29T21:17:05.07Z</time></trkpt><trkpt lat="8.5825217" lon="-71.24355"><ele>1747.0</ele><time>2026-04-29T21:17:07.084Z</time></trkpt><trkpt lat="8.5824817" lon="-71.2434883"><ele>1747.0000000000002</ele><time>2026-04-29T21:17:09.084Z</time></trkpt><trkpt lat="8.5824333" lon="-71.2434267"><ele>1747.0</ele><time>2026-04-29T21:17:11.089Z</time></trkpt><trkpt lat="8.5823783" lon="-71.243375"><ele>1747.0000000000002</ele><time>2026-04-29T21:17:13.084Z</time></trkpt><trkpt lat="8.58231" lon="-71.24333"><ele>1747.0</ele><time>2026-04-29T21:17:15.071Z</time></trkpt><trkpt lat="8.5822383" lon="-71.2432933"><ele>1747.0</ele><time>2026-04-29T21:17:17.077Z</time></trkpt><trkpt lat="8.58216" lon="-71.2432617"><ele>1747.0</ele><time>2026-04-29T21:17:19.09Z</time></trkpt><trkpt lat="8.5820783" lon="-71.2432417"><ele>1747.0000000000002</ele><time>2026-04-29T21:17:21.087Z</time></trkpt><trkpt lat="8.5820083" lon="-71.243225"><ele>1747.0</ele><time>2026-04-29T21:17:23.087Z</time></trkpt><trkpt lat="8.5819417" lon="-71.2432133"><ele>1747.857142857143</ele><time>2026-04-29T21:17:25.082Z</time></trkpt><trkpt lat="8.5818683" lon="-71.2431933"><ele>1748.7142857142858</ele><time>2026-04-29T21:17:27.089Z</time></trkpt><trkpt lat="8.5818083" lon="-71.2431733"><ele>1749.5714285714284</ele><time>2026-04-29T21:17:29.104Z</time></trkpt><trkpt lat="8.581745" lon="-71.2431533"><ele>1750.4285714285716</ele><time>2026-04-29T21:17:31.097Z</time></trkpt><trkpt lat="8.5816767" lon="-71.24313"><ele>1751.2857142857142</ele><time>2026-04-29T21:17:33.08Z</time></trkpt><trkpt lat="8.581605" lon="-71.2431067"><ele>1752.142857142857</ele><time>2026-04-29T21:17:35.098Z</time></trkpt><trkpt lat="8.581545" lon="-71.24307"><ele>1753.0</ele><time>2026-04-29T21:17:37.084Z</time></trkpt><trkpt lat="8.58148" lon="-71.2430267"><ele>1753.0</ele><time>2026-04-29T21:17:39.038Z</time></trkpt><trkpt lat="8.58142" lon="-71.2429733"><ele>1753.0000000000002</ele><time>2026-04-29T21:17:41.085Z</time></trkpt><trkpt lat="8.5813717" lon="-71.24291"><ele>1753.0000000000002</ele><time>2026-04-29T21:17:43.091Z</time></trkpt><trkpt lat="8.5813167" lon="-71.2428317"><ele>1753.0</ele><time>2026-04-29T21:17:45.092Z</time></trkpt><trkpt lat="8.5812533" lon="-71.24275"><ele>1753.0</ele><time>2026-04-29T21:17:47.087Z</time></trkpt><trkpt lat="8.5811867" lon="-71.2426533"><ele>1751.6000000000001</ele><time>2026-04-29T21:17:49.093Z</time></trkpt><trkpt lat="8.5811333" lon="-71.242555"><ele>1750.2000000000003</ele><time>2026-04-29T21:17:51.087Z</time></trkpt><trkpt lat="8.5810683" lon="-71.2424467"><ele>1748.8</ele><time>2026-04-29T21:17:53.095Z</time></trkpt><trkpt lat="8.5810333" lon="-71.2423867"><ele>1747.4</ele><time>2026-04-29T21:17:54.072Z</time></trkpt><trkpt lat="8.5809967" lon="-71.2423233"><ele>1746.0</ele><time>2026-04-29T21:17:55.08Z</time></trkpt><trkpt lat="8.5809583" lon="-71.2422583"><ele>1745.9999999999998</ele><time>2026-04-29T21:17:56.146Z</time></trkpt><trkpt lat="8.58092" lon="-71.2421917"><ele>1746.0</ele><time>2026-04-29T21:17:57.09Z</time></trkpt><trkpt lat="8.58088" lon="-71.2421267"><ele>1746.0</ele><time>2026-04-29T21:17:58.086Z</time></trkpt><trkpt lat="8.5808417" lon="-71.24207"><ele>1746.0</ele><time>2026-04-29T21:17:59.094Z</time></trkpt><trkpt lat="8.5807967" lon="-71.242015"><ele>1746.0</ele><time>2026-04-29T21:18:00.094Z</time></trkpt><trkpt lat="8.580745" lon="-71.2419583"><ele>1745.9999999999998</ele><time>2026-04-29T21:18:01.077Z</time></trkpt><trkpt lat="8.5806883" lon="-71.2419"><ele>1746.0</ele><time>2026-04-29T21:18:02.139Z</time></trkpt><trkpt lat="8.58063" lon="-71.2418433"><ele>1746.0</ele><time>2026-04-29T21:18:03.085Z</time></trkpt><trkpt lat="8.58057" lon="-71.2417867"><ele>1746.0</ele><time>2026-04-29T21:18:04.087Z</time></trkpt><trkpt lat="8.5805067" lon="-71.2417367"><ele>1746.0</ele><time>2026-04-29T21:18:05.077Z</time></trkpt><trkpt lat="8.5804433" lon="-71.2416883"><ele>1746.0</ele><time>2026-04-29T21:18:06.093Z</time></trkpt><trkpt lat="8.58038" lon="-71.24164"><ele>1746.0</ele><time>2026-04-29T21:18:07.085Z</time></trkpt><trkpt lat="8.5803167" lon="-71.2415917"><ele>1746.0</ele><time>2026-04-29T21:18:08.14Z</time></trkpt><trkpt lat="8.5802517" lon="-71.2415417"><ele>1742.5</ele><time>2026-04-29T21:18:09.074Z</time></trkpt><trkpt lat="8.5801883" lon="-71.2414867"><ele>1739.0</ele><time>2026-04-29T21:18:10.051Z</time></trkpt><trkpt lat="8.5801267" lon="-71.2414283"><ele>1735.5</ele><time>2026-04-29T21:18:11.085Z</time></trkpt><trkpt lat="8.58007" lon="-71.2413683"><ele>1732.0</ele><time>2026-04-29T21:18:12.087Z</time></trkpt><trkpt lat="8.58002" lon="-71.2413033"><ele>1728.5</ele><time>2026-04-29T21:18:13.073Z</time></trkpt><trkpt lat="8.579975" lon="-71.2412283"><ele>1725.0</ele><time>2026-04-29T21:18:14.149Z</time></trkpt><trkpt lat="8.57994" lon="-71.2411483"><ele>1725.0</ele><time>2026-04-29T21:18:15.07Z</time></trkpt><trkpt lat="8.57991" lon="-71.24106"><ele>1725.0</ele><time>2026-04-29T21:18:16.071Z</time></trkpt><trkpt lat="8.5798817" lon="-71.24097"><ele>1725.0</ele><time>2026-04-29T21:18:17.084Z</time></trkpt><trkpt lat="8.5798617" lon="-71.2408783"><ele>1725.0</ele><time>2026-04-29T21:18:18.08Z</time></trkpt><trkpt lat="8.579845" lon="-71.2407867"><ele>1725.0</ele><time>2026-04-29T21:18:19.089Z</time></trkpt><trkpt lat="8.579835" lon="-71.240695"><ele>1724.6</ele><time>2026-04-29T21:18:20.135Z</time></trkpt><trkpt lat="8.5798233" lon="-71.2406017"><ele>1724.2</ele><time>2026-04-29T21:18:21.079Z</time></trkpt><trkpt lat="8.57981" lon="-71.2405117"><ele>1723.8000000000002</ele><time>2026-04-29T21:18:22.075Z</time></trkpt><trkpt lat="8.5797933" lon="-71.2404233"><ele>1723.4</ele><time>2026-04-29T21:18:23.077Z</time></trkpt><trkpt lat="8.5797817" lon="-71.240335"><ele>1723.0</ele><time>2026-04-29T21:18:24.047Z</time></trkpt><trkpt lat="8.579775" lon="-71.2402433"><ele>1723.0</ele><time>2026-04-29T21:18:25.095Z</time></trkpt><trkpt lat="8.5797767" lon="-71.2401483"><ele>1723.0000000000002</ele><time>2026-04-29T21:18:26.13Z</time></trkpt><trkpt lat="8.5797783" lon="-71.2400517"><ele>1723.0000000000002</ele><time>2026-04-29T21:18:27.053Z</time></trkpt><trkpt lat="8.57978" lon="-71.2399583"><ele>1723.0</ele><time>2026-04-29T21:18:28.084Z</time></trkpt><trkpt lat="8.5797833" lon="-71.239865"><ele>1723.0</ele><time>2026-04-29T21:18:29.06Z</time></trkpt><trkpt lat="8.5797883" lon="-71.23977"><ele>1720.6000000000001</ele><time>2026-04-29T21:18:30.084Z</time></trkpt><trkpt lat="8.5797983" lon="-71.2396767"><ele>1718.2000000000003</ele><time>2026-04-29T21:18:31.094Z</time></trkpt><trkpt lat="8.5798117" lon="-71.2395817"><ele>1715.8</ele><time>2026-04-29T21:18:32.137Z</time></trkpt><trkpt lat="8.5798283" lon="-71.2394883"><ele>1713.4</ele><time>2026-04-29T21:18:33.064Z</time></trkpt><trkpt lat="8.5798467" lon="-71.239395"><ele>1711.0</ele><time>2026-04-29T21:18:34.094Z</time></trkpt><trkpt lat="8.5798683" lon="-71.2393017"><ele>1711.0</ele><time>2026-04-29T21:18:35.039Z</time></trkpt><trkpt lat="8.579885" lon="-71.2392067"><ele>1711.0</ele><time>2026-04-29T21:18:36.086Z</time></trkpt><trkpt lat="8.579905" lon="-71.2391133"><ele>1711.0</ele><time>2026-04-29T21:18:37.083Z</time></trkpt><trkpt lat="8.579925" lon="-71.23902"><ele>1711.0</ele><time>2026-04-29T21:18:38.143Z</time></trkpt><trkpt lat="8.5799433" lon="-71.2389283"><ele>1711.0</ele><time>2026-04-29T21:18:39.079Z</time></trkpt><trkpt lat="8.5799633" lon="-71.2388367"><ele>1708.8</ele><time>2026-04-29T21:18:40.066Z</time></trkpt><trkpt lat="8.5799833" lon="-71.238745"><ele>1706.6</ele><time>2026-04-29T21:18:41.075Z</time></trkpt><trkpt lat="8.5800033" lon="-71.2386517"><ele>1704.4</ele><time>2026-04-29T21:18:42.081Z</time></trkpt><trkpt lat="8.5800233" lon="-71.2385567"><ele>1702.2</ele><time>2026-04-29T21:18:43.09Z</time></trkpt><trkpt lat="8.5800417" lon="-71.23846"><ele>1700.0</ele><time>2026-04-29T21:18:44.148Z</time></trkpt><trkpt lat="8.5800567" lon="-71.238365"><ele>1700.0</ele><time>2026-04-29T21:18:45.101Z</time></trkpt><trkpt lat="8.58007" lon="-71.2382683"><ele>1700.0</ele><time>2026-04-29T21:18:46.08Z</time></trkpt><trkpt lat="8.5800783" lon="-71.23817"><ele>1700.0</ele><time>2026-04-29T21:18:47.085Z</time></trkpt><trkpt lat="8.58008" lon="-71.2380733"><ele>1700.0</ele><time>2026-04-29T21:18:48.086Z</time></trkpt><trkpt lat="8.580075" lon="-71.2379733"><ele>1700.0</ele><time>2026-04-29T21:18:49.083Z</time></trkpt><trkpt lat="8.5800633" lon="-71.237875"><ele>1699.8</ele><time>2026-04-29T21:18:50.138Z</time></trkpt><trkpt lat="8.5800483" lon="-71.2377767"><ele>1699.6</ele><time>2026-04-29T21:18:51.077Z</time></trkpt><trkpt lat="8.5800317" lon="-71.2376783"><ele>1699.4</ele><time>2026-04-29T21:18:52.082Z</time></trkpt><trkpt lat="8.5800167" lon="-71.23758"><ele>1699.2</ele><time>2026-04-29T21:18:53.078Z</time></trkpt><trkpt lat="8.58" lon="-71.23748"><ele>1699.0</ele><time>2026-04-29T21:18:54.085Z</time></trkpt><trkpt lat="8.57998" lon="-71.2373817"><ele>1698.0</ele><time>2026-04-29T21:18:55.083Z</time></trkpt><trkpt lat="8.5799617" lon="-71.2372833"><ele>1697.0</ele><time>2026-04-29T21:18:56.144Z</time></trkpt><trkpt lat="8.5799433" lon="-71.23718"><ele>1696.0</ele><time>2026-04-29T21:18:57.094Z</time></trkpt><trkpt lat="8.57992" lon="-71.2370767"><ele>1695.0</ele><time>2026-04-29T21:18:58.085Z</time></trkpt><trkpt lat="8.5798983" lon="-71.2369733"><ele>1694.0</ele><time>2026-04-29T21:18:59.087Z</time></trkpt><trkpt lat="8.579875" lon="-71.23687"><ele>1694.0</ele><time>2026-04-29T21:19:00.093Z</time></trkpt><trkpt lat="8.5798483" lon="-71.2367683"><ele>1694.0</ele><time>2026-04-29T21:19:01.105Z</time></trkpt><trkpt lat="8.5798267" lon="-71.236665"><ele>1694.0</ele><time>2026-04-29T21:19:02.137Z</time></trkpt><trkpt lat="8.5798067" lon="-71.2365633"><ele>1694.0</ele><time>2026-04-29T21:19:03.086Z</time></trkpt><trkpt lat="8.5797867" lon="-71.2364617"><ele>1694.0</ele><time>2026-04-29T21:19:04.069Z</time></trkpt><trkpt lat="8.5797633" lon="-71.2363633"><ele>1694.6</ele><time>2026-04-29T21:19:05.083Z</time></trkpt><trkpt lat="8.5797417" lon="-71.2362633"><ele>1695.2</ele><time>2026-04-29T21:19:06.09Z</time></trkpt><trkpt lat="8.5797217" lon="-71.23616"><ele>1695.8</ele><time>2026-04-29T21:19:07.071Z</time></trkpt><trkpt lat="8.5797" lon="-71.2360583"><ele>1696.3999999999999</ele><time>2026-04-29T21:19:08.139Z</time></trkpt><trkpt lat="8.5796767" lon="-71.2359583"><ele>1697.0</ele><time>2026-04-29T21:19:09.089Z</time></trkpt><trkpt lat="8.579655" lon="-71.23586"><ele>1697.0</ele><time>2026-04-29T21:19:10.081Z</time></trkpt><trkpt lat="8.5796317" lon="-71.2357617"><ele>1697.0</ele><time>2026-04-29T21:19:11.077Z</time></trkpt><trkpt lat="8.57961" lon="-71.2356633"><ele>1697.0</ele><time>2026-04-29T21:19:12.086Z</time></trkpt><trkpt lat="8.57959" lon="-71.2355633"><ele>1697.0</ele><time>2026-04-29T21:19:13.085Z</time></trkpt><trkpt lat="8.5795717" lon="-71.2354667"><ele>1697.0</ele><time>2026-04-29T21:19:14.14Z</time></trkpt><trkpt lat="8.5795583" lon="-71.2353733"><ele>1695.6666666666665</ele><time>2026-04-29T21:19:15.085Z</time></trkpt><trkpt lat="8.579555" lon="-71.2352833"><ele>1694.3333333333333</ele><time>2026-04-29T21:19:16.09Z</time></trkpt><trkpt lat="8.57956" lon="-71.2351933"><ele>1693.0</ele><time>2026-04-29T21:19:17.082Z</time></trkpt><trkpt lat="8.5795783" lon="-71.235105"><ele>1691.6666666666665</ele><time>2026-04-29T21:19:18.094Z</time></trkpt><trkpt lat="8.5796067" lon="-71.23502"><ele>1690.3333333333333</ele><time>2026-04-29T21:19:19.085Z</time></trkpt><trkpt lat="8.5796467" lon="-71.2349433"><ele>1689.0</ele><time>2026-04-29T21:19:20.108Z</time></trkpt><trkpt lat="8.5796967" lon="-71.2348733"><ele>1689.0</ele><time>2026-04-29T21:19:21.055Z</time></trkpt><trkpt lat="8.5797583" lon="-71.2348117"><ele>1689.0</ele><time>2026-04-29T21:19:22.042Z</time></trkpt><trkpt lat="8.579825" lon="-71.23476"><ele>1689.0</ele><time>2026-04-29T21:19:23.083Z</time></trkpt><trkpt lat="8.579895" lon="-71.2347183"><ele>1689.0</ele><time>2026-04-29T21:19:24.053Z</time></trkpt><trkpt lat="8.5799667" lon="-71.234685"><ele>1689.0</ele><time>2026-04-29T21:19:25.088Z</time></trkpt><trkpt lat="8.5800383" lon="-71.234665"><ele>1689.0</ele><time>2026-04-29T21:19:26.149Z</time></trkpt><trkpt lat="8.5801117" lon="-71.2346533"><ele>1685.0</ele><time>2026-04-29T21:19:27.097Z</time></trkpt><trkpt lat="8.5801833" lon="-71.23465"><ele>1681.0</ele><time>2026-04-29T21:19:28.032Z</time></trkpt><trkpt lat="8.580255" lon="-71.23465"><ele>1677.0</ele><time>2026-04-29T21:19:29.066Z</time></trkpt><trkpt lat="8.580325" lon="-71.2346567"><ele>1673.0</ele><time>2026-04-29T21:19:30.099Z</time></trkpt><trkpt lat="8.5803933" lon="-71.2346667"><ele>1669.0</ele><time>2026-04-29T21:19:31.082Z</time></trkpt><trkpt lat="8.5804617" lon="-71.2346783"><ele>1665.0</ele><time>2026-04-29T21:19:32.142Z</time></trkpt><trkpt lat="8.58053" lon="-71.2346933"><ele>1661.0</ele><time>2026-04-29T21:19:33.082Z</time></trkpt><trkpt lat="8.5805967" lon="-71.2347083"><ele>1661.0</ele><time>2026-04-29T21:19:34.049Z</time></trkpt><trkpt lat="8.5806617" lon="-71.2347283"><ele>1661.0</ele><time>2026-04-29T21:19:35.091Z</time></trkpt><trkpt lat="8.5807283" lon="-71.234745"><ele>1661.0</ele><time>2026-04-29T21:19:36.085Z</time></trkpt><trkpt lat="8.580795" lon="-71.2347633"><ele>1661.0</ele><time>2026-04-29T21:19:37.09Z</time></trkpt><trkpt lat="8.5808583" lon="-71.2347833"><ele>1661.0</ele><time>2026-04-29T21:19:38.144Z</time></trkpt><trkpt lat="8.5809233" lon="-71.2348"><ele>1661.0</ele><time>2026-04-29T21:19:39.085Z</time></trkpt><trkpt lat="8.58099" lon="-71.2348133"><ele>1661.0</ele><time>2026-04-29T21:19:40.076Z</time></trkpt><trkpt lat="8.5810533" lon="-71.2348233"><ele>1665.0</ele><time>2026-04-29T21:19:41.085Z</time></trkpt><trkpt lat="8.5811167" lon="-71.2348333"><ele>1669.0</ele><time>2026-04-29T21:19:42.087Z</time></trkpt><trkpt lat="8.581235" lon="-71.2348583"><ele>1673.0</ele><time>2026-04-29T21:19:44.122Z</time></trkpt><trkpt lat="8.5813517" lon="-71.234885"><ele>1677.0</ele><time>2026-04-29T21:19:46.086Z</time></trkpt><trkpt lat="8.5814667" lon="-71.2349083"><ele>1681.0</ele><time>2026-04-29T21:19:48.086Z</time></trkpt><trkpt lat="8.58158" lon="-71.23493"><ele>1681.0</ele><time>2026-04-29T21:19:50.164Z</time></trkpt><trkpt lat="8.581695" lon="-71.2349533"><ele>1681.0</ele><time>2026-04-29T21:19:52.082Z</time></trkpt><trkpt lat="8.58181" lon="-71.2349683"><ele>1681.0</ele><time>2026-04-29T21:19:54.079Z</time></trkpt><trkpt lat="8.581925" lon="-71.23497"><ele>1681.0</ele><time>2026-04-29T21:19:56.151Z</time></trkpt><trkpt lat="8.5820417" lon="-71.2349617"><ele>1683.0</ele><time>2026-04-29T21:19:58.079Z</time></trkpt><trkpt lat="8.5821567" lon="-71.23494"><ele>1685.0</ele><time>2026-04-29T21:20:00.089Z</time></trkpt><trkpt lat="8.5822683" lon="-71.2349033"><ele>1687.0</ele><time>2026-04-29T21:20:02.124Z</time></trkpt><trkpt lat="8.582375" lon="-71.2348583"><ele>1689.0</ele><time>2026-04-29T21:20:04.072Z</time></trkpt><trkpt lat="8.5824683" lon="-71.2348017"><ele>1684.8000000000002</ele><time>2026-04-29T21:20:06.087Z</time></trkpt><trkpt lat="8.5825583" lon="-71.2347367"><ele>1680.6000000000001</ele><time>2026-04-29T21:20:08.141Z</time></trkpt><trkpt lat="8.58264" lon="-71.2346617"><ele>1676.4</ele><time>2026-04-29T21:20:10.077Z</time></trkpt><trkpt lat="8.5827183" lon="-71.2345767"><ele>1672.2</ele><time>2026-04-29T21:20:12.086Z</time></trkpt><trkpt lat="8.5827867" lon="-71.2344883"><ele>1668.0</ele><time>2026-04-29T21:20:14.132Z</time></trkpt><trkpt lat="8.582845" lon="-71.2343883"><ele>1664.25</ele><time>2026-04-29T21:20:16.084Z</time></trkpt><trkpt lat="8.5828883" lon="-71.234285"><ele>1660.5</ele><time>2026-04-29T21:20:18.09Z</time></trkpt><trkpt lat="8.5829183" lon="-71.2341767"><ele>1656.75</ele><time>2026-04-29T21:20:20.141Z</time></trkpt><trkpt lat="8.582955" lon="-71.23407"><ele>1653.0</ele><time>2026-04-29T21:20:22.098Z</time></trkpt><trkpt lat="8.5830083" lon="-71.233965"><ele>1653.0</ele><time>2026-04-29T21:20:24.077Z</time></trkpt><trkpt lat="8.5830833" lon="-71.2338667"><ele>1653.0</ele><time>2026-04-29T21:20:26.132Z</time></trkpt><trkpt lat="8.5831333" lon="-71.23382"><ele>1653.0</ele><time>2026-04-29T21:20:27.089Z</time></trkpt><trkpt lat="8.5831917" lon="-71.2337783"><ele>1653.0</ele><time>2026-04-29T21:20:28.084Z</time></trkpt><trkpt lat="8.5832533" lon="-71.2337433"><ele>1653.0</ele><time>2026-04-29T21:20:29.089Z</time></trkpt><trkpt lat="8.5833217" lon="-71.233715"><ele>1653.0</ele><time>2026-04-29T21:20:30.088Z</time></trkpt><trkpt lat="8.583395" lon="-71.233695"><ele>1653.0</ele><time>2026-04-29T21:20:31.081Z</time></trkpt><trkpt lat="8.583475" lon="-71.233685"><ele>1653.0</ele><time>2026-04-29T21:20:32.133Z</time></trkpt><trkpt lat="8.5835533" lon="-71.2336867"><ele>1653.0</ele><time>2026-04-29T21:20:33.082Z</time></trkpt><trkpt lat="8.583635" lon="-71.2336967"><ele>1653.0</ele><time>2026-04-29T21:20:34.07Z</time></trkpt><trkpt lat="8.583715" lon="-71.2337167"><ele>1653.0</ele><time>2026-04-29T21:20:35.082Z</time></trkpt><trkpt lat="8.583795" lon="-71.233745"><ele>1653.0</ele><time>2026-04-29T21:20:36.078Z</time></trkpt><trkpt lat="8.583875" lon="-71.233775"><ele>1650.2</ele><time>2026-04-29T21:20:37.08Z</time></trkpt><trkpt lat="8.583955" lon="-71.2338083"><ele>1647.4</ele><time>2026-04-29T21:20:38.15Z</time></trkpt><trkpt lat="8.584035" lon="-71.2338433"><ele>1644.6000000000001</ele><time>2026-04-29T21:20:39.086Z</time></trkpt><trkpt lat="8.5841183" lon="-71.2338833"><ele>1641.8000000000002</ele><time>2026-04-29T21:20:40.085Z</time></trkpt><trkpt lat="8.5842" lon="-71.233925"><ele>1639.0</ele><time>2026-04-29T21:20:41.089Z</time></trkpt><trkpt lat="8.5842833" lon="-71.233965"><ele>1645.0</ele><time>2026-04-29T21:20:42.094Z</time></trkpt><trkpt lat="8.58437" lon="-71.2340033"><ele>1651.0</ele><time>2026-04-29T21:20:43.088Z</time></trkpt><trkpt lat="8.584455" lon="-71.2340383"><ele>1657.0</ele><time>2026-04-29T21:20:44.127Z</time></trkpt><trkpt lat="8.5845433" lon="-71.2340683"><ele>1663.0</ele><time>2026-04-29T21:20:45.082Z</time></trkpt><trkpt lat="8.5846333" lon="-71.2340933"><ele>1669.0</ele><time>2026-04-29T21:20:46.088Z</time></trkpt><trkpt lat="8.584725" lon="-71.234115"><ele>1669.0</ele><time>2026-04-29T21:20:47.085Z</time></trkpt><trkpt lat="8.5848183" lon="-71.2341333"><ele>1669.0</ele><time>2026-04-29T21:20:48.067Z</time></trkpt><trkpt lat="8.5849133" lon="-71.2341483"><ele>1669.0</ele><time>2026-04-29T21:20:49.083Z</time></trkpt><trkpt lat="8.5850083" lon="-71.2341583"><ele>1669.0</ele><time>2026-04-29T21:20:50.137Z</time></trkpt><trkpt lat="8.5851033" lon="-71.234165"><ele>1669.0</ele><time>2026-04-29T21:20:51.092Z</time></trkpt><trkpt lat="8.5851983" lon="-71.2341683"><ele>1669.0</ele><time>2026-04-29T21:20:52.077Z</time></trkpt><trkpt lat="8.585295" lon="-71.2341733"><ele>1669.0</ele><time>2026-04-29T21:20:53.086Z</time></trkpt><trkpt lat="8.5853917" lon="-71.2341767"><ele>1669.0</ele><time>2026-04-29T21:20:54.081Z</time></trkpt><trkpt lat="8.58549" lon="-71.2341733"><ele>1669.0</ele><time>2026-04-29T21:20:55.086Z</time></trkpt><trkpt lat="8.5855883" lon="-71.23417"><ele>1669.0</ele><time>2026-04-29T21:20:56.132Z</time></trkpt><trkpt lat="8.5856867" lon="-71.2341717"><ele>1667.4</ele><time>2026-04-29T21:20:57.087Z</time></trkpt><trkpt lat="8.585785" lon="-71.2341733"><ele>1665.8000000000002</ele><time>2026-04-29T21:20:58.079Z</time></trkpt><trkpt lat="8.5858817" lon="-71.23418"><ele>1664.1999999999998</ele><time>2026-04-29T21:20:59.082Z</time></trkpt><trkpt lat="8.585975" lon="-71.2341983"><ele>1662.6</ele><time>2026-04-29T21:21:00.087Z</time></trkpt><trkpt lat="8.5860683" lon="-71.2342267"><ele>1661.0</ele><time>2026-04-29T21:21:01.083Z</time></trkpt><trkpt lat="8.5861533" lon="-71.2342667"><ele>1656.1999999999998</ele><time>2026-04-29T21:21:02.138Z</time></trkpt><trkpt lat="8.5862267" lon="-71.2343217"><ele>1651.3999999999999</ele><time>2026-04-29T21:21:03.081Z</time></trkpt><trkpt lat="8.5862883" lon="-71.23439"><ele>1646.6</ele><time>2026-04-29T21:21:04.088Z</time></trkpt><trkpt lat="8.5863417" lon="-71.2344667"><ele>1641.8</ele><time>2026-04-29T21:21:05.086Z</time></trkpt><trkpt lat="8.58639" lon="-71.2345467"><ele>1637.0</ele><time>2026-04-29T21:21:06.086Z</time></trkpt><trkpt lat="8.5864283" lon="-71.2346317"><ele>1636.9999999999998</ele><time>2026-04-29T21:21:07.083Z</time></trkpt><trkpt lat="8.5864667" lon="-71.234715"><ele>1637.0</ele><time>2026-04-29T21:21:08.135Z</time></trkpt><trkpt lat="8.5865033" lon="-71.2347983"><ele>1637.0</ele><time>2026-04-29T21:21:09.083Z</time></trkpt><trkpt lat="8.5865433" lon="-71.2348817"><ele>1637.0</ele><time>2026-04-29T21:21:10.081Z</time></trkpt><trkpt lat="8.586585" lon="-71.23496"><ele>1636.9999999999998</ele><time>2026-04-29T21:21:11.081Z</time></trkpt><trkpt lat="8.5866333" lon="-71.2350333"><ele>1637.0</ele><time>2026-04-29T21:21:12.087Z</time></trkpt><trkpt lat="8.5866883" lon="-71.2350983"><ele>1640.1666666666665</ele><time>2026-04-29T21:21:13.086Z</time></trkpt><trkpt lat="8.5867517" lon="-71.2351567"><ele>1643.3333333333333</ele><time>2026-04-29T21:21:14.137Z</time></trkpt><trkpt lat="8.5868217" lon="-71.2352033"><ele>1646.5</ele><time>2026-04-29T21:21:15.078Z</time></trkpt><trkpt lat="8.5869" lon="-71.2352317"><ele>1649.6666666666665</ele><time>2026-04-29T21:21:16.083Z</time></trkpt><trkpt lat="8.58698" lon="-71.23524"><ele>1652.8333333333333</ele><time>2026-04-29T21:21:17.099Z</time></trkpt><trkpt lat="8.5870583" lon="-71.2352333"><ele>1656.0</ele><time>2026-04-29T21:21:18.085Z</time></trkpt><trkpt lat="8.587135" lon="-71.2352167"><ele>1656.5</ele><time>2026-04-29T21:21:19.082Z</time></trkpt><trkpt lat="8.5872067" lon="-71.2351867"><ele>1657.0</ele><time>2026-04-29T21:21:20.138Z</time></trkpt><trkpt lat="8.5872717" lon="-71.2351467"><ele>1657.5</ele><time>2026-04-29T21:21:21.085Z</time></trkpt><trkpt lat="8.5873333" lon="-71.2351"><ele>1658.0</ele><time>2026-04-29T21:21:22.087Z</time></trkpt><trkpt lat="8.5873867" lon="-71.2350433"><ele>1658.5</ele><time>2026-04-29T21:21:23.085Z</time></trkpt><trkpt lat="8.5874367" lon="-71.23498"><ele>1659.0</ele><time>2026-04-29T21:21:24.09Z</time></trkpt><trkpt lat="8.5874833" lon="-71.2349133"><ele>1659.0</ele><time>2026-04-29T21:21:25.084Z</time></trkpt><trkpt lat="8.5875283" lon="-71.2348417"><ele>1659.0</ele><time>2026-04-29T21:21:26.141Z</time></trkpt><trkpt lat="8.5875717" lon="-71.2347717"><ele>1659.0</ele><time>2026-04-29T21:21:27.069Z</time></trkpt><trkpt lat="8.587615" lon="-71.2347"><ele>1659.0</ele><time>2026-04-29T21:21:28.076Z</time></trkpt><trkpt lat="8.58766" lon="-71.234625"><ele>1659.0</ele><time>2026-04-29T21:21:29.075Z</time></trkpt><trkpt lat="8.5877067" lon="-71.2345483"><ele>1659.0</ele><time>2026-04-29T21:21:30.087Z</time></trkpt><trkpt lat="8.5877533" lon="-71.234475"><ele>1657.5</ele><time>2026-04-29T21:21:31.047Z</time></trkpt><trkpt lat="8.587805" lon="-71.2344017"><ele>1656.0</ele><time>2026-04-29T21:21:32.142Z</time></trkpt><trkpt lat="8.5878517" lon="-71.23433"><ele>1654.5</ele><time>2026-04-29T21:21:33.081Z</time></trkpt><trkpt lat="8.5879" lon="-71.2342567"><ele>1653.0</ele><time>2026-04-29T21:21:34.053Z</time></trkpt><trkpt lat="8.58795" lon="-71.2341883"><ele>1651.5</ele><time>2026-04-29T21:21:35.076Z</time></trkpt><trkpt lat="8.588" lon="-71.2341183"><ele>1650.0</ele><time>2026-04-29T21:21:36.075Z</time></trkpt><trkpt lat="8.5880517" lon="-71.2340483"><ele>1650.0</ele><time>2026-04-29T21:21:37.085Z</time></trkpt><trkpt lat="8.5881017" lon="-71.23398"><ele>1650.0</ele><time>2026-04-29T21:21:38.137Z</time></trkpt><trkpt lat="8.5881533" lon="-71.2339067"><ele>1650.0</ele><time>2026-04-29T21:21:39.091Z</time></trkpt><trkpt lat="8.5882017" lon="-71.2338317"><ele>1650.0</ele><time>2026-04-29T21:21:40.079Z</time></trkpt><trkpt lat="8.588255" lon="-71.2337533"><ele>1650.0</ele><time>2026-04-29T21:21:41.083Z</time></trkpt><trkpt lat="8.5883067" lon="-71.23368"><ele>1650.0</ele><time>2026-04-29T21:21:42.076Z</time></trkpt><trkpt lat="8.5883667" lon="-71.2336067"><ele>1651.2</ele><time>2026-04-29T21:21:43.085Z</time></trkpt><trkpt lat="8.5884267" lon="-71.2335367"><ele>1652.4</ele><time>2026-04-29T21:21:44.138Z</time></trkpt><trkpt lat="8.5884867" lon="-71.2334633"><ele>1653.6</ele><time>2026-04-29T21:21:45.085Z</time></trkpt><trkpt lat="8.588555" lon="-71.23339"><ele>1654.8</ele><time>2026-04-29T21:21:46.084Z</time></trkpt><trkpt lat="8.5886283" lon="-71.23332"><ele>1656.0</ele><time>2026-04-29T21:21:47.081Z</time></trkpt><trkpt lat="8.5887033" lon="-71.233255"><ele>1656.0</ele><time>2026-04-29T21:21:48.083Z</time></trkpt><trkpt lat="8.5887783" lon="-71.2331933"><ele>1656.0</ele><time>2026-04-29T21:21:49.086Z</time></trkpt><trkpt lat="8.5888467" lon="-71.2331267"><ele>1656.0</ele><time>2026-04-29T21:21:50.107Z</time></trkpt><trkpt lat="8.58892" lon="-71.2330583"><ele>1656.0</ele><time>2026-04-29T21:21:51.06Z</time></trkpt><trkpt lat="8.5889967" lon="-71.2329983"><ele>1656.0</ele><time>2026-04-29T21:21:52.078Z</time></trkpt><trkpt lat="8.5890733" lon="-71.2329417"><ele>1651.8</ele><time>2026-04-29T21:21:53.078Z</time></trkpt><trkpt lat="8.5891467" lon="-71.2328783"><ele>1647.6</ele><time>2026-04-29T21:21:54.08Z</time></trkpt><trkpt lat="8.5892117" lon="-71.2328133"><ele>1643.4</ele><time>2026-04-29T21:21:55.084Z</time></trkpt><trkpt lat="8.5892633" lon="-71.2327333"><ele>1639.2</ele><time>2026-04-29T21:21:56.135Z</time></trkpt><trkpt lat="8.5893017" lon="-71.2326433"><ele>1635.0</ele><time>2026-04-29T21:21:57.085Z</time></trkpt><trkpt lat="8.5893317" lon="-71.2325533"><ele>1635.0</ele><time>2026-04-29T21:21:58.085Z</time></trkpt><trkpt lat="8.5893467" lon="-71.23246"><ele>1635.0</ele><time>2026-04-29T21:21:59.094Z</time></trkpt><trkpt lat="8.589345" lon="-71.2323683"><ele>1635.0</ele><time>2026-04-29T21:22:00.089Z</time></trkpt><trkpt lat="8.58933" lon="-71.232285"><ele>1635.0</ele><time>2026-04-29T21:22:01.085Z</time></trkpt><trkpt lat="8.5893017" lon="-71.232205"><ele>1635.0</ele><time>2026-04-29T21:22:02.133Z</time></trkpt><trkpt lat="8.5892633" lon="-71.2321317"><ele>1635.0</ele><time>2026-04-29T21:22:03.08Z</time></trkpt><trkpt lat="8.5892233" lon="-71.2320617"><ele>1637.0</ele><time>2026-04-29T21:22:04.085Z</time></trkpt><trkpt lat="8.5891783" lon="-71.2319933"><ele>1639.0</ele><time>2026-04-29T21:22:05.086Z</time></trkpt><trkpt lat="8.5891317" lon="-71.231925"><ele>1641.0</ele><time>2026-04-29T21:22:06.075Z</time></trkpt><trkpt lat="8.5890817" lon="-71.23186"><ele>1643.0</ele><time>2026-04-29T21:22:07.072Z</time></trkpt><trkpt lat="8.5890283" lon="-71.2318017"><ele>1645.0</ele><time>2026-04-29T21:22:08.141Z</time></trkpt><trkpt lat="8.5889733" lon="-71.2317517"><ele>1647.0</ele><time>2026-04-29T21:22:09.089Z</time></trkpt><trkpt lat="8.5889117" lon="-71.23171"><ele>1647.0</ele><time>2026-04-29T21:22:10.086Z</time></trkpt><trkpt lat="8.5888483" lon="-71.2316767"><ele>1647.0</ele><time>2026-04-29T21:22:11.081Z</time></trkpt><trkpt lat="8.588775" lon="-71.2316533"><ele>1647.0</ele><time>2026-04-29T21:22:12.084Z</time></trkpt><trkpt lat="8.5887017" lon="-71.23165"><ele>1647.0</ele><time>2026-04-29T21:22:13.08Z</time></trkpt><trkpt lat="8.588625" lon="-71.2316617"><ele>1647.0</ele><time>2026-04-29T21:22:14.129Z</time></trkpt><trkpt lat="8.5885467" lon="-71.2316783"><ele>1647.0</ele><time>2026-04-29T21:22:15.096Z</time></trkpt><trkpt lat="8.5884717" lon="-71.2317"><ele>1646.0</ele><time>2026-04-29T21:22:16.076Z</time></trkpt><trkpt lat="8.5884" lon="-71.2317217"><ele>1645.0</ele><time>2026-04-29T21:22:17.079Z</time></trkpt><trkpt lat="8.5883267" lon="-71.23175"><ele>1644.0</ele><time>2026-04-29T21:22:18.084Z</time></trkpt><trkpt lat="8.5882567" lon="-71.2317767"><ele>1643.0</ele><time>2026-04-29T21:22:19.077Z</time></trkpt><trkpt lat="8.5881867" lon="-71.2317983"><ele>1642.0</ele><time>2026-04-29T21:22:20.139Z</time></trkpt><trkpt lat="8.5881067" lon="-71.2318233"><ele>1641.0</ele><time>2026-04-29T21:22:21.085Z</time></trkpt><trkpt lat="8.5880267" lon="-71.2318417"><ele>1641.0</ele><time>2026-04-29T21:22:22.047Z</time></trkpt><trkpt lat="8.5879433" lon="-71.2318617"><ele>1641.0</ele><time>2026-04-29T21:22:23.086Z</time></trkpt><trkpt lat="8.5878617" lon="-71.2318833"><ele>1641.0</ele><time>2026-04-29T21:22:24.081Z</time></trkpt><trkpt lat="8.58778" lon="-71.2319"><ele>1641.0</ele><time>2026-04-29T21:22:25.077Z</time></trkpt><trkpt lat="8.5876967" lon="-71.2319133"><ele>1641.0</ele><time>2026-04-29T21:22:26.13Z</time></trkpt><trkpt lat="8.5876117" lon="-71.2319167"><ele>1641.0</ele><time>2026-04-29T21:22:27.082Z</time></trkpt><trkpt lat="8.5875267" lon="-71.2319133"><ele>1640.0</ele><time>2026-04-29T21:22:28.095Z</time></trkpt><trkpt lat="8.5874467" lon="-71.231905"><ele>1639.0</ele><time>2026-04-29T21:22:29.088Z</time></trkpt><trkpt lat="8.5873683" lon="-71.2318967"><ele>1638.0</ele><time>2026-04-29T21:22:30.093Z</time></trkpt><trkpt lat="8.5872883" lon="-71.2318833"><ele>1637.0</ele><time>2026-04-29T21:22:31.078Z</time></trkpt><trkpt lat="8.5872083" lon="-71.231865"><ele>1636.0</ele><time>2026-04-29T21:22:32.125Z</time></trkpt><trkpt lat="8.58713" lon="-71.2318417"><ele>1635.0</ele><time>2026-04-29T21:22:33.081Z</time></trkpt><trkpt lat="8.58705" lon="-71.23181"><ele>1630.0</ele><time>2026-04-29T21:22:34.085Z</time></trkpt><trkpt lat="8.5869717" lon="-71.2317783"><ele>1625.0</ele><time>2026-04-29T21:22:35.086Z</time></trkpt><trkpt lat="8.5868983" lon="-71.2317317"><ele>1620.0</ele><time>2026-04-29T21:22:36.087Z</time></trkpt><trkpt lat="8.586825" lon="-71.2316767"><ele>1615.0</ele><time>2026-04-29T21:22:37.077Z</time></trkpt><trkpt lat="8.586755" lon="-71.231615"><ele>1610.0</ele><time>2026-04-29T21:22:38.134Z</time></trkpt><trkpt lat="8.5866867" lon="-71.2315467"><ele>1616.8</ele><time>2026-04-29T21:22:39.075Z</time></trkpt><trkpt lat="8.586625" lon="-71.2314717"><ele>1623.6</ele><time>2026-04-29T21:22:40.09Z</time></trkpt><trkpt lat="8.5865667" lon="-71.231395"><ele>1630.4</ele><time>2026-04-29T21:22:41.087Z</time></trkpt><trkpt lat="8.5865117" lon="-71.2313167"><ele>1637.2</ele><time>2026-04-29T21:22:42.084Z</time></trkpt><trkpt lat="8.5864533" lon="-71.231245"><ele>1644.0</ele><time>2026-04-29T21:22:43.075Z</time></trkpt><trkpt lat="8.58639" lon="-71.2311783"><ele>1644.0</ele><time>2026-04-29T21:22:44.144Z</time></trkpt><trkpt lat="8.5863167" lon="-71.2311233"><ele>1644.0</ele><time>2026-04-29T21:22:45.059Z</time></trkpt><trkpt lat="8.58624" lon="-71.2310717"><ele>1644.0</ele><time>2026-04-29T21:22:46.08Z</time></trkpt><trkpt lat="8.5861617" lon="-71.2310217"><ele>1644.0</ele><time>2026-04-29T21:22:47.086Z</time></trkpt><trkpt lat="8.586085" lon="-71.23097"><ele>1644.0</ele><time>2026-04-29T21:22:48.076Z</time></trkpt><trkpt lat="8.5860083" lon="-71.2309167"><ele>1637.0</ele><time>2026-04-29T21:22:49.088Z</time></trkpt><trkpt lat="8.5859283" lon="-71.2308633"><ele>1630.0</ele><time>2026-04-29T21:22:50.136Z</time></trkpt><trkpt lat="8.58585" lon="-71.2308117"><ele>1623.0</ele><time>2026-04-29T21:22:51.092Z</time></trkpt><trkpt lat="8.5857733" lon="-71.2307583"><ele>1616.0</ele><time>2026-04-29T21:22:52.102Z</time></trkpt><trkpt lat="8.585695" lon="-71.2307033"><ele>1609.0</ele><time>2026-04-29T21:22:53.053Z</time></trkpt><trkpt lat="8.585615" lon="-71.2306483"><ele>1606.8000000000002</ele><time>2026-04-29T21:22:54.051Z</time></trkpt><trkpt lat="8.5855367" lon="-71.2305917"><ele>1604.6000000000001</ele><time>2026-04-29T21:22:55.086Z</time></trkpt><trkpt lat="8.5854617" lon="-71.2305367"><ele>1602.4</ele><time>2026-04-29T21:22:56.132Z</time></trkpt><trkpt lat="8.5853883" lon="-71.2304783"><ele>1600.2</ele><time>2026-04-29T21:22:57.077Z</time></trkpt><trkpt lat="8.5853183" lon="-71.230415"><ele>1598.0</ele><time>2026-04-29T21:22:58.095Z</time></trkpt><trkpt lat="8.585255" lon="-71.2303467"><ele>1598.0</ele><time>2026-04-29T21:22:59.087Z</time></trkpt><trkpt lat="8.58519" lon="-71.2302733"><ele>1598.0</ele><time>2026-04-29T21:23:00.09Z</time></trkpt><trkpt lat="8.5851367" lon="-71.230195"><ele>1598.0</ele><time>2026-04-29T21:23:01.087Z</time></trkpt><trkpt lat="8.5850917" lon="-71.2301117"><ele>1598.0</ele><time>2026-04-29T21:23:02.114Z</time></trkpt><trkpt lat="8.5850583" lon="-71.2300217"><ele>1598.0</ele><time>2026-04-29T21:23:03.084Z</time></trkpt><trkpt lat="8.5850317" lon="-71.2299317"><ele>1598.0</ele><time>2026-04-29T21:23:04.063Z</time></trkpt><trkpt lat="8.585015" lon="-71.22984"><ele>1598.0</ele><time>2026-04-29T21:23:05.069Z</time></trkpt><trkpt lat="8.5850067" lon="-71.2297483"><ele>1598.0</ele><time>2026-04-29T21:23:06.084Z</time></trkpt><trkpt lat="8.5850067" lon="-71.2296583"><ele>1598.0</ele><time>2026-04-29T21:23:07.046Z</time></trkpt><trkpt lat="8.5850167" lon="-71.229565"><ele>1598.0</ele><time>2026-04-29T21:23:08.137Z</time></trkpt><trkpt lat="8.5850317" lon="-71.2294767"><ele>1598.0</ele><time>2026-04-29T21:23:09.081Z</time></trkpt><trkpt lat="8.5850583" lon="-71.2293917"><ele>1598.0</ele><time>2026-04-29T21:23:10.092Z</time></trkpt><trkpt lat="8.5850933" lon="-71.229305"><ele>1598.0</ele><time>2026-04-29T21:23:11.085Z</time></trkpt><trkpt lat="8.5851333" lon="-71.2292167"><ele>1598.0</ele><time>2026-04-29T21:23:12.083Z</time></trkpt><trkpt lat="8.5851733" lon="-71.2291283"><ele>1598.0</ele><time>2026-04-29T21:23:13.088Z</time></trkpt><trkpt lat="8.5852133" lon="-71.22904"><ele>1596.0</ele><time>2026-04-29T21:23:14.128Z</time></trkpt><trkpt lat="8.5852533" lon="-71.2289533"><ele>1594.0</ele><time>2026-04-29T21:23:15.077Z</time></trkpt><trkpt lat="8.5852883" lon="-71.228865"><ele>1592.0</ele><time>2026-04-29T21:23:16.085Z</time></trkpt><trkpt lat="8.585315" lon="-71.2287733"><ele>1590.0</ele><time>2026-04-29T21:23:17.084Z</time></trkpt><trkpt lat="8.58533" lon="-71.2286817"><ele>1588.0</ele><time>2026-04-29T21:23:18.079Z</time></trkpt><trkpt lat="8.5853367" lon="-71.2285883"><ele>1588.0</ele><time>2026-04-29T21:23:19.069Z</time></trkpt><trkpt lat="8.5853367" lon="-71.2284917"><ele>1588.0</ele><time>2026-04-29T21:23:20.139Z</time></trkpt><trkpt lat="8.5853317" lon="-71.228395"><ele>1588.0</ele><time>2026-04-29T21:23:21.093Z</time></trkpt><trkpt lat="8.5853233" lon="-71.2282967"><ele>1588.0</ele><time>2026-04-29T21:23:22.085Z</time></trkpt><trkpt lat="8.5853183" lon="-71.228195"><ele>1588.0</ele><time>2026-04-29T21:23:23.084Z</time></trkpt><trkpt lat="8.585315" lon="-71.2280917"><ele>1587.6000000000001</ele><time>2026-04-29T21:23:24.088Z</time></trkpt><trkpt lat="8.5853167" lon="-71.2279917"><ele>1587.2</ele><time>2026-04-29T21:23:25.083Z</time></trkpt><trkpt lat="8.5853133" lon="-71.22789"><ele>1586.8</ele><time>2026-04-29T21:23:26.132Z</time></trkpt><trkpt lat="8.5853067" lon="-71.2277883"><ele>1586.4</ele><time>2026-04-29T21:23:27.082Z</time></trkpt><trkpt lat="8.5852967" lon="-71.2276883"><ele>1586.0</ele><time>2026-04-29T21:23:28.097Z</time></trkpt><trkpt lat="8.5852883" lon="-71.2275867"><ele>1586.0</ele><time>2026-04-29T21:23:29.084Z</time></trkpt><trkpt lat="8.5852817" lon="-71.2274867"><ele>1586.0</ele><time>2026-04-29T21:23:30.102Z</time></trkpt><trkpt lat="8.5852717" lon="-71.22739"><ele>1586.0</ele><time>2026-04-29T21:23:31.093Z</time></trkpt><trkpt lat="8.58525" lon="-71.2272967"><ele>1586.0</ele><time>2026-04-29T21:23:32.109Z</time></trkpt><trkpt lat="8.5852217" lon="-71.227205"><ele>1586.0</ele><time>2026-04-29T21:23:33.083Z</time></trkpt><trkpt lat="8.5851833" lon="-71.22712"><ele>1588.9999999999998</ele><time>2026-04-29T21:23:34.081Z</time></trkpt><trkpt lat="8.5851333" lon="-71.2270433"><ele>1592.0</ele><time>2026-04-29T21:23:35.081Z</time></trkpt><trkpt lat="8.5850767" lon="-71.226975"><ele>1595.0</ele><time>2026-04-29T21:23:36.087Z</time></trkpt><trkpt lat="8.5850133" lon="-71.2269183"><ele>1598.0</ele><time>2026-04-29T21:23:37.065Z</time></trkpt><trkpt lat="8.5849467" lon="-71.2268733"><ele>1600.9999999999998</ele><time>2026-04-29T21:23:38.134Z</time></trkpt><trkpt lat="8.5848767" lon="-71.22685"><ele>1604.0</ele><time>2026-04-29T21:23:39.09Z</time></trkpt><trkpt lat="8.5848083" lon="-71.226835"><ele>1603.9999999999998</ele><time>2026-04-29T21:23:40.084Z</time></trkpt><trkpt lat="8.584745" lon="-71.2268233"><ele>1604.0</ele><time>2026-04-29T21:23:41.07Z</time></trkpt><trkpt lat="8.5846283" lon="-71.2268167"><ele>1604.0</ele><time>2026-04-29T21:23:43.086Z</time></trkpt><trkpt lat="8.5845317" lon="-71.2268267"><ele>1604.0</ele><time>2026-04-29T21:23:45.089Z</time></trkpt><trkpt lat="8.584455" lon="-71.2268417"><ele>1603.9999999999998</ele><time>2026-04-29T21:23:47.091Z</time></trkpt><trkpt lat="8.5843883" lon="-71.2268667"><ele>1604.0</ele><time>2026-04-29T21:23:49.096Z</time></trkpt><trkpt lat="8.5843283" lon="-71.2268933"><ele>1606.4999999999998</ele><time>2026-04-29T21:23:51.101Z</time></trkpt><trkpt lat="8.5842433" lon="-71.2269267"><ele>1609.0</ele><time>2026-04-29T21:23:54.075Z</time></trkpt><trkpt lat="8.5841567" lon="-71.2269517"><ele>1611.5</ele><time>2026-04-29T21:23:57.092Z</time></trkpt><trkpt lat="8.58407" lon="-71.22697"><ele>1614.0</ele><time>2026-04-29T21:24:00.088Z</time></trkpt><trkpt lat="8.5839817" lon="-71.2269933"><ele>1616.4999999999998</ele><time>2026-04-29T21:24:03.086Z</time></trkpt><trkpt lat="8.5839" lon="-71.227015"><ele>1619.0</ele><time>2026-04-29T21:24:06.103Z</time></trkpt><trkpt lat="8.58382" lon="-71.22704"><ele>1618.9999999999998</ele><time>2026-04-29T21:24:09.082Z</time></trkpt><trkpt lat="8.5837417" lon="-71.2270567"><ele>1619.0</ele><time>2026-04-29T21:24:12.094Z</time></trkpt><trkpt lat="8.5836633" lon="-71.2270717"><ele>1619.0</ele><time>2026-04-29T21:24:15.075Z</time></trkpt><trkpt lat="8.583585" lon="-71.227075"><ele>1619.0</ele><time>2026-04-29T21:24:18.084Z</time></trkpt><trkpt lat="8.5835083" lon="-71.2270767"><ele>1618.9999999999998</ele><time>2026-04-29T21:24:21.08Z</time></trkpt><trkpt lat="8.5834317" lon="-71.2270783"><ele>1619.0</ele><time>2026-04-29T21:24:24.087Z</time></trkpt><trkpt lat="8.58336" lon="-71.2270817"><ele>1620.6666666666665</ele><time>2026-04-29T21:24:27.094Z</time></trkpt><trkpt lat="8.583285" lon="-71.2270817"><ele>1622.3333333333333</ele><time>2026-04-29T21:24:30.079Z</time></trkpt><trkpt lat="8.5832033" lon="-71.227075"><ele>1624.0</ele><time>2026-04-29T21:24:33.086Z</time></trkpt><trkpt lat="8.5831183" lon="-71.227075"><ele>1625.6666666666665</ele><time>2026-04-29T21:24:36.092Z</time></trkpt><trkpt lat="8.5830383" lon="-71.22707"><ele>1627.3333333333333</ele><time>2026-04-29T21:24:39.107Z</time></trkpt><trkpt lat="8.582965" lon="-71.2270717"><ele>1629.0</ele><time>2026-04-29T21:24:42.082Z</time></trkpt><trkpt lat="8.58289" lon="-71.227065"><ele>1628.4285714285713</ele><time>2026-04-29T21:24:45.082Z</time></trkpt><trkpt lat="8.5828217" lon="-71.2270533"><ele>1627.857142857143</ele><time>2026-04-29T21:24:48.084Z</time></trkpt><trkpt lat="8.5827417" lon="-71.2270367"><ele>1627.2857142857142</ele><time>2026-04-29T21:24:52.08Z</time></trkpt><trkpt lat="8.5826767" lon="-71.2270283"><ele>1626.7142857142858</ele><time>2026-04-29T21:24:55.078Z</time></trkpt><trkpt lat="8.582605" lon="-71.2270217"><ele>1626.1428571428573</ele><time>2026-04-29T21:24:58.08Z</time></trkpt><trkpt lat="8.5825317" lon="-71.2270233"><ele>1625.5714285714287</ele><time>2026-04-29T21:25:01.088Z</time></trkpt><trkpt lat="8.5824567" lon="-71.227015"><ele>1625.0</ele><time>2026-04-29T21:25:04.09Z</time></trkpt><trkpt lat="8.5823883" lon="-71.2270017"><ele>1625.0</ele><time>2026-04-29T21:25:07.082Z</time></trkpt><trkpt lat="8.5823167" lon="-71.226995"><ele>1625.0</ele><time>2026-04-29T21:25:10.076Z</time></trkpt><trkpt lat="8.582255" lon="-71.2269767"><ele>1625.0</ele><time>2026-04-29T21:25:13.081Z</time></trkpt><trkpt lat="8.582185" lon="-71.2269567"><ele>1625.0</ele><time>2026-04-29T21:25:16.095Z</time></trkpt><trkpt lat="8.5821183" lon="-71.22694"><ele>1625.0</ele><time>2026-04-29T21:25:19.081Z</time></trkpt><trkpt lat="8.5820567" lon="-71.226925"><ele>1625.0</ele><time>2026-04-29T21:25:22.077Z</time></trkpt><trkpt lat="8.5819933" lon="-71.2269083"><ele>1625.0</ele><time>2026-04-29T21:25:25.071Z</time></trkpt><trkpt lat="8.5819133" lon="-71.226905"><ele>1623.6666666666665</ele><time>2026-04-29T21:25:28.08Z</time></trkpt><trkpt lat="8.5818317" lon="-71.22689"><ele>1622.3333333333333</ele><time>2026-04-29T21:25:31.09Z</time></trkpt><trkpt lat="8.581755" lon="-71.22688"><ele>1621.0</ele><time>2026-04-29T21:25:34.088Z</time></trkpt><trkpt lat="8.581675" lon="-71.2268717"><ele>1619.6666666666665</ele><time>2026-04-29T21:25:37.089Z</time></trkpt><trkpt lat="8.5815883" lon="-71.2268633"><ele>1618.3333333333333</ele><time>2026-04-29T21:25:40.081Z</time></trkpt><trkpt lat="8.5815" lon="-71.2268333"><ele>1617.0</ele><time>2026-04-29T21:25:43.089Z</time></trkpt><trkpt lat="8.5814133" lon="-71.2268017"><ele>1617.0</ele><time>2026-04-29T21:25:46.091Z</time></trkpt><trkpt lat="8.5813567" lon="-71.22677"><ele>1617.0</ele><time>2026-04-29T21:25:48.084Z</time></trkpt><trkpt lat="8.5813017" lon="-71.2267317"><ele>1617.0</ele><time>2026-04-29T21:25:50.132Z</time></trkpt><trkpt lat="8.5812383" lon="-71.2266967"><ele>1617.0</ele><time>2026-04-29T21:25:52.082Z</time></trkpt><trkpt lat="8.5811717" lon="-71.2266667"><ele>1617.0</ele><time>2026-04-29T21:25:54.099Z</time></trkpt><trkpt lat="8.581095" lon="-71.22663"><ele>1617.0</ele><time>2026-04-29T21:25:56.113Z</time></trkpt><trkpt lat="8.5810133" lon="-71.2265817"><ele>1620.0</ele><time>2026-04-29T21:25:58.07Z</time></trkpt><trkpt lat="8.5809267" lon="-71.2265333"><ele>1623.0</ele><time>2026-04-29T21:26:00.08Z</time></trkpt><trkpt lat="8.58084" lon="-71.2264917"><ele>1626.0</ele><time>2026-04-29T21:26:02.139Z</time></trkpt><trkpt lat="8.58076" lon="-71.2264517"><ele>1629.0</ele><time>2026-04-29T21:26:04.074Z</time></trkpt><trkpt lat="8.5806783" lon="-71.2264033"><ele>1632.0</ele><time>2026-04-29T21:26:06.087Z</time></trkpt><trkpt lat="8.580595" lon="-71.2263533"><ele>1632.0</ele><time>2026-04-29T21:26:08.137Z</time></trkpt><trkpt lat="8.5805133" lon="-71.22631"><ele>1632.0</ele><time>2026-04-29T21:26:10.071Z</time></trkpt><trkpt lat="8.58043" lon="-71.2262717"><ele>1632.0</ele><time>2026-04-29T21:26:12.085Z</time></trkpt><trkpt lat="8.5803367" lon="-71.2262417"><ele>1632.0</ele><time>2026-04-29T21:26:14.142Z</time></trkpt><trkpt lat="8.5802383" lon="-71.22623"><ele>1632.0</ele><time>2026-04-29T21:26:16.082Z</time></trkpt><trkpt lat="8.5801383" lon="-71.22623"><ele>1630.0</ele><time>2026-04-29T21:26:18.084Z</time></trkpt><trkpt lat="8.5800333" lon="-71.226235"><ele>1628.0</ele><time>2026-04-29T21:26:20.128Z</time></trkpt><trkpt lat="8.5799233" lon="-71.2262433"><ele>1626.0</ele><time>2026-04-29T21:26:22.096Z</time></trkpt><trkpt lat="8.579815" lon="-71.2262483"><ele>1624.0</ele><time>2026-04-29T21:26:24.076Z</time></trkpt><trkpt lat="8.5797083" lon="-71.2262633"><ele>1622.0</ele><time>2026-04-29T21:26:26.152Z</time></trkpt><trkpt lat="8.579605" lon="-71.2262783"><ele>1621.1999999999998</ele><time>2026-04-29T21:26:28.088Z</time></trkpt><trkpt lat="8.5795" lon="-71.2262933"><ele>1620.4</ele><time>2026-04-29T21:26:30.091Z</time></trkpt><trkpt lat="8.5793933" lon="-71.22631"><ele>1619.6</ele><time>2026-04-29T21:26:32.142Z</time></trkpt><trkpt lat="8.5792817" lon="-71.22631"><ele>1618.8000000000002</ele><time>2026-04-29T21:26:34.06Z</time></trkpt><trkpt lat="8.5791667" lon="-71.2262967"><ele>1618.0</ele><time>2026-04-29T21:26:36.09Z</time></trkpt><trkpt lat="8.57905" lon="-71.2262767"><ele>1618.0000000000002</ele><time>2026-04-29T21:26:38.109Z</time></trkpt><trkpt lat="8.5789367" lon="-71.2262467"><ele>1618.0</ele><time>2026-04-29T21:26:40.049Z</time></trkpt><trkpt lat="8.5788183" lon="-71.2262133"><ele>1618.0</ele><time>2026-04-29T21:26:42.067Z</time></trkpt><trkpt lat="8.5787567" lon="-71.2261983"><ele>1618.0</ele><time>2026-04-29T21:26:43.079Z</time></trkpt><trkpt lat="8.578695" lon="-71.226175"><ele>1618.0000000000002</ele><time>2026-04-29T21:26:44.127Z</time></trkpt><trkpt lat="8.5786317" lon="-71.2261533"><ele>1618.0</ele><time>2026-04-29T21:26:45.099Z</time></trkpt><trkpt lat="8.57857" lon="-71.2261317"><ele>1614.8000000000002</ele><time>2026-04-29T21:26:46.073Z</time></trkpt><trkpt lat="8.5785083" lon="-71.22611"><ele>1611.6</ele><time>2026-04-29T21:26:47.092Z</time></trkpt><trkpt lat="8.5783917" lon="-71.22606"><ele>1608.4</ele><time>2026-04-29T21:26:49.088Z</time></trkpt><trkpt lat="8.57833" lon="-71.2260333"><ele>1605.1999999999998</ele><time>2026-04-29T21:26:50.133Z</time></trkpt><trkpt lat="8.5782717" lon="-71.2260067"><ele>1602.0</ele><time>2026-04-29T21:26:51.091Z</time></trkpt><trkpt lat="8.5781583" lon="-71.2259433"><ele>1602.0</ele><time>2026-04-29T21:26:53.088Z</time></trkpt><trkpt lat="8.5780617" lon="-71.2258633"><ele>1602.0</ele><time>2026-04-29T21:26:55.064Z</time></trkpt><trkpt lat="8.5780167" lon="-71.2258183"><ele>1602.0</ele><time>2026-04-29T21:26:56.141Z</time></trkpt><trkpt lat="8.5779483" lon="-71.2257017"><ele>1602.0</ele><time>2026-04-29T21:26:58.08Z</time></trkpt><trkpt lat="8.57792" lon="-71.22563"><ele>1602.0</ele><time>2026-04-29T21:26:59.078Z</time></trkpt><trkpt lat="8.5778967" lon="-71.2255583"><ele>1604.5714285714284</ele><time>2026-04-29T21:27:00.093Z</time></trkpt><trkpt lat="8.577875" lon="-71.2254867"><ele>1607.142857142857</ele><time>2026-04-29T21:27:01.082Z</time></trkpt><trkpt lat="8.5778567" lon="-71.2254117"><ele>1609.7142857142858</ele><time>2026-04-29T21:27:02.137Z</time></trkpt><trkpt lat="8.5778467" lon="-71.2253367"><ele>1612.2857142857142</ele><time>2026-04-29T21:27:03.093Z</time></trkpt><trkpt lat="8.5778467" lon="-71.2252617"><ele>1614.857142857143</ele><time>2026-04-29T21:27:04.087Z</time></trkpt><trkpt lat="8.577855" lon="-71.225185"><ele>1617.4285714285713</ele><time>2026-04-29T21:27:05.087Z</time></trkpt><trkpt lat="8.5778667" lon="-71.2251117"><ele>1620.0</ele><time>2026-04-29T21:27:06.08Z</time></trkpt><trkpt lat="8.5778767" lon="-71.2250417"><ele>1620.0</ele><time>2026-04-29T21:27:07.083Z</time></trkpt><trkpt lat="8.5778917" lon="-71.22497"><ele>1620.0</ele><time>2026-04-29T21:27:08.096Z</time></trkpt><trkpt lat="8.5779217" lon="-71.2248933"><ele>1620.0</ele><time>2026-04-29T21:27:09.078Z</time></trkpt><trkpt lat="8.5779383" lon="-71.2248217"><ele>1620.0</ele><time>2026-04-29T21:27:10.085Z</time></trkpt><trkpt lat="8.577955" lon="-71.2247483"><ele>1620.0</ele><time>2026-04-29T21:27:11.079Z</time></trkpt><trkpt lat="8.5779667" lon="-71.224675"><ele>1620.0</ele><time>2026-04-29T21:27:12.081Z</time></trkpt><trkpt lat="8.5779717" lon="-71.2245983"><ele>1619.6666666666667</ele><time>2026-04-29T21:27:13.103Z</time></trkpt><trkpt lat="8.5779733" lon="-71.22452"><ele>1619.3333333333335</ele><time>2026-04-29T21:27:14.134Z</time></trkpt><trkpt lat="8.5779683" lon="-71.22444"><ele>1619.0</ele><time>2026-04-29T21:27:15.079Z</time></trkpt><trkpt lat="8.57795" lon="-71.2243617"><ele>1618.6666666666667</ele><time>2026-04-29T21:27:16.079Z</time></trkpt><trkpt lat="8.5779233" lon="-71.2242867"><ele>1618.3333333333335</ele><time>2026-04-29T21:27:17.095Z</time></trkpt><trkpt lat="8.5778867" lon="-71.2242183"><ele>1618.0</ele><time>2026-04-29T21:27:18.078Z</time></trkpt><trkpt lat="8.5778383" lon="-71.22416"><ele>1614.1666666666667</ele><time>2026-04-29T21:27:19.084Z</time></trkpt><trkpt lat="8.5777733" lon="-71.2241183"><ele>1610.3333333333335</ele><time>2026-04-29T21:27:20.124Z</time></trkpt><trkpt lat="8.577695" lon="-71.2240983"><ele>1606.5</ele><time>2026-04-29T21:27:21.093Z</time></trkpt><trkpt lat="8.5776167" lon="-71.224085"><ele>1602.6666666666665</ele><time>2026-04-29T21:27:22.087Z</time></trkpt><trkpt lat="8.577535" lon="-71.2240767"><ele>1598.8333333333333</ele><time>2026-04-29T21:27:23.098Z</time></trkpt><trkpt lat="8.5774583" lon="-71.224075"><ele>1595.0</ele><time>2026-04-29T21:27:24.094Z</time></trkpt><trkpt lat="8.57738" lon="-71.2240833"><ele>1595.0</ele><time>2026-04-29T21:27:25.089Z</time></trkpt><trkpt lat="8.5773067" lon="-71.2240967"><ele>1595.0</ele><time>2026-04-29T21:27:26.121Z</time></trkpt><trkpt lat="8.577235" lon="-71.2241117"><ele>1595.0</ele><time>2026-04-29T21:27:27.084Z</time></trkpt><trkpt lat="8.5771633" lon="-71.22413"><ele>1595.0</ele><time>2026-04-29T21:27:28.101Z</time></trkpt><trkpt lat="8.5770917" lon="-71.22415"><ele>1595.0</ele><time>2026-04-29T21:27:29.093Z</time></trkpt><trkpt lat="8.5770217" lon="-71.2241633"><ele>1595.0</ele><time>2026-04-29T21:27:30.09Z</time></trkpt><trkpt lat="8.5769567" lon="-71.2241767"><ele>1595.0</ele><time>2026-04-29T21:27:31.081Z</time></trkpt><trkpt lat="8.5768933" lon="-71.224195"><ele>1595.2857142857142</ele><time>2026-04-29T21:27:32.148Z</time></trkpt><trkpt lat="8.57683" lon="-71.2242117"><ele>1595.5714285714284</ele><time>2026-04-29T21:27:33.088Z</time></trkpt><trkpt lat="8.5767683" lon="-71.2242283"><ele>1595.857142857143</ele><time>2026-04-29T21:27:34.078Z</time></trkpt><trkpt lat="8.5767033" lon="-71.2242433"><ele>1596.142857142857</ele><time>2026-04-29T21:27:35.088Z</time></trkpt><trkpt lat="8.57664" lon="-71.224255"><ele>1596.4285714285716</ele><time>2026-04-29T21:27:36.083Z</time></trkpt><trkpt lat="8.5765783" lon="-71.2242683"><ele>1596.7142857142858</ele><time>2026-04-29T21:27:37.08Z</time></trkpt><trkpt lat="8.576515" lon="-71.22428"><ele>1597.0</ele><time>2026-04-29T21:27:38.119Z</time></trkpt><trkpt lat="8.57645" lon="-71.2242917"><ele>1597.0</ele><time>2026-04-29T21:27:39.09Z</time></trkpt><trkpt lat="8.576385" lon="-71.2242983"><ele>1597.0</ele><time>2026-04-29T21:27:40.083Z</time></trkpt><trkpt lat="8.5763183" lon="-71.2243033"><ele>1597.0</ele><time>2026-04-29T21:27:41.087Z</time></trkpt><trkpt lat="8.5762517" lon="-71.2243083"><ele>1597.0</ele><time>2026-04-29T21:27:42.085Z</time></trkpt><trkpt lat="8.5761867" lon="-71.2243117"><ele>1597.0</ele><time>2026-04-29T21:27:43.092Z</time></trkpt><trkpt lat="8.5761217" lon="-71.2243117"><ele>1597.0</ele><time>2026-04-29T21:27:44.136Z</time></trkpt><trkpt lat="8.576055" lon="-71.2243083"><ele>1597.0</ele><time>2026-04-29T21:27:45.083Z</time></trkpt><trkpt lat="8.5759883" lon="-71.224305"><ele>1595.1999999999998</ele><time>2026-04-29T21:27:46.093Z</time></trkpt><trkpt lat="8.5759233" lon="-71.2242967"><ele>1593.4</ele><time>2026-04-29T21:27:47.077Z</time></trkpt><trkpt lat="8.5758" lon="-71.224275"><ele>1591.6</ele><time>2026-04-29T21:27:49.087Z</time></trkpt><trkpt lat="8.575685" lon="-71.224255"><ele>1589.8000000000002</ele><time>2026-04-29T21:27:51.085Z</time></trkpt><trkpt lat="8.5755817" lon="-71.2242283"><ele>1588.0</ele><time>2026-04-29T21:27:53.081Z</time></trkpt><trkpt lat="8.5754883" lon="-71.2242033"><ele>1588.0000000000002</ele><time>2026-04-29T21:27:55.103Z</time></trkpt><trkpt lat="8.5754083" lon="-71.22418"><ele>1588.0</ele><time>2026-04-29T21:27:57.077Z</time></trkpt><trkpt lat="8.5753267" lon="-71.224155"><ele>1588.0</ele><time>2026-04-29T21:27:59.08Z</time></trkpt><trkpt lat="8.57526" lon="-71.224135"><ele>1588.0</ele><time>2026-04-29T21:28:01.079Z</time></trkpt><trkpt lat="8.5751783" lon="-71.2241033"><ele>1588.0000000000002</ele><time>2026-04-29T21:28:04.081Z</time></trkpt><trkpt lat="8.5751017" lon="-71.22407"><ele>1588.0</ele><time>2026-04-29T21:28:07.089Z</time></trkpt><trkpt lat="8.5750267" lon="-71.22404"><ele>1587.0000000000002</ele><time>2026-04-29T21:28:10.06Z</time></trkpt><trkpt lat="8.5749533" lon="-71.224015"><ele>1586.0</ele><time>2026-04-29T21:28:13.055Z</time></trkpt><trkpt lat="8.5748717" lon="-71.2240017"><ele>1585.0</ele><time>2026-04-29T21:28:17.083Z</time></trkpt><trkpt lat="8.574805" lon="-71.22398"><ele>1584.0</ele><time>2026-04-29T21:28:20.135Z</time></trkpt><trkpt lat="8.57474" lon="-71.223955"><ele>1583.0000000000002</ele><time>2026-04-29T21:28:23.089Z</time></trkpt><trkpt lat="8.5746717" lon="-71.2239417"><ele>1582.0</ele><time>2026-04-29T21:28:26.128Z</time></trkpt><trkpt lat="8.57459" lon="-71.223925"><ele>1587.0</ele><time>2026-04-29T21:28:30.085Z</time></trkpt><trkpt lat="8.5745167" lon="-71.2239033"><ele>1592.0</ele><time>2026-04-29T21:28:34.076Z</time></trkpt><trkpt lat="8.5744517" lon="-71.223875"><ele>1597.0</ele><time>2026-04-29T21:28:38.13Z</time></trkpt><trkpt lat="8.57438" lon="-71.2238567"><ele>1602.0</ele><time>2026-04-29T21:28:42.097Z</time></trkpt><trkpt lat="8.574315" lon="-71.2238317"><ele>1607.0</ele><time>2026-04-29T21:28:46.05Z</time></trkpt><trkpt lat="8.57424" lon="-71.2238117"><ele>1612.0</ele><time>2026-04-29T21:28:50.133Z</time></trkpt><trkpt lat="8.574165" lon="-71.2238083"><ele>1617.0</ele><time>2026-04-29T21:28:54.105Z</time></trkpt><trkpt lat="8.5740967" lon="-71.2237917"><ele>1617.0</ele><time>2026-04-29T21:28:58.077Z</time></trkpt><trkpt lat="8.574035" lon="-71.2237683"><ele>1617.0</ele><time>2026-04-29T21:29:02.134Z</time></trkpt><trkpt lat="8.57397" lon="-71.2237367"><ele>1617.0</ele><time>2026-04-29T21:29:06.081Z</time></trkpt><trkpt lat="8.5739017" lon="-71.22372"><ele>1617.0</ele><time>2026-04-29T21:29:10.077Z</time></trkpt><trkpt lat="8.5738333" lon="-71.223715"><ele>1617.0</ele><time>2026-04-29T21:29:15.087Z</time></trkpt><trkpt lat="8.5737667" lon="-71.22369"><ele>1617.0</ele><time>2026-04-29T21:29:19.09Z</time></trkpt><trkpt lat="8.5736917" lon="-71.2236633"><ele>1617.0</ele><time>2026-04-29T21:29:24.06Z</time></trkpt><trkpt lat="8.5736183" lon="-71.2236483"><ele>1617.2857142857142</ele><time>2026-04-29T21:29:28.087Z</time></trkpt><trkpt lat="8.573545" lon="-71.2236483"><ele>1617.5714285714284</ele><time>2026-04-29T21:29:32.143Z</time></trkpt><trkpt lat="8.5734783" lon="-71.2236483"><ele>1617.857142857143</ele><time>2026-04-29T21:29:36.095Z</time></trkpt><trkpt lat="8.5734083" lon="-71.223645"><ele>1618.142857142857</ele><time>2026-04-29T21:29:40.066Z</time></trkpt><trkpt lat="8.573345" lon="-71.2236517"><ele>1618.4285714285713</ele><time>2026-04-29T21:29:44.138Z</time></trkpt><trkpt lat="8.5732767" lon="-71.22366"><ele>1618.7142857142858</ele><time>2026-04-29T21:29:48.094Z</time></trkpt><trkpt lat="8.5732083" lon="-71.223645"><ele>1619.0</ele><time>2026-04-29T21:29:52.093Z</time></trkpt><trkpt lat="8.5731433" lon="-71.223645"><ele>1619.0</ele><time>2026-04-29T21:29:56.136Z</time></trkpt><trkpt lat="8.5730733" lon="-71.2236517"><ele>1619.0</ele><time>2026-04-29T21:30:00.08Z</time></trkpt><trkpt lat="8.5729933" lon="-71.2236633"><ele>1619.0</ele><time>2026-04-29T21:30:04.091Z</time></trkpt><trkpt lat="8.5729167" lon="-71.22367"><ele>1619.0</ele><time>2026-04-29T21:30:08.128Z</time></trkpt><trkpt lat="8.572845" lon="-71.2236767"><ele>1619.0</ele><time>2026-04-29T21:30:12.083Z</time></trkpt><trkpt lat="8.5727767" lon="-71.22369"><ele>1619.0</ele><time>2026-04-29T21:30:16.085Z</time></trkpt><trkpt lat="8.5727083" lon="-71.2237117"><ele>1619.0</ele><time>2026-04-29T21:30:20.139Z</time></trkpt><trkpt lat="8.5726433" lon="-71.22374"><ele>1618.4285714285716</ele><time>2026-04-29T21:30:24.096Z</time></trkpt><trkpt lat="8.5725833" lon="-71.223765"><ele>1617.8571428571427</ele><time>2026-04-29T21:30:28.046Z</time></trkpt><trkpt lat="8.5725233" lon="-71.2238"><ele>1617.2857142857142</ele><time>2026-04-29T21:30:32.141Z</time></trkpt><trkpt lat="8.5724583" lon="-71.2238383"><ele>1616.7142857142858</ele><time>2026-04-29T21:30:36.103Z</time></trkpt><trkpt lat="8.5723933" lon="-71.22387"><ele>1616.1428571428573</ele><time>2026-04-29T21:30:40.09Z</time></trkpt><trkpt lat="8.5723217" lon="-71.22389"><ele>1615.5714285714284</ele><time>2026-04-29T21:30:44.133Z</time></trkpt><trkpt lat="8.57225" lon="-71.22391"><ele>1615.0</ele><time>2026-04-29T21:30:48.089Z</time></trkpt><trkpt lat="8.5721733" lon="-71.22392"><ele>1615.0000000000002</ele><time>2026-04-29T21:30:52.084Z</time></trkpt><trkpt lat="8.5721" lon="-71.2239283"><ele>1615.0</ele><time>2026-04-29T21:30:56.15Z</time></trkpt><trkpt lat="8.572025" lon="-71.223945"><ele>1615.0</ele><time>2026-04-29T21:31:00.093Z</time></trkpt><trkpt lat="8.57195" lon="-71.2239517"><ele>1615.0</ele><time>2026-04-29T21:31:04.079Z</time></trkpt><trkpt lat="8.5718667" lon="-71.2239483"><ele>1615.0000000000002</ele><time>2026-04-29T21:31:08.126Z</time></trkpt><trkpt lat="8.5717883" lon="-71.2239433"><ele>1615.0</ele><time>2026-04-29T21:31:12.095Z</time></trkpt><trkpt lat="8.571725" lon="-71.2239317"><ele>1614.5714285714284</ele><time>2026-04-29T21:31:15.086Z</time></trkpt><trkpt lat="8.5716517" lon="-71.2239233"><ele>1614.1428571428573</ele><time>2026-04-29T21:31:19.085Z</time></trkpt><trkpt lat="8.5715783" lon="-71.223905"><ele>1613.7142857142858</ele><time>2026-04-29T21:31:23.094Z</time></trkpt><trkpt lat="8.5715033" lon="-71.2239067"><ele>1613.2857142857142</ele><time>2026-04-29T21:31:27.078Z</time></trkpt><trkpt lat="8.5714383" lon="-71.2239033"><ele>1612.8571428571427</ele><time>2026-04-29T21:31:31.078Z</time></trkpt><trkpt lat="8.571365" lon="-71.223905"><ele>1612.4285714285716</ele><time>2026-04-29T21:31:35.092Z</time></trkpt><trkpt lat="8.571285" lon="-71.2238933"><ele>1612.0</ele><time>2026-04-29T21:31:39.087Z</time></trkpt><trkpt lat="8.5712033" lon="-71.2238817"><ele>1611.5000000000002</ele><time>2026-04-29T21:31:43.076Z</time></trkpt><trkpt lat="8.571125" lon="-71.223875"><ele>1611.0</ele><time>2026-04-29T21:31:47.09Z</time></trkpt><trkpt lat="8.5710517" lon="-71.2238667"><ele>1610.5</ele><time>2026-04-29T21:31:51.056Z</time></trkpt><trkpt lat="8.5709733" lon="-71.2238767"><ele>1610.0</ele><time>2026-04-29T21:31:55.073Z</time></trkpt><trkpt lat="8.5708967" lon="-71.2238817"><ele>1609.5000000000002</ele><time>2026-04-29T21:31:59.093Z</time></trkpt><trkpt lat="8.5708267" lon="-71.223875"><ele>1609.0</ele><time>2026-04-29T21:32:03.05Z</time></trkpt><trkpt lat="8.570755" lon="-71.223865"><ele>1609.0</ele><time>2026-04-29T21:32:07.09Z</time></trkpt><trkpt lat="8.5706817" lon="-71.2238583"><ele>1609.0</ele><time>2026-04-29T21:32:11.078Z</time></trkpt><trkpt lat="8.5706083" lon="-71.2238483"><ele>1609.0</ele><time>2026-04-29T21:32:15.088Z</time></trkpt><trkpt lat="8.5705417" lon="-71.2238383"><ele>1609.0</ele><time>2026-04-29T21:32:19.086Z</time></trkpt><trkpt lat="8.57048" lon="-71.223825"><ele>1609.0</ele><time>2026-04-29T21:32:23.083Z</time></trkpt><trkpt lat="8.5704167" lon="-71.2237917"><ele>1609.0</ele><time>2026-04-29T21:32:27.097Z</time></trkpt><trkpt lat="8.5703517" lon="-71.223755"><ele>1609.0</ele><time>2026-04-29T21:32:31.074Z</time></trkpt><trkpt lat="8.5702833" lon="-71.2237083"><ele>1608.8333333333335</ele><time>2026-04-29T21:32:35.098Z</time></trkpt><trkpt lat="8.5702233" lon="-71.2236683"><ele>1608.6666666666667</ele><time>2026-04-29T21:32:39.084Z</time></trkpt><trkpt lat="8.57017" lon="-71.2236183"><ele>1608.5</ele><time>2026-04-29T21:32:43.085Z</time></trkpt><trkpt lat="8.5701267" lon="-71.2235633"><ele>1608.3333333333335</ele><time>2026-04-29T21:32:47.085Z</time></trkpt><trkpt lat="8.57009" lon="-71.2235033"><ele>1608.1666666666667</ele><time>2026-04-29T21:32:51.081Z</time></trkpt><trkpt lat="8.5700583" lon="-71.2234383"><ele>1608.0</ele><time>2026-04-29T21:32:55.097Z</time></trkpt><trkpt lat="8.5700283" lon="-71.2233333"><ele>1608.0</ele><time>2026-04-29T21:33:02.138Z</time></trkpt><trkpt lat="8.57001" lon="-71.2232617"><ele>1608.0</ele><time>2026-04-29T21:33:06.091Z</time></trkpt><trkpt lat="8.570005" lon="-71.2231933"><ele>1608.0</ele><time>2026-04-29T21:33:09.088Z</time></trkpt><trkpt lat="8.5699917" lon="-71.2231167"><ele>1608.0</ele><time>2026-04-29T21:33:13.075Z</time></trkpt><trkpt lat="8.57" lon="-71.22304"><ele>1608.0</ele><time>2026-04-29T21:33:17.087Z</time></trkpt><trkpt lat="8.5700217" lon="-71.22297"><ele>1608.0</ele><time>2026-04-29T21:33:20.132Z</time></trkpt><trkpt lat="8.5700433" lon="-71.2229"><ele>1608.0</ele><time>2026-04-29T21:33:23.091Z</time></trkpt><trkpt lat="8.5700617" lon="-71.2228333"><ele>1607.0</ele><time>2026-04-29T21:33:26.137Z</time></trkpt><trkpt lat="8.5700883" lon="-71.2227717"><ele>1606.0</ele><time>2026-04-29T21:33:29.085Z</time></trkpt><trkpt lat="8.5701167" lon="-71.2227117"><ele>1605.0</ele><time>2026-04-29T21:33:32.106Z</time></trkpt><trkpt lat="8.5701483" lon="-71.2226533"><ele>1604.0</ele><time>2026-04-29T21:33:35.096Z</time></trkpt><trkpt lat="8.5701767" lon="-71.22259"><ele>1603.0</ele><time>2026-04-29T21:33:38.127Z</time></trkpt><trkpt lat="8.57021" lon="-71.2225333"><ele>1602.0</ele><time>2026-04-29T21:33:41.084Z</time></trkpt><trkpt lat="8.5702417" lon="-71.2224717"><ele>1601.0</ele><time>2026-04-29T21:33:44.137Z</time></trkpt><trkpt lat="8.5702783" lon="-71.2224133"><ele>1601.0</ele><time>2026-04-29T21:33:47.089Z</time></trkpt><trkpt lat="8.5703167" lon="-71.222355"><ele>1601.0</ele><time>2026-04-29T21:33:50.131Z</time></trkpt><trkpt lat="8.570375" lon="-71.222295"><ele>1601.0</ele><time>2026-04-29T21:33:54.09Z</time></trkpt><trkpt lat="8.5704233" lon="-71.2222417"><ele>1601.0</ele><time>2026-04-29T21:33:57.083Z</time></trkpt><trkpt lat="8.5704767" lon="-71.2221983"><ele>1601.0</ele><time>2026-04-29T21:34:00.087Z</time></trkpt><trkpt lat="8.5705267" lon="-71.222155"><ele>1601.0</ele><time>2026-04-29T21:34:03.062Z</time></trkpt><trkpt lat="8.570565" lon="-71.2221017"><ele>1601.0</ele><time>2026-04-29T21:34:06.09Z</time></trkpt><trkpt lat="8.570635" lon="-71.2220267"><ele>1601.5714285714284</ele><time>2026-04-29T21:38:26.115Z</time></trkpt><trkpt lat="8.5707033" lon="-71.2219917"><ele>1602.1428571428573</ele><time>2026-04-29T21:38:31.093Z</time></trkpt><trkpt lat="8.5707667" lon="-71.221945"><ele>1602.7142857142858</ele><time>2026-04-29T21:38:35.073Z</time></trkpt><trkpt lat="8.570815" lon="-71.2219033"><ele>1603.2857142857142</ele><time>2026-04-29T21:38:38.131Z</time></trkpt><trkpt lat="8.57086" lon="-71.2218583"><ele>1603.8571428571427</ele><time>2026-04-29T21:38:41.087Z</time></trkpt><trkpt lat="8.5709083" lon="-71.2218033"><ele>1604.4285714285716</ele><time>2026-04-29T21:38:44.149Z</time></trkpt><trkpt lat="8.5709617" lon="-71.2217433"><ele>1605.0</ele><time>2026-04-29T21:38:47.09Z</time></trkpt><trkpt lat="8.5710233" lon="-71.22168"><ele>1605.0</ele><time>2026-04-29T21:38:50.156Z</time></trkpt><trkpt lat="8.57109" lon="-71.2216083"><ele>1605.0</ele><time>2026-04-29T21:38:53.085Z</time></trkpt><trkpt lat="8.57114" lon="-71.2215533"><ele>1605.0</ele><time>2026-04-29T21:38:55.083Z</time></trkpt><trkpt lat="8.5711983" lon="-71.2214967"><ele>1605.0</ele><time>2026-04-29T21:38:57.073Z</time></trkpt><trkpt lat="8.5712617" lon="-71.2214433"><ele>1605.0</ele><time>2026-04-29T21:38:59.087Z</time></trkpt><trkpt lat="8.5713233" lon="-71.221385"><ele>1605.0</ele><time>2026-04-29T21:39:01.101Z</time></trkpt><trkpt lat="8.5713917" lon="-71.2213217"><ele>1603.6</ele><time>2026-04-29T21:39:03.051Z</time></trkpt><trkpt lat="8.5714583" lon="-71.2212517"><ele>1602.2</ele><time>2026-04-29T21:39:05.082Z</time></trkpt><trkpt lat="8.5715283" lon="-71.2211817"><ele>1600.8000000000002</ele><time>2026-04-29T21:39:07.076Z</time></trkpt><trkpt lat="8.5716" lon="-71.221115"><ele>1599.4</ele><time>2026-04-29T21:39:09.087Z</time></trkpt><trkpt lat="8.5716717" lon="-71.22105"><ele>1598.0</ele><time>2026-04-29T21:39:11.081Z</time></trkpt><trkpt lat="8.5717467" lon="-71.2209817"><ele>1598.0</ele><time>2026-04-29T21:39:13.09Z</time></trkpt><trkpt lat="8.571825" lon="-71.2209117"><ele>1598.0</ele><time>2026-04-29T21:39:15.085Z</time></trkpt><trkpt lat="8.57191" lon="-71.220845"><ele>1598.0</ele><time>2026-04-29T21:39:17.092Z</time></trkpt><trkpt lat="8.572" lon="-71.2207817"><ele>1598.0</ele><time>2026-04-29T21:39:19.101Z</time></trkpt><trkpt lat="8.5720967" lon="-71.22072"><ele>1598.0</ele><time>2026-04-29T21:39:21.08Z</time></trkpt><trkpt lat="8.5721967" lon="-71.22066"><ele>1595.5</ele><time>2026-04-29T21:39:23.088Z</time></trkpt><trkpt lat="8.5722983" lon="-71.2205967"><ele>1593.0</ele><time>2026-04-29T21:39:25.085Z</time></trkpt><trkpt lat="8.5724" lon="-71.2205367"><ele>1590.5</ele><time>2026-04-29T21:39:27.079Z</time></trkpt><trkpt lat="8.57251" lon="-71.2204867"><ele>1588.0</ele><time>2026-04-29T21:39:29.088Z</time></trkpt><trkpt lat="8.5726217" lon="-71.2204317"><ele>1588.0</ele><time>2026-04-29T21:39:31.062Z</time></trkpt><trkpt lat="8.5726833" lon="-71.2204017"><ele>1588.0</ele><time>2026-04-29T21:39:32.139Z</time></trkpt><trkpt lat="8.5727433" lon="-71.2203717"><ele>1588.0</ele><time>2026-04-29T21:39:33.097Z</time></trkpt><trkpt lat="8.5728067" lon="-71.2203333"><ele>1588.0</ele><time>2026-04-29T21:39:34.079Z</time></trkpt><trkpt lat="8.5728633" lon="-71.22029"><ele>1588.0</ele><time>2026-04-29T21:39:35.072Z</time></trkpt><trkpt lat="8.572915" lon="-71.2202367"><ele>1588.0</ele><time>2026-04-29T21:39:36.069Z</time></trkpt><trkpt lat="8.57296" lon="-71.220175"><ele>1588.0</ele><time>2026-04-29T21:39:37.077Z</time></trkpt><trkpt lat="8.5729967" lon="-71.2201083"><ele>1590.7142857142858</ele><time>2026-04-29T21:39:38.146Z</time></trkpt><trkpt lat="8.5730233" lon="-71.2200383"><ele>1593.4285714285713</ele><time>2026-04-29T21:39:39.085Z</time></trkpt><trkpt lat="8.57304" lon="-71.219965"><ele>1596.1428571428573</ele><time>2026-04-29T21:39:40.088Z</time></trkpt><trkpt lat="8.57305" lon="-71.2198917"><ele>1598.857142857143</ele><time>2026-04-29T21:39:41.081Z</time></trkpt><trkpt lat="8.573055" lon="-71.2198183"><ele>1601.5714285714287</ele><time>2026-04-29T21:39:42.08Z</time></trkpt><trkpt lat="8.5730617" lon="-71.219745"><ele>1604.2857142857144</ele><time>2026-04-29T21:39:43.067Z</time></trkpt><trkpt lat="8.573065" lon="-71.219675"><ele>1607.0</ele><time>2026-04-29T21:39:44.14Z</time></trkpt><trkpt lat="8.57307" lon="-71.2196067"><ele>1607.0000000000002</ele><time>2026-04-29T21:39:45.081Z</time></trkpt><trkpt lat="8.57308" lon="-71.2195367"><ele>1607.0</ele><time>2026-04-29T21:39:46.081Z</time></trkpt><trkpt lat="8.5730933" lon="-71.2194667"><ele>1607.0</ele><time>2026-04-29T21:39:47.087Z</time></trkpt><trkpt lat="8.5731133" lon="-71.2194"><ele>1607.0</ele><time>2026-04-29T21:39:48.083Z</time></trkpt><trkpt lat="8.5731417" lon="-71.2193333"><ele>1607.0</ele><time>2026-04-29T21:39:49.088Z</time></trkpt><trkpt lat="8.5731733" lon="-71.21927"><ele>1607.0000000000002</ele><time>2026-04-29T21:39:50.134Z</time></trkpt><trkpt lat="8.57321" lon="-71.21921"><ele>1607.0</ele><time>2026-04-29T21:39:51.082Z</time></trkpt><trkpt lat="8.5732483" lon="-71.2191533"><ele>1607.0000000000002</ele><time>2026-04-29T21:39:52.074Z</time></trkpt><trkpt lat="8.5732917" lon="-71.2190983"><ele>1607.0</ele><time>2026-04-29T21:39:53.089Z</time></trkpt><trkpt lat="8.57334" lon="-71.219045"><ele>1607.0</ele><time>2026-04-29T21:39:54.08Z</time></trkpt><trkpt lat="8.5733933" lon="-71.2189917"><ele>1607.0</ele><time>2026-04-29T21:39:55.088Z</time></trkpt><trkpt lat="8.5734467" lon="-71.2189383"><ele>1607.0</ele><time>2026-04-29T21:39:56.137Z</time></trkpt><trkpt lat="8.5734933" lon="-71.2188817"><ele>1607.0000000000002</ele><time>2026-04-29T21:39:57.079Z</time></trkpt><trkpt lat="8.5735383" lon="-71.2188233"><ele>1607.0</ele><time>2026-04-29T21:39:58.085Z</time></trkpt><trkpt lat="8.5735783" lon="-71.21876"><ele>1604.4285714285716</ele><time>2026-04-29T21:39:59.1Z</time></trkpt><trkpt lat="8.5736133" lon="-71.21869"><ele>1601.857142857143</ele><time>2026-04-29T21:40:00.086Z</time></trkpt><trkpt lat="8.57364" lon="-71.2186183"><ele>1599.2857142857142</ele><time>2026-04-29T21:40:01.085Z</time></trkpt><trkpt lat="8.57366" lon="-71.218545"><ele>1596.7142857142858</ele><time>2026-04-29T21:40:02.128Z</time></trkpt><trkpt lat="8.5736667" lon="-71.21847"><ele>1594.142857142857</ele><time>2026-04-29T21:40:03.077Z</time></trkpt><trkpt lat="8.5736617" lon="-71.2184"><ele>1591.5714285714287</ele><time>2026-04-29T21:40:04.073Z</time></trkpt><trkpt lat="8.573655" lon="-71.218325"><ele>1589.0</ele><time>2026-04-29T21:40:05.087Z</time></trkpt><trkpt lat="8.5736483" lon="-71.21825"><ele>1588.9999999999998</ele><time>2026-04-29T21:40:06.083Z</time></trkpt><trkpt lat="8.573645" lon="-71.21818"><ele>1589.0</ele><time>2026-04-29T21:40:07.047Z</time></trkpt><trkpt lat="8.5736417" lon="-71.218115"><ele>1589.0</ele><time>2026-04-29T21:40:08.136Z</time></trkpt><trkpt lat="8.5736383" lon="-71.21805"><ele>1589.0</ele><time>2026-04-29T21:40:09.096Z</time></trkpt><trkpt lat="8.5736383" lon="-71.217935"><ele>1588.9999999999998</ele><time>2026-04-29T21:40:11.083Z</time></trkpt><trkpt lat="8.5736433" lon="-71.2178233"><ele>1589.0</ele><time>2026-04-29T21:40:13.09Z</time></trkpt><trkpt lat="8.5736633" lon="-71.217735"><ele>1590.6666666666665</ele><time>2026-04-29T21:40:15.077Z</time></trkpt><trkpt lat="8.573695" lon="-71.2176417"><ele>1592.3333333333333</ele><time>2026-04-29T21:40:17.054Z</time></trkpt><trkpt lat="8.5737417" lon="-71.2175567"><ele>1594.0</ele><time>2026-04-29T21:40:19.08Z</time></trkpt><trkpt lat="8.573785" lon="-71.21748"><ele>1595.6666666666665</ele><time>2026-04-29T21:40:21.085Z</time></trkpt><trkpt lat="8.573835" lon="-71.217415"><ele>1597.3333333333333</ele><time>2026-04-29T21:40:23.087Z</time></trkpt><trkpt lat="8.5738867" lon="-71.2173533"><ele>1599.0</ele><time>2026-04-29T21:40:25.088Z</time></trkpt><trkpt lat="8.5739367" lon="-71.2172917"><ele>1598.9999999999998</ele><time>2026-04-29T21:40:27.079Z</time></trkpt><trkpt lat="8.57399" lon="-71.2172383"><ele>1599.0</ele><time>2026-04-29T21:40:29.08Z</time></trkpt><trkpt lat="8.574045" lon="-71.21719"><ele>1599.0</ele><time>2026-04-29T21:40:31.082Z</time></trkpt><trkpt lat="8.5740967" lon="-71.2171383"><ele>1599.0</ele><time>2026-04-29T21:40:33.067Z</time></trkpt><trkpt lat="8.5741483" lon="-71.2170733"><ele>1599.0</ele><time>2026-04-29T21:40:35.093Z</time></trkpt><trkpt lat="8.5741967" lon="-71.21702"><ele>1598.9999999999998</ele><time>2026-04-29T21:40:37.088Z</time></trkpt><trkpt lat="8.5742433" lon="-71.2169733"><ele>1599.0</ele><time>2026-04-29T21:40:39.086Z</time></trkpt><trkpt lat="8.5743033" lon="-71.216905"><ele>1599.0</ele><time>2026-04-29T21:40:42.087Z</time></trkpt><trkpt lat="8.57437" lon="-71.21685"><ele>1599.0</ele><time>2026-04-29T21:40:45.087Z</time></trkpt><trkpt lat="8.5744367" lon="-71.216785"><ele>1599.0</ele><time>2026-04-29T21:40:48.052Z</time></trkpt><trkpt lat="8.5744867" lon="-71.2167083"><ele>1599.0</ele><time>2026-04-29T21:40:51.081Z</time></trkpt><trkpt lat="8.5745233" lon="-71.2166517"><ele>1599.0</ele><time>2026-04-29T21:40:54.095Z</time></trkpt><trkpt lat="8.5745433" lon="-71.21657"><ele>1599.0</ele><time>2026-04-29T21:40:58.083Z</time></trkpt><trkpt lat="8.5745333" lon="-71.2165"><ele>1602.3333333333333</ele><time>2026-04-29T21:41:01.084Z</time></trkpt><trkpt lat="8.5745067" lon="-71.2164117"><ele>1605.6666666666665</ele><time>2026-04-29T21:41:04.085Z</time></trkpt><trkpt lat="8.5744867" lon="-71.216345"><ele>1609.0</ele><time>2026-04-29T21:41:06.09Z</time></trkpt><trkpt lat="8.574455" lon="-71.216275"><ele>1612.3333333333333</ele><time>2026-04-29T21:41:08.142Z</time></trkpt><trkpt lat="8.574415" lon="-71.2162167"><ele>1615.6666666666665</ele><time>2026-04-29T21:41:10.09Z</time></trkpt><trkpt lat="8.57437" lon="-71.2161483"><ele>1619.0</ele><time>2026-04-29T21:41:13.089Z</time></trkpt><trkpt lat="8.5743183" lon="-71.2160817"><ele>1618.9999999999998</ele><time>2026-04-29T21:41:16.087Z</time></trkpt><trkpt lat="8.5742483" lon="-71.2160233"><ele>1619.0</ele><time>2026-04-29T21:41:19.08Z</time></trkpt><trkpt lat="8.574175" lon="-71.21598"><ele>1619.0</ele><time>2026-04-29T21:41:22.079Z</time></trkpt><trkpt lat="8.57409" lon="-71.2159383"><ele>1619.0</ele><time>2026-04-29T21:41:25.079Z</time></trkpt><trkpt lat="8.5740333" lon="-71.2159083"><ele>1618.9999999999998</ele><time>2026-04-29T21:41:27.093Z</time></trkpt><trkpt lat="8.573975" lon="-71.21588"><ele>1619.0</ele><time>2026-04-29T21:41:29.089Z</time></trkpt><trkpt lat="8.5739133" lon="-71.21585"><ele>1619.0</ele><time>2026-04-29T21:41:31.086Z</time></trkpt><trkpt lat="8.5738517" lon="-71.2158217"><ele>1619.0</ele><time>2026-04-29T21:41:33.089Z</time></trkpt><trkpt lat="8.57379" lon="-71.2157933"><ele>1619.0</ele><time>2026-04-29T21:41:35.083Z</time></trkpt><trkpt lat="8.5737333" lon="-71.215765"><ele>1619.0</ele><time>2026-04-29T21:41:37.074Z</time></trkpt><trkpt lat="8.5736783" lon="-71.2157317"><ele>1619.0</ele><time>2026-04-29T21:41:39.096Z</time></trkpt><trkpt lat="8.57361" lon="-71.2157033"><ele>1619.0</ele><time>2026-04-29T21:41:41.089Z</time></trkpt><trkpt lat="8.5735533" lon="-71.215675"><ele>1619.0</ele><time>2026-04-29T21:41:43.088Z</time></trkpt><trkpt lat="8.5734917" lon="-71.2156383"><ele>1623.1666666666665</ele><time>2026-04-29T21:41:45.082Z</time></trkpt><trkpt lat="8.573425" lon="-71.2156067"><ele>1627.3333333333333</ele><time>2026-04-29T21:41:47.075Z</time></trkpt><trkpt lat="8.573355" lon="-71.2155683"><ele>1631.5</ele><time>2026-04-29T21:41:49.083Z</time></trkpt><trkpt lat="8.573275" lon="-71.2155383"><ele>1635.6666666666665</ele><time>2026-04-29T21:41:51.083Z</time></trkpt><trkpt lat="8.5731967" lon="-71.2155183"><ele>1639.8333333333333</ele><time>2026-04-29T21:41:53.061Z</time></trkpt><trkpt lat="8.573125" lon="-71.2154983"><ele>1644.0</ele><time>2026-04-29T21:41:55.071Z</time></trkpt><trkpt lat="8.573055" lon="-71.215475"><ele>1644.0</ele><time>2026-04-29T21:41:57.085Z</time></trkpt><trkpt lat="8.5729733" lon="-71.2154483"><ele>1644.0</ele><time>2026-04-29T21:41:59.084Z</time></trkpt><trkpt lat="8.572895" lon="-71.215415"><ele>1644.0</ele><time>2026-04-29T21:42:01.088Z</time></trkpt><trkpt lat="8.57282" lon="-71.2153817"><ele>1644.0</ele><time>2026-04-29T21:42:03.089Z</time></trkpt><trkpt lat="8.5727583" lon="-71.215345"><ele>1644.0</ele><time>2026-04-29T21:42:05.085Z</time></trkpt><trkpt lat="8.5726983" lon="-71.215315"><ele>1644.0</ele><time>2026-04-29T21:42:07.085Z</time></trkpt><trkpt lat="8.5726367" lon="-71.2152883"><ele>1640.8333333333333</ele><time>2026-04-29T21:42:09.083Z</time></trkpt><trkpt lat="8.5725683" lon="-71.2152583"><ele>1637.6666666666665</ele><time>2026-04-29T21:42:11.073Z</time></trkpt><trkpt lat="8.5724883" lon="-71.21524"><ele>1634.5</ele><time>2026-04-29T21:42:13.091Z</time></trkpt><trkpt lat="8.5723967" lon="-71.21522"><ele>1631.3333333333333</ele><time>2026-04-29T21:42:15.083Z</time></trkpt><trkpt lat="8.572305" lon="-71.2152083"><ele>1628.1666666666665</ele><time>2026-04-29T21:42:17.09Z</time></trkpt><trkpt lat="8.5722083" lon="-71.2152017"><ele>1625.0</ele><time>2026-04-29T21:42:19.093Z</time></trkpt><trkpt lat="8.5720967" lon="-71.2151967"><ele>1622.4</ele><time>2026-04-29T21:42:21.081Z</time></trkpt><trkpt lat="8.5719883" lon="-71.2151817"><ele>1619.8</ele><time>2026-04-29T21:42:23.101Z</time></trkpt><trkpt lat="8.5718767" lon="-71.215165"><ele>1617.1999999999998</ele><time>2026-04-29T21:42:25.08Z</time></trkpt><trkpt lat="8.57177" lon="-71.2151483"><ele>1614.6</ele><time>2026-04-29T21:42:27.09Z</time></trkpt><trkpt lat="8.5716583" lon="-71.2151317"><ele>1612.0</ele><time>2026-04-29T21:42:29.094Z</time></trkpt><trkpt lat="8.5715583" lon="-71.2151083"><ele>1612.0</ele><time>2026-04-29T21:42:31.099Z</time></trkpt><trkpt lat="8.5714467" lon="-71.215085"><ele>1612.0</ele><time>2026-04-29T21:42:33.094Z</time></trkpt><trkpt lat="8.571345" lon="-71.2150467"><ele>1612.0</ele><time>2026-04-29T21:42:35.097Z</time></trkpt><trkpt lat="8.5712583" lon="-71.214985"><ele>1612.0</ele><time>2026-04-29T21:42:37.085Z</time></trkpt><trkpt lat="8.5711733" lon="-71.21489"><ele>1609.0</ele><time>2026-04-29T21:42:39.084Z</time></trkpt><trkpt lat="8.5711333" lon="-71.2148367"><ele>1606.0</ele><time>2026-04-29T21:42:40.09Z</time></trkpt><trkpt lat="8.5711" lon="-71.2147817"><ele>1603.0</ele><time>2026-04-29T21:42:41.082Z</time></trkpt><trkpt lat="8.5710717" lon="-71.2147217"><ele>1600.0</ele><time>2026-04-29T21:42:42.083Z</time></trkpt><trkpt lat="8.57105" lon="-71.2146567"><ele>1597.0</ele><time>2026-04-29T21:42:43.078Z</time></trkpt><trkpt lat="8.571035" lon="-71.21459"><ele>1594.0</ele><time>2026-04-29T21:42:44.139Z</time></trkpt><trkpt lat="8.5710283" lon="-71.2145233"><ele>1591.0</ele><time>2026-04-29T21:42:45.07Z</time></trkpt><trkpt lat="8.5710267" lon="-71.2144583"><ele>1592.0000000000002</ele><time>2026-04-29T21:42:46.079Z</time></trkpt><trkpt lat="8.571035" lon="-71.2143933"><ele>1593.0</ele><time>2026-04-29T21:42:47.087Z</time></trkpt><trkpt lat="8.57107" lon="-71.2142683"><ele>1594.0</ele><time>2026-04-29T21:42:49.049Z</time></trkpt><trkpt lat="8.571095" lon="-71.2142"><ele>1595.0</ele><time>2026-04-29T21:42:50.113Z</time></trkpt><trkpt lat="8.5711267" lon="-71.21413"><ele>1596.0000000000002</ele><time>2026-04-29T21:42:51.044Z</time></trkpt><trkpt lat="8.57116" lon="-71.21406"><ele>1597.0</ele><time>2026-04-29T21:42:52.045Z</time></trkpt><trkpt lat="8.5711933" lon="-71.2139883"><ele>1597.0000000000002</ele><time>2026-04-29T21:42:53.066Z</time></trkpt><trkpt lat="8.5712283" lon="-71.2139183"><ele>1597.0</ele><time>2026-04-29T21:42:54.07Z</time></trkpt><trkpt lat="8.5712633" lon="-71.2138467"><ele>1597.0</ele><time>2026-04-29T21:42:55.05Z</time></trkpt><trkpt lat="8.5713017" lon="-71.213775"><ele>1597.0</ele><time>2026-04-29T21:42:56.108Z</time></trkpt><trkpt lat="8.5713417" lon="-71.2137033"><ele>1597.0000000000002</ele><time>2026-04-29T21:42:57.077Z</time></trkpt><trkpt lat="8.5713867" lon="-71.2136333"><ele>1597.0</ele><time>2026-04-29T21:42:58.088Z</time></trkpt><trkpt lat="8.5714317" lon="-71.21356"><ele>1597.0000000000002</ele><time>2026-04-29T21:42:59.092Z</time></trkpt><trkpt lat="8.5714767" lon="-71.213485"><ele>1597.0</ele><time>2026-04-29T21:43:00.082Z</time></trkpt><trkpt lat="8.5715217" lon="-71.21341"><ele>1597.0</ele><time>2026-04-29T21:43:01.084Z</time></trkpt><trkpt lat="8.5715667" lon="-71.2133317"><ele>1597.0</ele><time>2026-04-29T21:43:02.154Z</time></trkpt><trkpt lat="8.57161" lon="-71.2132533"><ele>1597.0000000000002</ele><time>2026-04-29T21:43:03.095Z</time></trkpt><trkpt lat="8.5716533" lon="-71.213175"><ele>1597.0</ele><time>2026-04-29T21:43:04.083Z</time></trkpt><trkpt lat="8.5716967" lon="-71.2130983"><ele>1594.1666666666667</ele><time>2026-04-29T21:43:05.08Z</time></trkpt><trkpt lat="8.5717367" lon="-71.2130167"><ele>1591.3333333333335</ele><time>2026-04-29T21:43:06.081Z</time></trkpt><trkpt lat="8.5717783" lon="-71.212935"><ele>1588.5</ele><time>2026-04-29T21:43:07.06Z</time></trkpt><trkpt lat="8.5718167" lon="-71.2128533"><ele>1585.6666666666665</ele><time>2026-04-29T21:43:08.14Z</time></trkpt><trkpt lat="8.5718533" lon="-71.2127717"><ele>1582.8333333333333</ele><time>2026-04-29T21:43:09.074Z</time></trkpt><trkpt lat="8.5718833" lon="-71.21269"><ele>1580.0</ele><time>2026-04-29T21:43:10.084Z</time></trkpt><trkpt lat="8.5719067" lon="-71.2126033"><ele>1579.9999999999998</ele><time>2026-04-29T21:43:11.077Z</time></trkpt><trkpt lat="8.5719167" lon="-71.2125133"><ele>1580.0</ele><time>2026-04-29T21:43:12.09Z</time></trkpt><trkpt lat="8.5719117" lon="-71.2124233"><ele>1580.0</ele><time>2026-04-29T21:43:13.087Z</time></trkpt><trkpt lat="8.5718933" lon="-71.2123333"><ele>1580.0</ele><time>2026-04-29T21:43:14.14Z</time></trkpt><trkpt lat="8.57186" lon="-71.21225"><ele>1579.9999999999998</ele><time>2026-04-29T21:43:15.082Z</time></trkpt><trkpt lat="8.57182" lon="-71.2121683"><ele>1580.0</ele><time>2026-04-29T21:43:16.081Z</time></trkpt><trkpt lat="8.5717783" lon="-71.2120917"><ele>1581.9999999999998</ele><time>2026-04-29T21:43:17.082Z</time></trkpt><trkpt lat="8.5717367" lon="-71.21202"><ele>1584.0</ele><time>2026-04-29T21:43:18.08Z</time></trkpt><trkpt lat="8.5716917" lon="-71.2119467"><ele>1586.0</ele><time>2026-04-29T21:43:19.047Z</time></trkpt><trkpt lat="8.571645" lon="-71.2118767"><ele>1588.0</ele><time>2026-04-29T21:43:20.139Z</time></trkpt><trkpt lat="8.5715967" lon="-71.2118017"><ele>1589.9999999999998</ele><time>2026-04-29T21:43:21.087Z</time></trkpt><trkpt lat="8.57155" lon="-71.211725"><ele>1592.0</ele><time>2026-04-29T21:43:22.086Z</time></trkpt><trkpt lat="8.5715017" lon="-71.2116533"><ele>1591.9999999999998</ele><time>2026-04-29T21:43:23.084Z</time></trkpt><trkpt lat="8.5714517" lon="-71.2115867"><ele>1592.0</ele><time>2026-04-29T21:43:24.082Z</time></trkpt><trkpt lat="8.571395" lon="-71.2115233"><ele>1592.0</ele><time>2026-04-29T21:43:25.083Z</time></trkpt><trkpt lat="8.571325" lon="-71.2114683"><ele>1592.0</ele><time>2026-04-29T21:43:26.144Z</time></trkpt><trkpt lat="8.5712483" lon="-71.2114233"><ele>1591.9999999999998</ele><time>2026-04-29T21:43:27.08Z</time></trkpt><trkpt lat="8.571165" lon="-71.211385"><ele>1592.0</ele><time>2026-04-29T21:43:28.09Z</time></trkpt><trkpt lat="8.5710783" lon="-71.2113583"><ele>1591.6666666666665</ele><time>2026-04-29T21:43:29.078Z</time></trkpt><trkpt lat="8.5709917" lon="-71.2113383"><ele>1591.3333333333333</ele><time>2026-04-29T21:43:30.082Z</time></trkpt><trkpt lat="8.5709067" lon="-71.211325"><ele>1591.0</ele><time>2026-04-29T21:43:31.088Z</time></trkpt><trkpt lat="8.57082" lon="-71.21131"><ele>1590.6666666666665</ele><time>2026-04-29T21:43:32.11Z</time></trkpt><trkpt lat="8.5707367" lon="-71.2112983"><ele>1590.3333333333333</ele><time>2026-04-29T21:43:33.089Z</time></trkpt><trkpt lat="8.5706567" lon="-71.21129"><ele>1590.0</ele><time>2026-04-29T21:43:34.085Z</time></trkpt><trkpt lat="8.570575" lon="-71.2112833"><ele>1590.0</ele><time>2026-04-29T21:43:35.103Z</time></trkpt><trkpt lat="8.570495" lon="-71.2112733"><ele>1590.0</ele><time>2026-04-29T21:43:36.088Z</time></trkpt><trkpt lat="8.5704167" lon="-71.2112583"><ele>1590.0</ele><time>2026-04-29T21:43:37.048Z</time></trkpt><trkpt lat="8.5703433" lon="-71.2112383"><ele>1590.0</ele><time>2026-04-29T21:43:38.154Z</time></trkpt><trkpt lat="8.57027" lon="-71.2112133"><ele>1590.0</ele><time>2026-04-29T21:43:39.094Z</time></trkpt><trkpt lat="8.5701983" lon="-71.2111817"><ele>1590.0</ele><time>2026-04-29T21:43:40.089Z</time></trkpt><trkpt lat="8.57013" lon="-71.21114"><ele>1586.0</ele><time>2026-04-29T21:43:41.072Z</time></trkpt><trkpt lat="8.5700667" lon="-71.21109"><ele>1582.0</ele><time>2026-04-29T21:43:42.093Z</time></trkpt><trkpt lat="8.5700167" lon="-71.2110267"><ele>1578.0</ele><time>2026-04-29T21:43:43.093Z</time></trkpt><trkpt lat="8.5699783" lon="-71.21096"><ele>1574.0</ele><time>2026-04-29T21:43:44.13Z</time></trkpt><trkpt lat="8.5699467" lon="-71.2108917"><ele>1570.0</ele><time>2026-04-29T21:43:45.087Z</time></trkpt><trkpt lat="8.569935" lon="-71.210815"><ele>1566.0</ele><time>2026-04-29T21:43:46.085Z</time></trkpt><trkpt lat="8.5699383" lon="-71.2107317"><ele>1564.5</ele><time>2026-04-29T21:43:47.086Z</time></trkpt><trkpt lat="8.5699417" lon="-71.2106467"><ele>1563.0</ele><time>2026-04-29T21:43:48.085Z</time></trkpt><trkpt lat="8.5699433" lon="-71.2105617"><ele>1561.5</ele><time>2026-04-29T21:43:49.057Z</time></trkpt><trkpt lat="8.56995" lon="-71.210475"><ele>1560.0</ele><time>2026-04-29T21:43:50.141Z</time></trkpt><trkpt lat="8.5699617" lon="-71.2103867"><ele>1558.5</ele><time>2026-04-29T21:43:51.107Z</time></trkpt><trkpt lat="8.5699767" lon="-71.210295"><ele>1557.0</ele><time>2026-04-29T21:43:52.083Z</time></trkpt><trkpt lat="8.569995" lon="-71.2102033"><ele>1557.0</ele><time>2026-04-29T21:43:53.093Z</time></trkpt><trkpt lat="8.57001" lon="-71.21011"><ele>1557.0</ele><time>2026-04-29T21:43:54.1Z</time></trkpt><trkpt lat="8.57003" lon="-71.2100117"><ele>1557.0</ele><time>2026-04-29T21:43:55.078Z</time></trkpt><trkpt lat="8.5700467" lon="-71.209915"><ele>1557.0</ele><time>2026-04-29T21:43:56.151Z</time></trkpt><trkpt lat="8.57006" lon="-71.2098267"><ele>1557.0</ele><time>2026-04-29T21:43:57.084Z</time></trkpt><trkpt lat="8.5700783" lon="-71.20973"><ele>1554.0</ele><time>2026-04-29T21:43:58.082Z</time></trkpt><trkpt lat="8.570095" lon="-71.2096333"><ele>1551.0</ele><time>2026-04-29T21:43:59.081Z</time></trkpt><trkpt lat="8.57011" lon="-71.2095367"><ele>1548.0</ele><time>2026-04-29T21:44:00.091Z</time></trkpt><trkpt lat="8.5701267" lon="-71.209445"><ele>1545.0</ele><time>2026-04-29T21:44:01.078Z</time></trkpt><trkpt lat="8.5701417" lon="-71.20935"><ele>1542.0</ele><time>2026-04-29T21:44:02.146Z</time></trkpt><trkpt lat="8.5701567" lon="-71.2092567"><ele>1542.0</ele><time>2026-04-29T21:44:03.094Z</time></trkpt><trkpt lat="8.5701717" lon="-71.2091683"><ele>1542.0</ele><time>2026-04-29T21:44:04.096Z</time></trkpt><trkpt lat="8.570185" lon="-71.20908"><ele>1542.0</ele><time>2026-04-29T21:44:05.089Z</time></trkpt><trkpt lat="8.5702017" lon="-71.2089883"><ele>1542.0</ele><time>2026-04-29T21:44:06.068Z</time></trkpt><trkpt lat="8.5702183" lon="-71.208895"><ele>1542.0</ele><time>2026-04-29T21:44:07.083Z</time></trkpt><trkpt lat="8.570235" lon="-71.2088033"><ele>1541.0</ele><time>2026-04-29T21:44:08.135Z</time></trkpt><trkpt lat="8.5702517" lon="-71.208715"><ele>1540.0</ele><time>2026-04-29T21:44:09.075Z</time></trkpt><trkpt lat="8.570265" lon="-71.2086267"><ele>1539.0</ele><time>2026-04-29T21:44:10.079Z</time></trkpt><trkpt lat="8.57028" lon="-71.208535"><ele>1538.0</ele><time>2026-04-29T21:44:11.083Z</time></trkpt><trkpt lat="8.5702917" lon="-71.20845"><ele>1537.0</ele><time>2026-04-29T21:44:12.087Z</time></trkpt><trkpt lat="8.5703067" lon="-71.208365"><ele>1536.0</ele><time>2026-04-29T21:44:13.078Z</time></trkpt><trkpt lat="8.5703167" lon="-71.2082767"><ele>1536.0</ele><time>2026-04-29T21:44:14.135Z</time></trkpt><trkpt lat="8.5703233" lon="-71.2081967"><ele>1536.0</ele><time>2026-04-29T21:44:15.081Z</time></trkpt><trkpt lat="8.5703317" lon="-71.2081167"><ele>1536.0</ele><time>2026-04-29T21:44:16.095Z</time></trkpt><trkpt lat="8.5703433" lon="-71.2080383"><ele>1536.0</ele><time>2026-04-29T21:44:17.082Z</time></trkpt><trkpt lat="8.5703567" lon="-71.2079583"><ele>1536.0</ele><time>2026-04-29T21:44:18.096Z</time></trkpt><trkpt lat="8.57037" lon="-71.2078783"><ele>1536.0</ele><time>2026-04-29T21:44:19.089Z</time></trkpt><trkpt lat="8.5703883" lon="-71.2078017"><ele>1537.5</ele><time>2026-04-29T21:44:20.142Z</time></trkpt><trkpt lat="8.5704067" lon="-71.2077183"><ele>1539.0</ele><time>2026-04-29T21:44:21.086Z</time></trkpt><trkpt lat="8.5704217" lon="-71.207635"><ele>1540.5</ele><time>2026-04-29T21:44:22.08Z</time></trkpt><trkpt lat="8.5704333" lon="-71.207555"><ele>1542.0</ele><time>2026-04-29T21:44:23.09Z</time></trkpt><trkpt lat="8.570445" lon="-71.2074767"><ele>1543.5</ele><time>2026-04-29T21:44:24.077Z</time></trkpt><trkpt lat="8.5704567" lon="-71.207395"><ele>1545.0</ele><time>2026-04-29T21:44:25.085Z</time></trkpt><trkpt lat="8.5704683" lon="-71.2073133"><ele>1545.0</ele><time>2026-04-29T21:44:26.151Z</time></trkpt><trkpt lat="8.5704817" lon="-71.2072333"><ele>1545.0</ele><time>2026-04-29T21:44:27.084Z</time></trkpt><trkpt lat="8.5704967" lon="-71.2071517"><ele>1545.0</ele><time>2026-04-29T21:44:28.078Z</time></trkpt><trkpt lat="8.5705133" lon="-71.2070733"><ele>1545.0</ele><time>2026-04-29T21:44:29.083Z</time></trkpt><trkpt lat="8.5705317" lon="-71.2069917"><ele>1545.0</ele><time>2026-04-29T21:44:30.086Z</time></trkpt><trkpt lat="8.57055" lon="-71.2069117"><ele>1545.0</ele><time>2026-04-29T21:44:31.084Z</time></trkpt><trkpt lat="8.5705717" lon="-71.2068333"><ele>1545.0</ele><time>2026-04-29T21:44:32.14Z</time></trkpt><trkpt lat="8.5706017" lon="-71.20676"><ele>1545.0</ele><time>2026-04-29T21:44:33.085Z</time></trkpt><trkpt lat="8.5706367" lon="-71.2066883"><ele>1545.0</ele><time>2026-04-29T21:44:34.083Z</time></trkpt><trkpt lat="8.5706833" lon="-71.2066217"><ele>1545.0</ele><time>2026-04-29T21:44:35.113Z</time></trkpt><trkpt lat="8.570735" lon="-71.2065617"><ele>1545.0</ele><time>2026-04-29T21:44:36.089Z</time></trkpt><trkpt lat="8.5707917" lon="-71.206505"><ele>1545.0</ele><time>2026-04-29T21:44:37.074Z</time></trkpt><trkpt lat="8.5708533" lon="-71.2064567"><ele>1541.5</ele><time>2026-04-29T21:44:38.145Z</time></trkpt><trkpt lat="8.5709183" lon="-71.2064117"><ele>1538.0</ele><time>2026-04-29T21:44:39.094Z</time></trkpt><trkpt lat="8.5709867" lon="-71.2063717"><ele>1534.5</ele><time>2026-04-29T21:44:40.08Z</time></trkpt><trkpt lat="8.5710583" lon="-71.20634"><ele>1531.0</ele><time>2026-04-29T21:44:41.082Z</time></trkpt><trkpt lat="8.5711333" lon="-71.206315"><ele>1527.5</ele><time>2026-04-29T21:44:42.084Z</time></trkpt><trkpt lat="8.571205" lon="-71.2062917"><ele>1524.0</ele><time>2026-04-29T21:44:43.056Z</time></trkpt><trkpt lat="8.5712767" lon="-71.20627"><ele>1524.0</ele><time>2026-04-29T21:44:44.11Z</time></trkpt><trkpt lat="8.571345" lon="-71.2062533"><ele>1524.0</ele><time>2026-04-29T21:44:45.074Z</time></trkpt><trkpt lat="8.5714183" lon="-71.2062383"><ele>1524.0</ele><time>2026-04-29T21:44:46.085Z</time></trkpt><trkpt lat="8.5714867" lon="-71.2062283"><ele>1524.0</ele><time>2026-04-29T21:44:47.088Z</time></trkpt><trkpt lat="8.5715583" lon="-71.206215"><ele>1524.0</ele><time>2026-04-29T21:44:48.088Z</time></trkpt><trkpt lat="8.5716283" lon="-71.206205"><ele>1524.0</ele><time>2026-04-29T21:44:49.08Z</time></trkpt><trkpt lat="8.5717017" lon="-71.206195"><ele>1524.0</ele><time>2026-04-29T21:44:50.135Z</time></trkpt><trkpt lat="8.5717733" lon="-71.206185"><ele>1524.0</ele><time>2026-04-29T21:44:51.082Z</time></trkpt><trkpt lat="8.5718417" lon="-71.2061717"><ele>1524.0</ele><time>2026-04-29T21:44:52.077Z</time></trkpt><trkpt lat="8.5719083" lon="-71.2061583"><ele>1524.0</ele><time>2026-04-29T21:44:53.084Z</time></trkpt><trkpt lat="8.5719783" lon="-71.2061467"><ele>1524.0</ele><time>2026-04-29T21:44:54.084Z</time></trkpt><trkpt lat="8.572045" lon="-71.2061367"><ele>1524.0</ele><time>2026-04-29T21:44:55.095Z</time></trkpt><trkpt lat="8.57211" lon="-71.2061283"><ele>1524.0</ele><time>2026-04-29T21:44:56.15Z</time></trkpt><trkpt lat="8.572175" lon="-71.2061217"><ele>1524.0</ele><time>2026-04-29T21:44:57.084Z</time></trkpt><trkpt lat="8.5722383" lon="-71.206115"><ele>1524.2</ele><time>2026-04-29T21:44:58.08Z</time></trkpt><trkpt lat="8.5723017" lon="-71.206105"><ele>1524.4</ele><time>2026-04-29T21:44:59.088Z</time></trkpt><trkpt lat="8.572425" lon="-71.2060933"><ele>1524.6</ele><time>2026-04-29T21:45:01.08Z</time></trkpt><trkpt lat="8.5724883" lon="-71.2060867"><ele>1524.8</ele><time>2026-04-29T21:45:02.139Z</time></trkpt><trkpt lat="8.5726117" lon="-71.2060833"><ele>1525.0</ele><time>2026-04-29T21:45:04.065Z</time></trkpt><trkpt lat="8.572725" lon="-71.2060933"><ele>1525.0</ele><time>2026-04-29T21:45:06.086Z</time></trkpt><trkpt lat="8.5728317" lon="-71.2061283"><ele>1525.0</ele><time>2026-04-29T21:45:08.124Z</time></trkpt><trkpt lat="8.5729333" lon="-71.206185"><ele>1525.0</ele><time>2026-04-29T21:45:10.076Z</time></trkpt><trkpt lat="8.5730333" lon="-71.2062567"><ele>1525.0</ele><time>2026-04-29T21:45:12.055Z</time></trkpt><trkpt lat="8.5731183" lon="-71.2063467"><ele>1524.6666666666665</ele><time>2026-04-29T21:45:14.134Z</time></trkpt><trkpt lat="8.5731867" lon="-71.2064533"><ele>1524.3333333333333</ele><time>2026-04-29T21:45:16.072Z</time></trkpt><trkpt lat="8.5732183" lon="-71.20651"><ele>1524.0</ele><time>2026-04-29T21:45:17.077Z</time></trkpt><trkpt lat="8.5732483" lon="-71.2065683"><ele>1523.6666666666667</ele><time>2026-04-29T21:45:18.083Z</time></trkpt><trkpt lat="8.5732817" lon="-71.2066267"><ele>1523.3333333333335</ele><time>2026-04-29T21:45:19.048Z</time></trkpt><trkpt lat="8.5733183" lon="-71.2066867"><ele>1523.0</ele><time>2026-04-29T21:45:20.116Z</time></trkpt><trkpt lat="8.5733567" lon="-71.2067483"><ele>1525.5714285714287</ele><time>2026-04-29T21:45:21.078Z</time></trkpt><trkpt lat="8.5733967" lon="-71.20681"><ele>1528.142857142857</ele><time>2026-04-29T21:45:22.08Z</time></trkpt><trkpt lat="8.5734367" lon="-71.2068733"><ele>1530.7142857142858</ele><time>2026-04-29T21:45:23.084Z</time></trkpt><trkpt lat="8.5734783" lon="-71.2069333"><ele>1533.2857142857142</ele><time>2026-04-29T21:45:24.104Z</time></trkpt><trkpt lat="8.5735183" lon="-71.2069933"><ele>1535.857142857143</ele><time>2026-04-29T21:45:25.082Z</time></trkpt><trkpt lat="8.573555" lon="-71.207055"><ele>1538.4285714285716</ele><time>2026-04-29T21:45:26.118Z</time></trkpt><trkpt lat="8.5735933" lon="-71.2071183"><ele>1541.0</ele><time>2026-04-29T21:45:27.088Z</time></trkpt><trkpt lat="8.5736317" lon="-71.2071833"><ele>1540.9999999999998</ele><time>2026-04-29T21:45:28.11Z</time></trkpt><trkpt lat="8.5736717" lon="-71.207245"><ele>1541.0</ele><time>2026-04-29T21:45:29.076Z</time></trkpt><trkpt lat="8.5737117" lon="-71.2073067"><ele>1541.0</ele><time>2026-04-29T21:45:30.08Z</time></trkpt><trkpt lat="8.5737483" lon="-71.20737"><ele>1541.0</ele><time>2026-04-29T21:45:31.066Z</time></trkpt><trkpt lat="8.57379" lon="-71.2074367"><ele>1540.9999999999998</ele><time>2026-04-29T21:45:32.118Z</time></trkpt><trkpt lat="8.57383" lon="-71.207505"><ele>1541.0</ele><time>2026-04-29T21:45:33.084Z</time></trkpt><trkpt lat="8.5738717" lon="-71.2075733"><ele>1537.9999999999998</ele><time>2026-04-29T21:45:34.084Z</time></trkpt><trkpt lat="8.5739117" lon="-71.2076433"><ele>1535.0</ele><time>2026-04-29T21:45:35.055Z</time></trkpt><trkpt lat="8.57395" lon="-71.2077133"><ele>1532.0</ele><time>2026-04-29T21:45:36.084Z</time></trkpt><trkpt lat="8.5739933" lon="-71.2077833"><ele>1529.0</ele><time>2026-04-29T21:45:37.079Z</time></trkpt><trkpt lat="8.57404" lon="-71.207855"><ele>1526.0</ele><time>2026-04-29T21:45:38.133Z</time></trkpt><trkpt lat="8.5740767" lon="-71.2079217"><ele>1523.0</ele><time>2026-04-29T21:45:39.082Z</time></trkpt><trkpt lat="8.5741133" lon="-71.20799"><ele>1523.0</ele><time>2026-04-29T21:45:40.084Z</time></trkpt><trkpt lat="8.57416" lon="-71.2080667"><ele>1523.0</ele><time>2026-04-29T21:45:41.103Z</time></trkpt><trkpt lat="8.5742067" lon="-71.208135"><ele>1523.0</ele><time>2026-04-29T21:45:42.084Z</time></trkpt><trkpt lat="8.5742583" lon="-71.208205"><ele>1523.0</ele><time>2026-04-29T21:45:43.093Z</time></trkpt><trkpt lat="8.5743033" lon="-71.2082667"><ele>1523.0</ele><time>2026-04-29T21:45:44.129Z</time></trkpt><trkpt lat="8.5743483" lon="-71.2083267"><ele>1523.0</ele><time>2026-04-29T21:45:45.088Z</time></trkpt><trkpt lat="8.5744017" lon="-71.20839"><ele>1523.5</ele><time>2026-04-29T21:45:46.079Z</time></trkpt><trkpt lat="8.574465" lon="-71.2084517"><ele>1524.0</ele><time>2026-04-29T21:45:47.084Z</time></trkpt><trkpt lat="8.5745267" lon="-71.2085033"><ele>1524.5</ele><time>2026-04-29T21:45:48.087Z</time></trkpt><trkpt lat="8.5746" lon="-71.2085533"><ele>1525.0</ele><time>2026-04-29T21:45:49.078Z</time></trkpt><trkpt lat="8.5746767" lon="-71.2085967"><ele>1525.5</ele><time>2026-04-29T21:45:50.136Z</time></trkpt><trkpt lat="8.574755" lon="-71.208635"><ele>1526.0</ele><time>2026-04-29T21:45:51.09Z</time></trkpt><trkpt lat="8.574835" lon="-71.2086667"><ele>1521.0</ele><time>2026-04-29T21:45:52.087Z</time></trkpt><trkpt lat="8.574915" lon="-71.2086917"><ele>1516.0</ele><time>2026-04-29T21:45:53.045Z</time></trkpt><trkpt lat="8.5750017" lon="-71.2087117"><ele>1511.0</ele><time>2026-04-29T21:45:54.083Z</time></trkpt><trkpt lat="8.5750933" lon="-71.2087267"><ele>1506.0</ele><time>2026-04-29T21:45:55.056Z</time></trkpt><trkpt lat="8.5751883" lon="-71.2087417"><ele>1501.0</ele><time>2026-04-29T21:45:56.135Z</time></trkpt><trkpt lat="8.5752833" lon="-71.20875"><ele>1498.4</ele><time>2026-04-29T21:45:57.088Z</time></trkpt><trkpt lat="8.57538" lon="-71.20876"><ele>1495.8</ele><time>2026-04-29T21:45:58.081Z</time></trkpt><trkpt lat="8.575475" lon="-71.208765"><ele>1493.2</ele><time>2026-04-29T21:45:59.082Z</time></trkpt><trkpt lat="8.5755683" lon="-71.208765"><ele>1490.6000000000001</ele><time>2026-04-29T21:46:00.091Z</time></trkpt><trkpt lat="8.5756617" lon="-71.2087667"><ele>1488.0</ele><time>2026-04-29T21:46:01.081Z</time></trkpt><trkpt lat="8.5757533" lon="-71.2087717"><ele>1488.0</ele><time>2026-04-29T21:46:02.134Z</time></trkpt><trkpt lat="8.5758417" lon="-71.2087767"><ele>1488.0</ele><time>2026-04-29T21:46:03.085Z</time></trkpt><trkpt lat="8.57593" lon="-71.2087767"><ele>1488.0</ele><time>2026-04-29T21:46:04.087Z</time></trkpt><trkpt lat="8.5760217" lon="-71.2087783"><ele>1488.0</ele><time>2026-04-29T21:46:05.067Z</time></trkpt><trkpt lat="8.576115" lon="-71.20878"><ele>1488.0</ele><time>2026-04-29T21:46:06.084Z</time></trkpt><trkpt lat="8.5762083" lon="-71.2087867"><ele>1486.5</ele><time>2026-04-29T21:46:07.084Z</time></trkpt><trkpt lat="8.5763" lon="-71.2087917"><ele>1485.0</ele><time>2026-04-29T21:46:08.13Z</time></trkpt><trkpt lat="8.5763933" lon="-71.20879"><ele>1483.5</ele><time>2026-04-29T21:46:09.066Z</time></trkpt><trkpt lat="8.5764833" lon="-71.2087967"><ele>1482.0</ele><time>2026-04-29T21:46:10.076Z</time></trkpt><trkpt lat="8.5765667" lon="-71.20881"><ele>1480.5</ele><time>2026-04-29T21:46:11.072Z</time></trkpt><trkpt lat="8.5766467" lon="-71.208835"><ele>1479.0</ele><time>2026-04-29T21:46:12.075Z</time></trkpt><trkpt lat="8.5767233" lon="-71.2088683"><ele>1479.0</ele><time>2026-04-29T21:46:13.075Z</time></trkpt><trkpt lat="8.5767967" lon="-71.2089"><ele>1479.0</ele><time>2026-04-29T21:46:14.141Z</time></trkpt><trkpt lat="8.576865" lon="-71.208935"><ele>1479.0</ele><time>2026-04-29T21:46:15.084Z</time></trkpt><trkpt lat="8.57693" lon="-71.2089717"><ele>1479.0</ele><time>2026-04-29T21:46:16.085Z</time></trkpt><trkpt lat="8.576995" lon="-71.2090133"><ele>1479.0</ele><time>2026-04-29T21:46:17.09Z</time></trkpt><trkpt lat="8.5770617" lon="-71.2090617"><ele>1479.0</ele><time>2026-04-29T21:46:18.082Z</time></trkpt><trkpt lat="8.577125" lon="-71.2091083"><ele>1480.5</ele><time>2026-04-29T21:46:19.083Z</time></trkpt><trkpt lat="8.5771917" lon="-71.2091517"><ele>1482.0</ele><time>2026-04-29T21:46:20.112Z</time></trkpt><trkpt lat="8.5772567" lon="-71.2091917"><ele>1483.5</ele><time>2026-04-29T21:46:21.052Z</time></trkpt><trkpt lat="8.577325" lon="-71.20923"><ele>1485.0</ele><time>2026-04-29T21:46:22.083Z</time></trkpt><trkpt lat="8.57739" lon="-71.209265"><ele>1486.5</ele><time>2026-04-29T21:46:23.072Z</time></trkpt><trkpt lat="8.5774567" lon="-71.2092983"><ele>1488.0</ele><time>2026-04-29T21:46:24.091Z</time></trkpt><trkpt lat="8.5775283" lon="-71.2093283"><ele>1488.0</ele><time>2026-04-29T21:46:25.079Z</time></trkpt><trkpt lat="8.5776017" lon="-71.2093533"><ele>1488.0</ele><time>2026-04-29T21:46:26.127Z</time></trkpt><trkpt lat="8.57768" lon="-71.209375"><ele>1488.0</ele><time>2026-04-29T21:46:27.076Z</time></trkpt><trkpt lat="8.5777583" lon="-71.2093933"><ele>1488.0</ele><time>2026-04-29T21:46:28.078Z</time></trkpt><trkpt lat="8.5778417" lon="-71.20941"><ele>1488.0</ele><time>2026-04-29T21:46:29.077Z</time></trkpt><trkpt lat="8.5779183" lon="-71.2094183"><ele>1488.0</ele><time>2026-04-29T21:46:30.08Z</time></trkpt><trkpt lat="8.57799" lon="-71.2094167"><ele>1486.5714285714287</ele><time>2026-04-29T21:46:31.088Z</time></trkpt><trkpt lat="8.5780633" lon="-71.2094133"><ele>1485.142857142857</ele><time>2026-04-29T21:46:32.134Z</time></trkpt><trkpt lat="8.57814" lon="-71.20941"><ele>1483.7142857142858</ele><time>2026-04-29T21:46:33.077Z</time></trkpt><trkpt lat="8.5782167" lon="-71.209405"><ele>1482.2857142857142</ele><time>2026-04-29T21:46:34.078Z</time></trkpt><trkpt lat="8.5782867" lon="-71.2093967"><ele>1480.857142857143</ele><time>2026-04-29T21:46:35.071Z</time></trkpt><trkpt lat="8.57835" lon="-71.20938"><ele>1479.4285714285716</ele><time>2026-04-29T21:46:36.076Z</time></trkpt><trkpt lat="8.5784183" lon="-71.20937"><ele>1478.0</ele><time>2026-04-29T21:46:37.081Z</time></trkpt><trkpt lat="8.5784917" lon="-71.209365"><ele>1478.0</ele><time>2026-04-29T21:46:38.135Z</time></trkpt><trkpt lat="8.578565" lon="-71.2093583"><ele>1478.0</ele><time>2026-04-29T21:46:39.08Z</time></trkpt><trkpt lat="8.5786433" lon="-71.2093517"><ele>1478.0</ele><time>2026-04-29T21:46:40.083Z</time></trkpt><trkpt lat="8.5787183" lon="-71.2093433"><ele>1478.0</ele><time>2026-04-29T21:46:41.092Z</time></trkpt><trkpt lat="8.5787917" lon="-71.2093417"><ele>1478.0</ele><time>2026-04-29T21:46:42.08Z</time></trkpt><trkpt lat="8.5788617" lon="-71.20933"><ele>1478.0</ele><time>2026-04-29T21:46:43.074Z</time></trkpt><trkpt lat="8.578925" lon="-71.2093217"><ele>1478.0</ele><time>2026-04-29T21:46:44.135Z</time></trkpt><trkpt lat="8.5789883" lon="-71.2093133"><ele>1479.75</ele><time>2026-04-29T21:46:45.089Z</time></trkpt><trkpt lat="8.5791033" lon="-71.209285"><ele>1481.5</ele><time>2026-04-29T21:46:47.067Z</time></trkpt><trkpt lat="8.5792133" lon="-71.209255"><ele>1483.25</ele><time>2026-04-29T21:46:49.087Z</time></trkpt><trkpt lat="8.5793133" lon="-71.209195"><ele>1485.0</ele><time>2026-04-29T21:46:51.102Z</time></trkpt><trkpt lat="8.5793867" lon="-71.2091033"><ele>1485.0</ele><time>2026-04-29T21:46:53.083Z</time></trkpt><trkpt lat="8.5794117" lon="-71.209"><ele>1485.0</ele><time>2026-04-29T21:46:55.065Z</time></trkpt><trkpt lat="8.5794067" lon="-71.2088917"><ele>1485.0</ele><time>2026-04-29T21:46:57.078Z</time></trkpt><trkpt lat="8.579405" lon="-71.2087867"><ele>1485.0</ele><time>2026-04-29T21:46:59.083Z</time></trkpt><trkpt lat="8.5794133" lon="-71.2086817"><ele>1485.0</ele><time>2026-04-29T21:47:01.071Z</time></trkpt><trkpt lat="8.5794367" lon="-71.2085733"><ele>1484.0</ele><time>2026-04-29T21:47:03.078Z</time></trkpt><trkpt lat="8.5794733" lon="-71.2084783"><ele>1483.0</ele><time>2026-04-29T21:47:05.092Z</time></trkpt><trkpt lat="8.5795283" lon="-71.20839"><ele>1482.0</ele><time>2026-04-29T21:47:07.07Z</time></trkpt><trkpt lat="8.5796017" lon="-71.2083"><ele>1481.0</ele><time>2026-04-29T21:47:09.079Z</time></trkpt><trkpt lat="8.5796817" lon="-71.2082233"><ele>1480.0</ele><time>2026-04-29T21:47:11.079Z</time></trkpt><trkpt lat="8.57978" lon="-71.20815"><ele>1476.75</ele><time>2026-04-29T21:47:13.085Z</time></trkpt><trkpt lat="8.5798683" lon="-71.2080783"><ele>1473.5</ele><time>2026-04-29T21:47:15.072Z</time></trkpt><trkpt lat="8.57996" lon="-71.2080083"><ele>1470.25</ele><time>2026-04-29T21:47:17.08Z</time></trkpt><trkpt lat="8.5800433" lon="-71.2079217"><ele>1467.0</ele><time>2026-04-29T21:47:19.096Z</time></trkpt><trkpt lat="8.5801133" lon="-71.2078167"><ele>1467.0</ele><time>2026-04-29T21:47:21.086Z</time></trkpt><trkpt lat="8.5801617" lon="-71.2077017"><ele>1467.0</ele><time>2026-04-29T21:47:23.087Z</time></trkpt><trkpt lat="8.5801783" lon="-71.207575"><ele>1467.0</ele><time>2026-04-29T21:47:25.079Z</time></trkpt><trkpt lat="8.5801633" lon="-71.2074583"><ele>1467.0</ele><time>2026-04-29T21:47:27.079Z</time></trkpt><trkpt lat="8.5801283" lon="-71.207345"><ele>1468.0</ele><time>2026-04-29T21:47:29.08Z</time></trkpt><trkpt lat="8.5800817" lon="-71.207245"><ele>1469.0</ele><time>2026-04-29T21:47:31.083Z</time></trkpt><trkpt lat="8.5800183" lon="-71.2071517"><ele>1470.0</ele><time>2026-04-29T21:47:33.083Z</time></trkpt><trkpt lat="8.5799417" lon="-71.2070517"><ele>1471.0</ele><time>2026-04-29T21:47:35.089Z</time></trkpt><trkpt lat="8.5799" lon="-71.2070033"><ele>1472.0</ele><time>2026-04-29T21:47:36.087Z</time></trkpt><trkpt lat="8.57986" lon="-71.2069517"><ele>1472.0</ele><time>2026-04-29T21:47:37.081Z</time></trkpt><trkpt lat="8.579815" lon="-71.2069017"><ele>1472.0</ele><time>2026-04-29T21:47:38.135Z</time></trkpt><trkpt lat="8.57977" lon="-71.2068567"><ele>1472.0</ele><time>2026-04-29T21:47:39.085Z</time></trkpt><trkpt lat="8.5797233" lon="-71.206805"><ele>1472.0</ele><time>2026-04-29T21:47:40.081Z</time></trkpt><trkpt lat="8.5796767" lon="-71.20675"><ele>1472.0</ele><time>2026-04-29T21:47:41.082Z</time></trkpt><trkpt lat="8.57963" lon="-71.2067017"><ele>1472.0</ele><time>2026-04-29T21:47:42.078Z</time></trkpt><trkpt lat="8.5795833" lon="-71.2066533"><ele>1472.0</ele><time>2026-04-29T21:47:43.074Z</time></trkpt><trkpt lat="8.5795367" lon="-71.2066033"><ele>1471.857142857143</ele><time>2026-04-29T21:47:44.135Z</time></trkpt><trkpt lat="8.5794933" lon="-71.2065533"><ele>1471.7142857142856</ele><time>2026-04-29T21:47:45.082Z</time></trkpt><trkpt lat="8.57945" lon="-71.2065033"><ele>1471.5714285714284</ele><time>2026-04-29T21:47:46.083Z</time></trkpt><trkpt lat="8.5793683" lon="-71.2064183"><ele>1471.4285714285716</ele><time>2026-04-29T21:47:48.081Z</time></trkpt><trkpt lat="8.5793217" lon="-71.206375"><ele>1471.2857142857142</ele><time>2026-04-29T21:47:49.074Z</time></trkpt><trkpt lat="8.5792683" lon="-71.2063333"><ele>1471.142857142857</ele><time>2026-04-29T21:47:50.142Z</time></trkpt><trkpt lat="8.5792133" lon="-71.2062933"><ele>1471.0</ele><time>2026-04-29T21:47:51.079Z</time></trkpt><trkpt lat="8.579155" lon="-71.2062583"><ele>1471.0</ele><time>2026-04-29T21:47:52.08Z</time></trkpt><trkpt lat="8.579095" lon="-71.2062217"><ele>1471.0</ele><time>2026-04-29T21:47:53.076Z</time></trkpt><trkpt lat="8.5790317" lon="-71.2061883"><ele>1471.0</ele><time>2026-04-29T21:47:54.077Z</time></trkpt><trkpt lat="8.5789667" lon="-71.2061583"><ele>1471.0</ele><time>2026-04-29T21:47:55.077Z</time></trkpt><trkpt lat="8.5789033" lon="-71.2061283"><ele>1471.0</ele><time>2026-04-29T21:47:56.145Z</time></trkpt><trkpt lat="8.57884" lon="-71.2061"><ele>1471.0</ele><time>2026-04-29T21:47:57.084Z</time></trkpt><trkpt lat="8.5787767" lon="-71.206075"><ele>1471.0</ele><time>2026-04-29T21:47:58.083Z</time></trkpt><trkpt lat="8.5787133" lon="-71.2060533"><ele>1466.1999999999998</ele><time>2026-04-29T21:47:59.078Z</time></trkpt><trkpt lat="8.57865" lon="-71.2060333"><ele>1461.3999999999999</ele><time>2026-04-29T21:48:00.085Z</time></trkpt><trkpt lat="8.57853" lon="-71.2059983"><ele>1456.6</ele><time>2026-04-29T21:48:02.133Z</time></trkpt><trkpt lat="8.5784683" lon="-71.20598"><ele>1451.8</ele><time>2026-04-29T21:48:03.079Z</time></trkpt><trkpt lat="8.5783517" lon="-71.20594"><ele>1447.0</ele><time>2026-04-29T21:48:05.069Z</time></trkpt><trkpt lat="8.5782517" lon="-71.2058917"><ele>1447.0</ele><time>2026-04-29T21:48:07.091Z</time></trkpt><trkpt lat="8.578165" lon="-71.2058367"><ele>1447.0</ele><time>2026-04-29T21:48:09.073Z</time></trkpt><trkpt lat="8.578085" lon="-71.2057717"><ele>1447.0</ele><time>2026-04-29T21:48:11.073Z</time></trkpt><trkpt lat="8.578025" lon="-71.2056983"><ele>1447.0</ele><time>2026-04-29T21:48:13.044Z</time></trkpt><trkpt lat="8.5779717" lon="-71.2056183"><ele>1447.0</ele><time>2026-04-29T21:48:15.098Z</time></trkpt><trkpt lat="8.5779233" lon="-71.2055333"><ele>1448.1999999999998</ele><time>2026-04-29T21:48:17.076Z</time></trkpt><trkpt lat="8.5778717" lon="-71.2054533"><ele>1449.4</ele><time>2026-04-29T21:48:19.097Z</time></trkpt><trkpt lat="8.57782" lon="-71.2053717"><ele>1450.6</ele><time>2026-04-29T21:48:21.085Z</time></trkpt><trkpt lat="8.5777733" lon="-71.2052883"><ele>1451.8000000000002</ele><time>2026-04-29T21:48:23.079Z</time></trkpt><trkpt lat="8.5777233" lon="-71.2052033"><ele>1453.0</ele><time>2026-04-29T21:48:25.072Z</time></trkpt><trkpt lat="8.57767" lon="-71.2051167"><ele>1449.2</ele><time>2026-04-29T21:48:27.082Z</time></trkpt><trkpt lat="8.5776167" lon="-71.2050333"><ele>1445.4</ele><time>2026-04-29T21:48:29.047Z</time></trkpt><trkpt lat="8.5775683" lon="-71.204945"><ele>1441.6000000000001</ele><time>2026-04-29T21:48:31.081Z</time></trkpt><trkpt lat="8.5775183" lon="-71.20486"><ele>1437.8000000000002</ele><time>2026-04-29T21:48:33.071Z</time></trkpt><trkpt lat="8.5774683" lon="-71.2047733"><ele>1434.0</ele><time>2026-04-29T21:48:35.083Z</time></trkpt><trkpt lat="8.5774183" lon="-71.2046883"><ele>1434.0</ele><time>2026-04-29T21:48:37.082Z</time></trkpt><trkpt lat="8.5773733" lon="-71.2046033"><ele>1434.0</ele><time>2026-04-29T21:48:39.077Z</time></trkpt><trkpt lat="8.5773283" lon="-71.204525"><ele>1434.0</ele><time>2026-04-29T21:48:41.08Z</time></trkpt><trkpt lat="8.5772783" lon="-71.2044517"><ele>1434.0</ele><time>2026-04-29T21:48:43.096Z</time></trkpt><trkpt lat="8.57723" lon="-71.204375"><ele>1434.0</ele><time>2026-04-29T21:48:45.066Z</time></trkpt><trkpt lat="8.5771833" lon="-71.204305"><ele>1434.0</ele><time>2026-04-29T21:48:47.08Z</time></trkpt><trkpt lat="8.5771317" lon="-71.2042483"><ele>1434.0</ele><time>2026-04-29T21:48:49.096Z</time></trkpt><trkpt lat="8.5770733" lon="-71.2041983"><ele>1434.0</ele><time>2026-04-29T21:48:51.08Z</time></trkpt><trkpt lat="8.5770067" lon="-71.2041517"><ele>1434.0</ele><time>2026-04-29T21:48:53.087Z</time></trkpt><trkpt lat="8.5769317" lon="-71.2041067"><ele>1434.0</ele><time>2026-04-29T21:48:55.075Z</time></trkpt><trkpt lat="8.57686" lon="-71.2040583"><ele>1434.0</ele><time>2026-04-29T21:48:57.085Z</time></trkpt><trkpt lat="8.5767883" lon="-71.2040133"><ele>1434.0</ele><time>2026-04-29T21:48:59.05Z</time></trkpt><trkpt lat="8.5767133" lon="-71.20397"><ele>1430.1666666666667</ele><time>2026-04-29T21:49:01.079Z</time></trkpt><trkpt lat="8.5766417" lon="-71.2039217"><ele>1426.3333333333333</ele><time>2026-04-29T21:49:03.075Z</time></trkpt><trkpt lat="8.5765733" lon="-71.2038567"><ele>1422.5</ele><time>2026-04-29T21:49:05.079Z</time></trkpt><trkpt lat="8.5765017" lon="-71.2037967"><ele>1418.6666666666665</ele><time>2026-04-29T21:49:07.092Z</time></trkpt><trkpt lat="8.5764367" lon="-71.2037383"><ele>1414.8333333333333</ele><time>2026-04-29T21:49:09.077Z</time></trkpt><trkpt lat="8.5763817" lon="-71.2036683"><ele>1411.0</ele><time>2026-04-29T21:49:11.078Z</time></trkpt><trkpt lat="8.5763317" lon="-71.2035917"><ele>1411.0</ele><time>2026-04-29T21:49:13.085Z</time></trkpt><trkpt lat="8.576285" lon="-71.2035183"><ele>1411.0</ele><time>2026-04-29T21:49:15.091Z</time></trkpt><trkpt lat="8.5762383" lon="-71.203445"><ele>1411.0</ele><time>2026-04-29T21:49:17.078Z</time></trkpt><trkpt lat="8.576185" lon="-71.2033683"><ele>1411.0</ele><time>2026-04-29T21:49:19.079Z</time></trkpt><trkpt lat="8.57613" lon="-71.20329"><ele>1411.0</ele><time>2026-04-29T21:49:21.076Z</time></trkpt><trkpt lat="8.5760683" lon="-71.2032167"><ele>1408.8</ele><time>2026-04-29T21:49:23.041Z</time></trkpt><trkpt lat="8.5759933" lon="-71.2031633"><ele>1406.6</ele><time>2026-04-29T21:49:25.06Z</time></trkpt><trkpt lat="8.5759133" lon="-71.2031233"><ele>1404.4</ele><time>2026-04-29T21:49:27.08Z</time></trkpt><trkpt lat="8.5758267" lon="-71.2030917"><ele>1402.2</ele><time>2026-04-29T21:49:29.1Z</time></trkpt><trkpt lat="8.57573" lon="-71.20306"><ele>1400.0</ele><time>2026-04-29T21:49:31.081Z</time></trkpt><trkpt lat="8.575635" lon="-71.203025"><ele>1400.0</ele><time>2026-04-29T21:49:33.079Z</time></trkpt><trkpt lat="8.5755433" lon="-71.2029917"><ele>1400.0</ele><time>2026-04-29T21:49:35.074Z</time></trkpt><trkpt lat="8.5754467" lon="-71.2029567"><ele>1400.0</ele><time>2026-04-29T21:49:37.072Z</time></trkpt><trkpt lat="8.57535" lon="-71.2029267"><ele>1400.0</ele><time>2026-04-29T21:49:39.081Z</time></trkpt><trkpt lat="8.57526" lon="-71.2028983"><ele>1400.0</ele><time>2026-04-29T21:49:41.084Z</time></trkpt><trkpt lat="8.57517" lon="-71.20287"><ele>1397.6666666666667</ele><time>2026-04-29T21:49:43.075Z</time></trkpt><trkpt lat="8.5750867" lon="-71.2028367"><ele>1395.3333333333335</ele><time>2026-04-29T21:49:45.081Z</time></trkpt><trkpt lat="8.5750067" lon="-71.20281"><ele>1393.0</ele><time>2026-04-29T21:49:47.074Z</time></trkpt><trkpt lat="8.5749083" lon="-71.202755"><ele>1390.6666666666667</ele><time>2026-04-29T21:49:54.084Z</time></trkpt><trkpt lat="8.5748233" lon="-71.202735"><ele>1388.3333333333333</ele><time>2026-04-29T21:49:57.081Z</time></trkpt><trkpt lat="8.574755" lon="-71.2027167"><ele>1386.0</ele><time>2026-04-29T21:49:59.082Z</time></trkpt><trkpt lat="8.57469" lon="-71.2026917"><ele>1386.0</ele><time>2026-04-29T21:50:01.078Z</time></trkpt><trkpt lat="8.5746167" lon="-71.20267"><ele>1386.0</ele><time>2026-04-29T21:50:03.089Z</time></trkpt><trkpt lat="8.57454" lon="-71.202645"><ele>1386.0</ele><time>2026-04-29T21:50:05.076Z</time></trkpt><trkpt lat="8.5744617" lon="-71.2026183"><ele>1386.0</ele><time>2026-04-29T21:50:07.075Z</time></trkpt><trkpt lat="8.5743817" lon="-71.20259"><ele>1386.0</ele><time>2026-04-29T21:50:09.077Z</time></trkpt><trkpt lat="8.5743" lon="-71.2025667"><ele>1386.0</ele><time>2026-04-29T21:50:11.078Z</time></trkpt><trkpt lat="8.574215" lon="-71.2025433"><ele>1384.5</ele><time>2026-04-29T21:50:13.074Z</time></trkpt><trkpt lat="8.5741283" lon="-71.2025167"><ele>1383.0</ele><time>2026-04-29T21:50:15.088Z</time></trkpt><trkpt lat="8.5740433" lon="-71.202485"><ele>1381.5</ele><time>2026-04-29T21:50:17.103Z</time></trkpt><trkpt lat="8.5739633" lon="-71.202455"><ele>1380.0</ele><time>2026-04-29T21:50:19.08Z</time></trkpt><trkpt lat="8.57388" lon="-71.20243"><ele>1378.5</ele><time>2026-04-29T21:50:21.075Z</time></trkpt><trkpt lat="8.5737983" lon="-71.2024033"><ele>1377.0</ele><time>2026-04-29T21:50:23.076Z</time></trkpt><trkpt lat="8.5737183" lon="-71.2023717"><ele>1375.6</ele><time>2026-04-29T21:50:25.074Z</time></trkpt><trkpt lat="8.5736367" lon="-71.2023367"><ele>1374.1999999999998</ele><time>2026-04-29T21:50:27.07Z</time></trkpt><trkpt lat="8.5735517" lon="-71.2022967"><ele>1372.8</ele><time>2026-04-29T21:50:29.075Z</time></trkpt><trkpt lat="8.573465" lon="-71.2022567"><ele>1371.4</ele><time>2026-04-29T21:50:31.091Z</time></trkpt><trkpt lat="8.5733833" lon="-71.202205"><ele>1370.0</ele><time>2026-04-29T21:50:33.086Z</time></trkpt><trkpt lat="8.5732967" lon="-71.2021617"><ele>1369.6</ele><time>2026-04-29T21:50:35.084Z</time></trkpt><trkpt lat="8.5732067" lon="-71.2021217"><ele>1369.2</ele><time>2026-04-29T21:50:37.075Z</time></trkpt><trkpt lat="8.573115" lon="-71.2020883"><ele>1368.8000000000002</ele><time>2026-04-29T21:50:39.084Z</time></trkpt><trkpt lat="8.5730267" lon="-71.202055"><ele>1368.4</ele><time>2026-04-29T21:50:41.077Z</time></trkpt><trkpt lat="8.57294" lon="-71.2020217"><ele>1368.0</ele><time>2026-04-29T21:50:43.078Z</time></trkpt><trkpt lat="8.5728483" lon="-71.201985"><ele>1366.2</ele><time>2026-04-29T21:50:45.096Z</time></trkpt><trkpt lat="8.5727567" lon="-71.201945"><ele>1364.4</ele><time>2026-04-29T21:50:47.08Z</time></trkpt><trkpt lat="8.5726633" lon="-71.2019067"><ele>1362.6000000000001</ele><time>2026-04-29T21:50:49.088Z</time></trkpt><trkpt lat="8.5725717" lon="-71.2018733"><ele>1360.8000000000002</ele><time>2026-04-29T21:50:51.071Z</time></trkpt><trkpt lat="8.5724817" lon="-71.20184"><ele>1359.0</ele><time>2026-04-29T21:50:53.069Z</time></trkpt><trkpt lat="8.5723933" lon="-71.2018017"><ele>1359.0</ele><time>2026-04-29T21:50:55.078Z</time></trkpt><trkpt lat="8.5723083" lon="-71.2017667"><ele>1359.0</ele><time>2026-04-29T21:50:57.08Z</time></trkpt><trkpt lat="8.572225" lon="-71.2017333"><ele>1359.0</ele><time>2026-04-29T21:50:59.104Z</time></trkpt><trkpt lat="8.5721483" lon="-71.201705"><ele>1359.0</ele><time>2026-04-29T21:51:01.076Z</time></trkpt><trkpt lat="8.572065" lon="-71.201675"><ele>1359.0</ele><time>2026-04-29T21:51:03.092Z</time></trkpt><trkpt lat="8.5719833" lon="-71.2016467"><ele>1359.0</ele><time>2026-04-29T21:51:05.074Z</time></trkpt><trkpt lat="8.571895" lon="-71.2016083"><ele>1357.6</ele><time>2026-04-29T21:51:07.097Z</time></trkpt><trkpt lat="8.5718067" lon="-71.2015683"><ele>1356.2</ele><time>2026-04-29T21:51:09.082Z</time></trkpt><trkpt lat="8.571715" lon="-71.2015333"><ele>1354.8</ele><time>2026-04-29T21:51:11.07Z</time></trkpt><trkpt lat="8.5716233" lon="-71.2015033"><ele>1353.3999999999999</ele><time>2026-04-29T21:51:13.084Z</time></trkpt><trkpt lat="8.5715317" lon="-71.2014817"><ele>1352.0</ele><time>2026-04-29T21:51:15.076Z</time></trkpt><trkpt lat="8.571445" lon="-71.20146"><ele>1351.0</ele><time>2026-04-29T21:51:17.082Z</time></trkpt><trkpt lat="8.5713717" lon="-71.20144"><ele>1350.0</ele><time>2026-04-29T21:51:19.086Z</time></trkpt><trkpt lat="8.571295" lon="-71.2014067"><ele>1349.0</ele><time>2026-04-29T21:51:22.079Z</time></trkpt><trkpt lat="8.5712283" lon="-71.2013783"><ele>1348.0</ele><time>2026-04-29T21:51:24.076Z</time></trkpt><trkpt lat="8.5711533" lon="-71.2013533"><ele>1347.0</ele><time>2026-04-29T21:51:26.135Z</time></trkpt><trkpt lat="8.5710783" lon="-71.20132"><ele>1346.0</ele><time>2026-04-29T21:51:28.08Z</time></trkpt><trkpt lat="8.5710117" lon="-71.201285"><ele>1345.5714285714287</ele><time>2026-04-29T21:51:30.09Z</time></trkpt><trkpt lat="8.5709467" lon="-71.2012667"><ele>1345.142857142857</ele><time>2026-04-29T21:51:32.136Z</time></trkpt><trkpt lat="8.5708767" lon="-71.2012617"><ele>1344.7142857142858</ele><time>2026-04-29T21:51:34.076Z</time></trkpt><trkpt lat="8.5708" lon="-71.2012767"><ele>1344.2857142857142</ele><time>2026-04-29T21:51:36.074Z</time></trkpt><trkpt lat="8.5707417" lon="-71.201325"><ele>1343.857142857143</ele><time>2026-04-29T21:51:38.136Z</time></trkpt><trkpt lat="8.5707217" lon="-71.20139"><ele>1343.4285714285713</ele><time>2026-04-29T21:51:40.091Z</time></trkpt><trkpt lat="8.5707033" lon="-71.2014783"><ele>1343.0</ele><time>2026-04-29T21:51:43.088Z</time></trkpt><trkpt lat="8.570685" lon="-71.2015417"><ele>1343.0</ele><time>2026-04-29T21:51:45.085Z</time></trkpt><trkpt lat="8.5706617" lon="-71.20161"><ele>1343.0</ele><time>2026-04-29T21:51:47.082Z</time></trkpt><trkpt lat="8.5706333" lon="-71.2016717"><ele>1343.0</ele><time>2026-04-29T21:51:49.081Z</time></trkpt><trkpt lat="8.57061" lon="-71.2017333"><ele>1343.0</ele><time>2026-04-29T21:51:51.069Z</time></trkpt><trkpt lat="8.5705867" lon="-71.201795"><ele>1343.0</ele><time>2026-04-29T21:51:53.082Z</time></trkpt><trkpt lat="8.5705483" lon="-71.2018767"><ele>1343.0</ele><time>2026-04-29T21:51:56.137Z</time></trkpt><trkpt lat="8.5705083" lon="-71.20195"><ele>1343.0</ele><time>2026-04-29T21:51:59.067Z</time></trkpt><trkpt lat="8.5704383" lon="-71.2019917"><ele>1343.0</ele><time>2026-04-29T21:52:02.136Z</time></trkpt><trkpt lat="8.570375" lon="-71.2020483"><ele>1343.0</ele><time>2026-04-29T21:52:08.146Z</time></trkpt><trkpt lat="8.570355" lon="-71.2021167"><ele>1335.0</ele><time>2026-04-29T21:52:13.086Z</time></trkpt><trkpt lat="8.5703267" lon="-71.20218"><ele>1335.0</ele><time>2026-04-29T21:52:18.067Z</time></trkpt><trkpt lat="8.5702483" lon="-71.2022467"><ele>1335.0</ele><time>2026-04-29T21:54:48.068Z</time></trkpt></trkseg></trk></gpx>